<?xml version='1.0' encoding='UTF-8'?><gpx version="1.1" creator="JPX - https://github.com/jenetics/jpx" xmlns="http://www.topografix.com/GPX/1/1"><trk><trkseg><trkpt lat="45.535402853297185" lon="8.747460569586835"><ele>160.5</ele><time>2026-04-26T13:32:59Z</time></trkpt><trkpt lat="45.53531111969751" lon="8.7473794761403"><ele>160.0</ele><time>2026-04-26T13:33:01Z</time></trkpt><trkpt lat="45.53525013707386" lon="8.747325236229022"><ele>159.5</ele><time>2026-04-26T13:33:02Z</time></trkpt><trkpt lat="45.53518273206488" lon="8.747262204039517"><ele>159.0</ele><time>2026-04-26T13:33:03Z</time></trkpt><trkpt lat="45.53510795329227" lon="8.747192638650107"><ele>158.5</ele><time>2026-04-26T13:33:04Z</time></trkpt><trkpt lat="45.53503158154653" lon="8.747128010596878"><ele>158.0</ele><time>2026-04-26T13:33:05Z</time></trkpt><trkpt lat="45.53496166067686" lon="8.747071505261632"><ele>158.0</ele><time>2026-04-26T13:33:06Z</time></trkpt><trkpt lat="45.53488760347987" lon="8.747007344376426"><ele>158.0</ele><time>2026-04-26T13:33:07Z</time></trkpt><trkpt lat="45.53480006072837" lon="8.746933751211756"><ele>158.0</ele><time>2026-04-26T13:33:08Z</time></trkpt><trkpt lat="45.53471786800982" lon="8.746840851148168"><ele>158.0</ele><time>2026-04-26T13:33:09Z</time></trkpt><trkpt lat="45.53463009209244" lon="8.746766294019622"><ele>158.0</ele><time>2026-04-26T13:33:10Z</time></trkpt><trkpt lat="45.5345336313376" lon="8.746708372977894"><ele>157.6</ele><time>2026-04-26T13:33:11Z</time></trkpt><trkpt lat="45.534440711146146" lon="8.746626497969912"><ele>157.20000000000002</ele><time>2026-04-26T13:33:12Z</time></trkpt><trkpt lat="45.53434631973487" lon="8.746549857884501"><ele>156.8</ele><time>2026-04-26T13:33:13Z</time></trkpt><trkpt lat="45.534249296946804" lon="8.746462278702777"><ele>156.4</ele><time>2026-04-26T13:33:14Z</time></trkpt><trkpt lat="45.53415298288232" lon="8.746372215410194"><ele>156.0</ele><time>2026-04-26T13:33:15Z</time></trkpt><trkpt lat="45.53407096089549" lon="8.746287642130651"><ele>156.0</ele><time>2026-04-26T13:33:16Z</time></trkpt><trkpt lat="45.5339955515415" lon="8.746203870606873"><ele>156.0</ele><time>2026-04-26T13:33:17Z</time></trkpt><trkpt lat="45.53392093897357" lon="8.746116904021985"><ele>156.0</ele><time>2026-04-26T13:33:18Z</time></trkpt><trkpt lat="45.533848210770444" lon="8.7460325281015"><ele>156.0</ele><time>2026-04-26T13:33:19Z</time></trkpt><trkpt lat="45.53376922650697" lon="8.745947992183712"><ele>156.0</ele><time>2026-04-26T13:33:20Z</time></trkpt><trkpt lat="45.533686647427665" lon="8.745864101941741"><ele>156.5</ele><time>2026-04-26T13:33:21Z</time></trkpt><trkpt lat="45.53359633203368" lon="8.745777701571848"><ele>157.0</ele><time>2026-04-26T13:33:22Z</time></trkpt><trkpt lat="45.53349992339738" lon="8.745694658480955"><ele>157.5</ele><time>2026-04-26T13:33:23Z</time></trkpt><trkpt lat="45.53340309307863" lon="8.745612575071787"><ele>158.0</ele><time>2026-04-26T13:33:24Z</time></trkpt><trkpt lat="45.53330008213257" lon="8.745524766760376"><ele>158.0</ele><time>2026-04-26T13:33:25Z</time></trkpt><trkpt lat="45.53319733668343" lon="8.745438217065887"><ele>158.0</ele><time>2026-04-26T13:33:26Z</time></trkpt><trkpt lat="45.53309333936874" lon="8.745349462176558"><ele>158.0</ele><time>2026-04-26T13:33:27Z</time></trkpt><trkpt lat="45.53298611959183" lon="8.745256691189688"><ele>158.0</ele><time>2026-04-26T13:33:28Z</time></trkpt><trkpt lat="45.53288222520095" lon="8.745165236780334"><ele>158.0</ele><time>2026-04-26T13:33:29Z</time></trkpt><trkpt lat="45.532781251678536" lon="8.745066412922036"><ele>158.0</ele><time>2026-04-26T13:33:30Z</time></trkpt><trkpt lat="45.532690300921445" lon="8.744946158796484"><ele>158.0</ele><time>2026-04-26T13:33:31Z</time></trkpt><trkpt lat="45.53262576526174" lon="8.744794976883634"><ele>158.0</ele><time>2026-04-26T13:33:32Z</time></trkpt><trkpt lat="45.53255536098028" lon="8.74464540395705"><ele>158.0</ele><time>2026-04-26T13:33:33Z</time></trkpt><trkpt lat="45.532470725522224" lon="8.7444973020497"><ele>158.0</ele><time>2026-04-26T13:33:34Z</time></trkpt><trkpt lat="45.53240288076235" lon="8.744332022421126"><ele>158.0</ele><time>2026-04-26T13:33:35Z</time></trkpt><trkpt lat="45.53232928631356" lon="8.744167544605492"><ele>158.0</ele><time>2026-04-26T13:33:36Z</time></trkpt><trkpt lat="45.53225095741637" lon="8.74400262195851"><ele>157.25</ele><time>2026-04-26T13:33:37Z</time></trkpt><trkpt lat="45.532179237967675" lon="8.743833230728521"><ele>156.5</ele><time>2026-04-26T13:33:38Z</time></trkpt><trkpt lat="45.5321049351198" lon="8.743677611874515"><ele>155.75</ele><time>2026-04-26T13:33:39Z</time></trkpt><trkpt lat="45.532034494687295" lon="8.743523432377534"><ele>155.0</ele><time>2026-04-26T13:33:40Z</time></trkpt><trkpt lat="45.53196462345936" lon="8.743369579342025"><ele>155.0</ele><time>2026-04-26T13:33:41Z</time></trkpt><trkpt lat="45.53189416535819" lon="8.74321538710881"><ele>155.0</ele><time>2026-04-26T13:33:42Z</time></trkpt><trkpt lat="45.53182782161287" lon="8.743066853261059"><ele>155.0</ele><time>2026-04-26T13:33:43Z</time></trkpt><trkpt lat="45.531764144295956" lon="8.742921379819942"><ele>155.0</ele><time>2026-04-26T13:33:44Z</time></trkpt><trkpt lat="45.53170011962763" lon="8.7427773104397"><ele>155.8</ele><time>2026-04-26T13:33:45Z</time></trkpt><trkpt lat="45.53163666150237" lon="8.742644481101259"><ele>156.6</ele><time>2026-04-26T13:33:46Z</time></trkpt><trkpt lat="45.531580793589086" lon="8.742525084307397"><ele>157.4</ele><time>2026-04-26T13:33:47Z</time></trkpt><trkpt lat="45.53153020631688" lon="8.74241234870356"><ele>158.2</ele><time>2026-04-26T13:33:48Z</time></trkpt><trkpt lat="45.53149073902737" lon="8.742302599688845"><ele>159.0</ele><time>2026-04-26T13:33:49Z</time></trkpt><trkpt lat="45.531444685605315" lon="8.742204940858075"><ele>159.0</ele><time>2026-04-26T13:33:50Z</time></trkpt><trkpt lat="45.53140529476434" lon="8.742116205989875"><ele>159.0</ele><time>2026-04-26T13:33:51Z</time></trkpt><trkpt lat="45.531366837249124" lon="8.742029491719089"><ele>159.0</ele><time>2026-04-26T13:33:52Z</time></trkpt><trkpt lat="45.53132349679032" lon="8.74193641864669"><ele>159.0</ele><time>2026-04-26T13:33:53Z</time></trkpt><trkpt lat="45.53127527150171" lon="8.741825869509547"><ele>159.0</ele><time>2026-04-26T13:33:54Z</time></trkpt><trkpt lat="45.5312249447147" lon="8.741715071679685"><ele>159.0</ele><time>2026-04-26T13:33:55Z</time></trkpt><trkpt lat="45.53117638156222" lon="8.741597179959358"><ele>157.8</ele><time>2026-04-26T13:33:56Z</time></trkpt><trkpt lat="45.53111516058799" lon="8.741475583293479"><ele>156.60000000000002</ele><time>2026-04-26T13:33:57Z</time></trkpt><trkpt lat="45.531057606069744" lon="8.741344609287507"><ele>155.4</ele><time>2026-04-26T13:33:58Z</time></trkpt><trkpt lat="45.53099782640075" lon="8.741232597926004"><ele>154.20000000000002</ele><time>2026-04-26T13:33:59Z</time></trkpt><trkpt lat="45.530942449581595" lon="8.741119072378606"><ele>153.0</ele><time>2026-04-26T13:34:00Z</time></trkpt><trkpt lat="45.53088381517092" lon="8.740995086183013"><ele>152.6</ele><time>2026-04-26T13:34:01Z</time></trkpt><trkpt lat="45.53083386084028" lon="8.74084457322832"><ele>152.20000000000002</ele><time>2026-04-26T13:34:02Z</time></trkpt><trkpt lat="45.53075926383633" lon="8.740719334880524"><ele>151.8</ele><time>2026-04-26T13:34:03Z</time></trkpt><trkpt lat="45.53070677825341" lon="8.740588360154037"><ele>151.4</ele><time>2026-04-26T13:34:04Z</time></trkpt><trkpt lat="45.53065328161351" lon="8.740472657130027"><ele>151.0</ele><time>2026-04-26T13:34:05Z</time></trkpt><trkpt lat="45.53060079483722" lon="8.74035770475655"><ele>151.0</ele><time>2026-04-26T13:34:06Z</time></trkpt><trkpt lat="45.530554530865274" lon="8.740238745574436"><ele>151.0</ele><time>2026-04-26T13:34:07Z</time></trkpt><trkpt lat="45.53048205957894" lon="8.74014130088613"><ele>151.0</ele><time>2026-04-26T13:34:08Z</time></trkpt><trkpt lat="45.53041882691468" lon="8.740033735154293"><ele>151.0</ele><time>2026-04-26T13:34:09Z</time></trkpt><trkpt lat="45.53035705964083" lon="8.739943115327673"><ele>151.0</ele><time>2026-04-26T13:34:10Z</time></trkpt><trkpt lat="45.53028565854725" lon="8.739847500279488"><ele>150.5</ele><time>2026-04-26T13:34:11Z</time></trkpt><trkpt lat="45.53021100902359" lon="8.739728786389934"><ele>150.0</ele><time>2026-04-26T13:34:12Z</time></trkpt><trkpt lat="45.53013233764961" lon="8.739594898927288"><ele>149.5</ele><time>2026-04-26T13:34:13Z</time></trkpt><trkpt lat="45.5300534775806" lon="8.739450096930852"><ele>149.0</ele><time>2026-04-26T13:34:14Z</time></trkpt><trkpt lat="45.52998490721251" lon="8.739292086464127"><ele>149.0</ele><time>2026-04-26T13:34:15Z</time></trkpt><trkpt lat="45.529897347440276" lon="8.739166119370088"><ele>149.0</ele><time>2026-04-26T13:34:16Z</time></trkpt><trkpt lat="45.52981590338977" lon="8.739017119802442"><ele>149.0</ele><time>2026-04-26T13:34:17Z</time></trkpt><trkpt lat="45.52974018180896" lon="8.738869450860602"><ele>149.0</ele><time>2026-04-26T13:34:18Z</time></trkpt><trkpt lat="45.529662970707314" lon="8.738727720803734"><ele>149.0</ele><time>2026-04-26T13:34:19Z</time></trkpt><trkpt lat="45.52958906072328" lon="8.738588345790108"><ele>149.0</ele><time>2026-04-26T13:34:20Z</time></trkpt><trkpt lat="45.52951400012487" lon="8.738452089834931"><ele>149.0</ele><time>2026-04-26T13:34:21Z</time></trkpt><trkpt lat="45.52943529720659" lon="8.738316738507576"><ele>149.0</ele><time>2026-04-26T13:34:22Z</time></trkpt><trkpt lat="45.529357806690356" lon="8.738186978002755"><ele>149.16666666666666</ele><time>2026-04-26T13:34:23Z</time></trkpt><trkpt lat="45.529290259295095" lon="8.738067913952559"><ele>149.33333333333331</ele><time>2026-04-26T13:34:24Z</time></trkpt><trkpt lat="45.52924031123972" lon="8.737965752116168"><ele>149.5</ele><time>2026-04-26T13:34:25Z</time></trkpt><trkpt lat="45.52920198282004" lon="8.737881558371392"><ele>149.66666666666666</ele><time>2026-04-26T13:34:26Z</time></trkpt><trkpt lat="45.52916231761122" lon="8.737795209226883"><ele>149.83333333333334</ele><time>2026-04-26T13:34:27Z</time></trkpt><trkpt lat="45.52911887791924" lon="8.737700459423676"><ele>150.0</ele><time>2026-04-26T13:34:28Z</time></trkpt><trkpt lat="45.52907114692112" lon="8.737587205817828"><ele>150.0</ele><time>2026-04-26T13:34:29Z</time></trkpt><trkpt lat="45.52902331610654" lon="8.737458895410134"><ele>150.0</ele><time>2026-04-26T13:34:30Z</time></trkpt><trkpt lat="45.52897367865344" lon="8.737309466737033"><ele>150.0</ele><time>2026-04-26T13:34:31Z</time></trkpt><trkpt lat="45.528921735708224" lon="8.737165891671506"><ele>150.0</ele><time>2026-04-26T13:34:32Z</time></trkpt><trkpt lat="45.52887765363242" lon="8.737003575184332"><ele>149.75</ele><time>2026-04-26T13:34:33Z</time></trkpt><trkpt lat="45.52883643388787" lon="8.736831547910112"><ele>149.5</ele><time>2026-04-26T13:34:34Z</time></trkpt><trkpt lat="45.52879823211099" lon="8.736658891620568"><ele>149.25</ele><time>2026-04-26T13:34:35Z</time></trkpt><trkpt lat="45.528758093281404" lon="8.736493046588492"><ele>149.0</ele><time>2026-04-26T13:34:36Z</time></trkpt><trkpt lat="45.52872298336618" lon="8.736335360607322"><ele>149.0</ele><time>2026-04-26T13:34:37Z</time></trkpt><trkpt lat="45.52869158273234" lon="8.73619465514722"><ele>149.0</ele><time>2026-04-26T13:34:38Z</time></trkpt><trkpt lat="45.52866451623918" lon="8.736056336328568"><ele>149.0</ele><time>2026-04-26T13:34:39Z</time></trkpt><trkpt lat="45.52862627233373" lon="8.735910391546005"><ele>149.0</ele><time>2026-04-26T13:34:40Z</time></trkpt><trkpt lat="45.528601863978125" lon="8.735770118497003"><ele>149.0</ele><time>2026-04-26T13:34:41Z</time></trkpt><trkpt lat="45.52858749350991" lon="8.73564203291058"><ele>149.2</ele><time>2026-04-26T13:34:42Z</time></trkpt><trkpt lat="45.52858867302909" lon="8.73550301090088"><ele>149.4</ele><time>2026-04-26T13:34:43Z</time></trkpt><trkpt lat="45.52855727540976" lon="8.735352446091511"><ele>149.6</ele><time>2026-04-26T13:34:44Z</time></trkpt><trkpt lat="45.52854766141889" lon="8.73517926726317"><ele>149.8</ele><time>2026-04-26T13:34:45Z</time></trkpt><trkpt lat="45.52853961000898" lon="8.735020980097547"><ele>150.0</ele><time>2026-04-26T13:34:46Z</time></trkpt><trkpt lat="45.528531674579504" lon="8.734885840853552"><ele>149.7142857142857</ele><time>2026-04-26T13:34:47Z</time></trkpt><trkpt lat="45.5285204704448" lon="8.734774147225247"><ele>149.42857142857142</ele><time>2026-04-26T13:34:48Z</time></trkpt><trkpt lat="45.52851400098035" lon="8.734674957512171"><ele>149.14285714285714</ele><time>2026-04-26T13:34:49Z</time></trkpt><trkpt lat="45.52850259469371" lon="8.734581108359057"><ele>148.85714285714283</ele><time>2026-04-26T13:34:50Z</time></trkpt><trkpt lat="45.52850408151226" lon="8.734485612339084"><ele>148.57142857142856</ele><time>2026-04-26T13:34:51Z</time></trkpt><trkpt lat="45.52849858699617" lon="8.734376633367184"><ele>148.28571428571428</ele><time>2026-04-26T13:34:52Z</time></trkpt><trkpt lat="45.52849715528118" lon="8.734251090738175"><ele>148.0</ele><time>2026-04-26T13:34:53Z</time></trkpt><trkpt lat="45.52849007335411" lon="8.73411573455552"><ele>147.33333333333334</ele><time>2026-04-26T13:34:54Z</time></trkpt><trkpt lat="45.528481676430296" lon="8.733974632231618"><ele>146.66666666666669</ele><time>2026-04-26T13:34:55Z</time></trkpt><trkpt lat="45.52847291822775" lon="8.733856517115946"><ele>146.0</ele><time>2026-04-26T13:34:56Z</time></trkpt><trkpt lat="45.52846728027465" lon="8.733754375494126"><ele>145.33333333333334</ele><time>2026-04-26T13:34:57Z</time></trkpt><trkpt lat="45.52846077610628" lon="8.73365091592403"><ele>144.66666666666666</ele><time>2026-04-26T13:34:58Z</time></trkpt><trkpt lat="45.52845404509274" lon="8.733549524770998"><ele>144.0</ele><time>2026-04-26T13:34:59Z</time></trkpt><trkpt lat="45.5284365612191" lon="8.7334234098352"><ele>143.5</ele><time>2026-04-26T13:35:00Z</time></trkpt><trkpt lat="45.52841644376617" lon="8.73330451086492"><ele>143.0</ele><time>2026-04-26T13:35:01Z</time></trkpt><trkpt lat="45.528374205255126" lon="8.733191609678245"><ele>142.5</ele><time>2026-04-26T13:35:02Z</time></trkpt><trkpt lat="45.52831728353517" lon="8.733093612102513"><ele>142.0</ele><time>2026-04-26T13:35:03Z</time></trkpt><trkpt lat="45.528259851289924" lon="8.732998092187641"><ele>141.5</ele><time>2026-04-26T13:35:04Z</time></trkpt><trkpt lat="45.52819982606987" lon="8.73290284064359"><ele>141.0</ele><time>2026-04-26T13:35:05Z</time></trkpt><trkpt lat="45.52813744000097" lon="8.732800577302639"><ele>140.8</ele><time>2026-04-26T13:35:06Z</time></trkpt><trkpt lat="45.52807546489096" lon="8.732698700630067"><ele>140.6</ele><time>2026-04-26T13:35:07Z</time></trkpt><trkpt lat="45.5280100339518" lon="8.732596952753674"><ele>140.4</ele><time>2026-04-26T13:35:08Z</time></trkpt><trkpt lat="45.527936525708434" lon="8.732498234665934"><ele>140.2</ele><time>2026-04-26T13:35:09Z</time></trkpt><trkpt lat="45.5278570971891" lon="8.732398244368499"><ele>140.0</ele><time>2026-04-26T13:35:10Z</time></trkpt><trkpt lat="45.52777892085956" lon="8.732307322834572"><ele>140.33333333333331</ele><time>2026-04-26T13:35:11Z</time></trkpt><trkpt lat="45.52770397610624" lon="8.73223329487127"><ele>140.66666666666666</ele><time>2026-04-26T13:35:12Z</time></trkpt><trkpt lat="45.52764293983036" lon="8.732176078172126"><ele>141.0</ele><time>2026-04-26T13:35:13Z</time></trkpt><trkpt lat="45.52755069831497" lon="8.73210226876398"><ele>141.33333333333334</ele><time>2026-04-26T13:35:15Z</time></trkpt><trkpt lat="45.5274597046746" lon="8.732038707759916"><ele>141.66666666666669</ele><time>2026-04-26T13:35:17Z</time></trkpt><trkpt lat="45.52740421843081" lon="8.731996203752523"><ele>142.0</ele><time>2026-04-26T13:35:18Z</time></trkpt><trkpt lat="45.52733965423443" lon="8.731940014463927"><ele>141.79999999999998</ele><time>2026-04-26T13:35:19Z</time></trkpt><trkpt lat="45.52727209594744" lon="8.73187201980332"><ele>141.6</ele><time>2026-04-26T13:35:20Z</time></trkpt><trkpt lat="45.527198574824475" lon="8.731789255515388"><ele>141.39999999999998</ele><time>2026-04-26T13:35:21Z</time></trkpt><trkpt lat="45.52712941741934" lon="8.731696633277481"><ele>141.2</ele><time>2026-04-26T13:35:22Z</time></trkpt><trkpt lat="45.52705979833626" lon="8.731597745627171"><ele>141.0</ele><time>2026-04-26T13:35:23Z</time></trkpt><trkpt lat="45.52698660067676" lon="8.73149913894511"><ele>140.6</ele><time>2026-04-26T13:35:24Z</time></trkpt><trkpt lat="45.526911943656096" lon="8.73139678378301"><ele>140.2</ele><time>2026-04-26T13:35:25Z</time></trkpt><trkpt lat="45.5268407262194" lon="8.731289561533853"><ele>139.8</ele><time>2026-04-26T13:35:26Z</time></trkpt><trkpt lat="45.52676651600997" lon="8.731181221470221"><ele>139.4</ele><time>2026-04-26T13:35:27Z</time></trkpt><trkpt lat="45.52669048961922" lon="8.731070545727931"><ele>139.0</ele><time>2026-04-26T13:35:28Z</time></trkpt><trkpt lat="45.526616183221925" lon="8.730961068334866"><ele>138.4</ele><time>2026-04-26T13:35:29Z</time></trkpt><trkpt lat="45.52654438831315" lon="8.730855235729198"><ele>137.8</ele><time>2026-04-26T13:35:30Z</time></trkpt><trkpt lat="45.526473275498226" lon="8.73075186960311"><ele>137.2</ele><time>2026-04-26T13:35:31Z</time></trkpt><trkpt lat="45.526403069453636" lon="8.730648585136693"><ele>136.6</ele><time>2026-04-26T13:35:32Z</time></trkpt><trkpt lat="45.5263333687656" lon="8.730536723499108"><ele>136.0</ele><time>2026-04-26T13:35:33Z</time></trkpt><trkpt lat="45.52626418892856" lon="8.730425043692268"><ele>135.75</ele><time>2026-04-26T13:35:34Z</time></trkpt><trkpt lat="45.52619304993301" lon="8.730303800369096"><ele>135.5</ele><time>2026-04-26T13:35:35Z</time></trkpt><trkpt lat="45.526115533071234" lon="8.730165443234249"><ele>135.25</ele><time>2026-04-26T13:35:36Z</time></trkpt><trkpt lat="45.52602669063216" lon="8.730010337667096"><ele>135.0</ele><time>2026-04-26T13:35:37Z</time></trkpt><trkpt lat="45.525949853354376" lon="8.729855999511265"><ele>134.75</ele><time>2026-04-26T13:35:38Z</time></trkpt><trkpt lat="45.52587000930677" lon="8.729703419361092"><ele>134.5</ele><time>2026-04-26T13:35:39Z</time></trkpt><trkpt lat="45.5257924727994" lon="8.729550263849672"><ele>134.25</ele><time>2026-04-26T13:35:40Z</time></trkpt><trkpt lat="45.52571084439918" lon="8.729394543715395"><ele>134.0</ele><time>2026-04-26T13:35:41Z</time></trkpt><trkpt lat="45.525636172069426" lon="8.729239777027251"><ele>134.0</ele><time>2026-04-26T13:35:42Z</time></trkpt><trkpt lat="45.52555956356238" lon="8.729090920455773"><ele>134.0</ele><time>2026-04-26T13:35:43Z</time></trkpt><trkpt lat="45.52548334072987" lon="8.72894816292454"><ele>134.0</ele><time>2026-04-26T13:35:44Z</time></trkpt><trkpt lat="45.5254278970763" lon="8.728798336739453"><ele>134.0</ele><time>2026-04-26T13:35:45Z</time></trkpt><trkpt lat="45.525363493117645" lon="8.728669339511933"><ele>134.33333333333331</ele><time>2026-04-26T13:35:46Z</time></trkpt><trkpt lat="45.5253061201185" lon="8.728560327948301"><ele>134.66666666666666</ele><time>2026-04-26T13:35:47Z</time></trkpt><trkpt lat="45.52523420961807" lon="8.728472372260773"><ele>135.0</ele><time>2026-04-26T13:35:48Z</time></trkpt><trkpt lat="45.525180058275744" lon="8.728373549092744"><ele>135.33333333333334</ele><time>2026-04-26T13:35:49Z</time></trkpt><trkpt lat="45.525128345681715" lon="8.728282296554006"><ele>135.66666666666669</ele><time>2026-04-26T13:35:50Z</time></trkpt><trkpt lat="45.52509010312644" lon="8.728203916462778"><ele>136.0</ele><time>2026-04-26T13:35:51Z</time></trkpt><trkpt lat="45.525069239500546" lon="8.728118052446192"><ele>136.0</ele><time>2026-04-26T13:35:53Z</time></trkpt><trkpt lat="45.52504337238315" lon="8.72801270099927"><ele>136.0</ele><time>2026-04-26T13:35:57Z</time></trkpt><trkpt lat="45.525022131778485" lon="8.72792477417871"><ele>136.0</ele><time>2026-04-26T13:36:02Z</time></trkpt><trkpt lat="45.52488774712661" lon="8.727831771093093"><ele>136.0</ele><time>2026-04-26T13:36:04Z</time></trkpt><trkpt lat="45.524825163702786" lon="8.727819072471789"><ele>136.0</ele><time>2026-04-26T13:36:05Z</time></trkpt><trkpt lat="45.524748349682575" lon="8.727810142912876"><ele>136.0</ele><time>2026-04-26T13:36:06Z</time></trkpt><trkpt lat="45.52466625443083" lon="8.727789375677368"><ele>136.0</ele><time>2026-04-26T13:36:07Z</time></trkpt><trkpt lat="45.52457135767736" lon="8.727781815750962"><ele>136.0</ele><time>2026-04-26T13:36:08Z</time></trkpt><trkpt lat="45.52447256390448" lon="8.727757750699705"><ele>136.0</ele><time>2026-04-26T13:36:09Z</time></trkpt><trkpt lat="45.524379227457885" lon="8.727738955981662"><ele>136.0</ele><time>2026-04-26T13:36:10Z</time></trkpt><trkpt lat="45.524266709160045" lon="8.727721090146353"><ele>136.0</ele><time>2026-04-26T13:36:11Z</time></trkpt><trkpt lat="45.524140061544934" lon="8.727703391279805"><ele>136.0</ele><time>2026-04-26T13:36:12Z</time></trkpt><trkpt lat="45.52399673085898" lon="8.727682111886288"><ele>136.0</ele><time>2026-04-26T13:36:13Z</time></trkpt><trkpt lat="45.523840059859104" lon="8.727656575016217"><ele>136.0</ele><time>2026-04-26T13:36:14Z</time></trkpt><trkpt lat="45.52368077134818" lon="8.727629589646499"><ele>135.66666666666669</ele><time>2026-04-26T13:36:15Z</time></trkpt><trkpt lat="45.523509614713745" lon="8.727602590490196"><ele>135.33333333333334</ele><time>2026-04-26T13:36:16Z</time></trkpt><trkpt lat="45.52333061442449" lon="8.727574447397796"><ele>135.0</ele><time>2026-04-26T13:36:17Z</time></trkpt><trkpt lat="45.523133446539795" lon="8.727545263579444"><ele>135.0</ele><time>2026-04-26T13:36:18Z</time></trkpt><trkpt lat="45.5229189425716" lon="8.727511107836314"><ele>135.0</ele><time>2026-04-26T13:36:19Z</time></trkpt><trkpt lat="45.522700717224474" lon="8.727473153360647"><ele>135.0</ele><time>2026-04-26T13:36:20Z</time></trkpt><trkpt lat="45.52248202642027" lon="8.727435337181216"><ele>135.0</ele><time>2026-04-26T13:36:21Z</time></trkpt><trkpt lat="45.52226960902753" lon="8.727400597666199"><ele>135.0</ele><time>2026-04-26T13:36:22Z</time></trkpt><trkpt lat="45.52206091213781" lon="8.72736787787668"><ele>135.0</ele><time>2026-04-26T13:36:23Z</time></trkpt><trkpt lat="45.5218657822199" lon="8.727335316589365"><ele>135.0</ele><time>2026-04-26T13:36:24Z</time></trkpt><trkpt lat="45.52167144619759" lon="8.727300982555986"><ele>135.0</ele><time>2026-04-26T13:36:25Z</time></trkpt><trkpt lat="45.5214801797461" lon="8.727268565884454"><ele>135.0</ele><time>2026-04-26T13:36:26Z</time></trkpt><trkpt lat="45.52129183464478" lon="8.727237573720684"><ele>134.66666666666666</ele><time>2026-04-26T13:36:27Z</time></trkpt><trkpt lat="45.52110420024733" lon="8.727204099602844"><ele>134.33333333333331</ele><time>2026-04-26T13:36:28Z</time></trkpt><trkpt lat="45.52090261016652" lon="8.727169306840082"><ele>134.0</ele><time>2026-04-26T13:36:29Z</time></trkpt><trkpt lat="45.52073749916693" lon="8.727142896786209"><ele>134.0</ele><time>2026-04-26T13:36:30Z</time></trkpt><trkpt lat="45.52056167588392" lon="8.727114939776179"><ele>134.0</ele><time>2026-04-26T13:36:31Z</time></trkpt><trkpt lat="45.520386433342104" lon="8.727086350403338"><ele>134.0</ele><time>2026-04-26T13:36:32Z</time></trkpt><trkpt lat="45.52021291753422" lon="8.727060560483928"><ele>134.0</ele><time>2026-04-26T13:36:33Z</time></trkpt><trkpt lat="45.52005018161138" lon="8.727035118922846"><ele>134.0</ele><time>2026-04-26T13:36:34Z</time></trkpt><trkpt lat="45.51990067665968" lon="8.727011848019252"><ele>134.0</ele><time>2026-04-26T13:36:35Z</time></trkpt><trkpt lat="45.51975515701551" lon="8.726987506987472"><ele>134.0</ele><time>2026-04-26T13:36:36Z</time></trkpt><trkpt lat="45.5196113885683" lon="8.726965070698506"><ele>134.0</ele><time>2026-04-26T13:36:37Z</time></trkpt><trkpt lat="45.51946857711188" lon="8.726944478661094"><ele>134.0</ele><time>2026-04-26T13:36:38Z</time></trkpt><trkpt lat="45.51932412839828" lon="8.726921163730852"><ele>134.0</ele><time>2026-04-26T13:36:39Z</time></trkpt><trkpt lat="45.51918170644423" lon="8.726894648400984"><ele>133.66666666666666</ele><time>2026-04-26T13:36:40Z</time></trkpt><trkpt lat="45.519032744541796" lon="8.726868177843109"><ele>133.33333333333334</ele><time>2026-04-26T13:36:41Z</time></trkpt><trkpt lat="45.518876888579946" lon="8.726842589140354"><ele>133.0</ele><time>2026-04-26T13:36:42Z</time></trkpt><trkpt lat="45.51872141129572" lon="8.726818244737826"><ele>133.66666666666669</ele><time>2026-04-26T13:36:43Z</time></trkpt><trkpt lat="45.518564424998665" lon="8.726792313198162"><ele>134.33333333333334</ele><time>2026-04-26T13:36:44Z</time></trkpt><trkpt lat="45.518405960420424" lon="8.726767279030353"><ele>135.0</ele><time>2026-04-26T13:36:45Z</time></trkpt><trkpt lat="45.51824924148699" lon="8.726739653249608"><ele>135.0</ele><time>2026-04-26T13:36:46Z</time></trkpt><trkpt lat="45.518092167931236" lon="8.726714928910454"><ele>135.0</ele><time>2026-04-26T13:36:47Z</time></trkpt><trkpt lat="45.517935008163754" lon="8.726691862987117"><ele>135.0</ele><time>2026-04-26T13:36:48Z</time></trkpt><trkpt lat="45.517788012798086" lon="8.726668710066319"><ele>135.0</ele><time>2026-04-26T13:36:49Z</time></trkpt><trkpt lat="45.517641464624276" lon="8.726643821236438"><ele>135.0</ele><time>2026-04-26T13:36:50Z</time></trkpt><trkpt lat="45.51749975276684" lon="8.726618074813022"><ele>135.0</ele><time>2026-04-26T13:36:51Z</time></trkpt><trkpt lat="45.51735474913057" lon="8.726591486845718"><ele>135.0</ele><time>2026-04-26T13:36:52Z</time></trkpt><trkpt lat="45.517212927665376" lon="8.726569089496946"><ele>135.0</ele><time>2026-04-26T13:36:53Z</time></trkpt><trkpt lat="45.51707415014502" lon="8.726546874925537"><ele>135.0</ele><time>2026-04-26T13:36:54Z</time></trkpt><trkpt lat="45.51693658250642" lon="8.726524572685275"><ele>135.0</ele><time>2026-04-26T13:36:55Z</time></trkpt><trkpt lat="45.5167978828425" lon="8.72650335700138"><ele>135.0</ele><time>2026-04-26T13:36:56Z</time></trkpt><trkpt lat="45.51665524213441" lon="8.726479176209232"><ele>135.25</ele><time>2026-04-26T13:36:57Z</time></trkpt><trkpt lat="45.51651150078609" lon="8.726458112862465"><ele>135.5</ele><time>2026-04-26T13:36:58Z</time></trkpt><trkpt lat="45.51636889550077" lon="8.726434434740579"><ele>135.75</ele><time>2026-04-26T13:36:59Z</time></trkpt><trkpt lat="45.51622230341158" lon="8.726400255712536"><ele>136.0</ele><time>2026-04-26T13:37:00Z</time></trkpt><trkpt lat="45.51607019986845" lon="8.726351212526748"><ele>136.0</ele><time>2026-04-26T13:37:01Z</time></trkpt><trkpt lat="45.5159207997821" lon="8.726286190220893"><ele>136.0</ele><time>2026-04-26T13:37:02Z</time></trkpt><trkpt lat="45.515779688681796" lon="8.726200002438384"><ele>136.0</ele><time>2026-04-26T13:37:03Z</time></trkpt><trkpt lat="45.51564026998539" lon="8.726096453021595"><ele>136.33333333333334</ele><time>2026-04-26T13:37:04Z</time></trkpt><trkpt lat="45.515502248452364" lon="8.725973930589895"><ele>136.66666666666666</ele><time>2026-04-26T13:37:05Z</time></trkpt><trkpt lat="45.51536738248465" lon="8.725844275138293"><ele>137.0</ele><time>2026-04-26T13:37:06Z</time></trkpt><trkpt lat="45.51522471126835" lon="8.725710437409722"><ele>137.0</ele><time>2026-04-26T13:37:07Z</time></trkpt><trkpt lat="45.51508211575732" lon="8.725579425926936"><ele>137.0</ele><time>2026-04-26T13:37:08Z</time></trkpt><trkpt lat="45.514940190327806" lon="8.725447579767783"><ele>137.0</ele><time>2026-04-26T13:37:09Z</time></trkpt><trkpt lat="45.51480016627337" lon="8.72531648755405"><ele>137.66666666666666</ele><time>2026-04-26T13:37:10Z</time></trkpt><trkpt lat="45.514655365392876" lon="8.725187162896892"><ele>138.33333333333334</ele><time>2026-04-26T13:37:11Z</time></trkpt><trkpt lat="45.514508060755624" lon="8.725053535042848"><ele>139.0</ele><time>2026-04-26T13:37:12Z</time></trkpt><trkpt lat="45.51435647288373" lon="8.724912375171941"><ele>137.66666666666669</ele><time>2026-04-26T13:37:13Z</time></trkpt><trkpt lat="45.514208400145534" lon="8.724776180254775"><ele>136.33333333333334</ele><time>2026-04-26T13:37:14Z</time></trkpt><trkpt lat="45.514060189402045" lon="8.724638133452174"><ele>135.0</ele><time>2026-04-26T13:37:15Z</time></trkpt><trkpt lat="45.51391648813872" lon="8.724504369321926"><ele>135.33333333333334</ele><time>2026-04-26T13:37:16Z</time></trkpt><trkpt lat="45.51377145990239" lon="8.724373470018797"><ele>135.66666666666669</ele><time>2026-04-26T13:37:17Z</time></trkpt><trkpt lat="45.51362163083455" lon="8.724237226674813"><ele>136.0</ele><time>2026-04-26T13:37:18Z</time></trkpt><trkpt lat="45.51347558335018" lon="8.724103162054064"><ele>135.33333333333334</ele><time>2026-04-26T13:37:19Z</time></trkpt><trkpt lat="45.51332777995287" lon="8.72396927385239"><ele>134.66666666666666</ele><time>2026-04-26T13:37:20Z</time></trkpt><trkpt lat="45.513177500700095" lon="8.723833484866237"><ele>134.0</ele><time>2026-04-26T13:37:21Z</time></trkpt><trkpt lat="45.51302915171471" lon="8.723698064698327"><ele>135.0</ele><time>2026-04-26T13:37:22Z</time></trkpt><trkpt lat="45.512877489720736" lon="8.723563402743952"><ele>136.0</ele><time>2026-04-26T13:37:23Z</time></trkpt><trkpt lat="45.51272831072768" lon="8.723426978377006"><ele>137.0</ele><time>2026-04-26T13:37:24Z</time></trkpt><trkpt lat="45.51257659141723" lon="8.723293981120145"><ele>137.0</ele><time>2026-04-26T13:37:25Z</time></trkpt><trkpt lat="45.5124327061761" lon="8.723162197000098"><ele>137.0</ele><time>2026-04-26T13:37:26Z</time></trkpt><trkpt lat="45.51228753068672" lon="8.723026779647054"><ele>137.0</ele><time>2026-04-26T13:37:27Z</time></trkpt><trkpt lat="45.512141077024815" lon="8.722898937265047"><ele>136.33333333333331</ele><time>2026-04-26T13:37:28Z</time></trkpt><trkpt lat="45.511996885125804" lon="8.72276645477438"><ele>135.66666666666666</ele><time>2026-04-26T13:37:29Z</time></trkpt><trkpt lat="45.51185414405068" lon="8.722635598856998"><ele>135.0</ele><time>2026-04-26T13:37:30Z</time></trkpt><trkpt lat="45.5117142402927" lon="8.72250702627152"><ele>135.0</ele><time>2026-04-26T13:37:31Z</time></trkpt><trkpt lat="45.511571526790014" lon="8.722376761231036"><ele>135.0</ele><time>2026-04-26T13:37:32Z</time></trkpt><trkpt lat="45.51143131908824" lon="8.722248497283017"><ele>135.0</ele><time>2026-04-26T13:37:33Z</time></trkpt><trkpt lat="45.511289546036394" lon="8.722120684221387"><ele>135.0</ele><time>2026-04-26T13:37:34Z</time></trkpt><trkpt lat="45.511147822564986" lon="8.721993551267177"><ele>135.0</ele><time>2026-04-26T13:37:35Z</time></trkpt><trkpt lat="45.511008358578366" lon="8.721868782992603"><ele>135.0</ele><time>2026-04-26T13:37:36Z</time></trkpt><trkpt lat="45.51087051508406" lon="8.721743024184475"><ele>135.0</ele><time>2026-04-26T13:37:37Z</time></trkpt><trkpt lat="45.51073379773961" lon="8.721615887891804"><ele>135.0</ele><time>2026-04-26T13:37:38Z</time></trkpt><trkpt lat="45.5105974130431" lon="8.721491830238255"><ele>135.0</ele><time>2026-04-26T13:37:39Z</time></trkpt><trkpt lat="45.51046166732867" lon="8.721370320662976"><ele>134.66666666666666</ele><time>2026-04-26T13:37:40Z</time></trkpt><trkpt lat="45.5103279533257" lon="8.721246005960541"><ele>134.33333333333331</ele><time>2026-04-26T13:37:41Z</time></trkpt><trkpt lat="45.51020958904662" lon="8.721134510901281"><ele>134.0</ele><time>2026-04-26T13:37:42Z</time></trkpt><trkpt lat="45.51002931125159" lon="8.720983197239551"><ele>133.75</ele><time>2026-04-26T13:37:43Z</time></trkpt><trkpt lat="45.50989931119587" lon="8.720871556910705"><ele>133.5</ele><time>2026-04-26T13:37:44Z</time></trkpt><trkpt lat="45.50978096794937" lon="8.720767685688907"><ele>133.25</ele><time>2026-04-26T13:37:45Z</time></trkpt><trkpt lat="45.50966975982647" lon="8.720676885681437"><ele>133.0</ele><time>2026-04-26T13:37:46Z</time></trkpt><trkpt lat="45.50955909801224" lon="8.720609440806978"><ele>133.0</ele><time>2026-04-26T13:37:47Z</time></trkpt><trkpt lat="45.5094631226852" lon="8.720567297301894"><ele>133.0</ele><time>2026-04-26T13:37:48Z</time></trkpt><trkpt lat="45.50937950028318" lon="8.720566763667536"><ele>133.0</ele><time>2026-04-26T13:37:49Z</time></trkpt><trkpt lat="45.509297523945555" lon="8.7205721065392"><ele>133.0</ele><time>2026-04-26T13:37:50Z</time></trkpt><trkpt lat="45.509219294782135" lon="8.720533997740148"><ele>133.0</ele><time>2026-04-26T13:37:51Z</time></trkpt><trkpt lat="45.509146246503505" lon="8.720450350408369"><ele>133.0</ele><time>2026-04-26T13:37:52Z</time></trkpt><trkpt lat="45.509073110390524" lon="8.720357885097172"><ele>133.0</ele><time>2026-04-26T13:37:53Z</time></trkpt><trkpt lat="45.5089825062955" lon="8.720269161437239"><ele>133.0</ele><time>2026-04-26T13:37:54Z</time></trkpt><trkpt lat="45.50888548534865" lon="8.720178940909406"><ele>133.0</ele><time>2026-04-26T13:37:55Z</time></trkpt><trkpt lat="45.5087788057568" lon="8.720083052261668"><ele>133.0</ele><time>2026-04-26T13:37:56Z</time></trkpt><trkpt lat="45.50867766733351" lon="8.719996403499204"><ele>132.4</ele><time>2026-04-26T13:37:57Z</time></trkpt><trkpt lat="45.5085884432568" lon="8.719916539580229"><ele>131.8</ele><time>2026-04-26T13:37:58Z</time></trkpt><trkpt lat="45.508507065561076" lon="8.719836907456253"><ele>131.2</ele><time>2026-04-26T13:37:59Z</time></trkpt><trkpt lat="45.508441721620336" lon="8.719776400628142"><ele>130.6</ele><time>2026-04-26T13:38:00Z</time></trkpt><trkpt lat="45.508362477545525" lon="8.719695462357535"><ele>130.0</ele><time>2026-04-26T13:38:01Z</time></trkpt><trkpt lat="45.508282790877864" lon="8.719621109258144"><ele>130.0</ele><time>2026-04-26T13:38:02Z</time></trkpt><trkpt lat="45.508207675298806" lon="8.719555849325916"><ele>130.0</ele><time>2026-04-26T13:38:03Z</time></trkpt><trkpt lat="45.50812858602539" lon="8.719491090121757"><ele>130.0</ele><time>2026-04-26T13:38:04Z</time></trkpt><trkpt lat="45.50797779569326" lon="8.719501887468315"><ele>130.0</ele><time>2026-04-26T13:38:06Z</time></trkpt><trkpt lat="45.50788857625489" lon="8.719479468924346"><ele>130.0</ele><time>2026-04-26T13:38:07Z</time></trkpt><trkpt lat="45.5077902518564" lon="8.719410610106294"><ele>130.75</ele><time>2026-04-26T13:38:08Z</time></trkpt><trkpt lat="45.507692420385105" lon="8.71933444115869"><ele>131.5</ele><time>2026-04-26T13:38:09Z</time></trkpt><trkpt lat="45.507589418362365" lon="8.719248898733959"><ele>132.25</ele><time>2026-04-26T13:38:10Z</time></trkpt><trkpt lat="45.50748223333257" lon="8.719156695891156"><ele>133.0</ele><time>2026-04-26T13:38:11Z</time></trkpt><trkpt lat="45.50736811743041" lon="8.71906156443315"><ele>133.0</ele><time>2026-04-26T13:38:12Z</time></trkpt><trkpt lat="45.50724973226988" lon="8.718954667638389"><ele>133.0</ele><time>2026-04-26T13:38:13Z</time></trkpt><trkpt lat="45.50713197813631" lon="8.718842431898455"><ele>133.0</ele><time>2026-04-26T13:38:14Z</time></trkpt><trkpt lat="45.50701138192932" lon="8.71873749311376"><ele>133.0</ele><time>2026-04-26T13:38:15Z</time></trkpt><trkpt lat="45.50689776829349" lon="8.718631097008652"><ele>133.4</ele><time>2026-04-26T13:38:16Z</time></trkpt><trkpt lat="45.50678841874321" lon="8.71852978206153"><ele>133.8</ele><time>2026-04-26T13:38:17Z</time></trkpt><trkpt lat="45.50668849512529" lon="8.718440100568461"><ele>134.2</ele><time>2026-04-26T13:38:18Z</time></trkpt><trkpt lat="45.50660095481969" lon="8.71836026101992"><ele>134.6</ele><time>2026-04-26T13:38:19Z</time></trkpt><trkpt lat="45.50651855982984" lon="8.71828735944473"><ele>135.0</ele><time>2026-04-26T13:38:20Z</time></trkpt><trkpt lat="45.50644804302804" lon="8.718215160505522"><ele>135.0</ele><time>2026-04-26T13:38:21Z</time></trkpt><trkpt lat="45.50637189852848" lon="8.718154080877149"><ele>135.0</ele><time>2026-04-26T13:38:22Z</time></trkpt><trkpt lat="45.50629534267874" lon="8.718096303108435"><ele>135.0</ele><time>2026-04-26T13:38:23Z</time></trkpt><trkpt lat="45.50620888272865" lon="8.71805690424842"><ele>135.0</ele><time>2026-04-26T13:38:24Z</time></trkpt><trkpt lat="45.50612156667439" lon="8.718046448862196"><ele>135.0</ele><time>2026-04-26T13:38:25Z</time></trkpt><trkpt lat="45.506031065523736" lon="8.718083352887493"><ele>135.0</ele><time>2026-04-26T13:38:26Z</time></trkpt><trkpt lat="45.50594342134719" lon="8.718157296788167"><ele>135.5</ele><time>2026-04-26T13:38:27Z</time></trkpt><trkpt lat="45.50585260052848" lon="8.71824052103845"><ele>136.0</ele><time>2026-04-26T13:38:28Z</time></trkpt><trkpt lat="45.50575894311011" lon="8.71832108203806"><ele>136.5</ele><time>2026-04-26T13:38:29Z</time></trkpt><trkpt lat="45.505659301385705" lon="8.718410042992128"><ele>137.0</ele><time>2026-04-26T13:38:30Z</time></trkpt><trkpt lat="45.50555652453484" lon="8.718497349931049"><ele>135.75</ele><time>2026-04-26T13:38:31Z</time></trkpt><trkpt lat="45.50544611259931" lon="8.718583627269318"><ele>134.5</ele><time>2026-04-26T13:38:32Z</time></trkpt><trkpt lat="45.50533657613145" lon="8.718677672467557"><ele>133.25</ele><time>2026-04-26T13:38:33Z</time></trkpt><trkpt lat="45.50522591863312" lon="8.71878105229323"><ele>132.0</ele><time>2026-04-26T13:38:34Z</time></trkpt><trkpt lat="45.50511067753493" lon="8.718883688744919"><ele>135.0</ele><time>2026-04-26T13:38:35Z</time></trkpt><trkpt lat="45.5049903954475" lon="8.718990092051781"><ele>138.0</ele><time>2026-04-26T13:38:36Z</time></trkpt><trkpt lat="45.50487665916022" lon="8.719106815563723"><ele>141.0</ele><time>2026-04-26T13:38:37Z</time></trkpt><trkpt lat="45.50475602184919" lon="8.719223229242973"><ele>144.0</ele><time>2026-04-26T13:38:38Z</time></trkpt><trkpt lat="45.504638798157345" lon="8.719338280191986"><ele>144.75</ele><time>2026-04-26T13:38:39Z</time></trkpt><trkpt lat="45.504520476950695" lon="8.719461047693963"><ele>145.5</ele><time>2026-04-26T13:38:40Z</time></trkpt><trkpt lat="45.50439616341885" lon="8.719586546865065"><ele>146.25</ele><time>2026-04-26T13:38:41Z</time></trkpt><trkpt lat="45.50427765251403" lon="8.719707259939456"><ele>147.0</ele><time>2026-04-26T13:38:42Z</time></trkpt><trkpt lat="45.50416746883707" lon="8.719817782500403"><ele>147.0</ele><time>2026-04-26T13:38:43Z</time></trkpt><trkpt lat="45.50405982408874" lon="8.719907752094548"><ele>147.0</ele><time>2026-04-26T13:38:44Z</time></trkpt><trkpt lat="45.503945133734604" lon="8.719984432745312"><ele>147.0</ele><time>2026-04-26T13:38:45Z</time></trkpt><trkpt lat="45.50381812200625" lon="8.720045029981764"><ele>147.0</ele><time>2026-04-26T13:38:46Z</time></trkpt><trkpt lat="45.50368852782979" lon="8.720085265032232"><ele>150.75</ele><time>2026-04-26T13:38:47Z</time></trkpt><trkpt lat="45.50355312637231" lon="8.720097855511545"><ele>154.5</ele><time>2026-04-26T13:38:48Z</time></trkpt><trkpt lat="45.50341666272091" lon="8.720057814760608"><ele>158.25</ele><time>2026-04-26T13:38:49Z</time></trkpt><trkpt lat="45.50328240995269" lon="8.720039851868751"><ele>162.0</ele><time>2026-04-26T13:38:50Z</time></trkpt><trkpt lat="45.50314270209676" lon="8.720028389230931"><ele>162.0</ele><time>2026-04-26T13:38:51Z</time></trkpt><trkpt lat="45.50299750536154" lon="8.720013341380275"><ele>162.0</ele><time>2026-04-26T13:38:52Z</time></trkpt><trkpt lat="45.50285366741807" lon="8.72000331163594"><ele>162.0</ele><time>2026-04-26T13:38:53Z</time></trkpt><trkpt lat="45.5027091065402" lon="8.719975669478991"><ele>162.0</ele><time>2026-04-26T13:38:54Z</time></trkpt><trkpt lat="45.502560863609354" lon="8.71996467975561"><ele>163.0</ele><time>2026-04-26T13:38:55Z</time></trkpt><trkpt lat="45.502406164560206" lon="8.719936397978296"><ele>164.0</ele><time>2026-04-26T13:38:56Z</time></trkpt><trkpt lat="45.502250694046296" lon="8.719910517536052"><ele>165.0</ele><time>2026-04-26T13:38:57Z</time></trkpt><trkpt lat="45.502096846406204" lon="8.719891713273082"><ele>165.0</ele><time>2026-04-26T13:38:58Z</time></trkpt><trkpt lat="45.501939777188305" lon="8.719875480508648"><ele>165.0</ele><time>2026-04-26T13:38:59Z</time></trkpt><trkpt lat="45.50178099114948" lon="8.719858575305484"><ele>165.0</ele><time>2026-04-26T13:39:00Z</time></trkpt><trkpt lat="45.501620267067125" lon="8.719836333382398"><ele>165.0</ele><time>2026-04-26T13:39:01Z</time></trkpt><trkpt lat="45.50145598686392" lon="8.719813499985403"><ele>165.0</ele><time>2026-04-26T13:39:02Z</time></trkpt><trkpt lat="45.50128840135168" lon="8.719798024675482"><ele>165.0</ele><time>2026-04-26T13:39:03Z</time></trkpt><trkpt lat="45.50111576054863" lon="8.719772314874783"><ele>163.33333333333334</ele><time>2026-04-26T13:39:04Z</time></trkpt><trkpt lat="45.50094299605069" lon="8.719749340086153"><ele>161.66666666666669</ele><time>2026-04-26T13:39:05Z</time></trkpt><trkpt lat="45.50076957928389" lon="8.719731393884416"><ele>160.0</ele><time>2026-04-26T13:39:06Z</time></trkpt><trkpt lat="45.500591454463816" lon="8.71971197480009"><ele>159.66666666666669</ele><time>2026-04-26T13:39:07Z</time></trkpt><trkpt lat="45.500415957906654" lon="8.71969008044031"><ele>159.33333333333334</ele><time>2026-04-26T13:39:08Z</time></trkpt><trkpt lat="45.50023657474831" lon="8.719663282964131"><ele>159.0</ele><time>2026-04-26T13:39:09Z</time></trkpt><trkpt lat="45.50006127997321" lon="8.719636647344773"><ele>159.0</ele><time>2026-04-26T13:39:10Z</time></trkpt><trkpt lat="45.49988467603027" lon="8.719613841383"><ele>159.0</ele><time>2026-04-26T13:39:11Z</time></trkpt><trkpt lat="45.49971259202422" lon="8.719589792441404"><ele>159.0</ele><time>2026-04-26T13:39:12Z</time></trkpt><trkpt lat="45.499541064106324" lon="8.71956506546822"><ele>159.66666666666666</ele><time>2026-04-26T13:39:13Z</time></trkpt><trkpt lat="45.49937305475728" lon="8.719539242078483"><ele>160.33333333333331</ele><time>2026-04-26T13:39:14Z</time></trkpt><trkpt lat="45.49920427844271" lon="8.719518822363849"><ele>161.0</ele><time>2026-04-26T13:39:15Z</time></trkpt><trkpt lat="45.49904622042851" lon="8.719499255426546"><ele>161.0</ele><time>2026-04-26T13:39:16Z</time></trkpt><trkpt lat="45.498882362943284" lon="8.719481440561207"><ele>161.0</ele><time>2026-04-26T13:39:17Z</time></trkpt><trkpt lat="45.498716377010034" lon="8.719459716727572"><ele>161.0</ele><time>2026-04-26T13:39:18Z</time></trkpt><trkpt lat="45.49854847503008" lon="8.719437276303626"><ele>161.33333333333331</ele><time>2026-04-26T13:39:19Z</time></trkpt><trkpt lat="45.49838756531951" lon="8.719419406185049"><ele>161.66666666666666</ele><time>2026-04-26T13:39:20Z</time></trkpt><trkpt lat="45.498224596882345" lon="8.719395501025682"><ele>162.0</ele><time>2026-04-26T13:39:21Z</time></trkpt><trkpt lat="45.49806402728934" lon="8.719376406335792"><ele>162.0</ele><time>2026-04-26T13:39:22Z</time></trkpt><trkpt lat="45.49789827249549" lon="8.719351415871554"><ele>162.0</ele><time>2026-04-26T13:39:23Z</time></trkpt><trkpt lat="45.49773485341721" lon="8.71932785297485"><ele>162.0</ele><time>2026-04-26T13:39:24Z</time></trkpt><trkpt lat="45.49757051857214" lon="8.71930553305226"><ele>162.0</ele><time>2026-04-26T13:39:25Z</time></trkpt><trkpt lat="45.49740433851963" lon="8.719285205062262"><ele>162.0</ele><time>2026-04-26T13:39:26Z</time></trkpt><trkpt lat="45.497240436354176" lon="8.719264753837976"><ele>162.0</ele><time>2026-04-26T13:39:27Z</time></trkpt><trkpt lat="45.49707036311515" lon="8.719238399107997"><ele>161.66666666666666</ele><time>2026-04-26T13:39:28Z</time></trkpt><trkpt lat="45.49691024159457" lon="8.71920962178991"><ele>161.33333333333331</ele><time>2026-04-26T13:39:29Z</time></trkpt><trkpt lat="45.49674434635159" lon="8.719183121331405"><ele>161.0</ele><time>2026-04-26T13:39:30Z</time></trkpt><trkpt lat="45.49656385917026" lon="8.719170521513536"><ele>161.0</ele><time>2026-04-26T13:39:31Z</time></trkpt><trkpt lat="45.496390803914956" lon="8.719151164506114"><ele>161.0</ele><time>2026-04-26T13:39:32Z</time></trkpt><trkpt lat="45.49621917327185" lon="8.71913315178637"><ele>161.0</ele><time>2026-04-26T13:39:33Z</time></trkpt><trkpt lat="45.496043025549504" lon="8.719112706950137"><ele>160.33333333333331</ele><time>2026-04-26T13:39:34Z</time></trkpt><trkpt lat="45.49586686522229" lon="8.719093810132394"><ele>159.66666666666666</ele><time>2026-04-26T13:39:35Z</time></trkpt><trkpt lat="45.495687976169314" lon="8.719071960846911"><ele>159.0</ele><time>2026-04-26T13:39:36Z</time></trkpt><trkpt lat="45.49551307022779" lon="8.719047244888298"><ele>158.66666666666666</ele><time>2026-04-26T13:39:37Z</time></trkpt><trkpt lat="45.49534302269288" lon="8.719021464695373"><ele>158.33333333333331</ele><time>2026-04-26T13:39:38Z</time></trkpt><trkpt lat="45.495189049376435" lon="8.718994751125166"><ele>158.0</ele><time>2026-04-26T13:39:39Z</time></trkpt><trkpt lat="45.49504710568838" lon="8.718966175413199"><ele>158.0</ele><time>2026-04-26T13:39:40Z</time></trkpt><trkpt lat="45.494918367082086" lon="8.71891018607004"><ele>158.0</ele><time>2026-04-26T13:39:41Z</time></trkpt><trkpt lat="45.4947949576733" lon="8.718843167193146"><ele>158.0</ele><time>2026-04-26T13:39:42Z</time></trkpt><trkpt lat="45.494686640214944" lon="8.718762756116202"><ele>158.0</ele><time>2026-04-26T13:39:43Z</time></trkpt><trkpt lat="45.49457384134063" lon="8.71867108388293"><ele>157.25</ele><time>2026-04-26T13:39:44Z</time></trkpt><trkpt lat="45.494468165591805" lon="8.718559829986942"><ele>156.5</ele><time>2026-04-26T13:39:45Z</time></trkpt><trkpt lat="45.49436466882844" lon="8.718434600023658"><ele>155.75</ele><time>2026-04-26T13:39:46Z</time></trkpt><trkpt lat="45.49427515164363" lon="8.71831152008256"><ele>155.0</ele><time>2026-04-26T13:39:47Z</time></trkpt><trkpt lat="45.494196561911856" lon="8.718203689966243"><ele>155.0</ele><time>2026-04-26T13:39:48Z</time></trkpt><trkpt lat="45.494129812973554" lon="8.718098783897368"><ele>155.0</ele><time>2026-04-26T13:39:49Z</time></trkpt><trkpt lat="45.49406769411018" lon="8.71800646050692"><ele>155.0</ele><time>2026-04-26T13:39:50Z</time></trkpt><trkpt lat="45.49402027673428" lon="8.717931036265423"><ele>155.0</ele><time>2026-04-26T13:39:51Z</time></trkpt><trkpt lat="45.49397666961457" lon="8.717836450583755"><ele>155.0</ele><time>2026-04-26T13:39:53Z</time></trkpt><trkpt lat="45.49392505359568" lon="8.71775513999405"><ele>155.0</ele><time>2026-04-26T13:40:38Z</time></trkpt><trkpt lat="45.49397635959343" lon="8.717878083502688"><ele>155.0</ele><time>2026-04-26T13:40:47Z</time></trkpt><trkpt lat="45.49405427701861" lon="8.7179916246941"><ele>155.0</ele><time>2026-04-26T13:40:48Z</time></trkpt><trkpt lat="45.494092792477595" lon="8.718125005178132"><ele>155.0</ele><time>2026-04-26T13:40:49Z</time></trkpt><trkpt lat="45.49416902864369" lon="8.718233168865936"><ele>155.0</ele><time>2026-04-26T13:40:50Z</time></trkpt><trkpt lat="45.494249023486695" lon="8.718349001038476"><ele>155.0</ele><time>2026-04-26T13:40:51Z</time></trkpt><trkpt lat="45.4943364090977" lon="8.718469715835033"><ele>155.0</ele><time>2026-04-26T13:40:52Z</time></trkpt><trkpt lat="45.49442923157772" lon="8.718594729678932"><ele>155.0</ele><time>2026-04-26T13:40:53Z</time></trkpt><trkpt lat="45.49450455586626" lon="8.718696148006597"><ele>155.0</ele><time>2026-04-26T13:40:54Z</time></trkpt><trkpt lat="45.49457275675573" lon="8.718791920189837"><ele>155.0</ele><time>2026-04-26T13:40:55Z</time></trkpt><trkpt lat="45.49462894625147" lon="8.718882571309628"><ele>155.0</ele><time>2026-04-26T13:40:56Z</time></trkpt><trkpt lat="45.49469138408559" lon="8.71898268194181"><ele>155.25</ele><time>2026-04-26T13:40:57Z</time></trkpt><trkpt lat="45.49475741322481" lon="8.719086161472159"><ele>155.5</ele><time>2026-04-26T13:40:58Z</time></trkpt><trkpt lat="45.494831473063606" lon="8.719199468189894"><ele>155.75</ele><time>2026-04-26T13:40:59Z</time></trkpt><trkpt lat="45.494922243674324" lon="8.719326333482536"><ele>156.0</ele><time>2026-04-26T13:41:00Z</time></trkpt><trkpt lat="45.49501463812445" lon="8.719458527351586"><ele>156.0</ele><time>2026-04-26T13:41:01Z</time></trkpt><trkpt lat="45.495110598234376" lon="8.719592963202409"><ele>156.0</ele><time>2026-04-26T13:41:02Z</time></trkpt><trkpt lat="45.49520307661352" lon="8.719723666758474"><ele>156.0</ele><time>2026-04-26T13:41:03Z</time></trkpt><trkpt lat="45.49529724687388" lon="8.719851375030592"><ele>156.0</ele><time>2026-04-26T13:41:04Z</time></trkpt><trkpt lat="45.49539432569918" lon="8.719977950663571"><ele>156.0</ele><time>2026-04-26T13:41:05Z</time></trkpt><trkpt lat="45.4954840159875" lon="8.720106942450824"><ele>156.0</ele><time>2026-04-26T13:41:06Z</time></trkpt><trkpt lat="45.49557471721758" lon="8.720236999256466"><ele>156.0</ele><time>2026-04-26T13:41:07Z</time></trkpt><trkpt lat="45.49565990290901" lon="8.72037021718351"><ele>156.0</ele><time>2026-04-26T13:41:08Z</time></trkpt><trkpt lat="45.49575357024021" lon="8.720506986651463"><ele>156.0</ele><time>2026-04-26T13:41:09Z</time></trkpt><trkpt lat="45.495846601558384" lon="8.720630607757707"><ele>156.0</ele><time>2026-04-26T13:41:10Z</time></trkpt><trkpt lat="45.49594049141431" lon="8.720759404224706"><ele>156.0</ele><time>2026-04-26T13:41:11Z</time></trkpt><trkpt lat="45.49602730964939" lon="8.720882692278643"><ele>156.0</ele><time>2026-04-26T13:41:12Z</time></trkpt><trkpt lat="45.496117740122884" lon="8.721014481680918"><ele>154.75</ele><time>2026-04-26T13:41:13Z</time></trkpt><trkpt lat="45.49620306606165" lon="8.72114100942986"><ele>153.5</ele><time>2026-04-26T13:41:14Z</time></trkpt><trkpt lat="45.49629126326398" lon="8.721257149471633"><ele>152.25</ele><time>2026-04-26T13:41:15Z</time></trkpt><trkpt lat="45.4963763070359" lon="8.721388817422032"><ele>151.0</ele><time>2026-04-26T13:41:16Z</time></trkpt><trkpt lat="45.49646836308469" lon="8.72152027846091"><ele>150.75</ele><time>2026-04-26T13:41:17Z</time></trkpt><trkpt lat="45.496563324684054" lon="8.721657993391824"><ele>150.5</ele><time>2026-04-26T13:41:18Z</time></trkpt><trkpt lat="45.496661474652534" lon="8.7217952024873"><ele>150.25</ele><time>2026-04-26T13:41:19Z</time></trkpt><trkpt lat="45.49676263667682" lon="8.721940256583485"><ele>150.0</ele><time>2026-04-26T13:41:20Z</time></trkpt><trkpt lat="45.49686566058771" lon="8.722083680018558"><ele>151.25</ele><time>2026-04-26T13:41:21Z</time></trkpt><trkpt lat="45.49697318810734" lon="8.722232817886255"><ele>152.5</ele><time>2026-04-26T13:41:22Z</time></trkpt><trkpt lat="45.49707211473198" lon="8.722376778257635"><ele>153.75</ele><time>2026-04-26T13:41:23Z</time></trkpt><trkpt lat="45.49716865426694" lon="8.722517981931606"><ele>155.0</ele><time>2026-04-26T13:41:24Z</time></trkpt><trkpt lat="45.497260523742696" lon="8.722641083316624"><ele>153.8</ele><time>2026-04-26T13:41:25Z</time></trkpt><trkpt lat="45.497338746363425" lon="8.72276235409494"><ele>152.6</ele><time>2026-04-26T13:41:26Z</time></trkpt><trkpt lat="45.49741444252171" lon="8.72286956228904"><ele>151.4</ele><time>2026-04-26T13:41:27Z</time></trkpt><trkpt lat="45.497481046321795" lon="8.722963094681992"><ele>150.2</ele><time>2026-04-26T13:41:28Z</time></trkpt><trkpt lat="45.49754026542114" lon="8.723046913200367"><ele>149.0</ele><time>2026-04-26T13:41:29Z</time></trkpt><trkpt lat="45.497588663746676" lon="8.723119913860927"><ele>149.0</ele><time>2026-04-26T13:41:30Z</time></trkpt><trkpt lat="45.497627114448825" lon="8.723270884173095"><ele>149.0</ele><time>2026-04-26T13:41:31Z</time></trkpt><trkpt lat="45.49765359481277" lon="8.723372739140546"><ele>149.0</ele><time>2026-04-26T13:41:32Z</time></trkpt><trkpt lat="45.49768600232081" lon="8.72347882427435"><ele>149.0</ele><time>2026-04-26T13:41:33Z</time></trkpt><trkpt lat="45.49770781104194" lon="8.723592984734609"><ele>149.0</ele><time>2026-04-26T13:41:34Z</time></trkpt><trkpt lat="45.49763558128848" lon="8.723711087364073"><ele>149.42857142857142</ele><time>2026-04-26T13:41:35Z</time></trkpt><trkpt lat="45.49759737080415" lon="8.723787955192211"><ele>149.85714285714283</ele><time>2026-04-26T13:41:36Z</time></trkpt><trkpt lat="45.49755576106001" lon="8.723863251672084"><ele>150.28571428571428</ele><time>2026-04-26T13:41:37Z</time></trkpt><trkpt lat="45.497504198688446" lon="8.72392968667651"><ele>150.71428571428572</ele><time>2026-04-26T13:41:38Z</time></trkpt><trkpt lat="45.49745330477689" lon="8.724016872594241"><ele>151.14285714285717</ele><time>2026-04-26T13:41:39Z</time></trkpt><trkpt lat="45.49740907428512" lon="8.724108750401635"><ele>151.57142857142856</ele><time>2026-04-26T13:41:40Z</time></trkpt><trkpt lat="45.49735634261944" lon="8.724204335027146"><ele>152.0</ele><time>2026-04-26T13:41:41Z</time></trkpt><trkpt lat="45.49730682923381" lon="8.724298872013442"><ele>151.2</ele><time>2026-04-26T13:41:42Z</time></trkpt><trkpt lat="45.49724946788903" lon="8.724408750864333"><ele>150.39999999999998</ele><time>2026-04-26T13:41:43Z</time></trkpt><trkpt lat="45.497194645623864" lon="8.724531455718068"><ele>149.60000000000002</ele><time>2026-04-26T13:41:44Z</time></trkpt><trkpt lat="45.49713766315973" lon="8.724654046919063"><ele>148.8</ele><time>2026-04-26T13:41:45Z</time></trkpt><trkpt lat="45.49707538978231" lon="8.724762316753662"><ele>148.0</ele><time>2026-04-26T13:41:46Z</time></trkpt><trkpt lat="45.49702053151249" lon="8.724878153706722"><ele>148.0</ele><time>2026-04-26T13:41:47Z</time></trkpt><trkpt lat="45.496953862732745" lon="8.724995227927643"><ele>148.0</ele><time>2026-04-26T13:41:48Z</time></trkpt><trkpt lat="45.49689946092947" lon="8.725101543277157"><ele>148.0</ele><time>2026-04-26T13:41:49Z</time></trkpt><trkpt lat="45.49684979258586" lon="8.725189805877141"><ele>148.0</ele><time>2026-04-26T13:41:50Z</time></trkpt><trkpt lat="45.49680201109149" lon="8.725279463007123"><ele>148.0</ele><time>2026-04-26T13:41:51Z</time></trkpt><trkpt lat="45.4967452158988" lon="8.72537763574931"><ele>148.0</ele><time>2026-04-26T13:41:52Z</time></trkpt><trkpt lat="45.49669549722366" lon="8.725477829612446"><ele>148.8</ele><time>2026-04-26T13:41:53Z</time></trkpt><trkpt lat="45.49664583475765" lon="8.72559740050575"><ele>149.60000000000002</ele><time>2026-04-26T13:41:54Z</time></trkpt><trkpt lat="45.496589421111175" lon="8.725708461249562"><ele>150.39999999999998</ele><time>2026-04-26T13:41:55Z</time></trkpt><trkpt lat="45.496531708565236" lon="8.725817563121018"><ele>151.2</ele><time>2026-04-26T13:41:56Z</time></trkpt><trkpt lat="45.496472211274394" lon="8.725922585467993"><ele>152.0</ele><time>2026-04-26T13:41:57Z</time></trkpt><trkpt lat="45.49640779083722" lon="8.726018976194139"><ele>152.0</ele><time>2026-04-26T13:41:58Z</time></trkpt><trkpt lat="45.49635903895108" lon="8.726144820208354"><ele>152.0</ele><time>2026-04-26T13:41:59Z</time></trkpt><trkpt lat="45.49629744716706" lon="8.726255437757503"><ele>152.0</ele><time>2026-04-26T13:42:00Z</time></trkpt><trkpt lat="45.49624372820136" lon="8.726368082871062"><ele>152.0</ele><time>2026-04-26T13:42:01Z</time></trkpt><trkpt lat="45.496182024494615" lon="8.726484253848389"><ele>152.0</ele><time>2026-04-26T13:42:02Z</time></trkpt><trkpt lat="45.496123097109304" lon="8.726598265681602"><ele>152.0</ele><time>2026-04-26T13:42:03Z</time></trkpt><trkpt lat="45.49606126233227" lon="8.726716405048409"><ele>152.0</ele><time>2026-04-26T13:42:04Z</time></trkpt><trkpt lat="45.49600120273128" lon="8.726837608034376"><ele>152.0</ele><time>2026-04-26T13:42:05Z</time></trkpt><trkpt lat="45.49594008014264" lon="8.72696275953595"><ele>152.0</ele><time>2026-04-26T13:42:06Z</time></trkpt><trkpt lat="45.49587894391834" lon="8.727074544244887"><ele>152.0</ele><time>2026-04-26T13:42:07Z</time></trkpt><trkpt lat="45.495820089748754" lon="8.727199214386262"><ele>152.4</ele><time>2026-04-26T13:42:08Z</time></trkpt><trkpt lat="45.495749974005676" lon="8.72731863730135"><ele>152.79999999999998</ele><time>2026-04-26T13:42:09Z</time></trkpt><trkpt lat="45.49569104314421" lon="8.72743379972709"><ele>153.2</ele><time>2026-04-26T13:42:10Z</time></trkpt><trkpt lat="45.49562933632771" lon="8.727546291824986"><ele>153.6</ele><time>2026-04-26T13:42:11Z</time></trkpt><trkpt lat="45.49557830927035" lon="8.727649679985985"><ele>154.0</ele><time>2026-04-26T13:42:12Z</time></trkpt><trkpt lat="45.495522473873315" lon="8.727762740414967"><ele>154.0</ele><time>2026-04-26T13:42:13Z</time></trkpt><trkpt lat="45.49545656633207" lon="8.7278582921191"><ele>154.0</ele><time>2026-04-26T13:42:14Z</time></trkpt><trkpt lat="45.49541304679715" lon="8.727978512051877"><ele>154.0</ele><time>2026-04-26T13:42:15Z</time></trkpt><trkpt lat="45.49535118630365" lon="8.728091208996943"><ele>154.0</ele><time>2026-04-26T13:42:16Z</time></trkpt><trkpt lat="45.495293280581414" lon="8.72821255843703"><ele>154.0</ele><time>2026-04-26T13:42:17Z</time></trkpt><trkpt lat="45.495229536747914" lon="8.72833399544009"><ele>154.4</ele><time>2026-04-26T13:42:18Z</time></trkpt><trkpt lat="45.495162407897894" lon="8.72842967141543"><ele>154.8</ele><time>2026-04-26T13:42:19Z</time></trkpt><trkpt lat="45.49511076397591" lon="8.728531186492695"><ele>155.2</ele><time>2026-04-26T13:42:20Z</time></trkpt><trkpt lat="45.49506101123103" lon="8.72862958585998"><ele>155.6</ele><time>2026-04-26T13:42:21Z</time></trkpt><trkpt lat="45.495000792411155" lon="8.72874945982759"><ele>156.0</ele><time>2026-04-26T13:42:22Z</time></trkpt><trkpt lat="45.49494274380476" lon="8.728865344092336"><ele>156.25</ele><time>2026-04-26T13:42:23Z</time></trkpt><trkpt lat="45.49489290529389" lon="8.729005535561813"><ele>156.5</ele><time>2026-04-26T13:42:24Z</time></trkpt><trkpt lat="45.49482146907665" lon="8.729130500460418"><ele>156.75</ele><time>2026-04-26T13:42:25Z</time></trkpt><trkpt lat="45.49475637528844" lon="8.729277654735942"><ele>157.0</ele><time>2026-04-26T13:42:26Z</time></trkpt><trkpt lat="45.494683957765616" lon="8.729406594230452"><ele>157.25</ele><time>2026-04-26T13:42:27Z</time></trkpt><trkpt lat="45.494609655391095" lon="8.729561898889774"><ele>157.5</ele><time>2026-04-26T13:42:28Z</time></trkpt><trkpt lat="45.494522864422734" lon="8.729720127962311"><ele>157.75</ele><time>2026-04-26T13:42:29Z</time></trkpt><trkpt lat="45.49444609088431" lon="8.729877836472287"><ele>158.0</ele><time>2026-04-26T13:42:30Z</time></trkpt><trkpt lat="45.494366652005844" lon="8.730037924924137"><ele>158.0</ele><time>2026-04-26T13:42:31Z</time></trkpt><trkpt lat="45.49428854614163" lon="8.730172874085918"><ele>158.0</ele><time>2026-04-26T13:42:32Z</time></trkpt><trkpt lat="45.49421509708092" lon="8.730309117138448"><ele>158.0</ele><time>2026-04-26T13:42:33Z</time></trkpt><trkpt lat="45.49414810817278" lon="8.73045159836487"><ele>158.0</ele><time>2026-04-26T13:42:34Z</time></trkpt><trkpt lat="45.49407469051737" lon="8.730565351374219"><ele>158.0</ele><time>2026-04-26T13:42:35Z</time></trkpt><trkpt lat="45.494021897939234" lon="8.730680029444146"><ele>158.0</ele><time>2026-04-26T13:42:36Z</time></trkpt><trkpt lat="45.49397340509511" lon="8.730789520596181"><ele>158.0</ele><time>2026-04-26T13:42:37Z</time></trkpt><trkpt lat="45.49391103338603" lon="8.730915122968282"><ele>158.0</ele><time>2026-04-26T13:42:38Z</time></trkpt><trkpt lat="45.49383721936893" lon="8.731035030509393"><ele>158.0</ele><time>2026-04-26T13:42:39Z</time></trkpt><trkpt lat="45.49377090609044" lon="8.7311519145672"><ele>158.75</ele><time>2026-04-26T13:42:40Z</time></trkpt><trkpt lat="45.49371152198132" lon="8.731294713789996"><ele>159.5</ele><time>2026-04-26T13:42:41Z</time></trkpt><trkpt lat="45.49363009765811" lon="8.731419116973251"><ele>160.25</ele><time>2026-04-26T13:42:42Z</time></trkpt><trkpt lat="45.4935719424748" lon="8.731553913681871"><ele>161.0</ele><time>2026-04-26T13:42:43Z</time></trkpt><trkpt lat="45.49350585003387" lon="8.731679169038733"><ele>161.0</ele><time>2026-04-26T13:42:44Z</time></trkpt><trkpt lat="45.493446067582845" lon="8.731804204831938"><ele>161.0</ele><time>2026-04-26T13:42:45Z</time></trkpt><trkpt lat="45.49339205770435" lon="8.731912663216312"><ele>161.0</ele><time>2026-04-26T13:42:46Z</time></trkpt><trkpt lat="45.49332798695285" lon="8.732026737227564"><ele>161.0</ele><time>2026-04-26T13:42:47Z</time></trkpt><trkpt lat="45.49327040426397" lon="8.732156393236423"><ele>161.0</ele><time>2026-04-26T13:42:48Z</time></trkpt><trkpt lat="45.49319323065612" lon="8.732271161817993"><ele>160.16666666666666</ele><time>2026-04-26T13:42:49Z</time></trkpt><trkpt lat="45.493130879900704" lon="8.732394094006398"><ele>159.33333333333331</ele><time>2026-04-26T13:42:50Z</time></trkpt><trkpt lat="45.493083933546366" lon="8.7325081439682"><ele>158.5</ele><time>2026-04-26T13:42:51Z</time></trkpt><trkpt lat="45.49303155076553" lon="8.732603406976102"><ele>157.66666666666666</ele><time>2026-04-26T13:42:52Z</time></trkpt><trkpt lat="45.4929881168797" lon="8.73268652919769"><ele>156.83333333333334</ele><time>2026-04-26T13:42:53Z</time></trkpt><trkpt lat="45.49294603748067" lon="8.732775733163479"><ele>156.0</ele><time>2026-04-26T13:42:54Z</time></trkpt><trkpt lat="45.49290151550134" lon="8.732866426021124"><ele>156.0</ele><time>2026-04-26T13:42:55Z</time></trkpt><trkpt lat="45.49285434233555" lon="8.732962608534079"><ele>156.0</ele><time>2026-04-26T13:42:56Z</time></trkpt><trkpt lat="45.4927989662651" lon="8.733076773292083"><ele>156.0</ele><time>2026-04-26T13:42:57Z</time></trkpt><trkpt lat="45.4927425366639" lon="8.733185780292343"><ele>156.0</ele><time>2026-04-26T13:42:58Z</time></trkpt><trkpt lat="45.49268395713788" lon="8.73330179719255"><ele>156.0</ele><time>2026-04-26T13:42:59Z</time></trkpt><trkpt lat="45.49262024089172" lon="8.733420616983173"><ele>156.0</ele><time>2026-04-26T13:43:00Z</time></trkpt><trkpt lat="45.49255689382218" lon="8.733543965599669"><ele>156.0</ele><time>2026-04-26T13:43:01Z</time></trkpt><trkpt lat="45.49249270524681" lon="8.733667573232948"><ele>156.0</ele><time>2026-04-26T13:43:02Z</time></trkpt><trkpt lat="45.49243151951359" lon="8.733791842910534"><ele>156.0</ele><time>2026-04-26T13:43:03Z</time></trkpt><trkpt lat="45.49237465498617" lon="8.733910136691783"><ele>156.0</ele><time>2026-04-26T13:43:04Z</time></trkpt><trkpt lat="45.49231803408091" lon="8.734028502010723"><ele>155.6</ele><time>2026-04-26T13:43:05Z</time></trkpt><trkpt lat="45.49226307766028" lon="8.734136405059207"><ele>155.2</ele><time>2026-04-26T13:43:06Z</time></trkpt><trkpt lat="45.492214656825375" lon="8.734230850906682"><ele>154.8</ele><time>2026-04-26T13:43:07Z</time></trkpt><trkpt lat="45.492168080980576" lon="8.734314983890044"><ele>154.4</ele><time>2026-04-26T13:43:08Z</time></trkpt><trkpt lat="45.49212194321913" lon="8.734393185663764"><ele>154.0</ele><time>2026-04-26T13:43:09Z</time></trkpt><trkpt lat="45.49204571239511" lon="8.734556906254815"><ele>155.0</ele><time>2026-04-26T13:43:11Z</time></trkpt><trkpt lat="45.491993209605326" lon="8.734662778009943"><ele>156.0</ele><time>2026-04-26T13:43:12Z</time></trkpt><trkpt lat="45.49192963755979" lon="8.734790615077603"><ele>157.0</ele><time>2026-04-26T13:43:13Z</time></trkpt><trkpt lat="45.49186026123184" lon="8.734927697286647"><ele>158.0</ele><time>2026-04-26T13:43:14Z</time></trkpt><trkpt lat="45.49178604767285" lon="8.735066443744243"><ele>159.0</ele><time>2026-04-26T13:43:15Z</time></trkpt><trkpt lat="45.49171388921106" lon="8.735207932491106"><ele>158.2</ele><time>2026-04-26T13:43:16Z</time></trkpt><trkpt lat="45.491642999965755" lon="8.735347535126108"><ele>157.4</ele><time>2026-04-26T13:43:17Z</time></trkpt><trkpt lat="45.49158531335883" lon="8.735480128154855"><ele>156.6</ele><time>2026-04-26T13:43:18Z</time></trkpt><trkpt lat="45.49152637998269" lon="8.735601680269832"><ele>155.8</ele><time>2026-04-26T13:43:19Z</time></trkpt><trkpt lat="45.491468482011484" lon="8.735701088361338"><ele>155.0</ele><time>2026-04-26T13:43:20Z</time></trkpt><trkpt lat="45.49141891567343" lon="8.735803852703164"><ele>155.0</ele><time>2026-04-26T13:43:21Z</time></trkpt><trkpt lat="45.49137679842126" lon="8.735906633994462"><ele>155.0</ele><time>2026-04-26T13:43:22Z</time></trkpt><trkpt lat="45.49132203511081" lon="8.736013258655436"><ele>155.0</ele><time>2026-04-26T13:43:23Z</time></trkpt><trkpt lat="45.491269174314596" lon="8.736118113196666"><ele>155.0</ele><time>2026-04-26T13:43:24Z</time></trkpt><trkpt lat="45.49122335536677" lon="8.736222046515351"><ele>155.0</ele><time>2026-04-26T13:43:25Z</time></trkpt><trkpt lat="45.49116473417262" lon="8.73631907243105"><ele>155.0</ele><time>2026-04-26T13:43:26Z</time></trkpt><trkpt lat="45.49111434752816" lon="8.736422707652315"><ele>155.33333333333331</ele><time>2026-04-26T13:43:27Z</time></trkpt><trkpt lat="45.491055622725604" lon="8.736500025748986"><ele>155.66666666666666</ele><time>2026-04-26T13:43:28Z</time></trkpt><trkpt lat="45.49101295472811" lon="8.736588522121282"><ele>156.0</ele><time>2026-04-26T13:43:29Z</time></trkpt><trkpt lat="45.490954940501716" lon="8.736676784881224"><ele>156.33333333333334</ele><time>2026-04-26T13:43:30Z</time></trkpt><trkpt lat="45.49088837298444" lon="8.736765883988314"><ele>156.66666666666669</ele><time>2026-04-26T13:43:31Z</time></trkpt><trkpt lat="45.49081620239022" lon="8.736865101462444"><ele>157.0</ele><time>2026-04-26T13:43:32Z</time></trkpt><trkpt lat="45.49073138066149" lon="8.736960917838905"><ele>157.0</ele><time>2026-04-26T13:43:33Z</time></trkpt><trkpt lat="45.490644439947275" lon="8.737053865901583"><ele>157.0</ele><time>2026-04-26T13:43:34Z</time></trkpt><trkpt lat="45.49055584143025" lon="8.737150406319143"><ele>157.0</ele><time>2026-04-26T13:43:35Z</time></trkpt><trkpt lat="45.49047020169104" lon="8.737249463323007"><ele>157.0</ele><time>2026-04-26T13:43:36Z</time></trkpt><trkpt lat="45.49039682897887" lon="8.737335352834313"><ele>157.0</ele><time>2026-04-26T13:43:37Z</time></trkpt><trkpt lat="45.49032873579511" lon="8.737417704572561"><ele>157.2</ele><time>2026-04-26T13:43:38Z</time></trkpt><trkpt lat="45.4902555174907" lon="8.737496430727075"><ele>157.39999999999998</ele><time>2026-04-26T13:43:39Z</time></trkpt><trkpt lat="45.490173948871934" lon="8.737588232789376"><ele>157.60000000000002</ele><time>2026-04-26T13:43:40Z</time></trkpt><trkpt lat="45.49009374806408" lon="8.73768854355666"><ele>157.8</ele><time>2026-04-26T13:43:41Z</time></trkpt><trkpt lat="45.49002614454686" lon="8.737775056749928"><ele>158.0</ele><time>2026-04-26T13:43:42Z</time></trkpt><trkpt lat="45.48995300600661" lon="8.737829111841947"><ele>158.0</ele><time>2026-04-26T13:43:43Z</time></trkpt><trkpt lat="45.489898811781345" lon="8.737891341610009"><ele>158.0</ele><time>2026-04-26T13:43:44Z</time></trkpt><trkpt lat="45.48984230425486" lon="8.737976583438419"><ele>158.0</ele><time>2026-04-26T13:43:45Z</time></trkpt><trkpt lat="45.48976398581002" lon="8.738053910175672"><ele>158.0</ele><time>2026-04-26T13:43:46Z</time></trkpt><trkpt lat="45.48968710843374" lon="8.738156682061518"><ele>158.0</ele><time>2026-04-26T13:43:47Z</time></trkpt><trkpt lat="45.48960229635708" lon="8.73825115204043"><ele>156.5</ele><time>2026-04-26T13:43:48Z</time></trkpt><trkpt lat="45.48951127905896" lon="8.73834911852428"><ele>155.0</ele><time>2026-04-26T13:43:49Z</time></trkpt><trkpt lat="45.48941770074945" lon="8.738457268785604"><ele>153.5</ele><time>2026-04-26T13:43:50Z</time></trkpt><trkpt lat="45.4893223480384" lon="8.738576079777623"><ele>152.0</ele><time>2026-04-26T13:43:51Z</time></trkpt><trkpt lat="45.48922052029927" lon="8.738691112790002"><ele>152.0</ele><time>2026-04-26T13:43:52Z</time></trkpt><trkpt lat="45.489115877516916" lon="8.738806715271188"><ele>152.0</ele><time>2026-04-26T13:43:53Z</time></trkpt><trkpt lat="45.489019329756665" lon="8.738929048327117"><ele>152.0</ele><time>2026-04-26T13:43:54Z</time></trkpt><trkpt lat="45.48891426657135" lon="8.73904455017036"><ele>152.0</ele><time>2026-04-26T13:43:55Z</time></trkpt><trkpt lat="45.488811628631865" lon="8.739154673177085"><ele>152.0</ele><time>2026-04-26T13:43:56Z</time></trkpt><trkpt lat="45.48871581562484" lon="8.739267557902805"><ele>152.0</ele><time>2026-04-26T13:43:57Z</time></trkpt><trkpt lat="45.488616275544125" lon="8.739386995041455"><ele>152.0</ele><time>2026-04-26T13:43:58Z</time></trkpt><trkpt lat="45.48851843515579" lon="8.739497869227677"><ele>152.0</ele><time>2026-04-26T13:43:59Z</time></trkpt><trkpt lat="45.48841871427811" lon="8.739611127597852"><ele>152.0</ele><time>2026-04-26T13:44:00Z</time></trkpt><trkpt lat="45.48831794924709" lon="8.739723655853442"><ele>152.0</ele><time>2026-04-26T13:44:01Z</time></trkpt><trkpt lat="45.48821866858519" lon="8.7398306710866"><ele>152.0</ele><time>2026-04-26T13:44:02Z</time></trkpt><trkpt lat="45.48811817185429" lon="8.739938277787381"><ele>152.0</ele><time>2026-04-26T13:44:03Z</time></trkpt><trkpt lat="45.488015174125856" lon="8.740055725921112"><ele>152.0</ele><time>2026-04-26T13:44:04Z</time></trkpt><trkpt lat="45.48791386251837" lon="8.740170780978017"><ele>152.0</ele><time>2026-04-26T13:44:05Z</time></trkpt><trkpt lat="45.48781052225344" lon="8.740285555149432"><ele>152.0</ele><time>2026-04-26T13:44:06Z</time></trkpt><trkpt lat="45.48770300653599" lon="8.740404938843348"><ele>152.0</ele><time>2026-04-26T13:44:07Z</time></trkpt><trkpt lat="45.487601314270925" lon="8.740529437012086"><ele>152.0</ele><time>2026-04-26T13:44:08Z</time></trkpt><trkpt lat="45.48751018226229" lon="8.74064447862058"><ele>152.0</ele><time>2026-04-26T13:44:09Z</time></trkpt><trkpt lat="45.487419448513414" lon="8.740746329508841"><ele>152.0</ele><time>2026-04-26T13:44:10Z</time></trkpt><trkpt lat="45.48732377685829" lon="8.740850776646928"><ele>152.0</ele><time>2026-04-26T13:44:11Z</time></trkpt><trkpt lat="45.48722596469871" lon="8.74096190953177"><ele>152.5</ele><time>2026-04-26T13:44:12Z</time></trkpt><trkpt lat="45.48712697836835" lon="8.741071106434804"><ele>153.0</ele><time>2026-04-26T13:44:13Z</time></trkpt><trkpt lat="45.48702308557118" lon="8.74119254765122"><ele>153.5</ele><time>2026-04-26T13:44:14Z</time></trkpt><trkpt lat="45.48693887850179" lon="8.74128999049085"><ele>154.0</ele><time>2026-04-26T13:44:15Z</time></trkpt><trkpt lat="45.48686233174961" lon="8.741368809768147"><ele>154.4</ele><time>2026-04-26T13:44:16Z</time></trkpt><trkpt lat="45.48679624043473" lon="8.741440802453749"><ele>154.8</ele><time>2026-04-26T13:44:17Z</time></trkpt><trkpt lat="45.48672912309647" lon="8.741526492403775"><ele>155.2</ele><time>2026-04-26T13:44:18Z</time></trkpt><trkpt lat="45.48666080062349" lon="8.741606395569908"><ele>155.6</ele><time>2026-04-26T13:44:19Z</time></trkpt><trkpt lat="45.48658935072229" lon="8.741684573579827"><ele>156.0</ele><time>2026-04-26T13:44:20Z</time></trkpt><trkpt lat="45.486509848832" lon="8.741772641620646"><ele>156.0</ele><time>2026-04-26T13:44:21Z</time></trkpt><trkpt lat="45.48642865368586" lon="8.74186671059615"><ele>156.0</ele><time>2026-04-26T13:44:22Z</time></trkpt><trkpt lat="45.48634874501112" lon="8.741962687302212"><ele>156.0</ele><time>2026-04-26T13:44:23Z</time></trkpt><trkpt lat="45.48626683846976" lon="8.742053956028629"><ele>156.0</ele><time>2026-04-26T13:44:24Z</time></trkpt><trkpt lat="45.48619563968563" lon="8.742133708059496"><ele>156.0</ele><time>2026-04-26T13:44:25Z</time></trkpt><trkpt lat="45.48612596454936" lon="8.742208617258054"><ele>155.83333333333334</ele><time>2026-04-26T13:44:26Z</time></trkpt><trkpt lat="45.48606276796639" lon="8.742280492123657"><ele>155.66666666666666</ele><time>2026-04-26T13:44:27Z</time></trkpt><trkpt lat="45.48600162298745" lon="8.742348564203516"><ele>155.5</ele><time>2026-04-26T13:44:28Z</time></trkpt><trkpt lat="45.48594267106858" lon="8.742413445392232"><ele>155.33333333333331</ele><time>2026-04-26T13:44:29Z</time></trkpt><trkpt lat="45.48588207707319" lon="8.74247691728198"><ele>155.16666666666666</ele><time>2026-04-26T13:44:30Z</time></trkpt><trkpt lat="45.485823649852094" lon="8.742540956755526"><ele>155.0</ele><time>2026-04-26T13:44:31Z</time></trkpt><trkpt lat="45.485762304093214" lon="8.74260979318076"><ele>155.0</ele><time>2026-04-26T13:44:32Z</time></trkpt><trkpt lat="45.48570131206208" lon="8.742681074832092"><ele>155.0</ele><time>2026-04-26T13:44:33Z</time></trkpt><trkpt lat="45.48564147409456" lon="8.742754649798862"><ele>155.0</ele><time>2026-04-26T13:44:34Z</time></trkpt><trkpt lat="45.48558662014022" lon="8.742822637019268"><ele>155.0</ele><time>2026-04-26T13:44:35Z</time></trkpt><trkpt lat="45.48551176669145" lon="8.74290767392001"><ele>155.0</ele><time>2026-04-26T13:44:37Z</time></trkpt><trkpt lat="45.48545533923594" lon="8.742958777320121"><ele>155.0</ele><time>2026-04-26T13:45:18Z</time></trkpt><trkpt lat="45.48553304922041" lon="8.742884489249787"><ele>155.0</ele><time>2026-04-26T13:45:30Z</time></trkpt><trkpt lat="45.48561585519341" lon="8.742808866771648"><ele>155.0</ele><time>2026-04-26T13:45:32Z</time></trkpt><trkpt lat="45.4856737885011" lon="8.742740019358763"><ele>155.0</ele><time>2026-04-26T13:45:33Z</time></trkpt><trkpt lat="45.48581255876098" lon="8.742595571379185"><ele>155.0</ele><time>2026-04-26T13:45:34Z</time></trkpt><trkpt lat="45.485899980788076" lon="8.742502235641638"><ele>155.0</ele><time>2026-04-26T13:45:35Z</time></trkpt><trkpt lat="45.48597942355245" lon="8.742403620955738"><ele>155.0</ele><time>2026-04-26T13:45:36Z</time></trkpt><trkpt lat="45.48605636003121" lon="8.742317534371027"><ele>155.0</ele><time>2026-04-26T13:45:37Z</time></trkpt><trkpt lat="45.48613648737791" lon="8.742228168721033"><ele>155.0</ele><time>2026-04-26T13:45:38Z</time></trkpt><trkpt lat="45.48621484008939" lon="8.742137619331947"><ele>155.0</ele><time>2026-04-26T13:45:39Z</time></trkpt><trkpt lat="45.486291556624366" lon="8.742053298601052"><ele>155.2</ele><time>2026-04-26T13:45:40Z</time></trkpt><trkpt lat="45.48636749197359" lon="8.741970513969386"><ele>155.4</ele><time>2026-04-26T13:45:41Z</time></trkpt><trkpt lat="45.48644319888891" lon="8.741887715648096"><ele>155.6</ele><time>2026-04-26T13:45:42Z</time></trkpt><trkpt lat="45.48651608418322" lon="8.741805496197424"><ele>155.8</ele><time>2026-04-26T13:45:43Z</time></trkpt><trkpt lat="45.48658735611828" lon="8.741725202555465"><ele>156.0</ele><time>2026-04-26T13:45:44Z</time></trkpt><trkpt lat="45.486652513128774" lon="8.741650209469494"><ele>156.0</ele><time>2026-04-26T13:45:45Z</time></trkpt><trkpt lat="45.48670782199996" lon="8.74158532221552"><ele>156.0</ele><time>2026-04-26T13:45:46Z</time></trkpt><trkpt lat="45.48679122654039" lon="8.741495961907827"><ele>156.0</ele><time>2026-04-26T13:45:48Z</time></trkpt><trkpt lat="45.48685393529071" lon="8.741449016400074"><ele>156.0</ele><time>2026-04-26T13:45:52Z</time></trkpt><trkpt lat="45.48692482575954" lon="8.74135243913919"><ele>156.0</ele><time>2026-04-26T13:46:14Z</time></trkpt><trkpt lat="45.48700752964381" lon="8.741251148821133"><ele>156.0</ele><time>2026-04-26T13:46:16Z</time></trkpt><trkpt lat="45.48708392565616" lon="8.741162446454036"><ele>156.0</ele><time>2026-04-26T13:46:18Z</time></trkpt><trkpt lat="45.48718001817748" lon="8.74107576491658"><ele>156.0</ele><time>2026-04-26T13:46:20Z</time></trkpt><trkpt lat="45.48722933954422" lon="8.74101932021674"><ele>156.0</ele><time>2026-04-26T13:46:21Z</time></trkpt><trkpt lat="45.48728229475404" lon="8.740958717063808"><ele>156.0</ele><time>2026-04-26T13:46:22Z</time></trkpt><trkpt lat="45.487335656205495" lon="8.740897648865042"><ele>156.0</ele><time>2026-04-26T13:46:23Z</time></trkpt><trkpt lat="45.48739048463441" lon="8.740834597544396"><ele>155.2</ele><time>2026-04-26T13:46:24Z</time></trkpt><trkpt lat="45.487448820969696" lon="8.740767478739524"><ele>154.39999999999998</ele><time>2026-04-26T13:46:25Z</time></trkpt><trkpt lat="45.48750546764411" lon="8.740702304096828"><ele>153.6</ele><time>2026-04-26T13:46:26Z</time></trkpt><trkpt lat="45.487601206683124" lon="8.740566119964281"><ele>152.79999999999998</ele><time>2026-04-26T13:46:28Z</time></trkpt><trkpt lat="45.48767527387516" lon="8.74048639817792"><ele>152.0</ele><time>2026-04-26T13:46:30Z</time></trkpt><trkpt lat="45.48775684774947" lon="8.740393026565307"><ele>152.0</ele><time>2026-04-26T13:46:32Z</time></trkpt><trkpt lat="45.48785235405329" lon="8.740289616659036"><ele>152.0</ele><time>2026-04-26T13:46:34Z</time></trkpt><trkpt lat="45.48794512379823" lon="8.740182462227796"><ele>152.0</ele><time>2026-04-26T13:46:36Z</time></trkpt><trkpt lat="45.48804538208037" lon="8.740071785201767"><ele>152.0</ele><time>2026-04-26T13:46:38Z</time></trkpt><trkpt lat="45.48814312917815" lon="8.739964059435216"><ele>152.0</ele><time>2026-04-26T13:46:40Z</time></trkpt><trkpt lat="45.48822115634463" lon="8.739886639772251"><ele>152.0</ele><time>2026-04-26T13:46:42Z</time></trkpt><trkpt lat="45.488167679941306" lon="8.739942431245327"><ele>152.0</ele><time>2026-04-26T13:46:52Z</time></trkpt><trkpt lat="45.488070132125095" lon="8.740054723859494"><ele>152.0</ele><time>2026-04-26T13:46:54Z</time></trkpt><trkpt lat="45.488006714161905" lon="8.740127426179395"><ele>152.0</ele><time>2026-04-26T13:46:55Z</time></trkpt><trkpt lat="45.48772247253147" lon="8.740026579995687"><ele>152.0</ele><time>2026-04-26T13:46:56Z</time></trkpt><trkpt lat="45.48763871670625" lon="8.740161907723007"><ele>152.0</ele><time>2026-04-26T13:46:57Z</time></trkpt><trkpt lat="45.48754625313519" lon="8.740277532733801"><ele>152.0</ele><time>2026-04-26T13:46:58Z</time></trkpt><trkpt lat="45.48742682097832" lon="8.74039687011183"><ele>152.0</ele><time>2026-04-26T13:46:59Z</time></trkpt><trkpt lat="45.48738896480343" lon="8.740779461830549"><ele>152.0</ele><time>2026-04-26T13:47:00Z</time></trkpt><trkpt lat="45.48724186398747" lon="8.740953710491743"><ele>152.0</ele><time>2026-04-26T13:47:01Z</time></trkpt><trkpt lat="45.48709710631845" lon="8.741118374098468"><ele>152.0</ele><time>2026-04-26T13:47:02Z</time></trkpt><trkpt lat="45.486966718567935" lon="8.741262081883324"><ele>153.0</ele><time>2026-04-26T13:47:03Z</time></trkpt><trkpt lat="45.486848487266585" lon="8.741395736281735"><ele>154.0</ele><time>2026-04-26T13:47:04Z</time></trkpt><trkpt lat="45.48673533174597" lon="8.741523049946862"><ele>155.0</ele><time>2026-04-26T13:47:05Z</time></trkpt><trkpt lat="45.48661939465008" lon="8.741652941695845"><ele>156.0</ele><time>2026-04-26T13:47:06Z</time></trkpt><trkpt lat="45.48650008363482" lon="8.741789000202413"><ele>156.33333333333334</ele><time>2026-04-26T13:47:07Z</time></trkpt><trkpt lat="45.48638176137245" lon="8.741922201297069"><ele>156.66666666666669</ele><time>2026-04-26T13:47:08Z</time></trkpt><trkpt lat="45.48626443835529" lon="8.742055145282214"><ele>157.0</ele><time>2026-04-26T13:47:09Z</time></trkpt><trkpt lat="45.4861463423709" lon="8.742194504185013"><ele>156.5</ele><time>2026-04-26T13:47:10Z</time></trkpt><trkpt lat="45.48603173354855" lon="8.742320679911565"><ele>156.0</ele><time>2026-04-26T13:47:11Z</time></trkpt><trkpt lat="45.485913700477674" lon="8.742454092020836"><ele>155.5</ele><time>2026-04-26T13:47:12Z</time></trkpt><trkpt lat="45.48579778744144" lon="8.742579832454052"><ele>155.0</ele><time>2026-04-26T13:47:13Z</time></trkpt><trkpt lat="45.48568310435897" lon="8.742711060426272"><ele>155.0</ele><time>2026-04-26T13:47:14Z</time></trkpt><trkpt lat="45.48557214434581" lon="8.74283789447843"><ele>155.0</ele><time>2026-04-26T13:47:15Z</time></trkpt><trkpt lat="45.485460145902664" lon="8.742964415399777"><ele>155.0</ele><time>2026-04-26T13:47:16Z</time></trkpt><trkpt lat="45.48535230584294" lon="8.743090303396386"><ele>155.0</ele><time>2026-04-26T13:47:17Z</time></trkpt><trkpt lat="45.48524576072177" lon="8.743216926987404"><ele>155.0</ele><time>2026-04-26T13:47:18Z</time></trkpt><trkpt lat="45.48514268146067" lon="8.743341609161954"><ele>155.0</ele><time>2026-04-26T13:47:19Z</time></trkpt><trkpt lat="45.4850342852399" lon="8.743463688398883"><ele>155.0</ele><time>2026-04-26T13:47:20Z</time></trkpt><trkpt lat="45.484929820533864" lon="8.743587069936188"><ele>155.0</ele><time>2026-04-26T13:47:21Z</time></trkpt><trkpt lat="45.48483006434147" lon="8.743709981541475"><ele>155.0</ele><time>2026-04-26T13:47:22Z</time></trkpt><trkpt lat="45.484723167358474" lon="8.743825561308894"><ele>155.0</ele><time>2026-04-26T13:47:23Z</time></trkpt><trkpt lat="45.484622063323584" lon="8.743942874675254"><ele>155.0</ele><time>2026-04-26T13:47:24Z</time></trkpt><trkpt lat="45.48451912397825" lon="8.74406257219174"><ele>155.0</ele><time>2026-04-26T13:47:25Z</time></trkpt><trkpt lat="45.484417807384155" lon="8.74417565523083"><ele>155.0</ele><time>2026-04-26T13:47:26Z</time></trkpt><trkpt lat="45.48431109379479" lon="8.744284269310684"><ele>155.0</ele><time>2026-04-26T13:47:27Z</time></trkpt><trkpt lat="45.48421048118524" lon="8.744395864126334"><ele>155.0</ele><time>2026-04-26T13:47:28Z</time></trkpt><trkpt lat="45.48410816613342" lon="8.744516252645669"><ele>155.0</ele><time>2026-04-26T13:47:29Z</time></trkpt><trkpt lat="45.48400647430021" lon="8.744635875531946"><ele>154.75</ele><time>2026-04-26T13:47:30Z</time></trkpt><trkpt lat="45.483902391751066" lon="8.744753316136189"><ele>154.5</ele><time>2026-04-26T13:47:31Z</time></trkpt><trkpt lat="45.48380203874908" lon="8.744867540300044"><ele>154.25</ele><time>2026-04-26T13:47:32Z</time></trkpt><trkpt lat="45.483703784567076" lon="8.744983882740511"><ele>154.0</ele><time>2026-04-26T13:47:33Z</time></trkpt><trkpt lat="45.48360561412664" lon="8.74510305137438"><ele>152.5</ele><time>2026-04-26T13:47:34Z</time></trkpt><trkpt lat="45.483500469466094" lon="8.74523101953348"><ele>151.0</ele><time>2026-04-26T13:47:35Z</time></trkpt><trkpt lat="45.48339134077129" lon="8.745354750449444"><ele>149.5</ele><time>2026-04-26T13:47:36Z</time></trkpt><trkpt lat="45.483280948445994" lon="8.745474077294965"><ele>148.0</ele><time>2026-04-26T13:47:37Z</time></trkpt><trkpt lat="45.48316966177986" lon="8.745600726124676"><ele>148.0</ele><time>2026-04-26T13:47:38Z</time></trkpt><trkpt lat="45.48305467845338" lon="8.745731874417666"><ele>148.0</ele><time>2026-04-26T13:47:39Z</time></trkpt><trkpt lat="45.48294655329284" lon="8.74586524130074"><ele>148.0</ele><time>2026-04-26T13:47:40Z</time></trkpt><trkpt lat="45.48283412074702" lon="8.745967930465426"><ele>148.0</ele><time>2026-04-26T13:47:41Z</time></trkpt><trkpt lat="45.48273099586323" lon="8.74610796981044"><ele>147.75</ele><time>2026-04-26T13:47:42Z</time></trkpt><trkpt lat="45.48262346434522" lon="8.74622923034651"><ele>147.5</ele><time>2026-04-26T13:47:43Z</time></trkpt><trkpt lat="45.482514964567656" lon="8.746350584322157"><ele>147.25</ele><time>2026-04-26T13:47:44Z</time></trkpt><trkpt lat="45.48241108728562" lon="8.7464719624305"><ele>147.0</ele><time>2026-04-26T13:47:45Z</time></trkpt><trkpt lat="45.482290451590075" lon="8.746577609880505"><ele>147.0</ele><time>2026-04-26T13:47:46Z</time></trkpt><trkpt lat="45.48217783477078" lon="8.746702727335949"><ele>147.0</ele><time>2026-04-26T13:47:47Z</time></trkpt><trkpt lat="45.48206447051107" lon="8.746829349825916"><ele>147.0</ele><time>2026-04-26T13:47:48Z</time></trkpt><trkpt lat="45.481951656467416" lon="8.746955325978968"><ele>147.0</ele><time>2026-04-26T13:47:49Z</time></trkpt><trkpt lat="45.481838882352925" lon="8.747081255534267"><ele>147.25</ele><time>2026-04-26T13:47:50Z</time></trkpt><trkpt lat="45.48172809987455" lon="8.747204149335714"><ele>147.5</ele><time>2026-04-26T13:47:51Z</time></trkpt><trkpt lat="45.48161779663129" lon="8.747326709296802"><ele>147.75</ele><time>2026-04-26T13:47:52Z</time></trkpt><trkpt lat="45.481507464451646" lon="8.747449622897776"><ele>148.0</ele><time>2026-04-26T13:47:53Z</time></trkpt><trkpt lat="45.48140414500391" lon="8.747565567748397"><ele>148.0</ele><time>2026-04-26T13:47:54Z</time></trkpt><trkpt lat="45.48130930288978" lon="8.74767165135852"><ele>148.0</ele><time>2026-04-26T13:47:55Z</time></trkpt><trkpt lat="45.481221103565254" lon="8.747768796426737"><ele>148.0</ele><time>2026-04-26T13:47:56Z</time></trkpt><trkpt lat="45.48113825268884" lon="8.74786067972682"><ele>148.0</ele><time>2026-04-26T13:47:57Z</time></trkpt><trkpt lat="45.48106049450696" lon="8.74794774456552"><ele>148.0</ele><time>2026-04-26T13:47:58Z</time></trkpt><trkpt lat="45.48098074676823" lon="8.748035612962015"><ele>148.0</ele><time>2026-04-26T13:47:59Z</time></trkpt><trkpt lat="45.48089408215062" lon="8.748131102520922"><ele>148.0</ele><time>2026-04-26T13:48:00Z</time></trkpt><trkpt lat="45.480807958894545" lon="8.748225995693888"><ele>148.0</ele><time>2026-04-26T13:48:01Z</time></trkpt><trkpt lat="45.48071810080649" lon="8.748325757429418"><ele>148.0</ele><time>2026-04-26T13:48:02Z</time></trkpt><trkpt lat="45.480633298549456" lon="8.748444870907704"><ele>148.20000000000002</ele><time>2026-04-26T13:48:03Z</time></trkpt><trkpt lat="45.48054073836135" lon="8.748544431038875"><ele>148.4</ele><time>2026-04-26T13:48:04Z</time></trkpt><trkpt lat="45.48045874931304" lon="8.748641792349266"><ele>148.60000000000002</ele><time>2026-04-26T13:48:05Z</time></trkpt><trkpt lat="45.48037677701705" lon="8.748734497673482"><ele>148.8</ele><time>2026-04-26T13:48:06Z</time></trkpt><trkpt lat="45.48029074210174" lon="8.748827138151878"><ele>149.0</ele><time>2026-04-26T13:48:07Z</time></trkpt><trkpt lat="45.48020491752949" lon="8.748917491154286"><ele>149.0</ele><time>2026-04-26T13:48:08Z</time></trkpt><trkpt lat="45.48011951885525" lon="8.749013891938743"><ele>149.0</ele><time>2026-04-26T13:48:09Z</time></trkpt><trkpt lat="45.480034698422436" lon="8.749108980884174"><ele>149.0</ele><time>2026-04-26T13:48:10Z</time></trkpt><trkpt lat="45.47994990816287" lon="8.749203262441146"><ele>149.0</ele><time>2026-04-26T13:48:11Z</time></trkpt><trkpt lat="45.479869093109535" lon="8.749299833600453"><ele>149.0</ele><time>2026-04-26T13:48:12Z</time></trkpt><trkpt lat="45.47978217025748" lon="8.749401066272739"><ele>149.2</ele><time>2026-04-26T13:48:13Z</time></trkpt><trkpt lat="45.4796888581138" lon="8.74950206140122"><ele>149.4</ele><time>2026-04-26T13:48:14Z</time></trkpt><trkpt lat="45.47959728454526" lon="8.749600050941401"><ele>149.6</ele><time>2026-04-26T13:48:15Z</time></trkpt><trkpt lat="45.47950762065226" lon="8.749700356322906"><ele>149.8</ele><time>2026-04-26T13:48:16Z</time></trkpt><trkpt lat="45.479427598714416" lon="8.749793861735057"><ele>150.0</ele><time>2026-04-26T13:48:17Z</time></trkpt><trkpt lat="45.47935519550784" lon="8.749875115569798"><ele>150.0</ele><time>2026-04-26T13:48:18Z</time></trkpt><trkpt lat="45.47928716921687" lon="8.74995169602129"><ele>150.0</ele><time>2026-04-26T13:48:19Z</time></trkpt><trkpt lat="45.47922575589564" lon="8.750026307431108"><ele>150.0</ele><time>2026-04-26T13:48:20Z</time></trkpt><trkpt lat="45.47917395850693" lon="8.75009634723007"><ele>150.0</ele><time>2026-04-26T13:48:21Z</time></trkpt><trkpt lat="45.47911106229562" lon="8.750148264344723"><ele>150.0</ele><time>2026-04-26T13:48:22Z</time></trkpt><trkpt lat="45.47906661503638" lon="8.750229119261684"><ele>150.0</ele><time>2026-04-26T13:48:23Z</time></trkpt><trkpt lat="45.479003917523215" lon="8.750288976655494"><ele>150.0</ele><time>2026-04-26T13:48:24Z</time></trkpt><trkpt lat="45.47893616200517" lon="8.75037492262559"><ele>150.0</ele><time>2026-04-26T13:48:25Z</time></trkpt><trkpt lat="45.47886327186606" lon="8.750461468653661"><ele>150.0</ele><time>2026-04-26T13:48:26Z</time></trkpt><trkpt lat="45.47878765678309" lon="8.7505485307033"><ele>150.0</ele><time>2026-04-26T13:48:27Z</time></trkpt><trkpt lat="45.478709893337154" lon="8.750627418531279"><ele>150.0</ele><time>2026-04-26T13:48:28Z</time></trkpt><trkpt lat="45.47862478561382" lon="8.750733773492634"><ele>150.0</ele><time>2026-04-26T13:48:29Z</time></trkpt><trkpt lat="45.4785287737367" lon="8.750813920360489"><ele>150.0</ele><time>2026-04-26T13:48:30Z</time></trkpt><trkpt lat="45.47844941624181" lon="8.750921441610766"><ele>150.0</ele><time>2026-04-26T13:48:31Z</time></trkpt><trkpt lat="45.47836445666423" lon="8.751016406484359"><ele>150.0</ele><time>2026-04-26T13:48:32Z</time></trkpt><trkpt lat="45.47827726709006" lon="8.751101640938094"><ele>150.0</ele><time>2026-04-26T13:48:33Z</time></trkpt><trkpt lat="45.4781952803833" lon="8.751206035532903"><ele>150.0</ele><time>2026-04-26T13:48:34Z</time></trkpt><trkpt lat="45.47811505271011" lon="8.751291559283162"><ele>150.0</ele><time>2026-04-26T13:48:35Z</time></trkpt><trkpt lat="45.478042134669465" lon="8.751374082890754"><ele>150.0</ele><time>2026-04-26T13:48:36Z</time></trkpt><trkpt lat="45.47797490058933" lon="8.75145673702721"><ele>150.0</ele><time>2026-04-26T13:48:37Z</time></trkpt><trkpt lat="45.47789935112883" lon="8.751543534334736"><ele>150.0</ele><time>2026-04-26T13:48:38Z</time></trkpt><trkpt lat="45.477824539879286" lon="8.751632359533797"><ele>150.0</ele><time>2026-04-26T13:48:39Z</time></trkpt><trkpt lat="45.4777517726529" lon="8.751722751818976"><ele>150.0</ele><time>2026-04-26T13:48:40Z</time></trkpt><trkpt lat="45.4776714612623" lon="8.75180430936608"><ele>150.0</ele><time>2026-04-26T13:48:41Z</time></trkpt><trkpt lat="45.477597142774584" lon="8.75189787687289"><ele>150.0</ele><time>2026-04-26T13:48:42Z</time></trkpt><trkpt lat="45.477514070262096" lon="8.75198245340787"><ele>150.0</ele><time>2026-04-26T13:48:43Z</time></trkpt><trkpt lat="45.477443577300775" lon="8.752071158018571"><ele>150.2</ele><time>2026-04-26T13:48:44Z</time></trkpt><trkpt lat="45.477362758261016" lon="8.75215666370147"><ele>150.4</ele><time>2026-04-26T13:48:45Z</time></trkpt><trkpt lat="45.477282098228144" lon="8.752251385418807"><ele>150.6</ele><time>2026-04-26T13:48:46Z</time></trkpt><trkpt lat="45.47720181849112" lon="8.752345524039567"><ele>150.8</ele><time>2026-04-26T13:48:47Z</time></trkpt><trkpt lat="45.4771191941267" lon="8.752437806758639"><ele>151.0</ele><time>2026-04-26T13:48:48Z</time></trkpt><trkpt lat="45.47704161560645" lon="8.752526138103345"><ele>151.0</ele><time>2026-04-26T13:48:49Z</time></trkpt><trkpt lat="45.47696827866089" lon="8.752608727994492"><ele>151.0</ele><time>2026-04-26T13:48:50Z</time></trkpt><trkpt lat="45.47689674914899" lon="8.752691141652894"><ele>151.0</ele><time>2026-04-26T13:48:51Z</time></trkpt><trkpt lat="45.47683322008639" lon="8.752768260766423"><ele>151.0</ele><time>2026-04-26T13:48:52Z</time></trkpt><trkpt lat="45.476778842954644" lon="8.75283325409196"><ele>151.0</ele><time>2026-04-26T13:48:53Z</time></trkpt><trkpt lat="45.4766917192867" lon="8.75292298170007"><ele>151.0</ele><time>2026-04-26T13:48:55Z</time></trkpt><trkpt lat="45.476618496666006" lon="8.75301236765898"><ele>151.0</ele><time>2026-04-26T13:48:57Z</time></trkpt><trkpt lat="45.476555008206525" lon="8.753069522077556"><ele>151.0</ele><time>2026-04-26T13:48:59Z</time></trkpt><trkpt lat="45.47649013369067" lon="8.753148949461231"><ele>151.0</ele><time>2026-04-26T13:49:01Z</time></trkpt><trkpt lat="45.47642814491446" lon="8.753213837286852"><ele>151.0</ele><time>2026-04-26T13:49:03Z</time></trkpt><trkpt lat="45.47636836943386" lon="8.753288873588751"><ele>151.0</ele><time>2026-04-26T13:49:06Z</time></trkpt><trkpt lat="45.476297805126066" lon="8.753366842539664"><ele>151.0</ele><time>2026-04-26T13:49:09Z</time></trkpt><trkpt lat="45.47622948703319" lon="8.753460925634839"><ele>151.2</ele><time>2026-04-26T13:49:11Z</time></trkpt><trkpt lat="45.47615366916743" lon="8.753554306348825"><ele>151.39999999999998</ele><time>2026-04-26T13:49:13Z</time></trkpt><trkpt lat="45.47607160660613" lon="8.753633181027977"><ele>151.6</ele><time>2026-04-26T13:49:15Z</time></trkpt><trkpt lat="45.47599381463476" lon="8.753721401391969"><ele>151.79999999999998</ele><time>2026-04-26T13:49:17Z</time></trkpt><trkpt lat="45.475905618896746" lon="8.753825445903543"><ele>152.0</ele><time>2026-04-26T13:49:19Z</time></trkpt><trkpt lat="45.47582532495698" lon="8.75391852591598"><ele>152.0</ele><time>2026-04-26T13:49:21Z</time></trkpt><trkpt lat="45.475738010057846" lon="8.754008369619488"><ele>152.0</ele><time>2026-04-26T13:49:23Z</time></trkpt><trkpt lat="45.47564428145694" lon="8.75411733741268"><ele>152.0</ele><time>2026-04-26T13:49:25Z</time></trkpt><trkpt lat="45.47555184342401" lon="8.75420874219965"><ele>152.0</ele><time>2026-04-26T13:49:27Z</time></trkpt><trkpt lat="45.475454839187805" lon="8.754320070597373"><ele>151.4</ele><time>2026-04-26T13:49:29Z</time></trkpt><trkpt lat="45.47535361064265" lon="8.754420717213165"><ele>150.79999999999998</ele><time>2026-04-26T13:49:31Z</time></trkpt><trkpt lat="45.475269797775056" lon="8.754493140144247"><ele>150.2</ele><time>2026-04-26T13:49:33Z</time></trkpt><trkpt lat="45.47520034342314" lon="8.754587841822103"><ele>149.6</ele><time>2026-04-26T13:49:35Z</time></trkpt><trkpt lat="45.475126533242666" lon="8.754658685595905"><ele>149.0</ele><time>2026-04-26T13:49:37Z</time></trkpt><trkpt lat="45.47505623191291" lon="8.754737308185803"><ele>149.0</ele><time>2026-04-26T13:49:39Z</time></trkpt><trkpt lat="45.47498338837286" lon="8.754822720953534"><ele>149.0</ele><time>2026-04-26T13:49:41Z</time></trkpt><trkpt lat="45.47491664768571" lon="8.75490378485915"><ele>149.0</ele><time>2026-04-26T13:49:43Z</time></trkpt><trkpt lat="45.47485712574336" lon="8.755012784103405"><ele>149.0</ele><time>2026-04-26T13:49:45Z</time></trkpt><trkpt lat="45.47485022893909" lon="8.755107588623224"><ele>149.0</ele><time>2026-04-26T13:49:47Z</time></trkpt><trkpt lat="45.474841919742396" lon="8.755237426879416"><ele>149.0</ele><time>2026-04-26T13:49:49Z</time></trkpt><trkpt lat="45.474850805088124" lon="8.755368634665858"><ele>149.4</ele><time>2026-04-26T13:49:51Z</time></trkpt><trkpt lat="45.47484597607481" lon="8.755545900482025"><ele>149.8</ele><time>2026-04-26T13:49:53Z</time></trkpt><trkpt lat="45.47482526980229" lon="8.75569713727188"><ele>150.2</ele><time>2026-04-26T13:49:55Z</time></trkpt><trkpt lat="45.474832966187094" lon="8.75580517986099"><ele>150.6</ele><time>2026-04-26T13:49:57Z</time></trkpt><trkpt lat="45.47479447813212" lon="8.755894748345996"><ele>151.0</ele><time>2026-04-26T13:49:59Z</time></trkpt><trkpt lat="45.474702125051884" lon="8.7559422423999"><ele>151.0</ele><time>2026-04-26T13:50:01Z</time></trkpt><trkpt lat="45.47459144125172" lon="8.755914338494584"><ele>151.0</ele><time>2026-04-26T13:50:03Z</time></trkpt><trkpt lat="45.4744853524706" lon="8.755894553286032"><ele>151.0</ele><time>2026-04-26T13:50:05Z</time></trkpt><trkpt lat="45.47439582130192" lon="8.755903907166855"><ele>151.0</ele><time>2026-04-26T13:50:07Z</time></trkpt><trkpt lat="45.47433011302473" lon="8.75591466656046"><ele>151.0</ele><time>2026-04-26T13:50:08Z</time></trkpt><trkpt lat="45.47426472809235" lon="8.755922520801727"><ele>151.0</ele><time>2026-04-26T13:50:09Z</time></trkpt><trkpt lat="45.47419840698374" lon="8.755920759350948"><ele>151.0</ele><time>2026-04-26T13:50:10Z</time></trkpt><trkpt lat="45.47409209835246" lon="8.755918422340974"><ele>151.0</ele><time>2026-04-26T13:50:12Z</time></trkpt><trkpt lat="45.47397983245346" lon="8.755908740905063"><ele>151.0</ele><time>2026-04-26T13:50:14Z</time></trkpt><trkpt lat="45.473850851594804" lon="8.755912675663057"><ele>151.0</ele><time>2026-04-26T13:50:16Z</time></trkpt><trkpt lat="45.47377271859268" lon="8.755910775580828"><ele>151.0</ele><time>2026-04-26T13:50:17Z</time></trkpt><trkpt lat="45.47370321772578" lon="8.755901502205111"><ele>150.66666666666669</ele><time>2026-04-26T13:50:18Z</time></trkpt><trkpt lat="45.47362791310117" lon="8.75589032853015"><ele>150.33333333333334</ele><time>2026-04-26T13:50:19Z</time></trkpt><trkpt lat="45.47356138618238" lon="8.755888073605169"><ele>150.0</ele><time>2026-04-26T13:50:20Z</time></trkpt><trkpt lat="45.473452641371466" lon="8.75589195954247"><ele>149.66666666666666</ele><time>2026-04-26T13:50:22Z</time></trkpt><trkpt lat="45.473382125227225" lon="8.75588972675236"><ele>149.33333333333331</ele><time>2026-04-26T13:50:23Z</time></trkpt><trkpt lat="45.47328052642718" lon="8.755865547233524"><ele>149.0</ele><time>2026-04-26T13:50:25Z</time></trkpt><trkpt lat="45.47321739626251" lon="8.75586744245058"><ele>149.0</ele><time>2026-04-26T13:50:28Z</time></trkpt><trkpt lat="45.47314456628881" lon="8.755984772295367"><ele>149.0</ele><time>2026-04-26T13:50:30Z</time></trkpt><trkpt lat="45.47311702284575" lon="8.756072296029897"><ele>149.0</ele><time>2026-04-26T13:50:31Z</time></trkpt><trkpt lat="45.47303865741751" lon="8.756220345956544"><ele>149.0</ele><time>2026-04-26T13:50:33Z</time></trkpt><trkpt lat="45.47299658317375" lon="8.75629094349689"><ele>149.0</ele><time>2026-04-26T13:50:34Z</time></trkpt><trkpt lat="45.47293820264167" lon="8.756404100250352"><ele>148.83333333333331</ele><time>2026-04-26T13:50:36Z</time></trkpt><trkpt lat="45.47290116811627" lon="8.756500035111136"><ele>148.66666666666666</ele><time>2026-04-26T13:50:38Z</time></trkpt><trkpt lat="45.472961574954866" lon="8.756600099930811"><ele>148.5</ele><time>2026-04-26T13:50:40Z</time></trkpt><trkpt lat="45.47302582447048" lon="8.756651317079005"><ele>148.33333333333334</ele><time>2026-04-26T13:50:41Z</time></trkpt><trkpt lat="45.47309129352687" lon="8.756729010394151"><ele>148.16666666666669</ele><time>2026-04-26T13:50:42Z</time></trkpt><trkpt lat="45.473154920394066" lon="8.756819640541645"><ele>148.0</ele><time>2026-04-26T13:50:43Z</time></trkpt><trkpt lat="45.47322613439192" lon="8.75691271981753"><ele>147.5</ele><time>2026-04-26T13:50:44Z</time></trkpt><trkpt lat="45.47330761460866" lon="8.757015155412017"><ele>147.0</ele><time>2026-04-26T13:50:45Z</time></trkpt><trkpt lat="45.47340073982099" lon="8.757126251309657"><ele>146.5</ele><time>2026-04-26T13:50:46Z</time></trkpt><trkpt lat="45.473491182390916" lon="8.757237886534163"><ele>146.0</ele><time>2026-04-26T13:50:47Z</time></trkpt><trkpt lat="45.473584208878705" lon="8.757352474661614"><ele>146.0</ele><time>2026-04-26T13:50:48Z</time></trkpt><trkpt lat="45.4736729383517" lon="8.757463567759675"><ele>146.0</ele><time>2026-04-26T13:50:49Z</time></trkpt><trkpt lat="45.47375993649134" lon="8.757571651751888"><ele>146.0</ele><time>2026-04-26T13:50:50Z</time></trkpt><trkpt lat="45.47384820170796" lon="8.757680404593552"><ele>146.0</ele><time>2026-04-26T13:50:51Z</time></trkpt><trkpt lat="45.473939027008534" lon="8.7577880210366"><ele>147.0</ele><time>2026-04-26T13:50:52Z</time></trkpt><trkpt lat="45.474030515349746" lon="8.757897520333206"><ele>148.0</ele><time>2026-04-26T13:50:53Z</time></trkpt><trkpt lat="45.47412284157691" lon="8.75801411864484"><ele>149.0</ele><time>2026-04-26T13:50:54Z</time></trkpt><trkpt lat="45.47420997470932" lon="8.758124416007545"><ele>150.0</ele><time>2026-04-26T13:50:55Z</time></trkpt><trkpt lat="45.47429667117365" lon="8.758235519869363"><ele>150.0</ele><time>2026-04-26T13:50:56Z</time></trkpt><trkpt lat="45.47438315507268" lon="8.758349362766884"><ele>150.0</ele><time>2026-04-26T13:50:57Z</time></trkpt><trkpt lat="45.474464776731374" lon="8.758457717919832"><ele>150.0</ele><time>2026-04-26T13:50:58Z</time></trkpt><trkpt lat="45.474552746260954" lon="8.758572377214753"><ele>150.0</ele><time>2026-04-26T13:50:59Z</time></trkpt><trkpt lat="45.47463484798908" lon="8.758685425188638"><ele>148.6</ele><time>2026-04-26T13:51:00Z</time></trkpt><trkpt lat="45.47471083225787" lon="8.758786957591697"><ele>147.2</ele><time>2026-04-26T13:51:01Z</time></trkpt><trkpt lat="45.47478253216403" lon="8.758881426201839"><ele>145.8</ele><time>2026-04-26T13:51:02Z</time></trkpt><trkpt lat="45.474851946560946" lon="8.758966511810604"><ele>144.4</ele><time>2026-04-26T13:51:03Z</time></trkpt><trkpt lat="45.47491640042637" lon="8.759040265410013"><ele>143.0</ele><time>2026-04-26T13:51:04Z</time></trkpt><trkpt lat="45.47495436646195" lon="8.75914173663624"><ele>143.0</ele><time>2026-04-26T13:51:05Z</time></trkpt><trkpt lat="45.47501684551238" lon="8.75923747592097"><ele>143.0</ele><time>2026-04-26T13:51:06Z</time></trkpt><trkpt lat="45.475044464305626" lon="8.759374091194115"><ele>143.0</ele><time>2026-04-26T13:51:07Z</time></trkpt><trkpt lat="45.47506632009901" lon="8.759534518291067"><ele>143.0</ele><time>2026-04-26T13:51:08Z</time></trkpt><trkpt lat="45.47507603213142" lon="8.759683225973243"><ele>143.0</ele><time>2026-04-26T13:51:09Z</time></trkpt><trkpt lat="45.47507179704352" lon="8.759827791198811"><ele>142.66666666666666</ele><time>2026-04-26T13:51:10Z</time></trkpt><trkpt lat="45.475066097050124" lon="8.75994487051773"><ele>142.33333333333331</ele><time>2026-04-26T13:51:11Z</time></trkpt><trkpt lat="45.47504851463538" lon="8.760051476055107"><ele>142.0</ele><time>2026-04-26T13:51:12Z</time></trkpt><trkpt lat="45.475017753680376" lon="8.760158895820375"><ele>141.66666666666666</ele><time>2026-04-26T13:51:13Z</time></trkpt><trkpt lat="45.474974535363174" lon="8.760263467467839"><ele>141.33333333333334</ele><time>2026-04-26T13:51:14Z</time></trkpt><trkpt lat="45.47491170951389" lon="8.760386083940272"><ele>141.0</ele><time>2026-04-26T13:51:15Z</time></trkpt><trkpt lat="45.47483609300228" lon="8.760514181102474"><ele>141.5</ele><time>2026-04-26T13:51:16Z</time></trkpt><trkpt lat="45.47474833072226" lon="8.760656358306974"><ele>142.0</ele><time>2026-04-26T13:51:17Z</time></trkpt><trkpt lat="45.47465354310205" lon="8.760810610272392"><ele>142.5</ele><time>2026-04-26T13:51:18Z</time></trkpt><trkpt lat="45.47456848287467" lon="8.760965698512651"><ele>143.0</ele><time>2026-04-26T13:51:19Z</time></trkpt><trkpt lat="45.474505316768926" lon="8.76112775184478"><ele>140.25</ele><time>2026-04-26T13:51:20Z</time></trkpt><trkpt lat="45.47442648309499" lon="8.761256979879594"><ele>137.5</ele><time>2026-04-26T13:51:21Z</time></trkpt><trkpt lat="45.474357458103924" lon="8.761392386819947"><ele>134.75</ele><time>2026-04-26T13:51:22Z</time></trkpt><trkpt lat="45.47428224260021" lon="8.761530727520482"><ele>132.0</ele><time>2026-04-26T13:51:23Z</time></trkpt><trkpt lat="45.47421140567877" lon="8.761674120191026"><ele>132.0</ele><time>2026-04-26T13:51:24Z</time></trkpt><trkpt lat="45.47414469591306" lon="8.761815650478011"><ele>132.0</ele><time>2026-04-26T13:51:25Z</time></trkpt><trkpt lat="45.47407182915953" lon="8.761935512754215"><ele>132.0</ele><time>2026-04-26T13:51:26Z</time></trkpt><trkpt lat="45.47400160556694" lon="8.762050206439296"><ele>132.0</ele><time>2026-04-26T13:51:27Z</time></trkpt><trkpt lat="45.47393091617416" lon="8.762153614306289"><ele>132.0</ele><time>2026-04-26T13:51:28Z</time></trkpt><trkpt lat="45.473849368886356" lon="8.762221429023654"><ele>131.16666666666666</ele><time>2026-04-26T13:51:29Z</time></trkpt><trkpt lat="45.47377597238803" lon="8.762300484394965"><ele>130.33333333333334</ele><time>2026-04-26T13:51:30Z</time></trkpt><trkpt lat="45.47371186684369" lon="8.762397280871262"><ele>129.5</ele><time>2026-04-26T13:51:31Z</time></trkpt><trkpt lat="45.47363274182197" lon="8.762449132048214"><ele>128.66666666666669</ele><time>2026-04-26T13:51:32Z</time></trkpt><trkpt lat="45.4735657715298" lon="8.762494751924141"><ele>127.83333333333334</ele><time>2026-04-26T13:51:33Z</time></trkpt><trkpt lat="45.473503668938925" lon="8.762542145280927"><ele>127.0</ele><time>2026-04-26T13:51:36Z</time></trkpt><trkpt lat="45.47347994251567" lon="8.762637142467435"><ele>127.0</ele><time>2026-04-26T13:51:48Z</time></trkpt><trkpt lat="45.47355217028644" lon="8.762515857549655"><ele>127.0</ele><time>2026-04-26T13:52:23Z</time></trkpt><trkpt lat="45.473831952159436" lon="8.76276736051124"><ele>127.0</ele><time>2026-04-26T13:52:25Z</time></trkpt><trkpt lat="45.473905020270344" lon="8.762696397576331"><ele>127.0</ele><time>2026-04-26T13:52:27Z</time></trkpt><trkpt lat="45.47396251345194" lon="8.762649564959847"><ele>127.0</ele><time>2026-04-26T13:52:28Z</time></trkpt><trkpt lat="45.47406991504635" lon="8.762596305029946"><ele>127.0</ele><time>2026-04-26T13:52:30Z</time></trkpt><trkpt lat="45.474132309033784" lon="8.762559950248173"><ele>127.0</ele><time>2026-04-26T13:52:31Z</time></trkpt><trkpt lat="45.47405554265442" lon="8.762025269192774"><ele>127.00000000000001</ele><time>2026-04-26T13:52:32Z</time></trkpt><trkpt lat="45.47409866823177" lon="8.761931869009908"><ele>127.0</ele><time>2026-04-26T13:52:33Z</time></trkpt><trkpt lat="45.47414281968514" lon="8.761843703688003"><ele>127.0</ele><time>2026-04-26T13:52:34Z</time></trkpt><trkpt lat="45.474207849194585" lon="8.761778192369917"><ele>127.0</ele><time>2026-04-26T13:52:35Z</time></trkpt><trkpt lat="45.474253223301844" lon="8.761690180859068"><ele>127.00000000000001</ele><time>2026-04-26T13:52:36Z</time></trkpt><trkpt lat="45.47429969678706" lon="8.761599507609588"><ele>127.0</ele><time>2026-04-26T13:52:37Z</time></trkpt><trkpt lat="45.47434201008694" lon="8.761516951012627"><ele>127.83333333333334</ele><time>2026-04-26T13:52:38Z</time></trkpt><trkpt lat="45.474385487346176" lon="8.761430326694038"><ele>128.66666666666669</ele><time>2026-04-26T13:52:39Z</time></trkpt><trkpt lat="45.47441908370002" lon="8.761326081653998"><ele>129.5</ele><time>2026-04-26T13:52:40Z</time></trkpt><trkpt lat="45.47447063495915" lon="8.761236764435425"><ele>130.33333333333334</ele><time>2026-04-26T13:52:41Z</time></trkpt><trkpt lat="45.47451084932179" lon="8.761147592483113"><ele>131.16666666666666</ele><time>2026-04-26T13:52:42Z</time></trkpt><trkpt lat="45.47455727107186" lon="8.761058444567698"><ele>132.0</ele><time>2026-04-26T13:52:43Z</time></trkpt><trkpt lat="45.474607160151685" lon="8.760966410778785"><ele>132.0</ele><time>2026-04-26T13:52:44Z</time></trkpt><trkpt lat="45.47465633718701" lon="8.760877490707195"><ele>132.0</ele><time>2026-04-26T13:52:45Z</time></trkpt><trkpt lat="45.474711349734484" lon="8.760792131391115"><ele>132.0</ele><time>2026-04-26T13:52:46Z</time></trkpt><trkpt lat="45.47477089328431" lon="8.760691825311806"><ele>132.0</ele><time>2026-04-26T13:52:47Z</time></trkpt><trkpt lat="45.47483011466226" lon="8.760587815601356"><ele>132.0</ele><time>2026-04-26T13:52:48Z</time></trkpt><trkpt lat="45.47488885221787" lon="8.760498911893372"><ele>132.0</ele><time>2026-04-26T13:52:49Z</time></trkpt><trkpt lat="45.47494885986703" lon="8.760410351877235"><ele>132.0</ele><time>2026-04-26T13:52:50Z</time></trkpt><trkpt lat="45.47500045971223" lon="8.760310013096946"><ele>132.0</ele><time>2026-04-26T13:52:51Z</time></trkpt><trkpt lat="45.47504618176597" lon="8.76020379290726"><ele>132.0</ele><time>2026-04-26T13:52:52Z</time></trkpt><trkpt lat="45.475079243285414" lon="8.760089308160605"><ele>132.0</ele><time>2026-04-26T13:52:53Z</time></trkpt><trkpt lat="45.475093865276165" lon="8.759966066560166"><ele>132.0</ele><time>2026-04-26T13:52:54Z</time></trkpt><trkpt lat="45.475097195313054" lon="8.759830474286634"><ele>132.0</ele><time>2026-04-26T13:52:55Z</time></trkpt><trkpt lat="45.47510719331375" lon="8.759681892551319"><ele>133.79999999999998</ele><time>2026-04-26T13:52:56Z</time></trkpt><trkpt lat="45.475100213681934" lon="8.759531746612272"><ele>135.6</ele><time>2026-04-26T13:52:57Z</time></trkpt><trkpt lat="45.47508242853439" lon="8.759390674159846"><ele>137.39999999999998</ele><time>2026-04-26T13:52:58Z</time></trkpt><trkpt lat="45.47504790736359" lon="8.759269388661147"><ele>139.2</ele><time>2026-04-26T13:52:59Z</time></trkpt><trkpt lat="45.47500525957384" lon="8.75916112973705"><ele>141.0</ele><time>2026-04-26T13:53:00Z</time></trkpt><trkpt lat="45.47495086329457" lon="8.759067614298772"><ele>141.4</ele><time>2026-04-26T13:53:01Z</time></trkpt><trkpt lat="45.47488798994766" lon="8.758976180208867"><ele>141.8</ele><time>2026-04-26T13:53:02Z</time></trkpt><trkpt lat="45.47482917383097" lon="8.758859724547543"><ele>142.20000000000002</ele><time>2026-04-26T13:53:03Z</time></trkpt><trkpt lat="45.47475588839463" lon="8.758755188461365"><ele>142.6</ele><time>2026-04-26T13:53:04Z</time></trkpt><trkpt lat="45.47468166672684" lon="8.758652619718893"><ele>143.0</ele><time>2026-04-26T13:53:05Z</time></trkpt><trkpt lat="45.474598347891984" lon="8.758542781353508"><ele>144.75</ele><time>2026-04-26T13:53:06Z</time></trkpt><trkpt lat="45.474504190690006" lon="8.758424129996326"><ele>146.5</ele><time>2026-04-26T13:53:07Z</time></trkpt><trkpt lat="45.47440934334063" lon="8.758307919816557"><ele>148.25</ele><time>2026-04-26T13:53:08Z</time></trkpt><trkpt lat="45.474314039810075" lon="8.758192679690636"><ele>150.0</ele><time>2026-04-26T13:53:09Z</time></trkpt><trkpt lat="45.474209273032066" lon="8.758068948293472"><ele>150.0</ele><time>2026-04-26T13:53:10Z</time></trkpt><trkpt lat="45.47408753679532" lon="8.757943818950661"><ele>150.0</ele><time>2026-04-26T13:53:11Z</time></trkpt><trkpt lat="45.473956831796706" lon="8.75779404316023"><ele>150.0</ele><time>2026-04-26T13:53:12Z</time></trkpt><trkpt lat="45.47381016588579" lon="8.757611181807416"><ele>148.66666666666666</ele><time>2026-04-26T13:53:13Z</time></trkpt><trkpt lat="45.473698975410926" lon="8.757438725719801"><ele>147.33333333333331</ele><time>2026-04-26T13:53:14Z</time></trkpt><trkpt lat="45.47358388193603" lon="8.757292963261758"><ele>146.0</ele><time>2026-04-26T13:53:15Z</time></trkpt><trkpt lat="45.47347586375991" lon="8.757156161341074"><ele>146.0</ele><time>2026-04-26T13:53:16Z</time></trkpt><trkpt lat="45.47337874903507" lon="8.757033168353106"><ele>146.0</ele><time>2026-04-26T13:53:17Z</time></trkpt><trkpt lat="45.47329592297341" lon="8.756928271570656"><ele>146.0</ele><time>2026-04-26T13:53:18Z</time></trkpt><trkpt lat="45.473219437048634" lon="8.756831373454958"><ele>146.0</ele><time>2026-04-26T13:53:19Z</time></trkpt><trkpt lat="45.47315186183525" lon="8.756744871976867"><ele>146.0</ele><time>2026-04-26T13:53:20Z</time></trkpt><trkpt lat="45.47308978651892" lon="8.756665410934758"><ele>145.83333333333331</ele><time>2026-04-26T13:53:21Z</time></trkpt><trkpt lat="45.4730407607454" lon="8.756602889385737"><ele>145.66666666666666</ele><time>2026-04-26T13:53:22Z</time></trkpt><trkpt lat="45.47296521221531" lon="8.756534884846428"><ele>145.5</ele><time>2026-04-26T13:53:24Z</time></trkpt><trkpt lat="45.47292459417867" lon="8.75645533350231"><ele>145.33333333333334</ele><time>2026-04-26T13:53:26Z</time></trkpt><trkpt lat="45.47285068770948" lon="8.756546844972735"><ele>145.16666666666669</ele><time>2026-04-26T13:53:27Z</time></trkpt><trkpt lat="45.47276724750901" lon="8.75667953097946"><ele>145.0</ele><time>2026-04-26T13:53:29Z</time></trkpt><trkpt lat="45.472719292842044" lon="8.756762176133398"><ele>145.0</ele><time>2026-04-26T13:53:30Z</time></trkpt><trkpt lat="45.47267332933955" lon="8.756825270305276"><ele>145.0</ele><time>2026-04-26T13:53:31Z</time></trkpt><trkpt lat="45.47262384520377" lon="8.756893801944186"><ele>145.0</ele><time>2026-04-26T13:53:32Z</time></trkpt><trkpt lat="45.47258080675884" lon="8.756969405257196"><ele>145.0</ele><time>2026-04-26T13:53:33Z</time></trkpt><trkpt lat="45.47253627657665" lon="8.757046441990141"><ele>145.0</ele><time>2026-04-26T13:53:34Z</time></trkpt><trkpt lat="45.472492641320514" lon="8.757127504312386"><ele>145.0</ele><time>2026-04-26T13:53:35Z</time></trkpt><trkpt lat="45.47244313195707" lon="8.75720445734158"><ele>145.0</ele><time>2026-04-26T13:53:36Z</time></trkpt><trkpt lat="45.472395638286706" lon="8.75728042221238"><ele>144.83333333333334</ele><time>2026-04-26T13:53:37Z</time></trkpt><trkpt lat="45.47234570905612" lon="8.757361807226786"><ele>144.66666666666669</ele><time>2026-04-26T13:53:38Z</time></trkpt><trkpt lat="45.472299016035414" lon="8.757430631141107"><ele>144.5</ele><time>2026-04-26T13:53:39Z</time></trkpt><trkpt lat="45.4722572837919" lon="8.757502503052969"><ele>144.33333333333334</ele><time>2026-04-26T13:53:40Z</time></trkpt><trkpt lat="45.47217958820615" lon="8.757627973168145"><ele>144.16666666666666</ele><time>2026-04-26T13:53:42Z</time></trkpt><trkpt lat="45.47209173269519" lon="8.757710622707705"><ele>144.0</ele><time>2026-04-26T13:53:44Z</time></trkpt><trkpt lat="45.472026804016075" lon="8.757730102875996"><ele>144.5</ele><time>2026-04-26T13:53:45Z</time></trkpt><trkpt lat="45.47196201977373" lon="8.757753423755029"><ele>145.0</ele><time>2026-04-26T13:53:46Z</time></trkpt><trkpt lat="45.471890782493965" lon="8.757761485001835"><ele>145.5</ele><time>2026-04-26T13:53:47Z</time></trkpt><trkpt lat="45.47182748321238" lon="8.757789381257588"><ele>146.0</ele><time>2026-04-26T13:53:48Z</time></trkpt><trkpt lat="45.47171148371525" lon="8.757839014598545"><ele>146.5</ele><time>2026-04-26T13:53:50Z</time></trkpt><trkpt lat="45.47163776183315" lon="8.757869967024632"><ele>147.0</ele><time>2026-04-26T13:53:51Z</time></trkpt><trkpt lat="45.47156351022653" lon="8.757900967884064"><ele>147.0</ele><time>2026-04-26T13:53:52Z</time></trkpt><trkpt lat="45.4715031129377" lon="8.757948443264176"><ele>147.0</ele><time>2026-04-26T13:53:53Z</time></trkpt><trkpt lat="45.47143483502743" lon="8.757958415454224"><ele>147.0</ele><time>2026-04-26T13:53:54Z</time></trkpt><trkpt lat="45.47136840118278" lon="8.757988899528117"><ele>147.0</ele><time>2026-04-26T13:53:55Z</time></trkpt><trkpt lat="45.4713038952089" lon="8.758018498964182"><ele>147.0</ele><time>2026-04-26T13:53:56Z</time></trkpt><trkpt lat="45.47123174684054" lon="8.758051605198203"><ele>147.0</ele><time>2026-04-26T13:53:57Z</time></trkpt><trkpt lat="45.471161606901944" lon="8.75808376854871"><ele>147.0</ele><time>2026-04-26T13:53:58Z</time></trkpt><trkpt lat="45.47110017241753" lon="8.758132523972701"><ele>146.33333333333334</ele><time>2026-04-26T13:53:59Z</time></trkpt><trkpt lat="45.47102695085052" lon="8.758168538924542"><ele>145.66666666666666</ele><time>2026-04-26T13:54:00Z</time></trkpt><trkpt lat="45.47094785658285" lon="8.758205214784525"><ele>145.0</ele><time>2026-04-26T13:54:01Z</time></trkpt><trkpt lat="45.47086918229335" lon="8.758217349191225"><ele>144.33333333333331</ele><time>2026-04-26T13:54:02Z</time></trkpt><trkpt lat="45.47080729892912" lon="8.758245697894479"><ele>143.66666666666666</ele><time>2026-04-26T13:54:03Z</time></trkpt><trkpt lat="45.470743230323116" lon="8.758291030307713"><ele>143.0</ele><time>2026-04-26T13:54:04Z</time></trkpt><trkpt lat="45.47061163525391" lon="8.758335332347638"><ele>143.0</ele><time>2026-04-26T13:54:06Z</time></trkpt><trkpt lat="45.47053950058976" lon="8.758368383431481"><ele>143.0</ele><time>2026-04-26T13:54:07Z</time></trkpt><trkpt lat="45.47045556918094" lon="8.758406839635237"><ele>143.0</ele><time>2026-04-26T13:54:08Z</time></trkpt><trkpt lat="45.470368156873164" lon="8.75844689073893"><ele>143.0</ele><time>2026-04-26T13:54:09Z</time></trkpt><trkpt lat="45.47029521304128" lon="8.758505094291936"><ele>143.0</ele><time>2026-04-26T13:54:10Z</time></trkpt><trkpt lat="45.47021820427687" lon="8.758535210706428"><ele>143.0</ele><time>2026-04-26T13:54:11Z</time></trkpt><trkpt lat="45.47014051658858" lon="8.758573051659265"><ele>142.6</ele><time>2026-04-26T13:54:12Z</time></trkpt><trkpt lat="45.470055520619695" lon="8.758610116856334"><ele>142.20000000000002</ele><time>2026-04-26T13:54:13Z</time></trkpt><trkpt lat="45.46996082980165" lon="8.758654663850983"><ele>141.8</ele><time>2026-04-26T13:54:14Z</time></trkpt><trkpt lat="45.46986307648624" lon="8.758694234993898"><ele>141.4</ele><time>2026-04-26T13:54:15Z</time></trkpt><trkpt lat="45.46977351179648" lon="8.758734905903315"><ele>141.0</ele><time>2026-04-26T13:54:16Z</time></trkpt><trkpt lat="45.469679847614756" lon="8.75875141579308"><ele>141.0</ele><time>2026-04-26T13:54:17Z</time></trkpt><trkpt lat="45.46960588519206" lon="8.758807279075139"><ele>141.0</ele><time>2026-04-26T13:54:18Z</time></trkpt><trkpt lat="45.4695263224756" lon="8.758817338173008"><ele>141.0</ele><time>2026-04-26T13:54:19Z</time></trkpt><trkpt lat="45.469443670774915" lon="8.758853117517956"><ele>141.0</ele><time>2026-04-26T13:54:20Z</time></trkpt><trkpt lat="45.46937415821275" lon="8.758908137050872"><ele>141.0</ele><time>2026-04-26T13:54:21Z</time></trkpt><trkpt lat="45.46930025283154" lon="8.758933067876432"><ele>141.0</ele><time>2026-04-26T13:54:22Z</time></trkpt><trkpt lat="45.469237637738225" lon="8.758965242037261"><ele>141.0</ele><time>2026-04-26T13:54:23Z</time></trkpt><trkpt lat="45.46913813390522" lon="8.759010575097747"><ele>141.0</ele><time>2026-04-26T13:54:25Z</time></trkpt><trkpt lat="45.46906100190803" lon="8.75909538566199"><ele>141.0</ele><time>2026-04-26T13:54:27Z</time></trkpt><trkpt lat="45.46902286856395" lon="8.759255097953606"><ele>141.0</ele><time>2026-04-26T13:54:29Z</time></trkpt><trkpt lat="45.46903171452358" lon="8.759348181882297"><ele>141.0</ele><time>2026-04-26T13:54:30Z</time></trkpt><trkpt lat="45.46905469949632" lon="8.759446413286161"><ele>140.66666666666666</ele><time>2026-04-26T13:54:31Z</time></trkpt><trkpt lat="45.46908053193969" lon="8.759550306915962"><ele>140.33333333333334</ele><time>2026-04-26T13:54:32Z</time></trkpt><trkpt lat="45.469102835381776" lon="8.759655595383487"><ele>140.0</ele><time>2026-04-26T13:54:33Z</time></trkpt><trkpt lat="45.46914221652404" lon="8.75974892238006"><ele>139.66666666666669</ele><time>2026-04-26T13:54:34Z</time></trkpt><trkpt lat="45.469159012327175" lon="8.759847732074768"><ele>139.33333333333334</ele><time>2026-04-26T13:54:35Z</time></trkpt><trkpt lat="45.46918366604044" lon="8.759955712846681"><ele>139.0</ele><time>2026-04-26T13:54:36Z</time></trkpt><trkpt lat="45.46920851903211" lon="8.760066991501649"><ele>139.0</ele><time>2026-04-26T13:54:37Z</time></trkpt><trkpt lat="45.469231028080735" lon="8.760167712832102"><ele>139.0</ele><time>2026-04-26T13:54:38Z</time></trkpt><trkpt lat="45.46925525858533" lon="8.760274239104957"><ele>139.0</ele><time>2026-04-26T13:54:39Z</time></trkpt><trkpt lat="45.469275565293096" lon="8.760366409918133"><ele>139.0</ele><time>2026-04-26T13:54:40Z</time></trkpt><trkpt lat="45.4692985377826" lon="8.76047171681686"><ele>139.0</ele><time>2026-04-26T13:54:41Z</time></trkpt><trkpt lat="45.469323128279164" lon="8.76058147323893"><ele>139.0</ele><time>2026-04-26T13:54:42Z</time></trkpt><trkpt lat="45.469350487050576" lon="8.76070251737918"><ele>139.16666666666669</ele><time>2026-04-26T13:54:43Z</time></trkpt><trkpt lat="45.469377396768664" lon="8.760818381911688"><ele>139.33333333333334</ele><time>2026-04-26T13:54:44Z</time></trkpt><trkpt lat="45.4694009927652" lon="8.76093402512613"><ele>139.5</ele><time>2026-04-26T13:54:45Z</time></trkpt><trkpt lat="45.46943030079004" lon="8.761058997579601"><ele>139.66666666666666</ele><time>2026-04-26T13:54:46Z</time></trkpt><trkpt lat="45.46944522836798" lon="8.761197742749706"><ele>139.83333333333331</ele><time>2026-04-26T13:54:47Z</time></trkpt><trkpt lat="45.4694864596428" lon="8.761308773009873"><ele>140.0</ele><time>2026-04-26T13:54:48Z</time></trkpt><trkpt lat="45.46950680362415" lon="8.761409167366164"><ele>140.0</ele><time>2026-04-26T13:54:49Z</time></trkpt><trkpt lat="45.46953376765429" lon="8.76152279827095"><ele>140.0</ele><time>2026-04-26T13:54:50Z</time></trkpt><trkpt lat="45.46955559375658" lon="8.761644507320906"><ele>140.0</ele><time>2026-04-26T13:54:51Z</time></trkpt><trkpt lat="45.469582371269354" lon="8.761751985387964"><ele>140.0</ele><time>2026-04-26T13:54:52Z</time></trkpt><trkpt lat="45.469606883717404" lon="8.761862906331979"><ele>140.0</ele><time>2026-04-26T13:54:53Z</time></trkpt><trkpt lat="45.46963193874432" lon="8.761966020047312"><ele>140.0</ele><time>2026-04-26T13:54:54Z</time></trkpt><trkpt lat="45.469659777197506" lon="8.762080944792443"><ele>140.4</ele><time>2026-04-26T13:54:55Z</time></trkpt><trkpt lat="45.46969102840216" lon="8.762221642537414"><ele>140.8</ele><time>2026-04-26T13:54:56Z</time></trkpt><trkpt lat="45.46973025854909" lon="8.762389684028786"><ele>141.2</ele><time>2026-04-26T13:54:57Z</time></trkpt><trkpt lat="45.469768593913365" lon="8.762543749473375"><ele>141.6</ele><time>2026-04-26T13:54:58Z</time></trkpt><trkpt lat="45.46979594061603" lon="8.762652682436642"><ele>142.0</ele><time>2026-04-26T13:54:59Z</time></trkpt><trkpt lat="45.46982810227788" lon="8.762810293295727"><ele>142.0</ele><time>2026-04-26T13:55:01Z</time></trkpt><trkpt lat="45.46984223698365" lon="8.762909033612834"><ele>142.0</ele><time>2026-04-26T13:55:02Z</time></trkpt><trkpt lat="45.46986643269691" lon="8.763003275613247"><ele>142.0</ele><time>2026-04-26T13:55:03Z</time></trkpt><trkpt lat="45.46988989023857" lon="8.763103494399388"><ele>142.0</ele><time>2026-04-26T13:55:04Z</time></trkpt><trkpt lat="45.46991244842176" lon="8.763207666111269"><ele>142.0</ele><time>2026-04-26T13:55:05Z</time></trkpt><trkpt lat="45.469935800518954" lon="8.763308895377506"><ele>142.0</ele><time>2026-04-26T13:55:06Z</time></trkpt><trkpt lat="45.46995535830384" lon="8.763412279298846"><ele>142.0</ele><time>2026-04-26T13:55:07Z</time></trkpt><trkpt lat="45.46997704306196" lon="8.763507112388925"><ele>142.28571428571428</ele><time>2026-04-26T13:55:08Z</time></trkpt><trkpt lat="45.46999348962239" lon="8.763602322661757"><ele>142.57142857142856</ele><time>2026-04-26T13:55:09Z</time></trkpt><trkpt lat="45.47001565741694" lon="8.763695314316069"><ele>142.85714285714286</ele><time>2026-04-26T13:55:10Z</time></trkpt><trkpt lat="45.47002563494502" lon="8.763805141493085"><ele>143.14285714285714</ele><time>2026-04-26T13:55:11Z</time></trkpt><trkpt lat="45.47006483210691" lon="8.763910277745138"><ele>143.42857142857144</ele><time>2026-04-26T13:55:12Z</time></trkpt><trkpt lat="45.47008706739718" lon="8.764014682917264"><ele>143.71428571428572</ele><time>2026-04-26T13:55:13Z</time></trkpt><trkpt lat="45.47011015636445" lon="8.764098993191613"><ele>144.0</ele><time>2026-04-26T13:55:14Z</time></trkpt><trkpt lat="45.47013880232555" lon="8.764203253885409"><ele>144.0</ele><time>2026-04-26T13:55:15Z</time></trkpt><trkpt lat="45.470164658531104" lon="8.764310480166445"><ele>144.0</ele><time>2026-04-26T13:55:16Z</time></trkpt><trkpt lat="45.470187759102295" lon="8.76439675319746"><ele>144.0</ele><time>2026-04-26T13:55:17Z</time></trkpt><trkpt lat="45.4702009706698" lon="8.764545907045182"><ele>144.0</ele><time>2026-04-26T13:55:19Z</time></trkpt><trkpt lat="45.470201295963825" lon="8.76465960979086"><ele>144.0</ele><time>2026-04-26T13:55:21Z</time></trkpt><trkpt lat="45.47014895093593" lon="8.764711103893381"><ele>144.0</ele><time>2026-04-26T13:55:23Z</time></trkpt><trkpt lat="45.47004717771667" lon="8.764786468578857"><ele>143.83333333333334</ele><time>2026-04-26T13:55:25Z</time></trkpt><trkpt lat="45.46998108530082" lon="8.764843882321259"><ele>143.66666666666666</ele><time>2026-04-26T13:55:26Z</time></trkpt><trkpt lat="45.46990933606187" lon="8.76490951706739"><ele>143.5</ele><time>2026-04-26T13:55:27Z</time></trkpt><trkpt lat="45.46984952074728" lon="8.764988042632444"><ele>143.33333333333331</ele><time>2026-04-26T13:55:28Z</time></trkpt><trkpt lat="45.46978451503954" lon="8.765036583404578"><ele>143.16666666666666</ele><time>2026-04-26T13:55:29Z</time></trkpt><trkpt lat="45.469711490563526" lon="8.765068984046996"><ele>143.0</ele><time>2026-04-26T13:55:30Z</time></trkpt><trkpt lat="45.46964893916948" lon="8.765145222567547"><ele>142.4</ele><time>2026-04-26T13:55:31Z</time></trkpt><trkpt lat="45.46958056816708" lon="8.765198347742553"><ele>141.8</ele><time>2026-04-26T13:55:32Z</time></trkpt><trkpt lat="45.46950055389591" lon="8.765236547422193"><ele>141.2</ele><time>2026-04-26T13:55:33Z</time></trkpt><trkpt lat="45.46942226840104" lon="8.76532157117134"><ele>140.6</ele><time>2026-04-26T13:55:34Z</time></trkpt><trkpt lat="45.46934112382601" lon="8.765401345323097"><ele>140.0</ele><time>2026-04-26T13:55:35Z</time></trkpt><trkpt lat="45.4692585481322" lon="8.76547588158684"><ele>140.0</ele><time>2026-04-26T13:55:36Z</time></trkpt><trkpt lat="45.46918747172058" lon="8.76555030286651"><ele>140.0</ele><time>2026-04-26T13:55:37Z</time></trkpt><trkpt lat="45.46910996102642" lon="8.765620544312279"><ele>140.0</ele><time>2026-04-26T13:55:38Z</time></trkpt><trkpt lat="45.46903653657853" lon="8.765692414108855"><ele>140.0</ele><time>2026-04-26T13:55:39Z</time></trkpt><trkpt lat="45.46896239181286" lon="8.765728634936961"><ele>140.0</ele><time>2026-04-26T13:55:40Z</time></trkpt><trkpt lat="45.468866770438964" lon="8.765799269938107"><ele>140.0</ele><time>2026-04-26T13:55:42Z</time></trkpt><trkpt lat="45.46878962257323" lon="8.765841024872355"><ele>140.0</ele><time>2026-04-26T13:55:44Z</time></trkpt><trkpt lat="45.468719342194845" lon="8.765810883088287"><ele>140.0</ele><time>2026-04-26T13:55:46Z</time></trkpt><trkpt lat="45.46868276266504" lon="8.765629207031793"><ele>140.0</ele><time>2026-04-26T13:55:48Z</time></trkpt><trkpt lat="45.468662246827314" lon="8.765520486378463"><ele>140.0</ele><time>2026-04-26T13:55:49Z</time></trkpt><trkpt lat="45.46864114289766" lon="8.765408273191944"><ele>140.0</ele><time>2026-04-26T13:55:50Z</time></trkpt><trkpt lat="45.46863090333285" lon="8.765284934774739"><ele>140.4</ele><time>2026-04-26T13:55:51Z</time></trkpt><trkpt lat="45.468609896116746" lon="8.765177499508399"><ele>140.8</ele><time>2026-04-26T13:55:52Z</time></trkpt><trkpt lat="45.4685633510494" lon="8.765045435175383"><ele>141.2</ele><time>2026-04-26T13:55:54Z</time></trkpt><trkpt lat="45.46853542803653" lon="8.76493717996731"><ele>141.6</ele><time>2026-04-26T13:55:56Z</time></trkpt><trkpt lat="45.4684971960443" lon="8.76483991938559"><ele>142.0</ele><time>2026-04-26T13:55:58Z</time></trkpt><trkpt lat="45.46839586697518" lon="8.764910845007238"><ele>142.0</ele><time>2026-04-26T13:56:00Z</time></trkpt><trkpt lat="45.46837393530381" lon="8.765013202733527"><ele>142.0</ele><time>2026-04-26T13:56:01Z</time></trkpt><trkpt lat="45.4683231757899" lon="8.765077033416771"><ele>142.0</ele><time>2026-04-26T13:56:02Z</time></trkpt><trkpt lat="45.468282559234005" lon="8.765146675358922"><ele>142.0</ele><time>2026-04-26T13:56:03Z</time></trkpt><trkpt lat="45.46824778141249" lon="8.76522656465669"><ele>142.0</ele><time>2026-04-26T13:56:04Z</time></trkpt><trkpt lat="45.46818984066305" lon="8.765274357364815"><ele>142.0</ele><time>2026-04-26T13:56:05Z</time></trkpt><trkpt lat="45.468103365779136" lon="8.765298559066519"><ele>142.0</ele><time>2026-04-26T13:56:06Z</time></trkpt><trkpt lat="45.468037136383394" lon="8.7653050005834"><ele>142.0</ele><time>2026-04-26T13:56:07Z</time></trkpt><trkpt lat="45.46795315771443" lon="8.765314985183249"><ele>142.0</ele><time>2026-04-26T13:56:08Z</time></trkpt><trkpt lat="45.46785906108319" lon="8.765331708179275"><ele>142.0</ele><time>2026-04-26T13:56:09Z</time></trkpt><trkpt lat="45.467760223055464" lon="8.765340563418295"><ele>142.0</ele><time>2026-04-26T13:56:10Z</time></trkpt><trkpt lat="45.46766183908007" lon="8.765348518194237"><ele>142.0</ele><time>2026-04-26T13:56:11Z</time></trkpt><trkpt lat="45.46756635272095" lon="8.765356934062234"><ele>141.33333333333334</ele><time>2026-04-26T13:56:12Z</time></trkpt><trkpt lat="45.46747612937677" lon="8.765366957637008"><ele>140.66666666666669</ele><time>2026-04-26T13:56:13Z</time></trkpt><trkpt lat="45.467394607638084" lon="8.765386670078598"><ele>140.0</ele><time>2026-04-26T13:56:14Z</time></trkpt><trkpt lat="45.46731733144038" lon="8.765437634608332"><ele>139.33333333333334</ele><time>2026-04-26T13:56:15Z</time></trkpt><trkpt lat="45.46724826214421" lon="8.765517978265628"><ele>138.66666666666666</ele><time>2026-04-26T13:56:16Z</time></trkpt><trkpt lat="45.467198382551665" lon="8.765604022503148"><ele>138.0</ele><time>2026-04-26T13:56:17Z</time></trkpt><trkpt lat="45.467161397382625" lon="8.765692005292655"><ele>138.0</ele><time>2026-04-26T13:56:18Z</time></trkpt><trkpt lat="45.467139295031025" lon="8.76579161102415"><ele>138.0</ele><time>2026-04-26T13:56:19Z</time></trkpt><trkpt lat="45.46713040301448" lon="8.76590508990159"><ele>138.0</ele><time>2026-04-26T13:56:20Z</time></trkpt><trkpt lat="45.467143722463085" lon="8.766020400498304"><ele>138.0</ele><time>2026-04-26T13:56:21Z</time></trkpt><trkpt lat="45.46716363002819" lon="8.766125703468015"><ele>138.0</ele><time>2026-04-26T13:56:22Z</time></trkpt><trkpt lat="45.46718381301248" lon="8.766218712033803"><ele>138.0</ele><time>2026-04-26T13:56:23Z</time></trkpt><trkpt lat="45.46721510226128" lon="8.76630616518185"><ele>138.0</ele><time>2026-04-26T13:56:24Z</time></trkpt><trkpt lat="45.467242895233554" lon="8.766402188447296"><ele>137.42857142857144</ele><time>2026-04-26T13:56:25Z</time></trkpt><trkpt lat="45.467247744822075" lon="8.766503042026763"><ele>136.85714285714286</ele><time>2026-04-26T13:56:26Z</time></trkpt><trkpt lat="45.467263286163245" lon="8.766597206654469"><ele>136.28571428571428</ele><time>2026-04-26T13:56:27Z</time></trkpt><trkpt lat="45.467286765386724" lon="8.766691062665009"><ele>135.71428571428572</ele><time>2026-04-26T13:56:28Z</time></trkpt><trkpt lat="45.46729566379606" lon="8.766790165912473"><ele>135.14285714285714</ele><time>2026-04-26T13:56:29Z</time></trkpt><trkpt lat="45.467310500098854" lon="8.766888571946101"><ele>134.57142857142858</ele><time>2026-04-26T13:56:30Z</time></trkpt><trkpt lat="45.467322074334426" lon="8.76698309227695"><ele>134.0</ele><time>2026-04-26T13:56:31Z</time></trkpt><trkpt lat="45.46732642509013" lon="8.76708174456942"><ele>134.0</ele><time>2026-04-26T13:56:32Z</time></trkpt><trkpt lat="45.46733781642569" lon="8.767183462298334"><ele>134.0</ele><time>2026-04-26T13:56:33Z</time></trkpt><trkpt lat="45.46732887371005" lon="8.767295919446534"><ele>134.0</ele><time>2026-04-26T13:56:34Z</time></trkpt><trkpt lat="45.46733083314196" lon="8.76740740591513"><ele>134.0</ele><time>2026-04-26T13:56:35Z</time></trkpt><trkpt lat="45.467330085236824" lon="8.767526662704148"><ele>134.0</ele><time>2026-04-26T13:56:36Z</time></trkpt><trkpt lat="45.46732171335887" lon="8.767650062092049"><ele>134.0</ele><time>2026-04-26T13:56:37Z</time></trkpt><trkpt lat="45.46729799882386" lon="8.767766472706201"><ele>134.2</ele><time>2026-04-26T13:56:38Z</time></trkpt><trkpt lat="45.46726300572767" lon="8.767888361404507"><ele>134.4</ele><time>2026-04-26T13:56:39Z</time></trkpt><trkpt lat="45.46721880095443" lon="8.768010494950374"><ele>134.6</ele><time>2026-04-26T13:56:40Z</time></trkpt><trkpt lat="45.46718683060508" lon="8.768140041072797"><ele>134.8</ele><time>2026-04-26T13:56:41Z</time></trkpt><trkpt lat="45.46715096387647" lon="8.768255626526924"><ele>135.0</ele><time>2026-04-26T13:56:42Z</time></trkpt><trkpt lat="45.46711425399378" lon="8.768384521630283"><ele>135.6</ele><time>2026-04-26T13:56:43Z</time></trkpt><trkpt lat="45.467069834275826" lon="8.768514238775424"><ele>136.2</ele><time>2026-04-26T13:56:44Z</time></trkpt><trkpt lat="45.46703079505874" lon="8.768652445987765"><ele>136.8</ele><time>2026-04-26T13:56:45Z</time></trkpt><trkpt lat="45.466993030146746" lon="8.76878504894185"><ele>137.4</ele><time>2026-04-26T13:56:46Z</time></trkpt><trkpt lat="45.46695061718167" lon="8.768917881004343"><ele>138.0</ele><time>2026-04-26T13:56:47Z</time></trkpt><trkpt lat="45.46691220517579" lon="8.769047801129565"><ele>138.6</ele><time>2026-04-26T13:56:48Z</time></trkpt><trkpt lat="45.46686617713782" lon="8.769162423337798"><ele>139.20000000000002</ele><time>2026-04-26T13:56:49Z</time></trkpt><trkpt lat="45.466836586723616" lon="8.769302516405972"><ele>139.8</ele><time>2026-04-26T13:56:50Z</time></trkpt><trkpt lat="45.46678093809958" lon="8.769425194179902"><ele>140.4</ele><time>2026-04-26T13:56:51Z</time></trkpt><trkpt lat="45.46674712142428" lon="8.76957117099326"><ele>141.0</ele><time>2026-04-26T13:56:52Z</time></trkpt><trkpt lat="45.46670765817786" lon="8.769715451494745"><ele>141.16666666666666</ele><time>2026-04-26T13:56:53Z</time></trkpt><trkpt lat="45.4666767315874" lon="8.769836607494742"><ele>141.33333333333334</ele><time>2026-04-26T13:56:54Z</time></trkpt><trkpt lat="45.46663387165433" lon="8.769926221150067"><ele>141.5</ele><time>2026-04-26T13:56:55Z</time></trkpt><trkpt lat="45.46660005066344" lon="8.77002244656856"><ele>141.66666666666669</ele><time>2026-04-26T13:56:56Z</time></trkpt><trkpt lat="45.46655614760562" lon="8.770126911517792"><ele>141.83333333333334</ele><time>2026-04-26T13:56:57Z</time></trkpt><trkpt lat="45.46651268755787" lon="8.770204490202406"><ele>142.0</ele><time>2026-04-26T13:56:58Z</time></trkpt><trkpt lat="45.466430372487174" lon="8.77029861297188"><ele>142.0</ele><time>2026-04-26T13:57:00Z</time></trkpt><trkpt lat="45.466366997789926" lon="8.77034207848436"><ele>142.0</ele><time>2026-04-26T13:57:01Z</time></trkpt><trkpt lat="45.46628680459643" lon="8.77039042368222"><ele>142.0</ele><time>2026-04-26T13:57:02Z</time></trkpt><trkpt lat="45.4661985263121" lon="8.770414237275194"><ele>142.0</ele><time>2026-04-26T13:57:03Z</time></trkpt><trkpt lat="45.46612230074508" lon="8.770435428229597"><ele>142.0</ele><time>2026-04-26T13:57:04Z</time></trkpt><trkpt lat="45.46605461139468" lon="8.770454184252737"><ele>142.0</ele><time>2026-04-26T13:57:05Z</time></trkpt><trkpt lat="45.46597694262369" lon="8.770476528195095"><ele>142.0</ele><time>2026-04-26T13:57:06Z</time></trkpt><trkpt lat="45.46589702543652" lon="8.77050424980486"><ele>142.0</ele><time>2026-04-26T13:57:07Z</time></trkpt><trkpt lat="45.465818186381206" lon="8.77054200055242"><ele>142.0</ele><time>2026-04-26T13:57:08Z</time></trkpt><trkpt lat="45.46573582495071" lon="8.770586048897634"><ele>142.0</ele><time>2026-04-26T13:57:09Z</time></trkpt><trkpt lat="45.46566942461101" lon="8.770622277734041"><ele>142.0</ele><time>2026-04-26T13:57:10Z</time></trkpt><trkpt lat="45.4656096529432" lon="8.770653783615833"><ele>142.0</ele><time>2026-04-26T13:57:11Z</time></trkpt><trkpt lat="45.46551753911253" lon="8.770685194677345"><ele>142.0</ele><time>2026-04-26T13:57:13Z</time></trkpt><trkpt lat="45.465448357622485" lon="8.770663079732847"><ele>142.0</ele><time>2026-04-26T13:57:15Z</time></trkpt><trkpt lat="45.46539126255772" lon="8.770531100140483"><ele>142.0</ele><time>2026-04-26T13:57:17Z</time></trkpt><trkpt lat="45.46537368397456" lon="8.770425186707904"><ele>142.0</ele><time>2026-04-26T13:57:18Z</time></trkpt><trkpt lat="45.465346070036375" lon="8.770298588491407"><ele>142.0</ele><time>2026-04-26T13:57:19Z</time></trkpt><trkpt lat="45.46533025785997" lon="8.770159520652863"><ele>142.0</ele><time>2026-04-26T13:57:20Z</time></trkpt><trkpt lat="45.46530604101273" lon="8.77002969702279"><ele>141.4</ele><time>2026-04-26T13:57:21Z</time></trkpt><trkpt lat="45.465264531024886" lon="8.76990056969921"><ele>140.79999999999998</ele><time>2026-04-26T13:57:22Z</time></trkpt><trkpt lat="45.46524547258" lon="8.769773224709578"><ele>140.2</ele><time>2026-04-26T13:57:23Z</time></trkpt><trkpt lat="45.46522756531756" lon="8.769644121261692"><ele>139.6</ele><time>2026-04-26T13:57:24Z</time></trkpt><trkpt lat="45.46518255205671" lon="8.769525212043108"><ele>139.0</ele><time>2026-04-26T13:57:25Z</time></trkpt><trkpt lat="45.46516399457867" lon="8.769395863538085"><ele>138.8</ele><time>2026-04-26T13:57:26Z</time></trkpt><trkpt lat="45.465118956917344" lon="8.769280355195132"><ele>138.60000000000002</ele><time>2026-04-26T13:57:27Z</time></trkpt><trkpt lat="45.46508501081545" lon="8.76914625262514"><ele>138.4</ele><time>2026-04-26T13:57:28Z</time></trkpt><trkpt lat="45.46505017761303" lon="8.769027656919304"><ele>138.20000000000002</ele><time>2026-04-26T13:57:29Z</time></trkpt><trkpt lat="45.46501741576608" lon="8.768905335230784"><ele>138.0</ele><time>2026-04-26T13:57:30Z</time></trkpt><trkpt lat="45.46497745511571" lon="8.768769853875478"><ele>138.0</ele><time>2026-04-26T13:57:31Z</time></trkpt><trkpt lat="45.4649504803132" lon="8.768609359884485"><ele>138.0</ele><time>2026-04-26T13:57:32Z</time></trkpt><trkpt lat="45.46490482396458" lon="8.768456841653057"><ele>138.0</ele><time>2026-04-26T13:57:33Z</time></trkpt><trkpt lat="45.464885873601105" lon="8.768302782790832"><ele>138.0</ele><time>2026-04-26T13:57:34Z</time></trkpt><trkpt lat="45.46485073134451" lon="8.768161391418902"><ele>138.0</ele><time>2026-04-26T13:57:35Z</time></trkpt><trkpt lat="45.46483314989164" lon="8.76800898813661"><ele>138.0</ele><time>2026-04-26T13:57:36Z</time></trkpt><trkpt lat="45.46480428601254" lon="8.767874020010984"><ele>138.0</ele><time>2026-04-26T13:57:37Z</time></trkpt><trkpt lat="45.46477497483093" lon="8.767736960436395"><ele>138.0</ele><time>2026-04-26T13:57:38Z</time></trkpt><trkpt lat="45.464729378120715" lon="8.767604089563498"><ele>138.0</ele><time>2026-04-26T13:57:39Z</time></trkpt><trkpt lat="45.46471392625466" lon="8.767457539713297"><ele>138.0</ele><time>2026-04-26T13:57:40Z</time></trkpt><trkpt lat="45.46468231279361" lon="8.767314680114957"><ele>138.0</ele><time>2026-04-26T13:57:41Z</time></trkpt><trkpt lat="45.46465244274645" lon="8.767179699061423"><ele>138.0</ele><time>2026-04-26T13:57:42Z</time></trkpt><trkpt lat="45.4646258076738" lon="8.767059258066787"><ele>138.0</ele><time>2026-04-26T13:57:43Z</time></trkpt><trkpt lat="45.46459767092236" lon="8.766931682867693"><ele>138.0</ele><time>2026-04-26T13:57:44Z</time></trkpt><trkpt lat="45.4645690044007" lon="8.766801705707659"><ele>138.0</ele><time>2026-04-26T13:57:45Z</time></trkpt><trkpt lat="45.46453846679678" lon="8.766663244819922"><ele>138.4</ele><time>2026-04-26T13:57:46Z</time></trkpt><trkpt lat="45.464507483569115" lon="8.766522763436743"><ele>138.8</ele><time>2026-04-26T13:57:47Z</time></trkpt><trkpt lat="45.464475834415566" lon="8.766379262595386"><ele>139.2</ele><time>2026-04-26T13:57:48Z</time></trkpt><trkpt lat="45.46444489572277" lon="8.766234556706719"><ele>139.6</ele><time>2026-04-26T13:57:49Z</time></trkpt><trkpt lat="45.464418699860346" lon="8.76611082993152"><ele>140.0</ele><time>2026-04-26T13:57:50Z</time></trkpt><trkpt lat="45.464392748708455" lon="8.765988259052147"><ele>140.0</ele><time>2026-04-26T13:57:51Z</time></trkpt><trkpt lat="45.46436720909432" lon="8.765870373159455"><ele>140.0</ele><time>2026-04-26T13:57:52Z</time></trkpt><trkpt lat="45.46432590970625" lon="8.765762402023825"><ele>140.0</ele><time>2026-04-26T13:57:53Z</time></trkpt><trkpt lat="45.46430621219188" lon="8.76566433437271"><ele>140.0</ele><time>2026-04-26T13:57:54Z</time></trkpt><trkpt lat="45.46428819164224" lon="8.7655763447448"><ele>140.0</ele><time>2026-04-26T13:57:55Z</time></trkpt><trkpt lat="45.464224098855816" lon="8.765440931790609"><ele>140.0</ele><time>2026-04-26T13:57:57Z</time></trkpt><trkpt lat="45.464109794509284" lon="8.765413743830276"><ele>140.0</ele><time>2026-04-26T13:57:59Z</time></trkpt><trkpt lat="45.464025509692455" lon="8.765457693983794"><ele>140.0</ele><time>2026-04-26T13:58:00Z</time></trkpt><trkpt lat="45.463932631952744" lon="8.76550308946229"><ele>140.0</ele><time>2026-04-26T13:58:01Z</time></trkpt><trkpt lat="45.463839577566226" lon="8.76556515744482"><ele>140.0</ele><time>2026-04-26T13:58:02Z</time></trkpt><trkpt lat="45.463745340401694" lon="8.765625525244634"><ele>140.0</ele><time>2026-04-26T13:58:03Z</time></trkpt><trkpt lat="45.46366491251917" lon="8.765659239717923"><ele>140.2</ele><time>2026-04-26T13:58:04Z</time></trkpt><trkpt lat="45.463552520791986" lon="8.765718459608125"><ele>140.4</ele><time>2026-04-26T13:58:06Z</time></trkpt><trkpt lat="45.46348572547717" lon="8.765741537425978"><ele>140.6</ele><time>2026-04-26T13:58:08Z</time></trkpt><trkpt lat="45.46341147508013" lon="8.765749101297502"><ele>140.8</ele><time>2026-04-26T13:58:10Z</time></trkpt><trkpt lat="45.46331212286776" lon="8.765756209901285"><ele>141.0</ele><time>2026-04-26T13:58:13Z</time></trkpt><trkpt lat="45.463290071490235" lon="8.76597583328893"><ele>141.2</ele><time>2026-04-26T13:58:14Z</time></trkpt><trkpt lat="45.463273503113285" lon="8.766111132500033"><ele>141.39999999999998</ele><time>2026-04-26T13:58:15Z</time></trkpt><trkpt lat="45.463245620713664" lon="8.766245084429812"><ele>141.6</ele><time>2026-04-26T13:58:16Z</time></trkpt><trkpt lat="45.46321426014194" lon="8.766376570294605"><ele>141.79999999999998</ele><time>2026-04-26T13:58:17Z</time></trkpt><trkpt lat="45.46318659906905" lon="8.766514764172678"><ele>142.0</ele><time>2026-04-26T13:58:18Z</time></trkpt><trkpt lat="45.463157381533215" lon="8.766660350572428"><ele>142.0</ele><time>2026-04-26T13:58:19Z</time></trkpt><trkpt lat="45.463124649676544" lon="8.766815300711377"><ele>142.0</ele><time>2026-04-26T13:58:20Z</time></trkpt><trkpt lat="45.46309334880502" lon="8.76697411262746"><ele>142.0</ele><time>2026-04-26T13:58:21Z</time></trkpt><trkpt lat="45.46306151752694" lon="8.76712964353842"><ele>142.0</ele><time>2026-04-26T13:58:22Z</time></trkpt><trkpt lat="45.46302382978691" lon="8.767308993607843"><ele>141.5</ele><time>2026-04-26T13:58:23Z</time></trkpt><trkpt lat="45.46298485694965" lon="8.767489935452629"><ele>141.0</ele><time>2026-04-26T13:58:24Z</time></trkpt><trkpt lat="45.462943435038646" lon="8.767680410647348"><ele>140.5</ele><time>2026-04-26T13:58:25Z</time></trkpt><trkpt lat="45.4629015835439" lon="8.767883205020091"><ele>140.0</ele><time>2026-04-26T13:58:26Z</time></trkpt><trkpt lat="45.46286243221032" lon="8.768097131406897"><ele>139.33333333333331</ele><time>2026-04-26T13:58:27Z</time></trkpt><trkpt lat="45.46281698713488" lon="8.768336010624855"><ele>138.66666666666666</ele><time>2026-04-26T13:58:28Z</time></trkpt><trkpt lat="45.462762396941365" lon="8.768579641626179"><ele>138.0</ele><time>2026-04-26T13:58:29Z</time></trkpt><trkpt lat="45.46271004048774" lon="8.768818140606628"><ele>137.66666666666666</ele><time>2026-04-26T13:58:30Z</time></trkpt><trkpt lat="45.46265950078503" lon="8.769053560143584"><ele>137.33333333333331</ele><time>2026-04-26T13:58:31Z</time></trkpt><trkpt lat="45.46261042625594" lon="8.769285066025814"><ele>137.0</ele><time>2026-04-26T13:58:32Z</time></trkpt><trkpt lat="45.46255877702761" lon="8.769520134835938"><ele>137.0</ele><time>2026-04-26T13:58:33Z</time></trkpt><trkpt lat="45.462511817553484" lon="8.76973763698765"><ele>137.0</ele><time>2026-04-26T13:58:34Z</time></trkpt><trkpt lat="45.46246491207935" lon="8.769960784010872"><ele>137.0</ele><time>2026-04-26T13:58:35Z</time></trkpt><trkpt lat="45.46241791212857" lon="8.770177468689099"><ele>137.0</ele><time>2026-04-26T13:58:36Z</time></trkpt><trkpt lat="45.46236706098335" lon="8.77040217692008"><ele>137.0</ele><time>2026-04-26T13:58:37Z</time></trkpt><trkpt lat="45.46232000861315" lon="8.770633704046983"><ele>137.0</ele><time>2026-04-26T13:58:38Z</time></trkpt><trkpt lat="45.462274026886426" lon="8.770869700185115"><ele>137.0</ele><time>2026-04-26T13:58:39Z</time></trkpt><trkpt lat="45.46222889663059" lon="8.77110222759967"><ele>137.0</ele><time>2026-04-26T13:58:40Z</time></trkpt><trkpt lat="45.46218200345634" lon="8.771333214167543"><ele>137.0</ele><time>2026-04-26T13:58:41Z</time></trkpt><trkpt lat="45.462132765286704" lon="8.771567647759971"><ele>136.66666666666666</ele><time>2026-04-26T13:58:42Z</time></trkpt><trkpt lat="45.46208348219793" lon="8.771799079342248"><ele>136.33333333333334</ele><time>2026-04-26T13:58:43Z</time></trkpt><trkpt lat="45.46203513715456" lon="8.772033394147297"><ele>136.0</ele><time>2026-04-26T13:58:44Z</time></trkpt><trkpt lat="45.461987615812745" lon="8.772266303095977"><ele>136.0</ele><time>2026-04-26T13:58:45Z</time></trkpt><trkpt lat="45.46194010290607" lon="8.772495878201129"><ele>136.0</ele><time>2026-04-26T13:58:46Z</time></trkpt><trkpt lat="45.46189618584015" lon="8.772707776724424"><ele>136.0</ele><time>2026-04-26T13:58:47Z</time></trkpt><trkpt lat="45.46185243039317" lon="8.772909655846032"><ele>135.5</ele><time>2026-04-26T13:58:48Z</time></trkpt><trkpt lat="45.46181407942587" lon="8.77309445567312"><ele>135.0</ele><time>2026-04-26T13:58:49Z</time></trkpt><trkpt lat="45.4617791969517" lon="8.773270748950504"><ele>134.5</ele><time>2026-04-26T13:58:50Z</time></trkpt><trkpt lat="45.46174807263213" lon="8.773436463180682"><ele>134.0</ele><time>2026-04-26T13:58:51Z</time></trkpt><trkpt lat="45.461713909237275" lon="8.773590247862705"><ele>134.8</ele><time>2026-04-26T13:58:52Z</time></trkpt><trkpt lat="45.46168200654516" lon="8.773731366001384"><ele>135.60000000000002</ele><time>2026-04-26T13:58:53Z</time></trkpt><trkpt lat="45.4616541890251" lon="8.773865695830048"><ele>136.4</ele><time>2026-04-26T13:58:54Z</time></trkpt><trkpt lat="45.461625591656926" lon="8.774001788837522"><ele>137.20000000000002</ele><time>2026-04-26T13:58:55Z</time></trkpt><trkpt lat="45.46159558650059" lon="8.77413848169682"><ele>138.0</ele><time>2026-04-26T13:58:56Z</time></trkpt><trkpt lat="45.46156399389324" lon="8.774280437635793"><ele>138.16666666666666</ele><time>2026-04-26T13:58:57Z</time></trkpt><trkpt lat="45.4615370688963" lon="8.774408917398604"><ele>138.33333333333334</ele><time>2026-04-26T13:58:58Z</time></trkpt><trkpt lat="45.461517959731125" lon="8.774512408579463"><ele>138.5</ele><time>2026-04-26T13:58:59Z</time></trkpt><trkpt lat="45.46150285779936" lon="8.774600391003593"><ele>138.66666666666669</ele><time>2026-04-26T13:59:00Z</time></trkpt><trkpt lat="45.46148149296973" lon="8.77468905762282"><ele>138.83333333333334</ele><time>2026-04-26T13:59:01Z</time></trkpt><trkpt lat="45.46144178312849" lon="8.774838973045116"><ele>139.0</ele><time>2026-04-26T13:59:03Z</time></trkpt><trkpt lat="45.4613041457825" lon="8.774823436968665"><ele>138.6</ele><time>2026-04-26T13:59:04Z</time></trkpt><trkpt lat="45.46121987351553" lon="8.77484133530925"><ele>138.2</ele><time>2026-04-26T13:59:05Z</time></trkpt><trkpt lat="45.461123453812256" lon="8.774878179185874"><ele>137.79999999999998</ele><time>2026-04-26T13:59:06Z</time></trkpt><trkpt lat="45.46102222887088" lon="8.774912839244767"><ele>137.4</ele><time>2026-04-26T13:59:07Z</time></trkpt><trkpt lat="45.460906114376535" lon="8.774956069766935"><ele>137.0</ele><time>2026-04-26T13:59:08Z</time></trkpt><trkpt lat="45.46077669272381" lon="8.77501492472752"><ele>137.0</ele><time>2026-04-26T13:59:09Z</time></trkpt><trkpt lat="45.460634484602245" lon="8.775069426367338"><ele>137.0</ele><time>2026-04-26T13:59:10Z</time></trkpt><trkpt lat="45.46049495205551" lon="8.775121670280145"><ele>137.0</ele><time>2026-04-26T13:59:11Z</time></trkpt><trkpt lat="45.46035150597374" lon="8.77518532687693"><ele>137.0</ele><time>2026-04-26T13:59:12Z</time></trkpt><trkpt lat="45.46020330921766" lon="8.77523916293682"><ele>136.66666666666666</ele><time>2026-04-26T13:59:13Z</time></trkpt><trkpt lat="45.46004964698864" lon="8.775292626911593"><ele>136.33333333333334</ele><time>2026-04-26T13:59:14Z</time></trkpt><trkpt lat="45.459891056410434" lon="8.775347413839368"><ele>136.0</ele><time>2026-04-26T13:59:15Z</time></trkpt><trkpt lat="45.459736439647486" lon="8.775411664179346"><ele>136.33333333333334</ele><time>2026-04-26T13:59:16Z</time></trkpt><trkpt lat="45.45958483706514" lon="8.775474569075994"><ele>136.66666666666666</ele><time>2026-04-26T13:59:17Z</time></trkpt><trkpt lat="45.45943355522521" lon="8.775538149528467"><ele>137.0</ele><time>2026-04-26T13:59:18Z</time></trkpt><trkpt lat="45.45929039352944" lon="8.775598880195465"><ele>137.0</ele><time>2026-04-26T13:59:19Z</time></trkpt><trkpt lat="45.45914685069328" lon="8.775655716686545"><ele>137.0</ele><time>2026-04-26T13:59:20Z</time></trkpt><trkpt lat="45.458991387349876" lon="8.775711219140858"><ele>137.0</ele><time>2026-04-26T13:59:21Z</time></trkpt><trkpt lat="45.45883914232772" lon="8.775771917924905"><ele>136.33333333333331</ele><time>2026-04-26T13:59:22Z</time></trkpt><trkpt lat="45.45867914898139" lon="8.77583983612284"><ele>135.66666666666666</ele><time>2026-04-26T13:59:23Z</time></trkpt><trkpt lat="45.45851303537797" lon="8.775903735928908"><ele>135.0</ele><time>2026-04-26T13:59:24Z</time></trkpt><trkpt lat="45.458347024834104" lon="8.775968181224926"><ele>134.66666666666666</ele><time>2026-04-26T13:59:25Z</time></trkpt><trkpt lat="45.458178910775125" lon="8.77603619591498"><ele>134.33333333333331</ele><time>2026-04-26T13:59:26Z</time></trkpt><trkpt lat="45.45801251015957" lon="8.776103564797868"><ele>134.0</ele><time>2026-04-26T13:59:27Z</time></trkpt><trkpt lat="45.457853234719394" lon="8.776168771758018"><ele>134.0</ele><time>2026-04-26T13:59:28Z</time></trkpt><trkpt lat="45.457710365044406" lon="8.776227814784065"><ele>134.0</ele><time>2026-04-26T13:59:29Z</time></trkpt><trkpt lat="45.45757525769241" lon="8.776286854618412"><ele>134.0</ele><time>2026-04-26T13:59:30Z</time></trkpt><trkpt lat="45.45744260130089" lon="8.77634337995841"><ele>134.0</ele><time>2026-04-26T13:59:31Z</time></trkpt><trkpt lat="45.457302593329004" lon="8.776399399885966"><ele>134.0</ele><time>2026-04-26T13:59:32Z</time></trkpt><trkpt lat="45.45715873445046" lon="8.776454509122757"><ele>134.0</ele><time>2026-04-26T13:59:33Z</time></trkpt><trkpt lat="45.457006939428354" lon="8.776517688698158"><ele>134.0</ele><time>2026-04-26T13:59:34Z</time></trkpt><trkpt lat="45.45685655519554" lon="8.776574381314294"><ele>134.25</ele><time>2026-04-26T13:59:35Z</time></trkpt><trkpt lat="45.45671826725657" lon="8.776629958511197"><ele>134.5</ele><time>2026-04-26T13:59:36Z</time></trkpt><trkpt lat="45.45659680375643" lon="8.776680890550516"><ele>134.75</ele><time>2026-04-26T13:59:37Z</time></trkpt><trkpt lat="45.45648455349478" lon="8.776728178930671"><ele>135.0</ele><time>2026-04-26T13:59:38Z</time></trkpt><trkpt lat="45.45637615678929" lon="8.776768218562854"><ele>134.75</ele><time>2026-04-26T13:59:39Z</time></trkpt><trkpt lat="45.456271518009935" lon="8.776808596862129"><ele>134.5</ele><time>2026-04-26T13:59:40Z</time></trkpt><trkpt lat="45.45616010218657" lon="8.776852643678822"><ele>134.25</ele><time>2026-04-26T13:59:41Z</time></trkpt><trkpt lat="45.45604536760047" lon="8.776897001413836"><ele>134.0</ele><time>2026-04-26T13:59:42Z</time></trkpt><trkpt lat="45.455930410023804" lon="8.776937680557506"><ele>134.0</ele><time>2026-04-26T13:59:43Z</time></trkpt><trkpt lat="45.455809182608576" lon="8.776973875206608"><ele>134.0</ele><time>2026-04-26T13:59:44Z</time></trkpt><trkpt lat="45.455688662410985" lon="8.777018626768028"><ele>134.0</ele><time>2026-04-26T13:59:45Z</time></trkpt><trkpt lat="45.455566930724856" lon="8.777078368550406"><ele>134.0</ele><time>2026-04-26T13:59:46Z</time></trkpt><trkpt lat="45.45543110982651" lon="8.777129274864345"><ele>134.33333333333331</ele><time>2026-04-26T13:59:47Z</time></trkpt><trkpt lat="45.45528622286" lon="8.777186549099378"><ele>134.66666666666666</ele><time>2026-04-26T13:59:48Z</time></trkpt><trkpt lat="45.45512173082878" lon="8.77724911463533"><ele>135.0</ele><time>2026-04-26T13:59:49Z</time></trkpt><trkpt lat="45.454966135711494" lon="8.777310887813544"><ele>135.0</ele><time>2026-04-26T13:59:50Z</time></trkpt><trkpt lat="45.4548007360964" lon="8.777380438837103"><ele>135.0</ele><time>2026-04-26T13:59:51Z</time></trkpt><trkpt lat="45.454643951796264" lon="8.777445957581346"><ele>135.0</ele><time>2026-04-26T13:59:52Z</time></trkpt><trkpt lat="45.454506872467064" lon="8.777503270632067"><ele>134.25</ele><time>2026-04-26T13:59:53Z</time></trkpt><trkpt lat="45.454379746261715" lon="8.777553233358153"><ele>133.5</ele><time>2026-04-26T13:59:54Z</time></trkpt><trkpt lat="45.45426576788114" lon="8.777599007301667"><ele>132.75</ele><time>2026-04-26T13:59:55Z</time></trkpt><trkpt lat="45.454160386459485" lon="8.777643073723516"><ele>132.0</ele><time>2026-04-26T13:59:56Z</time></trkpt><trkpt lat="45.45405764332423" lon="8.777683168065343"><ele>132.16666666666666</ele><time>2026-04-26T13:59:57Z</time></trkpt><trkpt lat="45.4539705531763" lon="8.777728728293486"><ele>132.33333333333334</ele><time>2026-04-26T13:59:58Z</time></trkpt><trkpt lat="45.4539007713215" lon="8.777797352550794"><ele>132.5</ele><time>2026-04-26T13:59:59Z</time></trkpt><trkpt lat="45.4538599183947" lon="8.777892582899549"><ele>132.66666666666669</ele><time>2026-04-26T14:00:00Z</time></trkpt><trkpt lat="45.453838403588264" lon="8.778001098201658"><ele>132.83333333333334</ele><time>2026-04-26T14:00:01Z</time></trkpt><trkpt lat="45.45381958553036" lon="8.778102322637794"><ele>133.0</ele><time>2026-04-26T14:00:02Z</time></trkpt><trkpt lat="45.45381972451485" lon="8.778222195193404"><ele>133.0</ele><time>2026-04-26T14:00:03Z</time></trkpt><trkpt lat="45.453811269170195" lon="8.77834801490499"><ele>133.0</ele><time>2026-04-26T14:00:04Z</time></trkpt><trkpt lat="45.45380330055818" lon="8.778464427942495"><ele>133.0</ele><time>2026-04-26T14:00:05Z</time></trkpt><trkpt lat="45.453795526350675" lon="8.778598814632232"><ele>133.0</ele><time>2026-04-26T14:00:06Z</time></trkpt><trkpt lat="45.45378809709067" lon="8.77872971639722"><ele>133.0</ele><time>2026-04-26T14:00:07Z</time></trkpt><trkpt lat="45.45378028105403" lon="8.778867433097743"><ele>132.8</ele><time>2026-04-26T14:00:08Z</time></trkpt><trkpt lat="45.45377032988566" lon="8.779042769955636"><ele>132.60000000000002</ele><time>2026-04-26T14:00:09Z</time></trkpt><trkpt lat="45.45376017830146" lon="8.779217192501251"><ele>132.39999999999998</ele><time>2026-04-26T14:00:10Z</time></trkpt><trkpt lat="45.45374809850603" lon="8.779360564287337"><ele>132.2</ele><time>2026-04-26T14:00:11Z</time></trkpt><trkpt lat="45.4537216274542" lon="8.779465281999428"><ele>132.0</ele><time>2026-04-26T14:00:12Z</time></trkpt><trkpt lat="45.45370529639885" lon="8.779598990664514"><ele>132.5</ele><time>2026-04-26T14:00:14Z</time></trkpt><trkpt lat="45.453678997262465" lon="8.77971267392157"><ele>133.0</ele><time>2026-04-26T14:00:16Z</time></trkpt><trkpt lat="45.45361700363077" lon="8.779787201842735"><ele>133.5</ele><time>2026-04-26T14:00:18Z</time></trkpt><trkpt lat="45.45349812920013" lon="8.779822219897289"><ele>134.0</ele><time>2026-04-26T14:00:20Z</time></trkpt><trkpt lat="45.453433218796405" lon="8.779847669421422"><ele>134.5</ele><time>2026-04-26T14:00:21Z</time></trkpt><trkpt lat="45.45335507017201" lon="8.779889310490136"><ele>135.0</ele><time>2026-04-26T14:00:22Z</time></trkpt><trkpt lat="45.4532669983415" lon="8.779924996705766"><ele>135.0</ele><time>2026-04-26T14:00:23Z</time></trkpt><trkpt lat="45.4531705077525" lon="8.779955748536171"><ele>135.0</ele><time>2026-04-26T14:00:24Z</time></trkpt><trkpt lat="45.453065497851554" lon="8.77999003816607"><ele>135.0</ele><time>2026-04-26T14:00:25Z</time></trkpt><trkpt lat="45.45295630173051" lon="8.780028484560438"><ele>135.0</ele><time>2026-04-26T14:00:26Z</time></trkpt><trkpt lat="45.452850568558496" lon="8.780063723732848"><ele>135.0</ele><time>2026-04-26T14:00:27Z</time></trkpt><trkpt lat="45.452745894885695" lon="8.780102250013496"><ele>134.75</ele><time>2026-04-26T14:00:28Z</time></trkpt><trkpt lat="45.45263086809789" lon="8.78015451480725"><ele>134.5</ele><time>2026-04-26T14:00:29Z</time></trkpt><trkpt lat="45.45251036576907" lon="8.780191136782323"><ele>134.25</ele><time>2026-04-26T14:00:30Z</time></trkpt><trkpt lat="45.45238949158923" lon="8.780233974054777"><ele>134.0</ele><time>2026-04-26T14:00:31Z</time></trkpt><trkpt lat="45.45227064476703" lon="8.78028657251888"><ele>133.75</ele><time>2026-04-26T14:00:32Z</time></trkpt><trkpt lat="45.45214437664549" lon="8.78033105541957"><ele>133.5</ele><time>2026-04-26T14:00:33Z</time></trkpt><trkpt lat="45.45201104090846" lon="8.780376141664153"><ele>133.25</ele><time>2026-04-26T14:00:34Z</time></trkpt><trkpt lat="45.45187495501734" lon="8.780423036249854"><ele>133.0</ele><time>2026-04-26T14:00:35Z</time></trkpt><trkpt lat="45.45174493450431" lon="8.780474935558596"><ele>133.0</ele><time>2026-04-26T14:00:36Z</time></trkpt><trkpt lat="45.45161921035835" lon="8.78051895451686"><ele>133.0</ele><time>2026-04-26T14:00:37Z</time></trkpt><trkpt lat="45.45148581052055" lon="8.780562500431019"><ele>133.0</ele><time>2026-04-26T14:00:38Z</time></trkpt><trkpt lat="45.4513500933144" lon="8.780607370552604"><ele>133.0</ele><time>2026-04-26T14:00:39Z</time></trkpt><trkpt lat="45.451219054504705" lon="8.780665642894784"><ele>132.5</ele><time>2026-04-26T14:00:40Z</time></trkpt><trkpt lat="45.451080745503184" lon="8.780713068558349"><ele>132.0</ele><time>2026-04-26T14:00:41Z</time></trkpt><trkpt lat="45.45093851980778" lon="8.780765929881138"><ele>131.5</ele><time>2026-04-26T14:00:42Z</time></trkpt><trkpt lat="45.45079489948041" lon="8.780817590047166"><ele>131.0</ele><time>2026-04-26T14:00:43Z</time></trkpt><trkpt lat="45.450648439715316" lon="8.780863342810923"><ele>131.0</ele><time>2026-04-26T14:00:44Z</time></trkpt><trkpt lat="45.45050397644448" lon="8.780907194355867"><ele>131.0</ele><time>2026-04-26T14:00:45Z</time></trkpt><trkpt lat="45.450355568390606" lon="8.780946797687415"><ele>131.0</ele><time>2026-04-26T14:00:46Z</time></trkpt><trkpt lat="45.45020597401262" lon="8.780983838066353"><ele>131.25</ele><time>2026-04-26T14:00:47Z</time></trkpt><trkpt lat="45.45005597782768" lon="8.781018437259563"><ele>131.5</ele><time>2026-04-26T14:00:48Z</time></trkpt><trkpt lat="45.44991344115452" lon="8.781048328535904"><ele>131.75</ele><time>2026-04-26T14:00:49Z</time></trkpt><trkpt lat="45.44976807507996" lon="8.781084073933307"><ele>132.0</ele><time>2026-04-26T14:00:50Z</time></trkpt><trkpt lat="45.449619541511" lon="8.781122941351287"><ele>132.33333333333334</ele><time>2026-04-26T14:00:51Z</time></trkpt><trkpt lat="45.44947086219946" lon="8.781158144639482"><ele>132.66666666666669</ele><time>2026-04-26T14:00:52Z</time></trkpt><trkpt lat="45.44932270338477" lon="8.781196018522943"><ele>133.0</ele><time>2026-04-26T14:00:53Z</time></trkpt><trkpt lat="45.44917582889336" lon="8.781233330144586"><ele>133.0</ele><time>2026-04-26T14:00:54Z</time></trkpt><trkpt lat="45.4490314076145" lon="8.78126485548717"><ele>133.0</ele><time>2026-04-26T14:00:55Z</time></trkpt><trkpt lat="45.4488830013757" lon="8.781299494860113"><ele>133.0</ele><time>2026-04-26T14:00:56Z</time></trkpt><trkpt lat="45.448732036489616" lon="8.781335085970557"><ele>133.0</ele><time>2026-04-26T14:00:57Z</time></trkpt><trkpt lat="45.4485804264741" lon="8.781369711381172"><ele>132.0</ele><time>2026-04-26T14:00:58Z</time></trkpt><trkpt lat="45.44842885358422" lon="8.781399393539601"><ele>131.0</ele><time>2026-04-26T14:00:59Z</time></trkpt><trkpt lat="45.448278765088816" lon="8.781426072075787"><ele>130.0</ele><time>2026-04-26T14:01:00Z</time></trkpt><trkpt lat="45.448129459667264" lon="8.781464493418568"><ele>130.0</ele><time>2026-04-26T14:01:01Z</time></trkpt><trkpt lat="45.44797987719536" lon="8.781514231668085"><ele>130.0</ele><time>2026-04-26T14:01:02Z</time></trkpt><trkpt lat="45.44784161365774" lon="8.781568183181962"><ele>130.0</ele><time>2026-04-26T14:01:03Z</time></trkpt><trkpt lat="45.44770348781966" lon="8.781622847926018"><ele>130.0</ele><time>2026-04-26T14:01:04Z</time></trkpt><trkpt lat="45.447552674205085" lon="8.78166044066466"><ele>130.33333333333334</ele><time>2026-04-26T14:01:05Z</time></trkpt><trkpt lat="45.44740249430924" lon="8.781697489795016"><ele>130.66666666666666</ele><time>2026-04-26T14:01:06Z</time></trkpt><trkpt lat="45.44725645703636" lon="8.781735738883778"><ele>131.0</ele><time>2026-04-26T14:01:07Z</time></trkpt><trkpt lat="45.44710838969439" lon="8.7817698152769"><ele>131.0</ele><time>2026-04-26T14:01:08Z</time></trkpt><trkpt lat="45.44695867166314" lon="8.781806445111064"><ele>131.0</ele><time>2026-04-26T14:01:09Z</time></trkpt><trkpt lat="45.446811725554625" lon="8.781848511581636"><ele>131.0</ele><time>2026-04-26T14:01:10Z</time></trkpt><trkpt lat="45.44666552509075" lon="8.781890924999658"><ele>131.0</ele><time>2026-04-26T14:01:11Z</time></trkpt><trkpt lat="45.44651607389296" lon="8.781931286474668"><ele>131.0</ele><time>2026-04-26T14:01:12Z</time></trkpt><trkpt lat="45.446370854850045" lon="8.781971964818927"><ele>131.0</ele><time>2026-04-26T14:01:13Z</time></trkpt><trkpt lat="45.446237646893564" lon="8.782006452841586"><ele>131.0</ele><time>2026-04-26T14:01:14Z</time></trkpt><trkpt lat="45.44611309999453" lon="8.782035829145219"><ele>131.0</ele><time>2026-04-26T14:01:15Z</time></trkpt><trkpt lat="45.446011084256924" lon="8.782060280023803"><ele>131.0</ele><time>2026-04-26T14:01:16Z</time></trkpt><trkpt lat="45.44591509653654" lon="8.782084452145613"><ele>131.0</ele><time>2026-04-26T14:01:17Z</time></trkpt><trkpt lat="45.44582828573295" lon="8.782111505647702"><ele>131.0</ele><time>2026-04-26T14:01:18Z</time></trkpt><trkpt lat="45.44574721885574" lon="8.782138430385004"><ele>131.0</ele><time>2026-04-26T14:01:19Z</time></trkpt><trkpt lat="45.445668755487056" lon="8.78217290840394"><ele>131.0</ele><time>2026-04-26T14:01:20Z</time></trkpt><trkpt lat="45.445593356473914" lon="8.78223621727321"><ele>131.0</ele><time>2026-04-26T14:01:21Z</time></trkpt><trkpt lat="45.445515382455916" lon="8.782315135779177"><ele>131.0</ele><time>2026-04-26T14:01:22Z</time></trkpt><trkpt lat="45.44543850037129" lon="8.782412137408178"><ele>131.0</ele><time>2026-04-26T14:01:23Z</time></trkpt><trkpt lat="45.44537628560398" lon="8.78249153435056"><ele>131.0</ele><time>2026-04-26T14:01:24Z</time></trkpt><trkpt lat="45.445313577615146" lon="8.782552336936583"><ele>131.0</ele><time>2026-04-26T14:01:25Z</time></trkpt><trkpt lat="45.44524237577795" lon="8.782602154408552"><ele>130.6</ele><time>2026-04-26T14:01:26Z</time></trkpt><trkpt lat="45.44515786618026" lon="8.782632317686238"><ele>130.2</ele><time>2026-04-26T14:01:27Z</time></trkpt><trkpt lat="45.44505694279913" lon="8.782634563755881"><ele>129.8</ele><time>2026-04-26T14:01:28Z</time></trkpt><trkpt lat="45.44495689242359" lon="8.782631353982385"><ele>129.4</ele><time>2026-04-26T14:01:29Z</time></trkpt><trkpt lat="45.44487157642154" lon="8.782664676831336"><ele>129.0</ele><time>2026-04-26T14:01:30Z</time></trkpt><trkpt lat="45.4447787100411" lon="8.782742630919142"><ele>128.75</ele><time>2026-04-26T14:01:31Z</time></trkpt><trkpt lat="45.44470021067022" lon="8.782860204537657"><ele>128.5</ele><time>2026-04-26T14:01:32Z</time></trkpt><trkpt lat="45.44469181870548" lon="8.783019284062389"><ele>128.25</ele><time>2026-04-26T14:01:33Z</time></trkpt><trkpt lat="45.44475475313357" lon="8.783193785754836"><ele>128.0</ele><time>2026-04-26T14:01:35Z</time></trkpt><trkpt lat="45.44481764139822" lon="8.783301544722573"><ele>128.0</ele><time>2026-04-26T14:01:36Z</time></trkpt><trkpt lat="45.44491392566194" lon="8.783379351075446"><ele>128.0</ele><time>2026-04-26T14:01:37Z</time></trkpt><trkpt lat="45.44501278768235" lon="8.783458020031643"><ele>128.0</ele><time>2026-04-26T14:01:38Z</time></trkpt><trkpt lat="45.44510235873477" lon="8.783575866859959"><ele>128.0</ele><time>2026-04-26T14:01:39Z</time></trkpt><trkpt lat="45.445173851841744" lon="8.783738063926409"><ele>128.0</ele><time>2026-04-26T14:01:40Z</time></trkpt><trkpt lat="45.44522210502943" lon="8.783918045324478"><ele>128.0</ele><time>2026-04-26T14:01:41Z</time></trkpt><trkpt lat="45.445261702862894" lon="8.784107352630878"><ele>128.0</ele><time>2026-04-26T14:01:42Z</time></trkpt><trkpt lat="45.44531066546639" lon="8.78430279019734"><ele>128.0</ele><time>2026-04-26T14:01:43Z</time></trkpt><trkpt lat="45.44536545769512" lon="8.784502449130901"><ele>128.0</ele><time>2026-04-26T14:01:44Z</time></trkpt><trkpt lat="45.44542251487528" lon="8.784708978370393"><ele>128.0</ele><time>2026-04-26T14:01:45Z</time></trkpt><trkpt lat="45.4454809644331" lon="8.78490968809187"><ele>128.0</ele><time>2026-04-26T14:01:46Z</time></trkpt><trkpt lat="45.44552829680856" lon="8.785101200929196"><ele>128.0</ele><time>2026-04-26T14:01:47Z</time></trkpt><trkpt lat="45.44558370194251" lon="8.785298925895956"><ele>128.0</ele><time>2026-04-26T14:01:48Z</time></trkpt><trkpt lat="45.4456373807242" lon="8.785493276207236"><ele>128.0</ele><time>2026-04-26T14:01:49Z</time></trkpt><trkpt lat="45.44569050013993" lon="8.785695341113534"><ele>128.0</ele><time>2026-04-26T14:01:50Z</time></trkpt><trkpt lat="45.445746239553834" lon="8.785899114662389"><ele>129.33333333333331</ele><time>2026-04-26T14:01:51Z</time></trkpt><trkpt lat="45.44580337251449" lon="8.786109172781178"><ele>130.66666666666666</ele><time>2026-04-26T14:01:52Z</time></trkpt><trkpt lat="45.44586170124729" lon="8.786318955468312"><ele>132.0</ele><time>2026-04-26T14:01:53Z</time></trkpt><trkpt lat="45.44591931719965" lon="8.78653068551295"><ele>132.0</ele><time>2026-04-26T14:01:54Z</time></trkpt><trkpt lat="45.4459780404433" lon="8.78674711634946"><ele>132.0</ele><time>2026-04-26T14:01:55Z</time></trkpt><trkpt lat="45.446031292727355" lon="8.786957028820892"><ele>132.0</ele><time>2026-04-26T14:01:56Z</time></trkpt><trkpt lat="45.446083101438845" lon="8.787151148300495"><ele>132.0</ele><time>2026-04-26T14:01:57Z</time></trkpt><trkpt lat="45.446138334465765" lon="8.787347534871781"><ele>132.0</ele><time>2026-04-26T14:01:58Z</time></trkpt><trkpt lat="45.446185541461396" lon="8.787540444925828"><ele>132.0</ele><time>2026-04-26T14:01:59Z</time></trkpt><trkpt lat="45.44623898046527" lon="8.787738349467144"><ele>132.0</ele><time>2026-04-26T14:02:00Z</time></trkpt><trkpt lat="45.44629077782186" lon="8.787936629901287"><ele>132.0</ele><time>2026-04-26T14:02:01Z</time></trkpt><trkpt lat="45.44634748914944" lon="8.788136375501217"><ele>132.0</ele><time>2026-04-26T14:02:02Z</time></trkpt><trkpt lat="45.4464073040172" lon="8.788335025125493"><ele>132.0</ele><time>2026-04-26T14:02:03Z</time></trkpt><trkpt lat="45.44645925707158" lon="8.788524549385004"><ele>132.0</ele><time>2026-04-26T14:02:04Z</time></trkpt><trkpt lat="45.446505279373696" lon="8.788695304036372"><ele>132.0</ele><time>2026-04-26T14:02:05Z</time></trkpt><trkpt lat="45.44655156520279" lon="8.788855607509868"><ele>132.0</ele><time>2026-04-26T14:02:06Z</time></trkpt><trkpt lat="45.44659220730413" lon="8.789004508405073"><ele>132.0</ele><time>2026-04-26T14:02:07Z</time></trkpt><trkpt lat="45.44662679036381" lon="8.789140420313869"><ele>132.0</ele><time>2026-04-26T14:02:08Z</time></trkpt><trkpt lat="45.446654607198276" lon="8.789260325854656"><ele>132.0</ele><time>2026-04-26T14:02:09Z</time></trkpt><trkpt lat="45.44667537921849" lon="8.78937865332015"><ele>132.0</ele><time>2026-04-26T14:02:10Z</time></trkpt><trkpt lat="45.446697831409686" lon="8.789487426300681"><ele>132.0</ele><time>2026-04-26T14:02:11Z</time></trkpt><trkpt lat="45.44671286674946" lon="8.7896029640191"><ele>132.0</ele><time>2026-04-26T14:02:12Z</time></trkpt><trkpt lat="45.4466792770659" lon="8.789686303056257"><ele>132.0</ele><time>2026-04-26T14:02:13Z</time></trkpt><trkpt lat="45.446635915779424" lon="8.789753394232232"><ele>132.0</ele><time>2026-04-26T14:02:14Z</time></trkpt><trkpt lat="45.446594157181046" lon="8.789842037292876"><ele>132.0</ele><time>2026-04-26T14:02:15Z</time></trkpt><trkpt lat="45.44660230196897" lon="8.789952284012823"><ele>132.0</ele><time>2026-04-26T14:02:16Z</time></trkpt><trkpt lat="45.44666527599337" lon="8.790046946849799"><ele>132.0</ele><time>2026-04-26T14:02:17Z</time></trkpt><trkpt lat="45.44675750480738" lon="8.79009371329471"><ele>132.0</ele><time>2026-04-26T14:02:18Z</time></trkpt><trkpt lat="45.44684752604218" lon="8.790128637186115"><ele>132.0</ele><time>2026-04-26T14:02:19Z</time></trkpt><trkpt lat="45.44691757049883" lon="8.790221036454826"><ele>132.0</ele><time>2026-04-26T14:02:20Z</time></trkpt><trkpt lat="45.446957691291686" lon="8.790371287427565"><ele>132.0</ele><time>2026-04-26T14:02:21Z</time></trkpt><trkpt lat="45.44698575169167" lon="8.790540781946751"><ele>132.0</ele><time>2026-04-26T14:02:22Z</time></trkpt><trkpt lat="45.447019022421934" lon="8.790725756559572"><ele>132.0</ele><time>2026-04-26T14:02:23Z</time></trkpt><trkpt lat="45.44706175533961" lon="8.79091918470022"><ele>132.0</ele><time>2026-04-26T14:02:24Z</time></trkpt><trkpt lat="45.4471071210782" lon="8.791108022058042"><ele>132.0</ele><time>2026-04-26T14:02:25Z</time></trkpt><trkpt lat="45.44715356216886" lon="8.791305508849415"><ele>132.0</ele><time>2026-04-26T14:02:26Z</time></trkpt><trkpt lat="45.44720427750411" lon="8.791510745420128"><ele>132.0</ele><time>2026-04-26T14:02:27Z</time></trkpt><trkpt lat="45.44724968835426" lon="8.79172048213123"><ele>132.0</ele><time>2026-04-26T14:02:28Z</time></trkpt><trkpt lat="45.44729151678498" lon="8.791927431656369"><ele>130.33333333333334</ele><time>2026-04-26T14:02:29Z</time></trkpt><trkpt lat="45.447340833059314" lon="8.792132912379655"><ele>128.66666666666669</ele><time>2026-04-26T14:02:30Z</time></trkpt><trkpt lat="45.44738810987591" lon="8.792340119216108"><ele>127.0</ele><time>2026-04-26T14:02:31Z</time></trkpt><trkpt lat="45.44743904691629" lon="8.792552798639543"><ele>126.0</ele><time>2026-04-26T14:02:32Z</time></trkpt><trkpt lat="45.447489456776715" lon="8.792759266182477"><ele>125.0</ele><time>2026-04-26T14:02:33Z</time></trkpt><trkpt lat="45.44753913988989" lon="8.792964921434695"><ele>124.0</ele><time>2026-04-26T14:02:34Z</time></trkpt><trkpt lat="45.44758631723438" lon="8.793147437012104"><ele>123.0</ele><time>2026-04-26T14:02:35Z</time></trkpt><trkpt lat="45.44762810525005" lon="8.793320859628109"><ele>123.0</ele><time>2026-04-26T14:02:36Z</time></trkpt><trkpt lat="45.44767022741707" lon="8.793489953971592"><ele>123.0</ele><time>2026-04-26T14:02:37Z</time></trkpt><trkpt lat="45.447718332701776" lon="8.79366604395702"><ele>123.0</ele><time>2026-04-26T14:02:38Z</time></trkpt><trkpt lat="45.447765194091225" lon="8.793849694327097"><ele>123.0</ele><time>2026-04-26T14:02:39Z</time></trkpt><trkpt lat="45.44781102207936" lon="8.794040250632927"><ele>122.5</ele><time>2026-04-26T14:02:40Z</time></trkpt><trkpt lat="45.4478576667926" lon="8.79422512760954"><ele>122.0</ele><time>2026-04-26T14:02:41Z</time></trkpt><trkpt lat="45.44790224797502" lon="8.79439992700793"><ele>121.5</ele><time>2026-04-26T14:02:42Z</time></trkpt><trkpt lat="45.447943866371084" lon="8.794560135037509"><ele>121.0</ele><time>2026-04-26T14:02:43Z</time></trkpt><trkpt lat="45.44797994133297" lon="8.794712469755002"><ele>121.0</ele><time>2026-04-26T14:02:44Z</time></trkpt><trkpt lat="45.44801072910063" lon="8.79485953858263"><ele>121.0</ele><time>2026-04-26T14:02:45Z</time></trkpt><trkpt lat="45.4480411966617" lon="8.794996286660453"><ele>121.0</ele><time>2026-04-26T14:02:46Z</time></trkpt><trkpt lat="45.448074925470536" lon="8.7951262403351"><ele>121.0</ele><time>2026-04-26T14:02:47Z</time></trkpt><trkpt lat="45.44810323032532" lon="8.79525710453939"><ele>121.0</ele><time>2026-04-26T14:02:48Z</time></trkpt><trkpt lat="45.44815612229645" lon="8.795374083443921"><ele>120.66666666666667</ele><time>2026-04-26T14:02:49Z</time></trkpt><trkpt lat="45.448160202725475" lon="8.795516214208176"><ele>120.33333333333334</ele><time>2026-04-26T14:02:50Z</time></trkpt><trkpt lat="45.44818492785346" lon="8.795626556442702"><ele>120.0</ele><time>2026-04-26T14:02:51Z</time></trkpt><trkpt lat="45.448209270641094" lon="8.795727632983711"><ele>119.66666666666666</ele><time>2026-04-26T14:02:52Z</time></trkpt><trkpt lat="45.448234381819915" lon="8.79582715748167"><ele>119.33333333333333</ele><time>2026-04-26T14:02:53Z</time></trkpt><trkpt lat="45.44826025037267" lon="8.795918352944192"><ele>119.0</ele><time>2026-04-26T14:02:54Z</time></trkpt><trkpt lat="45.44829579505781" lon="8.796055385130465"><ele>118.83333333333333</ele><time>2026-04-26T14:02:56Z</time></trkpt><trkpt lat="45.448255774295944" lon="8.796138090490663"><ele>118.66666666666666</ele><time>2026-04-26T14:02:59Z</time></trkpt><trkpt lat="45.44832836851818" lon="8.796157453895121"><ele>118.5</ele><time>2026-04-26T14:03:56Z</time></trkpt><trkpt lat="45.44835812118239" lon="8.796328559165195"><ele>118.33333333333334</ele><time>2026-04-26T14:03:58Z</time></trkpt><trkpt lat="45.448387645516874" lon="8.796447741928722"><ele>118.16666666666667</ele><time>2026-04-26T14:03:59Z</time></trkpt><trkpt lat="45.44842068146795" lon="8.79656673803526"><ele>118.0</ele><time>2026-04-26T14:04:00Z</time></trkpt><trkpt lat="45.44845297551182" lon="8.796698092487812"><ele>118.0</ele><time>2026-04-26T14:04:01Z</time></trkpt><trkpt lat="45.4484832155056" lon="8.79683074840593"><ele>118.00000000000001</ele><time>2026-04-26T14:04:02Z</time></trkpt><trkpt lat="45.44851865304709" lon="8.796974230461261"><ele>118.00000000000001</ele><time>2026-04-26T14:04:03Z</time></trkpt><trkpt lat="45.448553522238925" lon="8.797122201772952"><ele>118.0</ele><time>2026-04-26T14:04:04Z</time></trkpt><trkpt lat="45.44859384598206" lon="8.797284344491523"><ele>118.0</ele><time>2026-04-26T14:04:05Z</time></trkpt><trkpt lat="45.448631216985405" lon="8.797439679325917"><ele>117.60000000000001</ele><time>2026-04-26T14:04:06Z</time></trkpt><trkpt lat="45.44866386891534" lon="8.797580868757477"><ele>117.20000000000002</ele><time>2026-04-26T14:04:07Z</time></trkpt><trkpt lat="45.44869304915818" lon="8.797698658570049"><ele>116.8</ele><time>2026-04-26T14:04:08Z</time></trkpt><trkpt lat="45.44871531108063" lon="8.797816323168544"><ele>116.4</ele><time>2026-04-26T14:04:09Z</time></trkpt><trkpt lat="45.44874792550924" lon="8.797944575713396"><ele>116.0</ele><time>2026-04-26T14:04:10Z</time></trkpt><trkpt lat="45.44878048117624" lon="8.798094380912383"><ele>116.25</ele><time>2026-04-26T14:04:11Z</time></trkpt><trkpt lat="45.448820092341805" lon="8.798263759445371"><ele>116.5</ele><time>2026-04-26T14:04:12Z</time></trkpt><trkpt lat="45.448863544956275" lon="8.798460857037757"><ele>116.75</ele><time>2026-04-26T14:04:13Z</time></trkpt><trkpt lat="45.448903136937076" lon="8.79864503072784"><ele>117.0</ele><time>2026-04-26T14:04:14Z</time></trkpt><trkpt lat="45.44893789148328" lon="8.798795476477826"><ele>117.0</ele><time>2026-04-26T14:04:15Z</time></trkpt><trkpt lat="45.448976198619064" lon="8.798942695694727"><ele>116.99999999999999</ele><time>2026-04-26T14:04:16Z</time></trkpt><trkpt lat="45.44901116612822" lon="8.799082211945194"><ele>116.99999999999999</ele><time>2026-04-26T14:04:17Z</time></trkpt><trkpt lat="45.449041017155594" lon="8.799194683304464"><ele>117.0</ele><time>2026-04-26T14:04:18Z</time></trkpt><trkpt lat="45.44906524018603" lon="8.799278937618206"><ele>117.0</ele><time>2026-04-26T14:04:19Z</time></trkpt><trkpt lat="45.44910502312735" lon="8.79944157236724"><ele>117.19999999999999</ele><time>2026-04-26T14:04:21Z</time></trkpt><trkpt lat="45.44913020996133" lon="8.799525490834666"><ele>117.39999999999999</ele><time>2026-04-26T14:04:22Z</time></trkpt><trkpt lat="45.44915475703008" lon="8.799649606358786"><ele>117.60000000000001</ele><time>2026-04-26T14:04:24Z</time></trkpt><trkpt lat="45.44933004484025" lon="8.799627514473617"><ele>117.80000000000001</ele><time>2026-04-26T14:04:26Z</time></trkpt><trkpt lat="45.44941629187762" lon="8.799566847866487"><ele>118.0</ele><time>2026-04-26T14:04:28Z</time></trkpt><trkpt lat="45.44948816689945" lon="8.799552864570414"><ele>118.0</ele><time>2026-04-26T14:04:31Z</time></trkpt><trkpt lat="45.4495615854779" lon="8.79948989287434"><ele>118.0</ele><time>2026-04-26T14:04:53Z</time></trkpt><trkpt lat="45.44948960681417" lon="8.799227632664385"><ele>118.0</ele><time>2026-04-26T14:04:54Z</time></trkpt><trkpt lat="45.44943758705605" lon="8.79910994638994"><ele>118.0</ele><time>2026-04-26T14:04:55Z</time></trkpt><trkpt lat="45.44937922304266" lon="8.798951150463234"><ele>117.66666666666667</ele><time>2026-04-26T14:04:56Z</time></trkpt><trkpt lat="45.44932093450216" lon="8.798748409155833"><ele>117.33333333333334</ele><time>2026-04-26T14:04:57Z</time></trkpt><trkpt lat="45.449256628837254" lon="8.798520302493404"><ele>117.0</ele><time>2026-04-26T14:04:58Z</time></trkpt><trkpt lat="45.44918414170687" lon="8.798285493271266"><ele>117.0</ele><time>2026-04-26T14:04:59Z</time></trkpt><trkpt lat="45.44910184444283" lon="8.79803501143478"><ele>117.0</ele><time>2026-04-26T14:05:00Z</time></trkpt><trkpt lat="45.44903302161947" lon="8.797823595950113"><ele>117.0</ele><time>2026-04-26T14:05:01Z</time></trkpt><trkpt lat="45.448950747799564" lon="8.797572638108543"><ele>117.33333333333334</ele><time>2026-04-26T14:05:02Z</time></trkpt><trkpt lat="45.44886727003853" lon="8.79731517438207"><ele>117.66666666666667</ele><time>2026-04-26T14:05:03Z</time></trkpt><trkpt lat="45.44878744988407" lon="8.79705748828408"><ele>118.0</ele><time>2026-04-26T14:05:04Z</time></trkpt><trkpt lat="45.44871046157328" lon="8.796803247945906"><ele>118.0</ele><time>2026-04-26T14:05:05Z</time></trkpt><trkpt lat="45.44863392309247" lon="8.79655425250147"><ele>118.0</ele><time>2026-04-26T14:05:06Z</time></trkpt><trkpt lat="45.448559482275684" lon="8.796323534583864"><ele>118.0</ele><time>2026-04-26T14:05:07Z</time></trkpt><trkpt lat="45.44849136758231" lon="8.796114850359634"><ele>118.25</ele><time>2026-04-26T14:05:08Z</time></trkpt><trkpt lat="45.448424993618865" lon="8.795916044064745"><ele>118.5</ele><time>2026-04-26T14:05:09Z</time></trkpt><trkpt lat="45.44836517830613" lon="8.795719519069236"><ele>118.75</ele><time>2026-04-26T14:05:10Z</time></trkpt><trkpt lat="45.448309483989135" lon="8.795535604223705"><ele>119.0</ele><time>2026-04-26T14:05:11Z</time></trkpt><trkpt lat="45.448250576697674" lon="8.795344286507618"><ele>119.66666666666666</ele><time>2026-04-26T14:05:12Z</time></trkpt><trkpt lat="45.44818885806414" lon="8.79514915221343"><ele>120.33333333333334</ele><time>2026-04-26T14:05:13Z</time></trkpt><trkpt lat="45.448127557282454" lon="8.79495025555446"><ele>121.0</ele><time>2026-04-26T14:05:14Z</time></trkpt><trkpt lat="45.4480656970206" lon="8.79474983099507"><ele>121.0</ele><time>2026-04-26T14:05:15Z</time></trkpt><trkpt lat="45.44800699028224" lon="8.794545632630934"><ele>121.0</ele><time>2026-04-26T14:05:16Z</time></trkpt><trkpt lat="45.44794805157778" lon="8.794338448294605"><ele>121.0</ele><time>2026-04-26T14:05:17Z</time></trkpt><trkpt lat="45.447886327423035" lon="8.794123494013242"><ele>120.66666666666667</ele><time>2026-04-26T14:05:18Z</time></trkpt><trkpt lat="45.447825718896354" lon="8.793903745392557"><ele>120.33333333333334</ele><time>2026-04-26T14:05:19Z</time></trkpt><trkpt lat="45.44776909907096" lon="8.793683049367427"><ele>120.0</ele><time>2026-04-26T14:05:20Z</time></trkpt><trkpt lat="45.4477184189477" lon="8.793469619978296"><ele>121.0</ele><time>2026-04-26T14:05:21Z</time></trkpt><trkpt lat="45.44766618929479" lon="8.793251179232604"><ele>122.0</ele><time>2026-04-26T14:05:22Z</time></trkpt><trkpt lat="45.44761896179035" lon="8.793034922309296"><ele>123.0</ele><time>2026-04-26T14:05:23Z</time></trkpt><trkpt lat="45.447572727137036" lon="8.792811559527374"><ele>124.33333333333334</ele><time>2026-04-26T14:05:24Z</time></trkpt><trkpt lat="45.44752151988092" lon="8.792595350364131"><ele>125.66666666666667</ele><time>2026-04-26T14:05:25Z</time></trkpt><trkpt lat="45.447464066219446" lon="8.792381765508422"><ele>127.0</ele><time>2026-04-26T14:05:26Z</time></trkpt><trkpt lat="45.44741357432121" lon="8.79216228342669"><ele>127.0</ele><time>2026-04-26T14:05:27Z</time></trkpt><trkpt lat="45.44735725626053" lon="8.791946401867257"><ele>127.0</ele><time>2026-04-26T14:05:28Z</time></trkpt><trkpt lat="45.44731090135395" lon="8.79172479257241"><ele>127.0</ele><time>2026-04-26T14:05:29Z</time></trkpt><trkpt lat="45.44727593129298" lon="8.79150935919668"><ele>127.5</ele><time>2026-04-26T14:05:30Z</time></trkpt><trkpt lat="45.4472269722485" lon="8.791346157436188"><ele>128.0</ele><time>2026-04-26T14:05:31Z</time></trkpt><trkpt lat="45.447189860555135" lon="8.791178409137995"><ele>128.5</ele><time>2026-04-26T14:05:32Z</time></trkpt><trkpt lat="45.44715132946257" lon="8.791020107585918"><ele>129.0</ele><time>2026-04-26T14:05:33Z</time></trkpt><trkpt lat="45.44712287295533" lon="8.790880214838937"><ele>129.0</ele><time>2026-04-26T14:05:34Z</time></trkpt><trkpt lat="45.44709994914168" lon="8.790743820453905"><ele>129.0</ele><time>2026-04-26T14:05:35Z</time></trkpt><trkpt lat="45.44706702562118" lon="8.790629054723354"><ele>129.0</ele><time>2026-04-26T14:05:36Z</time></trkpt><trkpt lat="45.44703261294844" lon="8.790506577714961"><ele>129.0</ele><time>2026-04-26T14:05:37Z</time></trkpt><trkpt lat="45.44700699683247" lon="8.79034758156268"><ele>129.0</ele><time>2026-04-26T14:05:38Z</time></trkpt><trkpt lat="45.44697092221257" lon="8.790215558638776"><ele>129.5</ele><time>2026-04-26T14:05:39Z</time></trkpt><trkpt lat="45.446915447645" lon="8.790120149777929"><ele>130.0</ele><time>2026-04-26T14:05:40Z</time></trkpt><trkpt lat="45.446876472462876" lon="8.790017983039405"><ele>130.5</ele><time>2026-04-26T14:05:41Z</time></trkpt><trkpt lat="45.44684114185315" lon="8.789913355401817"><ele>131.0</ele><time>2026-04-26T14:05:42Z</time></trkpt><trkpt lat="45.44681416289946" lon="8.789800396807074"><ele>131.5</ele><time>2026-04-26T14:05:43Z</time></trkpt><trkpt lat="45.4467838865169" lon="8.78967789028817"><ele>132.0</ele><time>2026-04-26T14:05:44Z</time></trkpt><trkpt lat="45.44675820318559" lon="8.789538429486624"><ele>132.0</ele><time>2026-04-26T14:05:45Z</time></trkpt><trkpt lat="45.44673736608249" lon="8.789380847727648"><ele>132.0</ele><time>2026-04-26T14:05:46Z</time></trkpt><trkpt lat="45.44670952219767" lon="8.789220381849416"><ele>132.0</ele><time>2026-04-26T14:05:47Z</time></trkpt><trkpt lat="45.4466648728498" lon="8.7890584969665"><ele>132.0</ele><time>2026-04-26T14:05:48Z</time></trkpt><trkpt lat="45.446612177594076" lon="8.788900352826722"><ele>132.0</ele><time>2026-04-26T14:05:49Z</time></trkpt><trkpt lat="45.446574043354296" lon="8.78875376534248"><ele>132.0</ele><time>2026-04-26T14:05:50Z</time></trkpt><trkpt lat="45.44653509163621" lon="8.788614573840189"><ele>132.0</ele><time>2026-04-26T14:05:51Z</time></trkpt><trkpt lat="45.446495775805644" lon="8.788468361803506"><ele>132.0</ele><time>2026-04-26T14:05:52Z</time></trkpt><trkpt lat="45.446459707269085" lon="8.788322961387722"><ele>132.0</ele><time>2026-04-26T14:05:53Z</time></trkpt><trkpt lat="45.44641923984908" lon="8.788169874871574"><ele>132.0</ele><time>2026-04-26T14:05:54Z</time></trkpt><trkpt lat="45.44637332524363" lon="8.788010805625996"><ele>132.0</ele><time>2026-04-26T14:05:55Z</time></trkpt><trkpt lat="45.446322964767106" lon="8.787841138591824"><ele>132.0</ele><time>2026-04-26T14:05:56Z</time></trkpt><trkpt lat="45.4462705742057" lon="8.787656735238514"><ele>132.0</ele><time>2026-04-26T14:05:57Z</time></trkpt><trkpt lat="45.4462162800177" lon="8.787463753916429"><ele>132.0</ele><time>2026-04-26T14:05:58Z</time></trkpt><trkpt lat="45.44616674745328" lon="8.78727982476314"><ele>132.0</ele><time>2026-04-26T14:05:59Z</time></trkpt><trkpt lat="45.44611489909362" lon="8.787090568231859"><ele>132.0</ele><time>2026-04-26T14:06:00Z</time></trkpt><trkpt lat="45.44606349063587" lon="8.786893713069645"><ele>132.0</ele><time>2026-04-26T14:06:01Z</time></trkpt><trkpt lat="45.44601070760413" lon="8.786692678821197"><ele>132.0</ele><time>2026-04-26T14:06:02Z</time></trkpt><trkpt lat="45.445955715193186" lon="8.786490451999173"><ele>132.0</ele><time>2026-04-26T14:06:03Z</time></trkpt><trkpt lat="45.44590007769096" lon="8.786286322276514"><ele>132.0</ele><time>2026-04-26T14:06:04Z</time></trkpt><trkpt lat="45.44584307352758" lon="8.786078611989415"><ele>131.0</ele><time>2026-04-26T14:06:05Z</time></trkpt><trkpt lat="45.445790974153084" lon="8.785877442425384"><ele>130.0</ele><time>2026-04-26T14:06:06Z</time></trkpt><trkpt lat="45.44573868326658" lon="8.785680410969304"><ele>129.0</ele><time>2026-04-26T14:06:07Z</time></trkpt><trkpt lat="45.445686580384034" lon="8.785490034070794"><ele>128.0</ele><time>2026-04-26T14:06:08Z</time></trkpt><trkpt lat="45.44563235266092" lon="8.78530249789515"><ele>128.0</ele><time>2026-04-26T14:06:09Z</time></trkpt><trkpt lat="45.445576686543994" lon="8.785107432457195"><ele>128.0</ele><time>2026-04-26T14:06:10Z</time></trkpt><trkpt lat="45.44552584603125" lon="8.784930260946457"><ele>128.0</ele><time>2026-04-26T14:06:11Z</time></trkpt><trkpt lat="45.445482283536705" lon="8.784771282129222"><ele>128.0</ele><time>2026-04-26T14:06:12Z</time></trkpt><trkpt lat="45.4454402178942" lon="8.784614019291656"><ele>128.0</ele><time>2026-04-26T14:06:13Z</time></trkpt><trkpt lat="45.44540218357553" lon="8.784465662180583"><ele>128.0</ele><time>2026-04-26T14:06:14Z</time></trkpt><trkpt lat="45.44536456057841" lon="8.784311988439642"><ele>128.0</ele><time>2026-04-26T14:06:15Z</time></trkpt><trkpt lat="45.44532158804116" lon="8.784151755295316"><ele>128.0</ele><time>2026-04-26T14:06:16Z</time></trkpt><trkpt lat="45.44527602093023" lon="8.78399089883611"><ele>128.0</ele><time>2026-04-26T14:06:17Z</time></trkpt><trkpt lat="45.44523157238305" lon="8.783827106852229"><ele>128.0</ele><time>2026-04-26T14:06:18Z</time></trkpt><trkpt lat="45.44519269884173" lon="8.783682324422676"><ele>128.0</ele><time>2026-04-26T14:06:19Z</time></trkpt><trkpt lat="45.44516806669359" lon="8.783535012271347"><ele>128.0</ele><time>2026-04-26T14:06:20Z</time></trkpt><trkpt lat="45.445160978165255" lon="8.783397416586325"><ele>128.0</ele><time>2026-04-26T14:06:21Z</time></trkpt><trkpt lat="45.44517386923608" lon="8.783254084710688"><ele>128.0</ele><time>2026-04-26T14:06:22Z</time></trkpt><trkpt lat="45.44520584706637" lon="8.783109072060094"><ele>128.0</ele><time>2026-04-26T14:06:23Z</time></trkpt><trkpt lat="45.44522974739281" lon="8.782964118035512"><ele>128.0</ele><time>2026-04-26T14:06:24Z</time></trkpt><trkpt lat="45.44524652602033" lon="8.782837630884105"><ele>128.0</ele><time>2026-04-26T14:06:25Z</time></trkpt><trkpt lat="45.44527970631471" lon="8.782722138831593"><ele>128.0</ele><time>2026-04-26T14:06:26Z</time></trkpt><trkpt lat="45.44534156933512" lon="8.782601897558136"><ele>128.25</ele><time>2026-04-26T14:06:27Z</time></trkpt><trkpt lat="45.44542368481245" lon="8.78248044762612"><ele>128.5</ele><time>2026-04-26T14:06:28Z</time></trkpt><trkpt lat="45.44552335840736" lon="8.78235798206631"><ele>128.75</ele><time>2026-04-26T14:06:29Z</time></trkpt><trkpt lat="45.44561939727491" lon="8.78225522819827"><ele>129.0</ele><time>2026-04-26T14:06:30Z</time></trkpt><trkpt lat="45.44570824597265" lon="8.782175309316997"><ele>129.5</ele><time>2026-04-26T14:06:31Z</time></trkpt><trkpt lat="45.4458044942277" lon="8.78212828300031"><ele>130.0</ele><time>2026-04-26T14:06:32Z</time></trkpt><trkpt lat="45.44591652629009" lon="8.782129285066826"><ele>130.5</ele><time>2026-04-26T14:06:33Z</time></trkpt><trkpt lat="45.44603318115485" lon="8.782094056876293"><ele>131.0</ele><time>2026-04-26T14:06:34Z</time></trkpt><trkpt lat="45.446154390568815" lon="8.782043876701552"><ele>131.0</ele><time>2026-04-26T14:06:35Z</time></trkpt><trkpt lat="45.446282319966734" lon="8.782011328236868"><ele>131.0</ele><time>2026-04-26T14:06:36Z</time></trkpt><trkpt lat="45.44641484995371" lon="8.781975424628357"><ele>131.0</ele><time>2026-04-26T14:06:37Z</time></trkpt><trkpt lat="45.44655167679076" lon="8.78194032898649"><ele>131.0</ele><time>2026-04-26T14:06:38Z</time></trkpt><trkpt lat="45.446691624435104" lon="8.781906247288275"><ele>131.0</ele><time>2026-04-26T14:06:39Z</time></trkpt><trkpt lat="45.446830876859785" lon="8.781873671910779"><ele>131.0</ele><time>2026-04-26T14:06:40Z</time></trkpt><trkpt lat="45.44696670124256" lon="8.781840000929062"><ele>131.0</ele><time>2026-04-26T14:06:41Z</time></trkpt><trkpt lat="45.44709502947201" lon="8.781807443113111"><ele>131.0</ele><time>2026-04-26T14:06:42Z</time></trkpt><trkpt lat="45.44721205557419" lon="8.781774905603752"><ele>131.0</ele><time>2026-04-26T14:06:43Z</time></trkpt><trkpt lat="45.44732866364334" lon="8.781744994328802"><ele>131.0</ele><time>2026-04-26T14:06:44Z</time></trkpt><trkpt lat="45.44745333013871" lon="8.781712126809854"><ele>131.0</ele><time>2026-04-26T14:06:45Z</time></trkpt><trkpt lat="45.44757911167258" lon="8.781676782534435"><ele>131.0</ele><time>2026-04-26T14:06:46Z</time></trkpt><trkpt lat="45.447701829769784" lon="8.78163823700243"><ele>131.0</ele><time>2026-04-26T14:06:47Z</time></trkpt><trkpt lat="45.44782654384799" lon="8.78159720479387"><ele>131.0</ele><time>2026-04-26T14:06:48Z</time></trkpt><trkpt lat="45.4479456920102" lon="8.78155293895787"><ele>131.0</ele><time>2026-04-26T14:06:49Z</time></trkpt><trkpt lat="45.44806607879551" lon="8.781510392665"><ele>131.0</ele><time>2026-04-26T14:06:50Z</time></trkpt><trkpt lat="45.44818912664625" lon="8.78147908179786"><ele>130.75</ele><time>2026-04-26T14:06:51Z</time></trkpt><trkpt lat="45.448313426469625" lon="8.781450542740156"><ele>130.5</ele><time>2026-04-26T14:06:52Z</time></trkpt><trkpt lat="45.44844279703039" lon="8.78142399331113"><ele>130.25</ele><time>2026-04-26T14:06:53Z</time></trkpt><trkpt lat="45.448575726569864" lon="8.78140572657791"><ele>130.0</ele><time>2026-04-26T14:06:54Z</time></trkpt><trkpt lat="45.448711470332704" lon="8.781381122565257"><ele>130.75</ele><time>2026-04-26T14:06:55Z</time></trkpt><trkpt lat="45.44884979491153" lon="8.781348732738293"><ele>131.5</ele><time>2026-04-26T14:06:56Z</time></trkpt><trkpt lat="45.44899001048249" lon="8.781315606474429"><ele>132.25</ele><time>2026-04-26T14:06:57Z</time></trkpt><trkpt lat="45.449135899333655" lon="8.78127797862673"><ele>133.0</ele><time>2026-04-26T14:06:58Z</time></trkpt><trkpt lat="45.44928196995181" lon="8.78124363648685"><ele>133.0</ele><time>2026-04-26T14:06:59Z</time></trkpt><trkpt lat="45.449427031649854" lon="8.78120686764364"><ele>133.0</ele><time>2026-04-26T14:07:00Z</time></trkpt><trkpt lat="45.4495744812717" lon="8.781167307346559"><ele>133.0</ele><time>2026-04-26T14:07:01Z</time></trkpt><trkpt lat="45.449725318994055" lon="8.781128710286179"><ele>132.66666666666669</ele><time>2026-04-26T14:07:02Z</time></trkpt><trkpt lat="45.44987715713374" lon="8.78109112951939"><ele>132.33333333333334</ele><time>2026-04-26T14:07:03Z</time></trkpt><trkpt lat="45.45002651376084" lon="8.78105434015586"><ele>132.0</ele><time>2026-04-26T14:07:04Z</time></trkpt><trkpt lat="45.450178128082996" lon="8.781016335959933"><ele>131.66666666666666</ele><time>2026-04-26T14:07:05Z</time></trkpt><trkpt lat="45.45032995114399" lon="8.780975755948512"><ele>131.33333333333331</ele><time>2026-04-26T14:07:06Z</time></trkpt><trkpt lat="45.45047864149691" lon="8.780937309207134"><ele>131.0</ele><time>2026-04-26T14:07:07Z</time></trkpt><trkpt lat="45.45062992767422" lon="8.780896390920667"><ele>131.0</ele><time>2026-04-26T14:07:08Z</time></trkpt><trkpt lat="45.450778603516746" lon="8.780851164135912"><ele>131.0</ele><time>2026-04-26T14:07:09Z</time></trkpt><trkpt lat="45.45093041358443" lon="8.780803336633204"><ele>131.0</ele><time>2026-04-26T14:07:10Z</time></trkpt><trkpt lat="45.45107843456217" lon="8.780748404112828"><ele>131.0</ele><time>2026-04-26T14:07:11Z</time></trkpt><trkpt lat="45.45122518293564" lon="8.780691982951524"><ele>131.0</ele><time>2026-04-26T14:07:12Z</time></trkpt><trkpt lat="45.45137195166443" lon="8.780634414736822"><ele>131.0</ele><time>2026-04-26T14:07:13Z</time></trkpt><trkpt lat="45.451525064598194" lon="8.78058127444067"><ele>131.66666666666666</ele><time>2026-04-26T14:07:14Z</time></trkpt><trkpt lat="45.45167304214379" lon="8.780526472266576"><ele>132.33333333333334</ele><time>2026-04-26T14:07:15Z</time></trkpt><trkpt lat="45.45182001424126" lon="8.780473251698613"><ele>133.0</ele><time>2026-04-26T14:07:16Z</time></trkpt><trkpt lat="45.451972083428295" lon="8.78041882050751"><ele>133.0</ele><time>2026-04-26T14:07:17Z</time></trkpt><trkpt lat="45.45211869056649" lon="8.780365737047605"><ele>133.0</ele><time>2026-04-26T14:07:18Z</time></trkpt><trkpt lat="45.45226010753479" lon="8.78031511707266"><ele>133.0</ele><time>2026-04-26T14:07:19Z</time></trkpt><trkpt lat="45.45240026790474" lon="8.780260114181639"><ele>133.0</ele><time>2026-04-26T14:07:20Z</time></trkpt><trkpt lat="45.45255246175491" lon="8.780202037624802"><ele>133.25</ele><time>2026-04-26T14:07:21Z</time></trkpt><trkpt lat="45.45270400551849" lon="8.78014921914148"><ele>133.5</ele><time>2026-04-26T14:07:22Z</time></trkpt><trkpt lat="45.45285020222668" lon="8.780096379527745"><ele>133.75</ele><time>2026-04-26T14:07:23Z</time></trkpt><trkpt lat="45.452986063230256" lon="8.780040762886163"><ele>134.0</ele><time>2026-04-26T14:07:24Z</time></trkpt><trkpt lat="45.453111906792266" lon="8.77999260534339"><ele>134.2</ele><time>2026-04-26T14:07:25Z</time></trkpt><trkpt lat="45.453228198077475" lon="8.779951658129072"><ele>134.4</ele><time>2026-04-26T14:07:26Z</time></trkpt><trkpt lat="45.45333708260867" lon="8.779907548245555"><ele>134.6</ele><time>2026-04-26T14:07:27Z</time></trkpt><trkpt lat="45.453436734285575" lon="8.779869449459259"><ele>134.8</ele><time>2026-04-26T14:07:28Z</time></trkpt><trkpt lat="45.45352253543619" lon="8.779829912523082"><ele>135.0</ele><time>2026-04-26T14:07:29Z</time></trkpt><trkpt lat="45.45360513889673" lon="8.779810720723257"><ele>135.0</ele><time>2026-04-26T14:07:30Z</time></trkpt><trkpt lat="45.45367254061806" lon="8.77976232646465"><ele>135.0</ele><time>2026-04-26T14:07:31Z</time></trkpt><trkpt lat="45.45375184416976" lon="8.779616591127281"><ele>135.0</ele><time>2026-04-26T14:07:33Z</time></trkpt><trkpt lat="45.45378733862637" lon="8.779451075346872"><ele>135.0</ele><time>2026-04-26T14:07:35Z</time></trkpt><trkpt lat="45.45380590353018" lon="8.779283422907273"><ele>135.0</ele><time>2026-04-26T14:07:37Z</time></trkpt><trkpt lat="45.45381626099271" lon="8.77911618514222"><ele>134.6</ele><time>2026-04-26T14:07:39Z</time></trkpt><trkpt lat="45.45382531735292" lon="8.778956614283791"><ele>134.2</ele><time>2026-04-26T14:07:41Z</time></trkpt><trkpt lat="45.453836092202" lon="8.7787667641113"><ele>133.8</ele><time>2026-04-26T14:07:43Z</time></trkpt><trkpt lat="45.45384232800396" lon="8.778656890831654"><ele>133.4</ele><time>2026-04-26T14:07:44Z</time></trkpt><trkpt lat="45.45384863283914" lon="8.778545801180828"><ele>133.0</ele><time>2026-04-26T14:07:45Z</time></trkpt><trkpt lat="45.45385582120769" lon="8.778430105911664"><ele>133.0</ele><time>2026-04-26T14:07:46Z</time></trkpt><trkpt lat="45.453864100031" lon="8.778309161103344"><ele>133.0</ele><time>2026-04-26T14:07:47Z</time></trkpt><trkpt lat="45.45387158025806" lon="8.778205017204726"><ele>133.0</ele><time>2026-04-26T14:07:48Z</time></trkpt><trkpt lat="45.453888057337934" lon="8.778055409946502"><ele>133.0</ele><time>2026-04-26T14:07:50Z</time></trkpt><trkpt lat="45.45391693846432" lon="8.777916280220792"><ele>133.0</ele><time>2026-04-26T14:07:52Z</time></trkpt><trkpt lat="45.45398185022907" lon="8.777790349406041"><ele>133.0</ele><time>2026-04-26T14:07:54Z</time></trkpt><trkpt lat="45.45403642901805" lon="8.777739989687898"><ele>133.0</ele><time>2026-04-26T14:07:55Z</time></trkpt><trkpt lat="45.454101688334305" lon="8.777707370264777"><ele>133.0</ele><time>2026-04-26T14:07:56Z</time></trkpt><trkpt lat="45.45417733563634" lon="8.777674048037317"><ele>133.0</ele><time>2026-04-26T14:07:57Z</time></trkpt><trkpt lat="45.45426155073414" lon="8.777624872043695"><ele>133.0</ele><time>2026-04-26T14:07:58Z</time></trkpt><trkpt lat="45.4543391886967" lon="8.777597124672935"><ele>133.0</ele><time>2026-04-26T14:07:59Z</time></trkpt><trkpt lat="45.45442205377666" lon="8.777569502990207"><ele>132.8</ele><time>2026-04-26T14:08:00Z</time></trkpt><trkpt lat="45.454513755093245" lon="8.777532970811333"><ele>132.60000000000002</ele><time>2026-04-26T14:08:01Z</time></trkpt><trkpt lat="45.4546042022541" lon="8.77749731737929"><ele>132.39999999999998</ele><time>2026-04-26T14:08:02Z</time></trkpt><trkpt lat="45.45470008183037" lon="8.777458818909789"><ele>132.2</ele><time>2026-04-26T14:08:03Z</time></trkpt><trkpt lat="45.45479648494436" lon="8.777418956815122"><ele>132.0</ele><time>2026-04-26T14:08:04Z</time></trkpt><trkpt lat="45.454893198922576" lon="8.77737995891634"><ele>132.6</ele><time>2026-04-26T14:08:05Z</time></trkpt><trkpt lat="45.45499360666603" lon="8.777340574224588"><ele>133.2</ele><time>2026-04-26T14:08:06Z</time></trkpt><trkpt lat="45.45509440936003" lon="8.777301248827053"><ele>133.8</ele><time>2026-04-26T14:08:07Z</time></trkpt><trkpt lat="45.45519372821878" lon="8.777259550457549"><ele>134.4</ele><time>2026-04-26T14:08:08Z</time></trkpt><trkpt lat="45.45529709409349" lon="8.777221653729002"><ele>135.0</ele><time>2026-04-26T14:08:09Z</time></trkpt><trkpt lat="45.45539057447407" lon="8.777182314402939"><ele>134.83333333333334</ele><time>2026-04-26T14:08:10Z</time></trkpt><trkpt lat="45.45547219039443" lon="8.777151091016625"><ele>134.66666666666666</ele><time>2026-04-26T14:08:11Z</time></trkpt><trkpt lat="45.4555428874679" lon="8.777115518014075"><ele>134.5</ele><time>2026-04-26T14:08:12Z</time></trkpt><trkpt lat="45.45561230809422" lon="8.777088618214973"><ele>134.33333333333331</ele><time>2026-04-26T14:08:13Z</time></trkpt><trkpt lat="45.45568769355335" lon="8.777061627334383"><ele>134.16666666666666</ele><time>2026-04-26T14:08:14Z</time></trkpt><trkpt lat="45.45575873747798" lon="8.777036214224356"><ele>134.0</ele><time>2026-04-26T14:08:15Z</time></trkpt><trkpt lat="45.45583702432402" lon="8.777014766723118"><ele>134.0</ele><time>2026-04-26T14:08:16Z</time></trkpt><trkpt lat="45.45591806998697" lon="8.776980884334456"><ele>134.0</ele><time>2026-04-26T14:08:17Z</time></trkpt><trkpt lat="45.456006845733064" lon="8.77693869194113"><ele>134.0</ele><time>2026-04-26T14:08:18Z</time></trkpt><trkpt lat="45.45609647850808" lon="8.77690761966104"><ele>134.0</ele><time>2026-04-26T14:08:19Z</time></trkpt><trkpt lat="45.45618498179374" lon="8.776875951455645"><ele>134.0</ele><time>2026-04-26T14:08:20Z</time></trkpt><trkpt lat="45.456270233043014" lon="8.776840924062277"><ele>134.16666666666666</ele><time>2026-04-26T14:08:21Z</time></trkpt><trkpt lat="45.45634564195151" lon="8.776807217885459"><ele>134.33333333333331</ele><time>2026-04-26T14:08:22Z</time></trkpt><trkpt lat="45.45641903936007" lon="8.776775143579876"><ele>134.5</ele><time>2026-04-26T14:08:23Z</time></trkpt><trkpt lat="45.45649376977504" lon="8.776734715295131"><ele>134.66666666666666</ele><time>2026-04-26T14:08:24Z</time></trkpt><trkpt lat="45.45658449385166" lon="8.776717952168852"><ele>134.83333333333334</ele><time>2026-04-26T14:08:25Z</time></trkpt><trkpt lat="45.45668144974535" lon="8.776678654523312"><ele>135.0</ele><time>2026-04-26T14:08:26Z</time></trkpt><trkpt lat="45.45678795671159" lon="8.77663548568658"><ele>135.0</ele><time>2026-04-26T14:08:27Z</time></trkpt><trkpt lat="45.456910171955705" lon="8.776585950054343"><ele>135.0</ele><time>2026-04-26T14:08:28Z</time></trkpt><trkpt lat="45.45704276115328" lon="8.776533956621716"><ele>135.0</ele><time>2026-04-26T14:08:29Z</time></trkpt><trkpt lat="45.457191244694776" lon="8.776475943375122"><ele>135.0</ele><time>2026-04-26T14:08:30Z</time></trkpt><trkpt lat="45.45734574112823" lon="8.776415580864729"><ele>134.66666666666666</ele><time>2026-04-26T14:08:31Z</time></trkpt><trkpt lat="45.457505125763674" lon="8.776353308507911"><ele>134.33333333333331</ele><time>2026-04-26T14:08:32Z</time></trkpt><trkpt lat="45.457668679936255" lon="8.77627112323411"><ele>134.0</ele><time>2026-04-26T14:08:33Z</time></trkpt><trkpt lat="45.45785340801563" lon="8.776204320545565"><ele>134.0</ele><time>2026-04-26T14:08:34Z</time></trkpt><trkpt lat="45.458057442087004" lon="8.776125271168372"><ele>134.0</ele><time>2026-04-26T14:08:35Z</time></trkpt><trkpt lat="45.4582593015539" lon="8.776042951614148"><ele>134.0</ele><time>2026-04-26T14:08:36Z</time></trkpt><trkpt lat="45.458447510032784" lon="8.775963989143023"><ele>134.33333333333331</ele><time>2026-04-26T14:08:37Z</time></trkpt><trkpt lat="45.45866079321444" lon="8.775879001045931"><ele>134.66666666666666</ele><time>2026-04-26T14:08:38Z</time></trkpt><trkpt lat="45.45886726249671" lon="8.775794319057677"><ele>135.0</ele><time>2026-04-26T14:08:39Z</time></trkpt><trkpt lat="45.459064838739074" lon="8.775714862868261"><ele>135.33333333333334</ele><time>2026-04-26T14:08:40Z</time></trkpt><trkpt lat="45.4592547124535" lon="8.77564168159796"><ele>135.66666666666669</ele><time>2026-04-26T14:08:41Z</time></trkpt><trkpt lat="45.45943927202618" lon="8.775566269270396"><ele>136.0</ele><time>2026-04-26T14:08:42Z</time></trkpt><trkpt lat="45.45961823012546" lon="8.775490028096133"><ele>136.0</ele><time>2026-04-26T14:08:43Z</time></trkpt><trkpt lat="45.45978120667574" lon="8.77541991754896"><ele>136.0</ele><time>2026-04-26T14:08:44Z</time></trkpt><trkpt lat="45.45993378823337" lon="8.775358188722842"><ele>136.0</ele><time>2026-04-26T14:08:45Z</time></trkpt><trkpt lat="45.46007472084331" lon="8.775301732512448"><ele>136.0</ele><time>2026-04-26T14:08:46Z</time></trkpt><trkpt lat="45.460206431126466" lon="8.775253816693947"><ele>136.0</ele><time>2026-04-26T14:08:47Z</time></trkpt><trkpt lat="45.460329412743185" lon="8.775207725051406"><ele>136.0</ele><time>2026-04-26T14:08:48Z</time></trkpt><trkpt lat="45.46045482228916" lon="8.775160859737936"><ele>136.0</ele><time>2026-04-26T14:08:49Z</time></trkpt><trkpt lat="45.46057383155699" lon="8.775113714238902"><ele>136.2</ele><time>2026-04-26T14:08:50Z</time></trkpt><trkpt lat="45.46068268558189" lon="8.775068418043103"><ele>136.39999999999998</ele><time>2026-04-26T14:08:51Z</time></trkpt><trkpt lat="45.460784375498655" lon="8.775029623092886"><ele>136.6</ele><time>2026-04-26T14:08:52Z</time></trkpt><trkpt lat="45.46087434835085" lon="8.774996454355902"><ele>136.79999999999998</ele><time>2026-04-26T14:08:53Z</time></trkpt><trkpt lat="45.46095984849939" lon="8.774958975347733"><ele>137.0</ele><time>2026-04-26T14:08:54Z</time></trkpt><trkpt lat="45.46103714255388" lon="8.774925271193013"><ele>137.0</ele><time>2026-04-26T14:08:55Z</time></trkpt><trkpt lat="45.461126483712874" lon="8.774914943616707"><ele>137.0</ele><time>2026-04-26T14:08:56Z</time></trkpt><trkpt lat="45.46122192308213" lon="8.774888928978463"><ele>137.0</ele><time>2026-04-26T14:08:57Z</time></trkpt><trkpt lat="45.46130852571363" lon="8.774870332138441"><ele>137.0</ele><time>2026-04-26T14:08:58Z</time></trkpt><trkpt lat="45.461382114397026" lon="8.774846074616294"><ele>137.0</ele><time>2026-04-26T14:08:59Z</time></trkpt><trkpt lat="45.461441968632975" lon="8.774874333047634"><ele>137.0</ele><time>2026-04-26T14:09:02Z</time></trkpt><trkpt lat="45.46151998077297" lon="8.774647925233129"><ele>137.2</ele><time>2026-04-26T14:09:05Z</time></trkpt><trkpt lat="45.461541450102004" lon="8.7745171936505"><ele>137.39999999999998</ele><time>2026-04-26T14:09:06Z</time></trkpt><trkpt lat="45.46156663152187" lon="8.774381791942046"><ele>137.60000000000002</ele><time>2026-04-26T14:09:07Z</time></trkpt><trkpt lat="45.461595222212694" lon="8.774242842944421"><ele>137.8</ele><time>2026-04-26T14:09:08Z</time></trkpt><trkpt lat="45.461623702374446" lon="8.774090610544217"><ele>138.0</ele><time>2026-04-26T14:09:09Z</time></trkpt><trkpt lat="45.461658209187895" lon="8.773927622997098"><ele>138.0</ele><time>2026-04-26T14:09:10Z</time></trkpt><trkpt lat="45.46169728949756" lon="8.773764253735541"><ele>138.0</ele><time>2026-04-26T14:09:11Z</time></trkpt><trkpt lat="45.461735398724244" lon="8.773581131170197"><ele>138.0</ele><time>2026-04-26T14:09:12Z</time></trkpt><trkpt lat="45.461776444448816" lon="8.773403211423224"><ele>138.0</ele><time>2026-04-26T14:09:13Z</time></trkpt><trkpt lat="45.46182255290746" lon="8.773223171960181"><ele>137.5</ele><time>2026-04-26T14:09:14Z</time></trkpt><trkpt lat="45.461863898825726" lon="8.773026451133251"><ele>137.0</ele><time>2026-04-26T14:09:15Z</time></trkpt><trkpt lat="45.461905692497645" lon="8.77282486126325"><ele>136.5</ele><time>2026-04-26T14:09:16Z</time></trkpt><trkpt lat="45.46194942652485" lon="8.772612776353947"><ele>136.0</ele><time>2026-04-26T14:09:17Z</time></trkpt><trkpt lat="45.461994040746845" lon="8.772396422954696"><ele>136.0</ele><time>2026-04-26T14:09:18Z</time></trkpt><trkpt lat="45.46203913071314" lon="8.772177762516657"><ele>136.0</ele><time>2026-04-26T14:09:19Z</time></trkpt><trkpt lat="45.46208190792178" lon="8.771970317625918"><ele>136.0</ele><time>2026-04-26T14:09:20Z</time></trkpt><trkpt lat="45.46212356922244" lon="8.771768078743724"><ele>136.25</ele><time>2026-04-26T14:09:21Z</time></trkpt><trkpt lat="45.46216448814116" lon="8.771568983131253"><ele>136.5</ele><time>2026-04-26T14:09:22Z</time></trkpt><trkpt lat="45.46220536912039" lon="8.771370072133104"><ele>136.75</ele><time>2026-04-26T14:09:23Z</time></trkpt><trkpt lat="45.46224686183977" lon="8.771168184645218"><ele>137.0</ele><time>2026-04-26T14:09:24Z</time></trkpt><trkpt lat="45.46228770182582" lon="8.770969473089773"><ele>137.0</ele><time>2026-04-26T14:09:25Z</time></trkpt><trkpt lat="45.462329608730435" lon="8.770765570322691"><ele>137.0</ele><time>2026-04-26T14:09:26Z</time></trkpt><trkpt lat="45.462369629430306" lon="8.770574745550773"><ele>137.0</ele><time>2026-04-26T14:09:27Z</time></trkpt><trkpt lat="45.46241201379004" lon="8.770373840774173"><ele>137.0</ele><time>2026-04-26T14:09:28Z</time></trkpt><trkpt lat="45.46245319192193" lon="8.770178653636552"><ele>137.0</ele><time>2026-04-26T14:09:29Z</time></trkpt><trkpt lat="45.46249598838476" lon="8.769975795490254"><ele>137.0</ele><time>2026-04-26T14:09:30Z</time></trkpt><trkpt lat="45.46253318648537" lon="8.76979947395495"><ele>137.0</ele><time>2026-04-26T14:09:31Z</time></trkpt><trkpt lat="45.46256996764859" lon="8.769625128776486"><ele>137.0</ele><time>2026-04-26T14:09:32Z</time></trkpt><trkpt lat="45.462607954730856" lon="8.769445020720877"><ele>137.0</ele><time>2026-04-26T14:09:33Z</time></trkpt><trkpt lat="45.462646682752556" lon="8.769261093633745"><ele>137.0</ele><time>2026-04-26T14:09:34Z</time></trkpt><trkpt lat="45.46268541932796" lon="8.7690771259066"><ele>137.0</ele><time>2026-04-26T14:09:35Z</time></trkpt><trkpt lat="45.46272566959284" lon="8.768885969374514"><ele>137.0</ele><time>2026-04-26T14:09:36Z</time></trkpt><trkpt lat="45.46276553922521" lon="8.768696620543716"><ele>137.25</ele><time>2026-04-26T14:09:37Z</time></trkpt><trkpt lat="45.462806629054796" lon="8.768501476757635"><ele>137.5</ele><time>2026-04-26T14:09:38Z</time></trkpt><trkpt lat="45.46284805712829" lon="8.768304726609156"><ele>137.75</ele><time>2026-04-26T14:09:39Z</time></trkpt><trkpt lat="45.462891466470126" lon="8.76809856693758"><ele>138.0</ele><time>2026-04-26T14:09:40Z</time></trkpt><trkpt lat="45.462936207059606" lon="8.767886085042536"><ele>138.66666666666666</ele><time>2026-04-26T14:09:41Z</time></trkpt><trkpt lat="45.46297957919175" lon="8.767680102055138"><ele>139.33333333333331</ele><time>2026-04-26T14:09:42Z</time></trkpt><trkpt lat="45.463024141867685" lon="8.76746846503082"><ele>140.0</ele><time>2026-04-26T14:09:43Z</time></trkpt><trkpt lat="45.46306591868393" lon="8.767270058604078"><ele>140.0</ele><time>2026-04-26T14:09:44Z</time></trkpt><trkpt lat="45.463104595415956" lon="8.767086335455913"><ele>140.0</ele><time>2026-04-26T14:09:45Z</time></trkpt><trkpt lat="45.463140453701406" lon="8.766915375847832"><ele>140.0</ele><time>2026-04-26T14:09:46Z</time></trkpt><trkpt lat="45.46317427236334" lon="8.766754140405824"><ele>140.0</ele><time>2026-04-26T14:09:47Z</time></trkpt><trkpt lat="45.463206956030206" lon="8.766598316154651"><ele>140.2</ele><time>2026-04-26T14:09:48Z</time></trkpt><trkpt lat="45.463236583447994" lon="8.766457063787655"><ele>140.4</ele><time>2026-04-26T14:09:49Z</time></trkpt><trkpt lat="45.46326742465666" lon="8.766310023013732"><ele>140.6</ele><time>2026-04-26T14:09:50Z</time></trkpt><trkpt lat="45.46329793177332" lon="8.7661645764244"><ele>140.8</ele><time>2026-04-26T14:09:51Z</time></trkpt><trkpt lat="45.46332484905304" lon="8.766036244315265"><ele>141.0</ele><time>2026-04-26T14:09:52Z</time></trkpt><trkpt lat="45.46334676887812" lon="8.765931156649161"><ele>141.0</ele><time>2026-04-26T14:09:53Z</time></trkpt><trkpt lat="45.463361668932386" lon="8.76580318488763"><ele>141.0</ele><time>2026-04-26T14:09:55Z</time></trkpt><trkpt lat="45.46350131721623" lon="8.765754394368505"><ele>141.0</ele><time>2026-04-26T14:09:58Z</time></trkpt><trkpt lat="45.463616327679865" lon="8.765707770858587"><ele>141.0</ele><time>2026-04-26T14:10:00Z</time></trkpt><trkpt lat="45.463680052324705" lon="8.765671491346561"><ele>141.0</ele><time>2026-04-26T14:10:01Z</time></trkpt><trkpt lat="45.46375249517648" lon="8.765634136970485"><ele>140.83333333333334</ele><time>2026-04-26T14:10:02Z</time></trkpt><trkpt lat="45.46382612844671" lon="8.765595020251643"><ele>140.66666666666666</ele><time>2026-04-26T14:10:03Z</time></trkpt><trkpt lat="45.46391389946708" lon="8.765547591161086"><ele>140.5</ele><time>2026-04-26T14:10:04Z</time></trkpt><trkpt lat="45.46400158810456" lon="8.76549997440412"><ele>140.33333333333331</ele><time>2026-04-26T14:10:05Z</time></trkpt><trkpt lat="45.464075373107995" lon="8.765489636468788"><ele>140.16666666666666</ele><time>2026-04-26T14:10:06Z</time></trkpt><trkpt lat="45.46416795468076" lon="8.765463484952356"><ele>140.0</ele><time>2026-04-26T14:10:08Z</time></trkpt><trkpt lat="45.46424256094771" lon="8.765539229213672"><ele>140.0</ele><time>2026-04-26T14:10:10Z</time></trkpt><trkpt lat="45.46427229724781" lon="8.76563318098169"><ele>140.0</ele><time>2026-04-26T14:10:11Z</time></trkpt><trkpt lat="45.464294702987246" lon="8.765756559266842"><ele>140.0</ele><time>2026-04-26T14:10:12Z</time></trkpt><trkpt lat="45.46432087901004" lon="8.765891684589267"><ele>140.0</ele><time>2026-04-26T14:10:13Z</time></trkpt><trkpt lat="45.46435274380497" lon="8.766039197181192"><ele>140.0</ele><time>2026-04-26T14:10:14Z</time></trkpt><trkpt lat="45.46439039544078" lon="8.766189168506086"><ele>140.2</ele><time>2026-04-26T14:10:15Z</time></trkpt><trkpt lat="45.46442087007962" lon="8.766331952636515"><ele>140.4</ele><time>2026-04-26T14:10:16Z</time></trkpt><trkpt lat="45.46444540260556" lon="8.766458389155845"><ele>140.6</ele><time>2026-04-26T14:10:17Z</time></trkpt><trkpt lat="45.464472051049285" lon="8.766583879597704"><ele>140.8</ele><time>2026-04-26T14:10:18Z</time></trkpt><trkpt lat="45.46450131589131" lon="8.76671437646465"><ele>141.0</ele><time>2026-04-26T14:10:19Z</time></trkpt><trkpt lat="45.46452824882964" lon="8.766839083646731"><ele>140.8</ele><time>2026-04-26T14:10:20Z</time></trkpt><trkpt lat="45.46455916422143" lon="8.766977503224593"><ele>140.6</ele><time>2026-04-26T14:10:21Z</time></trkpt><trkpt lat="45.464586775639894" lon="8.767100771547037"><ele>140.4</ele><time>2026-04-26T14:10:22Z</time></trkpt><trkpt lat="45.464615077790114" lon="8.767230805284218"><ele>140.2</ele><time>2026-04-26T14:10:23Z</time></trkpt><trkpt lat="45.46464642738266" lon="8.767369767576499"><ele>140.0</ele><time>2026-04-26T14:10:24Z</time></trkpt><trkpt lat="45.46467737494513" lon="8.767512931730957"><ele>139.8</ele><time>2026-04-26T14:10:25Z</time></trkpt><trkpt lat="45.46470948447009" lon="8.767666469966946"><ele>139.6</ele><time>2026-04-26T14:10:26Z</time></trkpt><trkpt lat="45.46474435427696" lon="8.767807189448332"><ele>139.4</ele><time>2026-04-26T14:10:27Z</time></trkpt><trkpt lat="45.46477449455424" lon="8.767943977176712"><ele>139.2</ele><time>2026-04-26T14:10:28Z</time></trkpt><trkpt lat="45.464799786811554" lon="8.768064228533717"><ele>139.0</ele><time>2026-04-26T14:10:29Z</time></trkpt><trkpt lat="45.464838204877715" lon="8.768195322185212"><ele>139.0</ele><time>2026-04-26T14:10:30Z</time></trkpt><trkpt lat="45.46487761040852" lon="8.76833486697428"><ele>139.0</ele><time>2026-04-26T14:10:31Z</time></trkpt><trkpt lat="45.464904326441435" lon="8.768471129561174"><ele>139.0</ele><time>2026-04-26T14:10:32Z</time></trkpt><trkpt lat="45.46491736543121" lon="8.768617146695366"><ele>139.0</ele><time>2026-04-26T14:10:33Z</time></trkpt><trkpt lat="45.4649630647889" lon="8.768750118643965"><ele>139.0</ele><time>2026-04-26T14:10:34Z</time></trkpt><trkpt lat="45.46499732909319" lon="8.768883566258427"><ele>139.0</ele><time>2026-04-26T14:10:35Z</time></trkpt><trkpt lat="45.46503305976773" lon="8.76901938678304"><ele>139.0</ele><time>2026-04-26T14:10:36Z</time></trkpt><trkpt lat="45.465070827550626" lon="8.769154385019505"><ele>139.0</ele><time>2026-04-26T14:10:37Z</time></trkpt><trkpt lat="45.46510286525507" lon="8.769274042176685"><ele>139.0</ele><time>2026-04-26T14:10:38Z</time></trkpt><trkpt lat="45.46514168393239" lon="8.769408934242751"><ele>139.0</ele><time>2026-04-26T14:10:39Z</time></trkpt><trkpt lat="45.465180765233725" lon="8.76954385660208"><ele>139.0</ele><time>2026-04-26T14:10:40Z</time></trkpt><trkpt lat="45.46521474764662" lon="8.76967183271089"><ele>139.0</ele><time>2026-04-26T14:10:41Z</time></trkpt><trkpt lat="45.46524330563418" lon="8.76980480236747"><ele>139.0</ele><time>2026-04-26T14:10:42Z</time></trkpt><trkpt lat="45.465261687651726" lon="8.769929477056321"><ele>139.0</ele><time>2026-04-26T14:10:43Z</time></trkpt><trkpt lat="45.46528877241042" lon="8.7700570733373"><ele>139.0</ele><time>2026-04-26T14:10:44Z</time></trkpt><trkpt lat="45.46531146627987" lon="8.77017442562854"><ele>139.4</ele><time>2026-04-26T14:10:45Z</time></trkpt><trkpt lat="45.46532468774803" lon="8.770307819932608"><ele>139.8</ele><time>2026-04-26T14:10:46Z</time></trkpt><trkpt lat="45.46536208146607" lon="8.770417776492836"><ele>140.2</ele><time>2026-04-26T14:10:47Z</time></trkpt><trkpt lat="45.46538108006182" lon="8.770522000388628"><ele>140.6</ele><time>2026-04-26T14:10:48Z</time></trkpt><trkpt lat="45.465424810535644" lon="8.770659626537348"><ele>141.0</ele><time>2026-04-26T14:10:50Z</time></trkpt><trkpt lat="45.46549171001753" lon="8.77074410644958"><ele>141.2</ele><time>2026-04-26T14:10:52Z</time></trkpt><trkpt lat="45.4656125270701" lon="8.770722983585724"><ele>141.39999999999998</ele><time>2026-04-26T14:10:54Z</time></trkpt><trkpt lat="45.46569377491226" lon="8.770675431028288"><ele>141.6</ele><time>2026-04-26T14:10:55Z</time></trkpt><trkpt lat="45.46578405943372" lon="8.770625138093045"><ele>141.79999999999998</ele><time>2026-04-26T14:10:56Z</time></trkpt><trkpt lat="45.46587175772009" lon="8.770577023675518"><ele>142.0</ele><time>2026-04-26T14:10:57Z</time></trkpt><trkpt lat="45.46595488841292" lon="8.770530926617857"><ele>142.0</ele><time>2026-04-26T14:10:58Z</time></trkpt><trkpt lat="45.46605117443675" lon="8.770503337787313"><ele>142.0</ele><time>2026-04-26T14:10:59Z</time></trkpt><trkpt lat="45.46614002125177" lon="8.770478719244826"><ele>142.0</ele><time>2026-04-26T14:11:00Z</time></trkpt><trkpt lat="45.46622876713534" lon="8.770452125837105"><ele>142.0</ele><time>2026-04-26T14:11:01Z</time></trkpt><trkpt lat="45.46629722977723" lon="8.7704265110064"><ele>142.0</ele><time>2026-04-26T14:11:02Z</time></trkpt><trkpt lat="45.466366083013966" lon="8.770394770836718"><ele>142.0</ele><time>2026-04-26T14:11:03Z</time></trkpt><trkpt lat="45.46643996847035" lon="8.770345209060196"><ele>142.0</ele><time>2026-04-26T14:11:04Z</time></trkpt><trkpt lat="45.46649591818729" lon="8.770294072156759"><ele>142.0</ele><time>2026-04-26T14:11:05Z</time></trkpt><trkpt lat="45.46657644631531" lon="8.770191146053953"><ele>142.0</ele><time>2026-04-26T14:11:07Z</time></trkpt><trkpt lat="45.46661156727818" lon="8.770094205733294"><ele>142.0</ele><time>2026-04-26T14:11:08Z</time></trkpt><trkpt lat="45.46664358449119" lon="8.769973759923525"><ele>142.0</ele><time>2026-04-26T14:11:09Z</time></trkpt><trkpt lat="45.46669166550618" lon="8.769859667307092"><ele>142.0</ele><time>2026-04-26T14:11:10Z</time></trkpt><trkpt lat="45.46671820951798" lon="8.769769567486005"><ele>142.0</ele><time>2026-04-26T14:11:11Z</time></trkpt><trkpt lat="45.46675081537599" lon="8.769653334586959"><ele>142.0</ele><time>2026-04-26T14:11:12Z</time></trkpt><trkpt lat="45.4667624824262" lon="8.769547964817908"><ele>142.0</ele><time>2026-04-26T14:11:13Z</time></trkpt><trkpt lat="45.46681152846983" lon="8.76944392403228"><ele>142.0</ele><time>2026-04-26T14:11:14Z</time></trkpt><trkpt lat="45.46685366826501" lon="8.769316714562356"><ele>142.0</ele><time>2026-04-26T14:11:15Z</time></trkpt><trkpt lat="45.4668960981639" lon="8.769183367545327"><ele>141.79999999999998</ele><time>2026-04-26T14:11:16Z</time></trkpt><trkpt lat="45.46691798019387" lon="8.769051456465037"><ele>141.6</ele><time>2026-04-26T14:11:17Z</time></trkpt><trkpt lat="45.4669566753166" lon="8.768929966007661"><ele>141.39999999999998</ele><time>2026-04-26T14:11:18Z</time></trkpt><trkpt lat="45.466991725757495" lon="8.768813915969579"><ele>141.2</ele><time>2026-04-26T14:11:19Z</time></trkpt><trkpt lat="45.467031100880206" lon="8.7686880514624"><ele>141.0</ele><time>2026-04-26T14:11:20Z</time></trkpt><trkpt lat="45.46706777898709" lon="8.768559944183231"><ele>139.8</ele><time>2026-04-26T14:11:21Z</time></trkpt><trkpt lat="45.467117506881905" lon="8.768433681392402"><ele>138.6</ele><time>2026-04-26T14:11:22Z</time></trkpt><trkpt lat="45.46715700132412" lon="8.768310114016021"><ele>137.4</ele><time>2026-04-26T14:11:23Z</time></trkpt><trkpt lat="45.46719636099914" lon="8.768190256327298"><ele>136.2</ele><time>2026-04-26T14:11:24Z</time></trkpt><trkpt lat="45.46723410822795" lon="8.768075627643622"><ele>135.0</ele><time>2026-04-26T14:11:25Z</time></trkpt><trkpt lat="45.4672703312506" lon="8.767964255441738"><ele>135.0</ele><time>2026-04-26T14:11:26Z</time></trkpt><trkpt lat="45.46729246227755" lon="8.76784135685415"><ele>135.0</ele><time>2026-04-26T14:11:27Z</time></trkpt><trkpt lat="45.46733001797893" lon="8.767728122499605"><ele>135.0</ele><time>2026-04-26T14:11:28Z</time></trkpt><trkpt lat="45.467360696816165" lon="8.767613935090655"><ele>135.0</ele><time>2026-04-26T14:11:29Z</time></trkpt><trkpt lat="45.46736293686287" lon="8.767482724561907"><ele>135.0</ele><time>2026-04-26T14:11:30Z</time></trkpt><trkpt lat="45.467364473747345" lon="8.767356098930545"><ele>135.0</ele><time>2026-04-26T14:11:31Z</time></trkpt><trkpt lat="45.467350452595504" lon="8.767229503631158"><ele>134.8</ele><time>2026-04-26T14:11:32Z</time></trkpt><trkpt lat="45.46734409227886" lon="8.767097739476881"><ele>134.6</ele><time>2026-04-26T14:11:33Z</time></trkpt><trkpt lat="45.46733180657067" lon="8.766962655762285"><ele>134.4</ele><time>2026-04-26T14:11:34Z</time></trkpt><trkpt lat="45.467317826461425" lon="8.766824412732747"><ele>134.2</ele><time>2026-04-26T14:11:35Z</time></trkpt><trkpt lat="45.46730122205203" lon="8.766707683665693"><ele>134.0</ele><time>2026-04-26T14:11:36Z</time></trkpt><trkpt lat="45.46728302339683" lon="8.766587684900086"><ele>133.4</ele><time>2026-04-26T14:11:37Z</time></trkpt><trkpt lat="45.46726338318869" lon="8.766456948214536"><ele>132.8</ele><time>2026-04-26T14:11:38Z</time></trkpt><trkpt lat="45.46723242236874" lon="8.766324388952858"><ele>132.2</ele><time>2026-04-26T14:11:39Z</time></trkpt><trkpt lat="45.467198143620024" lon="8.766195466244811"><ele>131.6</ele><time>2026-04-26T14:11:40Z</time></trkpt><trkpt lat="45.46716483829526" lon="8.766060904393042"><ele>131.0</ele><time>2026-04-26T14:11:41Z</time></trkpt><trkpt lat="45.46716468400649" lon="8.765944490993014"><ele>132.16666666666666</ele><time>2026-04-26T14:11:42Z</time></trkpt><trkpt lat="45.46716404518362" lon="8.765835122612334"><ele>133.33333333333331</ele><time>2026-04-26T14:11:43Z</time></trkpt><trkpt lat="45.467190704917364" lon="8.76572248393153"><ele>134.5</ele><time>2026-04-26T14:11:44Z</time></trkpt><trkpt lat="45.46723664974968" lon="8.765616207349389"><ele>135.66666666666666</ele><time>2026-04-26T14:11:45Z</time></trkpt><trkpt lat="45.46729999458571" lon="8.765525736147321"><ele>136.83333333333334</ele><time>2026-04-26T14:11:46Z</time></trkpt><trkpt lat="45.46738751176234" lon="8.765453835336734"><ele>138.0</ele><time>2026-04-26T14:11:47Z</time></trkpt><trkpt lat="45.46748374125224" lon="8.765393257666286"><ele>138.0</ele><time>2026-04-26T14:11:48Z</time></trkpt><trkpt lat="45.467610854314145" lon="8.765391570063557"><ele>138.0</ele><time>2026-04-26T14:11:49Z</time></trkpt><trkpt lat="45.46774561128391" lon="8.765385259030069"><ele>138.0</ele><time>2026-04-26T14:11:50Z</time></trkpt><trkpt lat="45.46786812270191" lon="8.765349703399208"><ele>138.0</ele><time>2026-04-26T14:11:51Z</time></trkpt><trkpt lat="45.4679741448179" lon="8.765335341853147"><ele>138.8</ele><time>2026-04-26T14:11:52Z</time></trkpt><trkpt lat="45.46807307331971" lon="8.765318628694933"><ele>139.60000000000002</ele><time>2026-04-26T14:11:53Z</time></trkpt><trkpt lat="45.46817071364427" lon="8.765319562048603"><ele>140.39999999999998</ele><time>2026-04-26T14:11:54Z</time></trkpt><trkpt lat="45.46825060479352" lon="8.765253136842341"><ele>141.2</ele><time>2026-04-26T14:11:55Z</time></trkpt><trkpt lat="45.46832127475365" lon="8.76516038730932"><ele>142.0</ele><time>2026-04-26T14:11:56Z</time></trkpt><trkpt lat="45.46837298694419" lon="8.765045764037007"><ele>142.0</ele><time>2026-04-26T14:11:57Z</time></trkpt><trkpt lat="45.4684304089767" lon="8.764961452487004"><ele>142.0</ele><time>2026-04-26T14:11:58Z</time></trkpt><trkpt lat="45.46847480075835" lon="8.764878289709934"><ele>142.0</ele><time>2026-04-26T14:12:00Z</time></trkpt><trkpt lat="45.468531951369954" lon="8.764940616834897"><ele>142.0</ele><time>2026-04-26T14:12:02Z</time></trkpt><trkpt lat="45.46855581511961" lon="8.765029466877174"><ele>142.0</ele><time>2026-04-26T14:12:03Z</time></trkpt><trkpt lat="45.46856594539099" lon="8.765140295928305"><ele>142.0</ele><time>2026-04-26T14:12:04Z</time></trkpt><trkpt lat="45.46860545543909" lon="8.765248351260253"><ele>142.0</ele><time>2026-04-26T14:12:05Z</time></trkpt><trkpt lat="45.46860632144835" lon="8.76534976679436"><ele>142.0</ele><time>2026-04-26T14:12:06Z</time></trkpt><trkpt lat="45.4686359429682" lon="8.765449000143745"><ele>142.0</ele><time>2026-04-26T14:12:07Z</time></trkpt><trkpt lat="45.46863341186853" lon="8.765540889956439"><ele>142.0</ele><time>2026-04-26T14:12:08Z</time></trkpt><trkpt lat="45.46864911474035" lon="8.765634808591361"><ele>142.0</ele><time>2026-04-26T14:12:09Z</time></trkpt><trkpt lat="45.46870434289684" lon="8.765780580353628"><ele>142.0</ele><time>2026-04-26T14:12:11Z</time></trkpt><trkpt lat="45.46872502819819" lon="8.765871644005987"><ele>141.66666666666669</ele><time>2026-04-26T14:12:12Z</time></trkpt><trkpt lat="45.46883604951721" lon="8.765872546444479"><ele>141.33333333333334</ele><time>2026-04-26T14:12:14Z</time></trkpt><trkpt lat="45.46889200095504" lon="8.765822060050056"><ele>141.0</ele><time>2026-04-26T14:12:15Z</time></trkpt><trkpt lat="45.46897234050921" lon="8.76577526936686"><ele>140.66666666666666</ele><time>2026-04-26T14:12:16Z</time></trkpt><trkpt lat="45.4690539869554" lon="8.765706327901025"><ele>140.33333333333331</ele><time>2026-04-26T14:12:17Z</time></trkpt><trkpt lat="45.46911453793513" lon="8.765629808900266"><ele>140.0</ele><time>2026-04-26T14:12:18Z</time></trkpt><trkpt lat="45.46917743917362" lon="8.765573016584092"><ele>140.0</ele><time>2026-04-26T14:12:19Z</time></trkpt><trkpt lat="45.46924135933333" lon="8.765516742154217"><ele>140.0</ele><time>2026-04-26T14:12:20Z</time></trkpt><trkpt lat="45.469305498795" lon="8.765452418786676"><ele>140.0</ele><time>2026-04-26T14:12:21Z</time></trkpt><trkpt lat="45.4693697733692" lon="8.765390080599751"><ele>140.0</ele><time>2026-04-26T14:12:22Z</time></trkpt><trkpt lat="45.46943923966589" lon="8.765321881054058"><ele>140.0</ele><time>2026-04-26T14:12:23Z</time></trkpt><trkpt lat="45.469512035267975" lon="8.765266003277576"><ele>140.0</ele><time>2026-04-26T14:12:24Z</time></trkpt><trkpt lat="45.469591924062364" lon="8.765196499286949"><ele>140.5</ele><time>2026-04-26T14:12:25Z</time></trkpt><trkpt lat="45.46966404051269" lon="8.765139588975183"><ele>141.0</ele><time>2026-04-26T14:12:26Z</time></trkpt><trkpt lat="45.46973900658417" lon="8.765078175233898"><ele>141.5</ele><time>2026-04-26T14:12:27Z</time></trkpt><trkpt lat="45.46982242673592" lon="8.765036433577022"><ele>142.0</ele><time>2026-04-26T14:12:28Z</time></trkpt><trkpt lat="45.46989367372788" lon="8.764982127288905"><ele>142.5</ele><time>2026-04-26T14:12:29Z</time></trkpt><trkpt lat="45.46996504308174" lon="8.764927739235459"><ele>143.0</ele><time>2026-04-26T14:12:30Z</time></trkpt><trkpt lat="45.47002946238508" lon="8.764877787629334"><ele>143.0</ele><time>2026-04-26T14:12:31Z</time></trkpt><trkpt lat="45.47008437011553" lon="8.764809478795849"><ele>143.0</ele><time>2026-04-26T14:12:32Z</time></trkpt><trkpt lat="45.470149720636975" lon="8.76476850790363"><ele>143.0</ele><time>2026-04-26T14:12:33Z</time></trkpt><trkpt lat="45.47021633732519" lon="8.764703474544131"><ele>143.0</ele><time>2026-04-26T14:12:35Z</time></trkpt><trkpt lat="45.470230429576766" lon="8.764582137326492"><ele>143.0</ele><time>2026-04-26T14:12:37Z</time></trkpt><trkpt lat="45.47020558473998" lon="8.764385292203162"><ele>143.20000000000002</ele><time>2026-04-26T14:12:39Z</time></trkpt><trkpt lat="45.470172487362554" lon="8.764248069020953"><ele>143.4</ele><time>2026-04-26T14:12:40Z</time></trkpt><trkpt lat="45.47013272454167" lon="8.764117516378041"><ele>143.60000000000002</ele><time>2026-04-26T14:12:41Z</time></trkpt><trkpt lat="45.470088528401654" lon="8.763992936812178"><ele>143.8</ele><time>2026-04-26T14:12:42Z</time></trkpt><trkpt lat="45.47005570901268" lon="8.763843176338217"><ele>144.0</ele><time>2026-04-26T14:12:43Z</time></trkpt><trkpt lat="45.470025998385594" lon="8.7637126433566"><ele>144.0</ele><time>2026-04-26T14:12:44Z</time></trkpt><trkpt lat="45.46999854863716" lon="8.763583976282646"><ele>144.0</ele><time>2026-04-26T14:12:45Z</time></trkpt><trkpt lat="45.4699687483872" lon="8.76344924786438"><ele>144.0</ele><time>2026-04-26T14:12:46Z</time></trkpt><trkpt lat="45.46995624082247" lon="8.763310494224074"><ele>144.0</ele><time>2026-04-26T14:12:47Z</time></trkpt><trkpt lat="45.4699283715946" lon="8.763174311808315"><ele>144.0</ele><time>2026-04-26T14:12:48Z</time></trkpt><trkpt lat="45.46988495003478" lon="8.763045512578456"><ele>143.6</ele><time>2026-04-26T14:12:49Z</time></trkpt><trkpt lat="45.469873813305526" lon="8.762912285887477"><ele>143.2</ele><time>2026-04-26T14:12:50Z</time></trkpt><trkpt lat="45.4698469099243" lon="8.762784971960896"><ele>142.79999999999998</ele><time>2026-04-26T14:12:51Z</time></trkpt><trkpt lat="45.469804965419016" lon="8.76266916265834"><ele>142.4</ele><time>2026-04-26T14:12:52Z</time></trkpt><trkpt lat="45.469775201028234" lon="8.762547018598983"><ele>142.0</ele><time>2026-04-26T14:12:53Z</time></trkpt><trkpt lat="45.46975939747241" lon="8.762403254792353"><ele>142.0</ele><time>2026-04-26T14:12:54Z</time></trkpt><trkpt lat="45.46972757980239" lon="8.762268520720198"><ele>142.0</ele><time>2026-04-26T14:12:55Z</time></trkpt><trkpt lat="45.469698078052204" lon="8.762144239534274"><ele>142.0</ele><time>2026-04-26T14:12:56Z</time></trkpt><trkpt lat="45.46965471190347" lon="8.76201929309231"><ele>142.0</ele><time>2026-04-26T14:12:57Z</time></trkpt><trkpt lat="45.469622627522256" lon="8.761883236071343"><ele>142.0</ele><time>2026-04-26T14:12:58Z</time></trkpt><trkpt lat="45.469591992736696" lon="8.76174467547606"><ele>141.6</ele><time>2026-04-26T14:12:59Z</time></trkpt><trkpt lat="45.469560381467566" lon="8.761610835102697"><ele>141.2</ele><time>2026-04-26T14:13:00Z</time></trkpt><trkpt lat="45.469531038287215" lon="8.761482720135364"><ele>140.8</ele><time>2026-04-26T14:13:01Z</time></trkpt><trkpt lat="45.46949860940045" lon="8.761342273327516"><ele>140.4</ele><time>2026-04-26T14:13:02Z</time></trkpt><trkpt lat="45.46947060460215" lon="8.761207909279454"><ele>140.0</ele><time>2026-04-26T14:13:03Z</time></trkpt><trkpt lat="45.46943992465527" lon="8.761074089424108"><ele>140.2</ele><time>2026-04-26T14:13:04Z</time></trkpt><trkpt lat="45.469408616870716" lon="8.760941255084102"><ele>140.4</ele><time>2026-04-26T14:13:05Z</time></trkpt><trkpt lat="45.4693754233426" lon="8.760791790910233"><ele>140.6</ele><time>2026-04-26T14:13:06Z</time></trkpt><trkpt lat="45.46935665556979" lon="8.760631084570827"><ele>140.8</ele><time>2026-04-26T14:13:07Z</time></trkpt><trkpt lat="45.46930785672912" lon="8.760486843870579"><ele>141.0</ele><time>2026-04-26T14:13:08Z</time></trkpt><trkpt lat="45.469274682651196" lon="8.760330205412162"><ele>140.6</ele><time>2026-04-26T14:13:09Z</time></trkpt><trkpt lat="45.46923868011556" lon="8.760173424932228"><ele>140.2</ele><time>2026-04-26T14:13:10Z</time></trkpt><trkpt lat="45.46920371632471" lon="8.760015449875816"><ele>139.8</ele><time>2026-04-26T14:13:11Z</time></trkpt><trkpt lat="45.46917020277905" lon="8.75986436583372"><ele>139.4</ele><time>2026-04-26T14:13:12Z</time></trkpt><trkpt lat="45.46915588620335" lon="8.75972438687516"><ele>139.0</ele><time>2026-04-26T14:13:13Z</time></trkpt><trkpt lat="45.46911383473225" lon="8.759614558854318"><ele>139.0</ele><time>2026-04-26T14:13:14Z</time></trkpt><trkpt lat="45.469093823157365" lon="8.759522769478513"><ele>139.0</ele><time>2026-04-26T14:13:15Z</time></trkpt><trkpt lat="45.46906015155381" lon="8.759374272530545"><ele>139.0</ele><time>2026-04-26T14:13:17Z</time></trkpt><trkpt lat="45.46904729072381" lon="8.759214997423298"><ele>139.0</ele><time>2026-04-26T14:13:19Z</time></trkpt><trkpt lat="45.46910721915307" lon="8.759065313858788"><ele>139.0</ele><time>2026-04-26T14:13:21Z</time></trkpt><trkpt lat="45.46917196992251" lon="8.759038943758028"><ele>139.4</ele><time>2026-04-26T14:13:22Z</time></trkpt><trkpt lat="45.46923575323561" lon="8.758980896477775"><ele>139.8</ele><time>2026-04-26T14:13:23Z</time></trkpt><trkpt lat="45.469326370650016" lon="8.75894345863906"><ele>140.2</ele><time>2026-04-26T14:13:24Z</time></trkpt><trkpt lat="45.46942537685324" lon="8.75889160785717"><ele>140.6</ele><time>2026-04-26T14:13:25Z</time></trkpt><trkpt lat="45.469536340138056" lon="8.758843260122495"><ele>141.0</ele><time>2026-04-26T14:13:26Z</time></trkpt><trkpt lat="45.469648321501545" lon="8.758797198012397"><ele>141.0</ele><time>2026-04-26T14:13:27Z</time></trkpt><trkpt lat="45.46975670995902" lon="8.758749510028602"><ele>141.0</ele><time>2026-04-26T14:13:28Z</time></trkpt><trkpt lat="45.469861825158524" lon="8.75870256881311"><ele>141.0</ele><time>2026-04-26T14:13:29Z</time></trkpt><trkpt lat="45.46997643188834" lon="8.758675170152399"><ele>141.0</ele><time>2026-04-26T14:13:30Z</time></trkpt><trkpt lat="45.47007820263738" lon="8.758606792026765"><ele>141.0</ele><time>2026-04-26T14:13:31Z</time></trkpt><trkpt lat="45.4701839358608" lon="8.7585811153566"><ele>141.0</ele><time>2026-04-26T14:13:32Z</time></trkpt><trkpt lat="45.47028246586711" lon="8.758519391868973"><ele>141.0</ele><time>2026-04-26T14:13:33Z</time></trkpt><trkpt lat="45.47037650963558" lon="8.758472694867677"><ele>141.0</ele><time>2026-04-26T14:13:34Z</time></trkpt><trkpt lat="45.47047595160614" lon="8.758430805784874"><ele>141.0</ele><time>2026-04-26T14:13:35Z</time></trkpt><trkpt lat="45.470578987565446" lon="8.75838322970956"><ele>141.5</ele><time>2026-04-26T14:13:36Z</time></trkpt><trkpt lat="45.47069269957071" lon="8.758330370842675"><ele>142.0</ele><time>2026-04-26T14:13:37Z</time></trkpt><trkpt lat="45.47080752203206" lon="8.758277817133283"><ele>142.5</ele><time>2026-04-26T14:13:38Z</time></trkpt><trkpt lat="45.47092083606541" lon="8.758226557934584"><ele>143.0</ele><time>2026-04-26T14:13:39Z</time></trkpt><trkpt lat="45.47103112851712" lon="8.75817566473141"><ele>143.0</ele><time>2026-04-26T14:13:40Z</time></trkpt><trkpt lat="45.47114676942393" lon="8.758122440125884"><ele>143.0</ele><time>2026-04-26T14:13:41Z</time></trkpt><trkpt lat="45.471259553642305" lon="8.758088564710226"><ele>143.0</ele><time>2026-04-26T14:13:42Z</time></trkpt><trkpt lat="45.471367811888335" lon="8.758020959184357"><ele>143.0</ele><time>2026-04-26T14:13:43Z</time></trkpt><trkpt lat="45.47147598748027" lon="8.75797279343536"><ele>143.8</ele><time>2026-04-26T14:13:44Z</time></trkpt><trkpt lat="45.47157886327903" lon="8.757943871275009"><ele>144.60000000000002</ele><time>2026-04-26T14:13:45Z</time></trkpt><trkpt lat="45.47167756941225" lon="8.757885327444464"><ele>145.39999999999998</ele><time>2026-04-26T14:13:46Z</time></trkpt><trkpt lat="45.47177941388341" lon="8.757859756790488"><ele>146.2</ele><time>2026-04-26T14:13:47Z</time></trkpt><trkpt lat="45.47188074610735" lon="8.757815444754993"><ele>147.0</ele><time>2026-04-26T14:13:48Z</time></trkpt><trkpt lat="45.47197359496471" lon="8.757778189047823"><ele>147.0</ele><time>2026-04-26T14:13:49Z</time></trkpt><trkpt lat="45.47205199909007" lon="8.75774985593273"><ele>147.0</ele><time>2026-04-26T14:13:50Z</time></trkpt><trkpt lat="45.47212428338183" lon="8.757718273957744"><ele>147.0</ele><time>2026-04-26T14:13:51Z</time></trkpt><trkpt lat="45.47219243261314" lon="8.757665995717963"><ele>147.0</ele><time>2026-04-26T14:13:52Z</time></trkpt><trkpt lat="45.47224112620765" lon="8.757575262152463"><ele>147.0</ele><time>2026-04-26T14:13:53Z</time></trkpt><trkpt lat="45.4722989100139" lon="8.75747996297796"><ele>147.0</ele><time>2026-04-26T14:13:54Z</time></trkpt><trkpt lat="45.47235782409114" lon="8.757367819064923"><ele>146.6</ele><time>2026-04-26T14:13:55Z</time></trkpt><trkpt lat="45.472421515597176" lon="8.757251624971191"><ele>146.2</ele><time>2026-04-26T14:13:56Z</time></trkpt><trkpt lat="45.47250360103788" lon="8.757148047034331"><ele>145.8</ele><time>2026-04-26T14:13:57Z</time></trkpt><trkpt lat="45.47258099922238" lon="8.757023793898016"><ele>145.4</ele><time>2026-04-26T14:13:58Z</time></trkpt><trkpt lat="45.47265540678286" lon="8.756904853415213"><ele>145.0</ele><time>2026-04-26T14:13:59Z</time></trkpt><trkpt lat="45.47271649365394" lon="8.756808089216523"><ele>145.0</ele><time>2026-04-26T14:14:00Z</time></trkpt><trkpt lat="45.47277916684833" lon="8.75671305043006"><ele>145.0</ele><time>2026-04-26T14:14:01Z</time></trkpt><trkpt lat="45.472829839585394" lon="8.756636929236928"><ele>145.0</ele><time>2026-04-26T14:14:02Z</time></trkpt><trkpt lat="45.47287665738427" lon="8.756568324392626"><ele>145.0</ele><time>2026-04-26T14:14:03Z</time></trkpt><trkpt lat="45.47293136768625" lon="8.756466691341968"><ele>145.0</ele><time>2026-04-26T14:14:05Z</time></trkpt><trkpt lat="45.47300591494053" lon="8.756367289246075"><ele>145.0</ele><time>2026-04-26T14:14:07Z</time></trkpt><trkpt lat="45.47304922616279" lon="8.756296951699525"><ele>145.42857142857144</ele><time>2026-04-26T14:14:08Z</time></trkpt><trkpt lat="45.47309201232328" lon="8.756221900456506"><ele>145.85714285714286</ele><time>2026-04-26T14:14:09Z</time></trkpt><trkpt lat="45.47313576345793" lon="8.756139324680674"><ele>146.28571428571428</ele><time>2026-04-26T14:14:10Z</time></trkpt><trkpt lat="45.47317893244164" lon="8.756051125906163"><ele>146.71428571428572</ele><time>2026-04-26T14:14:11Z</time></trkpt><trkpt lat="45.473215618171615" lon="8.755967805326346"><ele>147.14285714285714</ele><time>2026-04-26T14:14:12Z</time></trkpt><trkpt lat="45.47322397528911" lon="8.755873207250582"><ele>147.57142857142858</ele><time>2026-04-26T14:14:13Z</time></trkpt><trkpt lat="45.47321969586527" lon="8.755773992190745"><ele>148.0</ele><time>2026-04-26T14:14:14Z</time></trkpt><trkpt lat="45.473198575194864" lon="8.755680784106476"><ele>148.0</ele><time>2026-04-26T14:14:15Z</time></trkpt><trkpt lat="45.47317157665698" lon="8.755572226916215"><ele>148.0</ele><time>2026-04-26T14:14:16Z</time></trkpt><trkpt lat="45.47314636523001" lon="8.755458992767307"><ele>148.0</ele><time>2026-04-26T14:14:17Z</time></trkpt><trkpt lat="45.47312355334138" lon="8.755348239722116"><ele>148.0</ele><time>2026-04-26T14:14:18Z</time></trkpt><trkpt lat="45.47309777764519" lon="8.755226466237039"><ele>148.0</ele><time>2026-04-26T14:14:19Z</time></trkpt><trkpt lat="45.473067767965404" lon="8.755104611398933"><ele>148.0</ele><time>2026-04-26T14:14:20Z</time></trkpt><trkpt lat="45.47303541866423" lon="8.754967845323389"><ele>148.0</ele><time>2026-04-26T14:14:21Z</time></trkpt><trkpt lat="45.47299969703811" lon="8.754818606249657"><ele>148.0</ele><time>2026-04-26T14:14:22Z</time></trkpt><trkpt lat="45.47296012517606" lon="8.754670813411115"><ele>148.0</ele><time>2026-04-26T14:14:23Z</time></trkpt><trkpt lat="45.47292143639121" lon="8.754523592304762"><ele>148.0</ele><time>2026-04-26T14:14:24Z</time></trkpt><trkpt lat="45.472885827426786" lon="8.7543870372233"><ele>148.0</ele><time>2026-04-26T14:14:25Z</time></trkpt><trkpt lat="45.47285356064999" lon="8.75425241053259"><ele>147.5</ele><time>2026-04-26T14:14:26Z</time></trkpt><trkpt lat="45.47281955524214" lon="8.7541086925045"><ele>147.0</ele><time>2026-04-26T14:14:27Z</time></trkpt><trkpt lat="45.472784190877356" lon="8.753951887594727"><ele>146.5</ele><time>2026-04-26T14:14:28Z</time></trkpt><trkpt lat="45.47273931612435" lon="8.753774545315537"><ele>146.0</ele><time>2026-04-26T14:14:29Z</time></trkpt><trkpt lat="45.47269932231759" lon="8.753604676645764"><ele>145.5</ele><time>2026-04-26T14:14:30Z</time></trkpt><trkpt lat="45.472662306921606" lon="8.753434984119854"><ele>145.0</ele><time>2026-04-26T14:14:31Z</time></trkpt><trkpt lat="45.472624723821454" lon="8.75326199759561"><ele>144.5</ele><time>2026-04-26T14:14:32Z</time></trkpt><trkpt lat="45.47258080264041" lon="8.753072345946267"><ele>144.0</ele><time>2026-04-26T14:14:33Z</time></trkpt><trkpt lat="45.47253344451498" lon="8.752873097551323"><ele>144.25</ele><time>2026-04-26T14:14:34Z</time></trkpt><trkpt lat="45.47248558420202" lon="8.752667508397211"><ele>144.5</ele><time>2026-04-26T14:14:35Z</time></trkpt><trkpt lat="45.47244025732814" lon="8.752466747583643"><ele>144.75</ele><time>2026-04-26T14:14:36Z</time></trkpt><trkpt lat="45.472394714992966" lon="8.752265254898013"><ele>145.0</ele><time>2026-04-26T14:14:37Z</time></trkpt><trkpt lat="45.47234793671166" lon="8.752065972941756"><ele>144.75</ele><time>2026-04-26T14:14:38Z</time></trkpt><trkpt lat="45.472298559614345" lon="8.751861694175785"><ele>144.5</ele><time>2026-04-26T14:14:39Z</time></trkpt><trkpt lat="45.472251569395695" lon="8.751661601531701"><ele>144.25</ele><time>2026-04-26T14:14:40Z</time></trkpt><trkpt lat="45.472204838908176" lon="8.751459578253025"><ele>144.0</ele><time>2026-04-26T14:14:41Z</time></trkpt><trkpt lat="45.47216062858966" lon="8.751255722408674"><ele>144.0</ele><time>2026-04-26T14:14:42Z</time></trkpt><trkpt lat="45.47211730881104" lon="8.75105459468309"><ele>144.0</ele><time>2026-04-26T14:14:43Z</time></trkpt><trkpt lat="45.47207712095803" lon="8.75087240491479"><ele>144.0</ele><time>2026-04-26T14:14:44Z</time></trkpt><trkpt lat="45.47203691252366" lon="8.750703779712335"><ele>144.0</ele><time>2026-04-26T14:14:45Z</time></trkpt><trkpt lat="45.471998502690575" lon="8.750549114525644"><ele>144.2</ele><time>2026-04-26T14:14:46Z</time></trkpt><trkpt lat="45.47196849433274" lon="8.750406120093265"><ele>144.4</ele><time>2026-04-26T14:14:47Z</time></trkpt><trkpt lat="45.47194452501861" lon="8.750279853339435"><ele>144.6</ele><time>2026-04-26T14:14:48Z</time></trkpt><trkpt lat="45.471921946358215" lon="8.75017573085391"><ele>144.8</ele><time>2026-04-26T14:14:49Z</time></trkpt><trkpt lat="45.47189532425217" lon="8.750043306367182"><ele>145.0</ele><time>2026-04-26T14:14:51Z</time></trkpt><trkpt lat="45.47178935862937" lon="8.750051930613296"><ele>145.0</ele><time>2026-04-26T14:14:55Z</time></trkpt><trkpt lat="45.47188474966379" lon="8.750033201219683"><ele>145.0</ele><time>2026-04-26T14:14:56Z</time></trkpt><trkpt lat="45.47191498303043" lon="8.750117830468865"><ele>145.0</ele><time>2026-04-26T14:15:02Z</time></trkpt><trkpt lat="45.47195162047179" lon="8.750473508144207"><ele>145.0</ele><time>2026-04-26T14:15:06Z</time></trkpt><trkpt lat="45.47198172998083" lon="8.750596890121116"><ele>145.0</ele><time>2026-04-26T14:15:07Z</time></trkpt><trkpt lat="45.47201381953862" lon="8.750721974146474"><ele>145.0</ele><time>2026-04-26T14:15:08Z</time></trkpt><trkpt lat="45.47204997886613" lon="8.750877431145746"><ele>145.0</ele><time>2026-04-26T14:15:09Z</time></trkpt><trkpt lat="45.47208626664553" lon="8.751057233207943"><ele>145.0</ele><time>2026-04-26T14:15:10Z</time></trkpt><trkpt lat="45.4721249991135" lon="8.751245633770159"><ele>145.0</ele><time>2026-04-26T14:15:11Z</time></trkpt><trkpt lat="45.47216732153224" lon="8.751437660636292"><ele>145.0</ele><time>2026-04-26T14:15:12Z</time></trkpt><trkpt lat="45.47221691139186" lon="8.751642516277112"><ele>145.0</ele><time>2026-04-26T14:15:13Z</time></trkpt><trkpt lat="45.47226914161157" lon="8.751852110084947"><ele>145.0</ele><time>2026-04-26T14:15:14Z</time></trkpt><trkpt lat="45.472319166891204" lon="8.752065916318486"><ele>145.0</ele><time>2026-04-26T14:15:15Z</time></trkpt><trkpt lat="45.47236573851628" lon="8.75227700551929"><ele>145.0</ele><time>2026-04-26T14:15:16Z</time></trkpt><trkpt lat="45.472412323906646" lon="8.75249254026761"><ele>145.0</ele><time>2026-04-26T14:15:17Z</time></trkpt><trkpt lat="45.47246036225992" lon="8.752704306170813"><ele>144.75</ele><time>2026-04-26T14:15:18Z</time></trkpt><trkpt lat="45.472505381797575" lon="8.752903603936444"><ele>144.5</ele><time>2026-04-26T14:15:19Z</time></trkpt><trkpt lat="45.472548236822625" lon="8.753095724950741"><ele>144.25</ele><time>2026-04-26T14:15:20Z</time></trkpt><trkpt lat="45.47259061629323" lon="8.753283242050198"><ele>144.0</ele><time>2026-04-26T14:15:21Z</time></trkpt><trkpt lat="45.47263212632488" lon="8.753470217335524"><ele>144.5</ele><time>2026-04-26T14:15:22Z</time></trkpt><trkpt lat="45.472674237176236" lon="8.753654887137758"><ele>145.0</ele><time>2026-04-26T14:15:23Z</time></trkpt><trkpt lat="45.47271847275148" lon="8.753843351442834"><ele>145.5</ele><time>2026-04-26T14:15:24Z</time></trkpt><trkpt lat="45.472764046560506" lon="8.754031821419554"><ele>146.0</ele><time>2026-04-26T14:15:25Z</time></trkpt><trkpt lat="45.472809904917575" lon="8.75421717114881"><ele>146.5</ele><time>2026-04-26T14:15:26Z</time></trkpt><trkpt lat="45.472855303464094" lon="8.754402856364875"><ele>147.0</ele><time>2026-04-26T14:15:27Z</time></trkpt><trkpt lat="45.47290445223006" lon="8.754590575042975"><ele>147.5</ele><time>2026-04-26T14:15:28Z</time></trkpt><trkpt lat="45.47295335141568" lon="8.754777206047098"><ele>148.0</ele><time>2026-04-26T14:15:29Z</time></trkpt><trkpt lat="45.47300018192471" lon="8.754960319126294"><ele>148.0</ele><time>2026-04-26T14:15:30Z</time></trkpt><trkpt lat="45.473042859815585" lon="8.755131838333446"><ele>148.0</ele><time>2026-04-26T14:15:31Z</time></trkpt><trkpt lat="45.473081245991764" lon="8.75529379624889"><ele>148.0</ele><time>2026-04-26T14:15:32Z</time></trkpt><trkpt lat="45.473119548313356" lon="8.7554445752898"><ele>148.0</ele><time>2026-04-26T14:15:33Z</time></trkpt><trkpt lat="45.47315447209534" lon="8.75558977786669"><ele>148.0</ele><time>2026-04-26T14:15:34Z</time></trkpt><trkpt lat="45.473179394944104" lon="8.755723840310816"><ele>148.0</ele><time>2026-04-26T14:15:35Z</time></trkpt><trkpt lat="45.473184754933946" lon="8.755850581143505"><ele>148.0</ele><time>2026-04-26T14:15:36Z</time></trkpt><trkpt lat="45.47316567066487" lon="8.75596482749394"><ele>148.0</ele><time>2026-04-26T14:15:37Z</time></trkpt><trkpt lat="45.47312827345621" lon="8.756070917622814"><ele>148.0</ele><time>2026-04-26T14:15:38Z</time></trkpt><trkpt lat="45.47307652776435" lon="8.756173667414428"><ele>148.0</ele><time>2026-04-26T14:15:39Z</time></trkpt><trkpt lat="45.47301478280293" lon="8.756272355393923"><ele>148.0</ele><time>2026-04-26T14:15:40Z</time></trkpt><trkpt lat="45.472956687156774" lon="8.756372401003343"><ele>148.0</ele><time>2026-04-26T14:15:41Z</time></trkpt><trkpt lat="45.472900700912646" lon="8.756478311682827"><ele>148.0</ele><time>2026-04-26T14:15:42Z</time></trkpt><trkpt lat="45.47284399105798" lon="8.756578087653464"><ele>148.0</ele><time>2026-04-26T14:15:43Z</time></trkpt><trkpt lat="45.47276479247299" lon="8.756665766169782"><ele>148.0</ele><time>2026-04-26T14:15:44Z</time></trkpt><trkpt lat="45.47269656707091" lon="8.756768805822004"><ele>147.33333333333334</ele><time>2026-04-26T14:15:45Z</time></trkpt><trkpt lat="45.47264675757338" lon="8.756877555314722"><ele>146.66666666666669</ele><time>2026-04-26T14:15:46Z</time></trkpt><trkpt lat="45.47259009172335" lon="8.756967795254921"><ele>146.0</ele><time>2026-04-26T14:15:47Z</time></trkpt><trkpt lat="45.47252262120177" lon="8.757046134488728"><ele>145.33333333333334</ele><time>2026-04-26T14:15:48Z</time></trkpt><trkpt lat="45.47246330638147" lon="8.757141357029393"><ele>144.66666666666666</ele><time>2026-04-26T14:15:49Z</time></trkpt><trkpt lat="45.472413508311156" lon="8.757259207400862"><ele>144.0</ele><time>2026-04-26T14:15:50Z</time></trkpt><trkpt lat="45.472346500617526" lon="8.757362315994529"><ele>144.0</ele><time>2026-04-26T14:15:51Z</time></trkpt><trkpt lat="45.47228703801664" lon="8.757470995635222"><ele>144.0</ele><time>2026-04-26T14:15:52Z</time></trkpt><trkpt lat="45.472232823133574" lon="8.757559886715423"><ele>144.0</ele><time>2026-04-26T14:15:53Z</time></trkpt><trkpt lat="45.472180975921916" lon="8.75763758633685"><ele>144.0</ele><time>2026-04-26T14:15:54Z</time></trkpt><trkpt lat="45.47211575233875" lon="8.757697435515219"><ele>144.0</ele><time>2026-04-26T14:15:55Z</time></trkpt><trkpt lat="45.47204663973058" lon="8.757705262601439"><ele>144.0</ele><time>2026-04-26T14:15:56Z</time></trkpt><trkpt lat="45.471982315550235" lon="8.757726218056776"><ele>144.5</ele><time>2026-04-26T14:15:57Z</time></trkpt><trkpt lat="45.47192093206581" lon="8.757748198087757"><ele>145.0</ele><time>2026-04-26T14:15:58Z</time></trkpt><trkpt lat="45.47184711134717" lon="8.757803748421944"><ele>145.5</ele><time>2026-04-26T14:15:59Z</time></trkpt><trkpt lat="45.47175900641514" lon="8.75781900310199"><ele>146.0</ele><time>2026-04-26T14:16:00Z</time></trkpt><trkpt lat="45.47167412458038" lon="8.757854746399794"><ele>146.5</ele><time>2026-04-26T14:16:01Z</time></trkpt><trkpt lat="45.47159572114967" lon="8.757887519499604"><ele>147.0</ele><time>2026-04-26T14:16:02Z</time></trkpt><trkpt lat="45.47152034586425" lon="8.7579414706713"><ele>147.0</ele><time>2026-04-26T14:16:03Z</time></trkpt><trkpt lat="45.471440494757594" lon="8.75795581845201"><ele>147.0</ele><time>2026-04-26T14:16:04Z</time></trkpt><trkpt lat="45.47136343400415" lon="8.75799117877229"><ele>147.0</ele><time>2026-04-26T14:16:05Z</time></trkpt><trkpt lat="45.471294102268644" lon="8.758022992619644"><ele>147.0</ele><time>2026-04-26T14:16:06Z</time></trkpt><trkpt lat="45.47121526414002" lon="8.758059168534553"><ele>147.0</ele><time>2026-04-26T14:16:07Z</time></trkpt><trkpt lat="45.47114058878006" lon="8.758093365412881"><ele>147.0</ele><time>2026-04-26T14:16:08Z</time></trkpt><trkpt lat="45.47106020079281" lon="8.758152066215846"><ele>146.33333333333334</ele><time>2026-04-26T14:16:09Z</time></trkpt><trkpt lat="45.47097588999924" lon="8.758192412782712"><ele>145.66666666666666</ele><time>2026-04-26T14:16:10Z</time></trkpt><trkpt lat="45.47089719751182" lon="8.758228138251216"><ele>145.0</ele><time>2026-04-26T14:16:11Z</time></trkpt><trkpt lat="45.47082410948675" lon="8.75826166588436"><ele>144.33333333333331</ele><time>2026-04-26T14:16:12Z</time></trkpt><trkpt lat="45.470745063505696" lon="8.758297414517502"><ele>143.66666666666666</ele><time>2026-04-26T14:16:13Z</time></trkpt><trkpt lat="45.470663349926376" lon="8.758332378473648"><ele>143.0</ele><time>2026-04-26T14:16:14Z</time></trkpt><trkpt lat="45.470569525557096" lon="8.758354626457097"><ele>143.0</ele><time>2026-04-26T14:16:15Z</time></trkpt><trkpt lat="45.47047867598233" lon="8.758396252489101"><ele>143.0</ele><time>2026-04-26T14:16:16Z</time></trkpt><trkpt lat="45.47038362782864" lon="8.758439802193873"><ele>143.0</ele><time>2026-04-26T14:16:17Z</time></trkpt><trkpt lat="45.47027314774025" lon="8.758490434591476"><ele>143.0</ele><time>2026-04-26T14:16:18Z</time></trkpt><trkpt lat="45.47016832013543" lon="8.758538563240348"><ele>143.0</ele><time>2026-04-26T14:16:19Z</time></trkpt><trkpt lat="45.47007125908583" lon="8.758600449343373"><ele>142.6</ele><time>2026-04-26T14:16:20Z</time></trkpt><trkpt lat="45.469969465811886" lon="8.75864759767812"><ele>142.20000000000002</ele><time>2026-04-26T14:16:21Z</time></trkpt><trkpt lat="45.46987003007876" lon="8.75869554706463"><ele>141.8</ele><time>2026-04-26T14:16:22Z</time></trkpt><trkpt lat="45.46975387079136" lon="8.758720291420564"><ele>141.4</ele><time>2026-04-26T14:16:23Z</time></trkpt><trkpt lat="45.46965198033424" lon="8.758763133150534"><ele>141.0</ele><time>2026-04-26T14:16:24Z</time></trkpt><trkpt lat="45.46956807287643" lon="8.758823933437927"><ele>141.0</ele><time>2026-04-26T14:16:25Z</time></trkpt><trkpt lat="45.46947659491247" lon="8.758838872109294"><ele>141.0</ele><time>2026-04-26T14:16:26Z</time></trkpt><trkpt lat="45.46939196196944" lon="8.758900949558873"><ele>141.0</ele><time>2026-04-26T14:16:27Z</time></trkpt><trkpt lat="45.469312962102535" lon="8.758934485508185"><ele>141.0</ele><time>2026-04-26T14:16:28Z</time></trkpt><trkpt lat="45.46923615539051" lon="8.758967737388332"><ele>141.0</ele><time>2026-04-26T14:16:29Z</time></trkpt><trkpt lat="45.469164527134254" lon="8.758998683992768"><ele>141.0</ele><time>2026-04-26T14:16:30Z</time></trkpt><trkpt lat="45.469056911985106" lon="8.759089229384106"><ele>141.0</ele><time>2026-04-26T14:16:32Z</time></trkpt><trkpt lat="45.469016329832954" lon="8.759261596806244"><ele>141.0</ele><time>2026-04-26T14:16:34Z</time></trkpt><trkpt lat="45.469028886512305" lon="8.759369339124069"><ele>141.0</ele><time>2026-04-26T14:16:35Z</time></trkpt><trkpt lat="45.469064977360944" lon="8.759488133236154"><ele>141.0</ele><time>2026-04-26T14:16:36Z</time></trkpt><trkpt lat="45.4691115507513" lon="8.759648439374333"><ele>141.0</ele><time>2026-04-26T14:16:37Z</time></trkpt><trkpt lat="45.469165123173205" lon="8.759848668372396"><ele>141.0</ele><time>2026-04-26T14:16:38Z</time></trkpt><trkpt lat="45.46920600999534" lon="8.76005692426999"><ele>141.0</ele><time>2026-04-26T14:16:39Z</time></trkpt><trkpt lat="45.46924362018963" lon="8.760222579630005"><ele>141.0</ele><time>2026-04-26T14:16:40Z</time></trkpt><trkpt lat="45.46927053473484" lon="8.760347802856861"><ele>141.0</ele><time>2026-04-26T14:16:41Z</time></trkpt><trkpt lat="45.46929807358618" lon="8.760471151272299"><ele>141.0</ele><time>2026-04-26T14:16:42Z</time></trkpt><trkpt lat="45.4693326275586" lon="8.76062715041526"><ele>141.0</ele><time>2026-04-26T14:16:43Z</time></trkpt><trkpt lat="45.46936301972647" lon="8.760765273094671"><ele>141.0</ele><time>2026-04-26T14:16:44Z</time></trkpt><trkpt lat="45.46938981021913" lon="8.760887221371194"><ele>141.0</ele><time>2026-04-26T14:16:45Z</time></trkpt><trkpt lat="45.46940891044653" lon="8.761031073795465"><ele>141.0</ele><time>2026-04-26T14:16:46Z</time></trkpt><trkpt lat="45.46945379852164" lon="8.761168186370673"><ele>140.83333333333334</ele><time>2026-04-26T14:16:47Z</time></trkpt><trkpt lat="45.46948507318621" lon="8.761310247851915"><ele>140.66666666666666</ele><time>2026-04-26T14:16:48Z</time></trkpt><trkpt lat="45.46949789003962" lon="8.761437042132382"><ele>140.5</ele><time>2026-04-26T14:16:49Z</time></trkpt><trkpt lat="45.46953707422534" lon="8.761537935736824"><ele>140.33333333333331</ele><time>2026-04-26T14:16:50Z</time></trkpt><trkpt lat="45.469558349162185" lon="8.761636136628054"><ele>140.16666666666666</ele><time>2026-04-26T14:16:51Z</time></trkpt><trkpt lat="45.46957716168736" lon="8.761731242969384"><ele>140.0</ele><time>2026-04-26T14:16:52Z</time></trkpt><trkpt lat="45.469600486455306" lon="8.76183437630633"><ele>140.33333333333331</ele><time>2026-04-26T14:16:53Z</time></trkpt><trkpt lat="45.46962776430277" lon="8.76194484271284"><ele>140.66666666666666</ele><time>2026-04-26T14:16:54Z</time></trkpt><trkpt lat="45.46965157781848" lon="8.762048822339178"><ele>141.0</ele><time>2026-04-26T14:16:55Z</time></trkpt><trkpt lat="45.46967894228628" lon="8.762165056791876"><ele>141.33333333333334</ele><time>2026-04-26T14:16:56Z</time></trkpt><trkpt lat="45.46970316912357" lon="8.762274170497008"><ele>141.66666666666669</ele><time>2026-04-26T14:16:57Z</time></trkpt><trkpt lat="45.46972644257997" lon="8.762372704747948"><ele>142.0</ele><time>2026-04-26T14:16:58Z</time></trkpt><trkpt lat="45.469752607050445" lon="8.76248160740399"><ele>142.0</ele><time>2026-04-26T14:16:59Z</time></trkpt><trkpt lat="45.46978216774281" lon="8.762598484076427"><ele>142.0</ele><time>2026-04-26T14:17:00Z</time></trkpt><trkpt lat="45.469805409616924" lon="8.762733099150164"><ele>142.0</ele><time>2026-04-26T14:17:01Z</time></trkpt><trkpt lat="45.46984078487194" lon="8.762865487502399"><ele>142.0</ele><time>2026-04-26T14:17:02Z</time></trkpt><trkpt lat="45.46986994199614" lon="8.763004806353514"><ele>142.0</ele><time>2026-04-26T14:17:03Z</time></trkpt><trkpt lat="45.46989810995968" lon="8.763143893708444"><ele>142.0</ele><time>2026-04-26T14:17:04Z</time></trkpt><trkpt lat="45.469931506727235" lon="8.763287338907915"><ele>142.0</ele><time>2026-04-26T14:17:05Z</time></trkpt><trkpt lat="45.46996001550614" lon="8.763433057449971"><ele>142.0</ele><time>2026-04-26T14:17:06Z</time></trkpt><trkpt lat="45.46999287787719" lon="8.7635737274663"><ele>142.0</ele><time>2026-04-26T14:17:07Z</time></trkpt><trkpt lat="45.470004324870644" lon="8.763706174864158"><ele>142.0</ele><time>2026-04-26T14:17:08Z</time></trkpt><trkpt lat="45.47003925069815" lon="8.763820250178835"><ele>142.16666666666669</ele><time>2026-04-26T14:17:09Z</time></trkpt><trkpt lat="45.47007152323467" lon="8.763927279668541"><ele>142.33333333333334</ele><time>2026-04-26T14:17:10Z</time></trkpt><trkpt lat="45.470099388445746" lon="8.764052296847952"><ele>142.5</ele><time>2026-04-26T14:17:11Z</time></trkpt><trkpt lat="45.47012314458785" lon="8.76415343973042"><ele>142.66666666666666</ele><time>2026-04-26T14:17:12Z</time></trkpt><trkpt lat="45.47015264494343" lon="8.764256082796008"><ele>142.83333333333331</ele><time>2026-04-26T14:17:13Z</time></trkpt><trkpt lat="45.47018296710366" lon="8.764363880153088"><ele>143.0</ele><time>2026-04-26T14:17:14Z</time></trkpt><trkpt lat="45.470187866291305" lon="8.76446187300449"><ele>143.0</ele><time>2026-04-26T14:17:15Z</time></trkpt><trkpt lat="45.47020463726663" lon="8.764592037690784"><ele>143.0</ele><time>2026-04-26T14:17:17Z</time></trkpt><trkpt lat="45.47018596358622" lon="8.764701282035938"><ele>143.0</ele><time>2026-04-26T14:17:19Z</time></trkpt><trkpt lat="45.47010265876576" lon="8.764756392295569"><ele>143.0</ele><time>2026-04-26T14:17:21Z</time></trkpt><trkpt lat="45.47002258738676" lon="8.76481282868961"><ele>143.0</ele><time>2026-04-26T14:17:22Z</time></trkpt><trkpt lat="45.46994716546057" lon="8.764887675136826"><ele>143.0</ele><time>2026-04-26T14:17:23Z</time></trkpt><trkpt lat="45.46987725977086" lon="8.764960453932485"><ele>143.0</ele><time>2026-04-26T14:17:24Z</time></trkpt><trkpt lat="45.46978891481217" lon="8.765008288019951"><ele>143.0</ele><time>2026-04-26T14:17:25Z</time></trkpt><trkpt lat="45.469707726373365" lon="8.765098324276037"><ele>143.0</ele><time>2026-04-26T14:17:26Z</time></trkpt><trkpt lat="45.46961644079834" lon="8.76514408818254"><ele>143.0</ele><time>2026-04-26T14:17:27Z</time></trkpt><trkpt lat="45.46953104269316" lon="8.765211564856829"><ele>143.0</ele><time>2026-04-26T14:17:28Z</time></trkpt><trkpt lat="45.469446028451216" lon="8.765295464892787"><ele>142.4</ele><time>2026-04-26T14:17:29Z</time></trkpt><trkpt lat="45.469358024959384" lon="8.765388034766127"><ele>141.8</ele><time>2026-04-26T14:17:30Z</time></trkpt><trkpt lat="45.469267202469055" lon="8.765473213685837"><ele>141.2</ele><time>2026-04-26T14:17:31Z</time></trkpt><trkpt lat="45.469188531307296" lon="8.765544498663418"><ele>140.6</ele><time>2026-04-26T14:17:32Z</time></trkpt><trkpt lat="45.46911435025993" lon="8.765618545350303"><ele>140.0</ele><time>2026-04-26T14:17:33Z</time></trkpt><trkpt lat="45.46903238009667" lon="8.765695843516793"><ele>140.0</ele><time>2026-04-26T14:17:34Z</time></trkpt><trkpt lat="45.468952441679214" lon="8.765737037428895"><ele>140.0</ele><time>2026-04-26T14:17:35Z</time></trkpt><trkpt lat="45.46889455572708" lon="8.76578297254881"><ele>140.0</ele><time>2026-04-26T14:17:36Z</time></trkpt><trkpt lat="45.46880681778516" lon="8.765829150050655"><ele>140.0</ele><time>2026-04-26T14:17:38Z</time></trkpt><trkpt lat="45.468734604575644" lon="8.765851166243436"><ele>140.0</ele><time>2026-04-26T14:17:40Z</time></trkpt><trkpt lat="45.46868943945229" lon="8.765694670542148"><ele>140.0</ele><time>2026-04-26T14:17:42Z</time></trkpt><trkpt lat="45.46867049427864" lon="8.765570167243112"><ele>140.33333333333331</ele><time>2026-04-26T14:17:43Z</time></trkpt><trkpt lat="45.46864555038719" lon="8.765451922888216"><ele>140.66666666666666</ele><time>2026-04-26T14:17:44Z</time></trkpt><trkpt lat="45.46863820161691" lon="8.76533507271091"><ele>141.0</ele><time>2026-04-26T14:17:45Z</time></trkpt><trkpt lat="45.46861622545992" lon="8.765206970691114"><ele>141.33333333333334</ele><time>2026-04-26T14:17:46Z</time></trkpt><trkpt lat="45.46858889716598" lon="8.76510945606045"><ele>141.66666666666669</ele><time>2026-04-26T14:17:47Z</time></trkpt><trkpt lat="45.4685625952513" lon="8.764955936513127"><ele>142.0</ele><time>2026-04-26T14:17:49Z</time></trkpt><trkpt lat="45.468521546355184" lon="8.764867143531246"><ele>142.0</ele><time>2026-04-26T14:17:51Z</time></trkpt><trkpt lat="45.46843122293489" lon="8.764854612380837"><ele>142.0</ele><time>2026-04-26T14:17:53Z</time></trkpt><trkpt lat="45.46837686585641" lon="8.764977055111782"><ele>142.0</ele><time>2026-04-26T14:17:54Z</time></trkpt><trkpt lat="45.468323690613055" lon="8.765076122190711"><ele>142.0</ele><time>2026-04-26T14:17:55Z</time></trkpt><trkpt lat="45.4682768188071" lon="8.76515652214843"><ele>142.0</ele><time>2026-04-26T14:17:56Z</time></trkpt><trkpt lat="45.46823328235462" lon="8.765223631093276"><ele>142.0</ele><time>2026-04-26T14:17:57Z</time></trkpt><trkpt lat="45.46818065856068" lon="8.765292491870186"><ele>142.0</ele><time>2026-04-26T14:17:58Z</time></trkpt><trkpt lat="45.46809634840344" lon="8.765315701784457"><ele>142.0</ele><time>2026-04-26T14:17:59Z</time></trkpt><trkpt lat="45.467994021391455" lon="8.765298642400973"><ele>142.0</ele><time>2026-04-26T14:18:00Z</time></trkpt><trkpt lat="45.467878489476384" lon="8.765313655966342"><ele>142.0</ele><time>2026-04-26T14:18:01Z</time></trkpt><trkpt lat="45.46775775025835" lon="8.765344689474276"><ele>142.0</ele><time>2026-04-26T14:18:02Z</time></trkpt><trkpt lat="45.46763147189589" lon="8.765349801037216"><ele>141.2</ele><time>2026-04-26T14:18:03Z</time></trkpt><trkpt lat="45.46751678620557" lon="8.76535535662086"><ele>140.39999999999998</ele><time>2026-04-26T14:18:04Z</time></trkpt><trkpt lat="45.467411895681565" lon="8.765371742424723"><ele>139.60000000000002</ele><time>2026-04-26T14:18:05Z</time></trkpt><trkpt lat="45.46733211305101" lon="8.765444799027533"><ele>138.8</ele><time>2026-04-26T14:18:06Z</time></trkpt><trkpt lat="45.4672510491571" lon="8.765494207636449"><ele>138.0</ele><time>2026-04-26T14:18:07Z</time></trkpt><trkpt lat="45.467190161166634" lon="8.765607359486266"><ele>138.0</ele><time>2026-04-26T14:18:08Z</time></trkpt><trkpt lat="45.46714340545084" lon="8.76574068714638"><ele>138.0</ele><time>2026-04-26T14:18:09Z</time></trkpt><trkpt lat="45.467121626484435" lon="8.76586840862809"><ele>138.0</ele><time>2026-04-26T14:18:10Z</time></trkpt><trkpt lat="45.467143774698556" lon="8.76600253384839"><ele>138.0</ele><time>2026-04-26T14:18:11Z</time></trkpt><trkpt lat="45.46717069233232" lon="8.7661456299129"><ele>138.0</ele><time>2026-04-26T14:18:12Z</time></trkpt><trkpt lat="45.46722070838293" lon="8.766318195331902"><ele>137.20000000000002</ele><time>2026-04-26T14:18:13Z</time></trkpt><trkpt lat="45.46723917173372" lon="8.766458071213874"><ele>136.4</ele><time>2026-04-26T14:18:14Z</time></trkpt><trkpt lat="45.467273119547585" lon="8.766577290505902"><ele>135.60000000000002</ele><time>2026-04-26T14:18:15Z</time></trkpt><trkpt lat="45.467287845813125" lon="8.766711838446373"><ele>134.8</ele><time>2026-04-26T14:18:16Z</time></trkpt><trkpt lat="45.46730702500064" lon="8.766845213746159"><ele>134.0</ele><time>2026-04-26T14:18:17Z</time></trkpt><trkpt lat="45.46732642835043" lon="8.76698172485637"><ele>134.0</ele><time>2026-04-26T14:18:18Z</time></trkpt><trkpt lat="45.467329780313236" lon="8.767123259545823"><ele>134.0</ele><time>2026-04-26T14:18:19Z</time></trkpt><trkpt lat="45.46733749547419" lon="8.76724917256639"><ele>134.0</ele><time>2026-04-26T14:18:20Z</time></trkpt><trkpt lat="45.4673456040018" lon="8.767360075612267"><ele>134.0</ele><time>2026-04-26T14:18:21Z</time></trkpt><trkpt lat="45.4673304726293" lon="8.767490791185015"><ele>134.0</ele><time>2026-04-26T14:18:22Z</time></trkpt><trkpt lat="45.46733410774588" lon="8.76762256524201"><ele>134.2</ele><time>2026-04-26T14:18:23Z</time></trkpt><trkpt lat="45.46730648554248" lon="8.76773896576463"><ele>134.4</ele><time>2026-04-26T14:18:24Z</time></trkpt><trkpt lat="45.467268185073536" lon="8.767861157291406"><ele>134.6</ele><time>2026-04-26T14:18:25Z</time></trkpt><trkpt lat="45.46722766949861" lon="8.767991260985175"><ele>134.8</ele><time>2026-04-26T14:18:26Z</time></trkpt><trkpt lat="45.46717545330225" lon="8.768142130749677"><ele>135.0</ele><time>2026-04-26T14:18:27Z</time></trkpt><trkpt lat="45.4671295294098" lon="8.768310169243605"><ele>135.75</ele><time>2026-04-26T14:18:28Z</time></trkpt><trkpt lat="45.46708024185778" lon="8.768474227572904"><ele>136.5</ele><time>2026-04-26T14:18:29Z</time></trkpt><trkpt lat="45.46703569672098" lon="8.768638369979335"><ele>137.25</ele><time>2026-04-26T14:18:30Z</time></trkpt><trkpt lat="45.466986294278875" lon="8.768803861948886"><ele>138.0</ele><time>2026-04-26T14:18:31Z</time></trkpt><trkpt lat="45.46693754885783" lon="8.768967251561502"><ele>138.75</ele><time>2026-04-26T14:18:32Z</time></trkpt><trkpt lat="45.46688679373417" lon="8.769126613251075"><ele>139.5</ele><time>2026-04-26T14:18:33Z</time></trkpt><trkpt lat="45.46683394123117" lon="8.769264959539484"><ele>140.25</ele><time>2026-04-26T14:18:34Z</time></trkpt><trkpt lat="45.46679939218922" lon="8.769419131301797"><ele>141.0</ele><time>2026-04-26T14:18:35Z</time></trkpt><trkpt lat="45.46675153174341" lon="8.769563414007324"><ele>141.2</ele><time>2026-04-26T14:18:36Z</time></trkpt><trkpt lat="45.466709292473425" lon="8.76971738012713"><ele>141.39999999999998</ele><time>2026-04-26T14:18:37Z</time></trkpt><trkpt lat="45.46667273761129" lon="8.769848433397497"><ele>141.6</ele><time>2026-04-26T14:18:38Z</time></trkpt><trkpt lat="45.46662440546808" lon="8.769954412762202"><ele>141.79999999999998</ele><time>2026-04-26T14:18:39Z</time></trkpt><trkpt lat="45.46658790935441" lon="8.770055205977767"><ele>142.0</ele><time>2026-04-26T14:18:40Z</time></trkpt><trkpt lat="45.46651665752437" lon="8.770197279224217"><ele>142.0</ele><time>2026-04-26T14:18:42Z</time></trkpt><trkpt lat="45.46642769548169" lon="8.770301163462575"><ele>142.0</ele><time>2026-04-26T14:18:44Z</time></trkpt><trkpt lat="45.466350345356055" lon="8.770352479333559"><ele>142.0</ele><time>2026-04-26T14:18:45Z</time></trkpt><trkpt lat="45.466276946092016" lon="8.770392604858534"><ele>142.0</ele><time>2026-04-26T14:18:46Z</time></trkpt><trkpt lat="45.466187294203195" lon="8.77041923963277"><ele>142.0</ele><time>2026-04-26T14:18:47Z</time></trkpt><trkpt lat="45.466102148745094" lon="8.770441012151128"><ele>142.0</ele><time>2026-04-26T14:18:48Z</time></trkpt><trkpt lat="45.46602208141192" lon="8.770463198004713"><ele>142.0</ele><time>2026-04-26T14:18:49Z</time></trkpt><trkpt lat="45.465940388659746" lon="8.770488373948309"><ele>142.0</ele><time>2026-04-26T14:18:50Z</time></trkpt><trkpt lat="45.465860572644665" lon="8.770534576991723"><ele>142.0</ele><time>2026-04-26T14:18:51Z</time></trkpt><trkpt lat="45.46576528003084" lon="8.770569977809613"><ele>142.0</ele><time>2026-04-26T14:18:52Z</time></trkpt><trkpt lat="45.46567049595234" lon="8.770621693200525"><ele>142.0</ele><time>2026-04-26T14:18:53Z</time></trkpt><trkpt lat="45.46560297776491" lon="8.77065702798358"><ele>142.0</ele><time>2026-04-26T14:18:54Z</time></trkpt><trkpt lat="45.465509291503544" lon="8.770687631086606"><ele>142.0</ele><time>2026-04-26T14:18:56Z</time></trkpt><trkpt lat="45.46542609211066" lon="8.77066001238667"><ele>142.0</ele><time>2026-04-26T14:18:58Z</time></trkpt><trkpt lat="45.46541510000559" lon="8.770563826266242"><ele>142.0</ele><time>2026-04-26T14:18:59Z</time></trkpt><trkpt lat="45.465392588695586" lon="8.770457337659067"><ele>142.0</ele><time>2026-04-26T14:19:00Z</time></trkpt><trkpt lat="45.46535594597276" lon="8.770350759921154"><ele>141.79999999999998</ele><time>2026-04-26T14:19:01Z</time></trkpt><trkpt lat="45.46532587120744" lon="8.77022644445474"><ele>141.6</ele><time>2026-04-26T14:19:02Z</time></trkpt><trkpt lat="45.46531679274071" lon="8.770087335838763"><ele>141.39999999999998</ele><time>2026-04-26T14:19:03Z</time></trkpt><trkpt lat="45.46529075900032" lon="8.769947772133792"><ele>141.2</ele><time>2026-04-26T14:19:04Z</time></trkpt><trkpt lat="45.465264023750194" lon="8.769809896870804"><ele>141.0</ele><time>2026-04-26T14:19:05Z</time></trkpt><trkpt lat="45.46522052959855" lon="8.769674640828452"><ele>140.6</ele><time>2026-04-26T14:19:06Z</time></trkpt><trkpt lat="45.465185157529646" lon="8.769537716584262"><ele>140.2</ele><time>2026-04-26T14:19:07Z</time></trkpt><trkpt lat="45.465146247708354" lon="8.769390163391195"><ele>139.8</ele><time>2026-04-26T14:19:08Z</time></trkpt><trkpt lat="45.465109707516135" lon="8.769253724320931"><ele>139.4</ele><time>2026-04-26T14:19:09Z</time></trkpt><trkpt lat="45.465073613261154" lon="8.769097358633752"><ele>139.0</ele><time>2026-04-26T14:19:10Z</time></trkpt><trkpt lat="45.46502679787524" lon="8.768940496633892"><ele>139.0</ele><time>2026-04-26T14:19:11Z</time></trkpt><trkpt lat="45.46498248527493" lon="8.76878600020945"><ele>139.0</ele><time>2026-04-26T14:19:12Z</time></trkpt><trkpt lat="45.46495056661785" lon="8.768609767800095"><ele>139.0</ele><time>2026-04-26T14:19:13Z</time></trkpt><trkpt lat="45.464900297218826" lon="8.76843257356357"><ele>139.0</ele><time>2026-04-26T14:19:14Z</time></trkpt><trkpt lat="45.46487921359708" lon="8.768261110800797"><ele>139.0</ele><time>2026-04-26T14:19:15Z</time></trkpt><trkpt lat="45.46485047257706" lon="8.768089989492019"><ele>139.0</ele><time>2026-04-26T14:19:16Z</time></trkpt><trkpt lat="45.464812989572415" lon="8.76791471813337"><ele>139.0</ele><time>2026-04-26T14:19:17Z</time></trkpt><trkpt lat="45.464775578248016" lon="8.767739782105421"><ele>139.0</ele><time>2026-04-26T14:19:18Z</time></trkpt><trkpt lat="45.464722589107275" lon="8.767568492783774"><ele>138.75</ele><time>2026-04-26T14:19:19Z</time></trkpt><trkpt lat="45.464697239165304" lon="8.76738213168753"><ele>138.5</ele><time>2026-04-26T14:19:20Z</time></trkpt><trkpt lat="45.46465759343021" lon="8.767202974715799"><ele>138.25</ele><time>2026-04-26T14:19:21Z</time></trkpt><trkpt lat="45.46461724859754" lon="8.767020450419965"><ele>138.0</ele><time>2026-04-26T14:19:22Z</time></trkpt><trkpt lat="45.46457340008629" lon="8.766821636278152"><ele>138.75</ele><time>2026-04-26T14:19:23Z</time></trkpt><trkpt lat="45.464529452977764" lon="8.76662237518769"><ele>139.5</ele><time>2026-04-26T14:19:24Z</time></trkpt><trkpt lat="45.46449289909906" lon="8.766456635797502"><ele>140.25</ele><time>2026-04-26T14:19:25Z</time></trkpt><trkpt lat="45.46445577776321" lon="8.766285954200157"><ele>141.0</ele><time>2026-04-26T14:19:26Z</time></trkpt><trkpt lat="45.4644170105397" lon="8.766102850901522"><ele>140.83333333333334</ele><time>2026-04-26T14:19:27Z</time></trkpt><trkpt lat="45.46438008247689" lon="8.76592843377983"><ele>140.66666666666666</ele><time>2026-04-26T14:19:28Z</time></trkpt><trkpt lat="45.46433344470442" lon="8.76579484740537"><ele>140.5</ele><time>2026-04-26T14:19:29Z</time></trkpt><trkpt lat="45.46431027205232" lon="8.76568290195632"><ele>140.33333333333331</ele><time>2026-04-26T14:19:30Z</time></trkpt><trkpt lat="45.46429081791799" lon="8.765588063954635"><ele>140.16666666666666</ele><time>2026-04-26T14:19:31Z</time></trkpt><trkpt lat="45.46425676299751" lon="8.765508573703261"><ele>140.0</ele><time>2026-04-26T14:19:32Z</time></trkpt><trkpt lat="45.46416595559365" lon="8.765400498174788"><ele>140.0</ele><time>2026-04-26T14:19:34Z</time></trkpt><trkpt lat="45.46408302680909" lon="8.765413743839732"><ele>140.0</ele><time>2026-04-26T14:19:35Z</time></trkpt><trkpt lat="45.463990597501514" lon="8.765474148571975"><ele>140.0</ele><time>2026-04-26T14:19:36Z</time></trkpt><trkpt lat="45.46387750361542" lon="8.765531105974109"><ele>140.0</ele><time>2026-04-26T14:19:37Z</time></trkpt><trkpt lat="45.46376587705411" lon="8.765602284075689"><ele>140.0</ele><time>2026-04-26T14:19:38Z</time></trkpt><trkpt lat="45.46367576062897" lon="8.765655447162787"><ele>140.16666666666666</ele><time>2026-04-26T14:19:39Z</time></trkpt><trkpt lat="45.4635991639289" lon="8.765695772097649"><ele>140.33333333333331</ele><time>2026-04-26T14:19:40Z</time></trkpt><trkpt lat="45.463527810402425" lon="8.76573324691043"><ele>140.5</ele><time>2026-04-26T14:19:41Z</time></trkpt><trkpt lat="45.463435573145425" lon="8.765756383931148"><ele>140.66666666666666</ele><time>2026-04-26T14:19:43Z</time></trkpt><trkpt lat="45.46335803679457" lon="8.76574134229979"><ele>140.83333333333334</ele><time>2026-04-26T14:19:47Z</time></trkpt><trkpt lat="45.46331822347855" lon="8.765871316509509"><ele>141.0</ele><time>2026-04-26T14:19:48Z</time></trkpt><trkpt lat="45.463297135161916" lon="8.765996720010262"><ele>141.25</ele><time>2026-04-26T14:19:49Z</time></trkpt><trkpt lat="45.46327925636199" lon="8.766131889246157"><ele>141.5</ele><time>2026-04-26T14:19:50Z</time></trkpt><trkpt lat="45.46324952244566" lon="8.766295247936922"><ele>141.75</ele><time>2026-04-26T14:19:51Z</time></trkpt><trkpt lat="45.46321249187708" lon="8.76645056044635"><ele>142.0</ele><time>2026-04-26T14:19:52Z</time></trkpt><trkpt lat="45.46317225742768" lon="8.766622422463914"><ele>142.0</ele><time>2026-04-26T14:19:53Z</time></trkpt><trkpt lat="45.46313359442055" lon="8.76680555833663"><ele>142.0</ele><time>2026-04-26T14:19:54Z</time></trkpt><trkpt lat="45.463098064164015" lon="8.766988456357032"><ele>142.0</ele><time>2026-04-26T14:19:55Z</time></trkpt><trkpt lat="45.46305901961066" lon="8.767181316689925"><ele>142.0</ele><time>2026-04-26T14:19:56Z</time></trkpt><trkpt lat="45.46301774115856" lon="8.767373510749197"><ele>141.5</ele><time>2026-04-26T14:19:57Z</time></trkpt><trkpt lat="45.462980548353556" lon="8.76755519387522"><ele>141.0</ele><time>2026-04-26T14:19:58Z</time></trkpt><trkpt lat="45.4629469466699" lon="8.767724681085438"><ele>140.5</ele><time>2026-04-26T14:19:59Z</time></trkpt><trkpt lat="45.46291287762567" lon="8.767883495589055"><ele>140.0</ele><time>2026-04-26T14:20:00Z</time></trkpt><trkpt lat="45.46287556202203" lon="8.768034290723634"><ele>139.5</ele><time>2026-04-26T14:20:01Z</time></trkpt><trkpt lat="45.462841433793976" lon="8.768190097214918"><ele>139.0</ele><time>2026-04-26T14:20:02Z</time></trkpt><trkpt lat="45.462809285738736" lon="8.76835360763508"><ele>138.5</ele><time>2026-04-26T14:20:03Z</time></trkpt><trkpt lat="45.46277496525863" lon="8.768521922131974"><ele>138.0</ele><time>2026-04-26T14:20:04Z</time></trkpt><trkpt lat="45.46273781761433" lon="8.768696723785366"><ele>137.75</ele><time>2026-04-26T14:20:05Z</time></trkpt><trkpt lat="45.46270215361272" lon="8.768879297499568"><ele>137.5</ele><time>2026-04-26T14:20:06Z</time></trkpt><trkpt lat="45.46266522251188" lon="8.769063195679205"><ele>137.25</ele><time>2026-04-26T14:20:07Z</time></trkpt><trkpt lat="45.462626614171064" lon="8.769245203147204"><ele>137.0</ele><time>2026-04-26T14:20:08Z</time></trkpt><trkpt lat="45.462586845190145" lon="8.769430434353506"><ele>137.0</ele><time>2026-04-26T14:20:09Z</time></trkpt><trkpt lat="45.46254662460819" lon="8.76961980428908"><ele>137.0</ele><time>2026-04-26T14:20:10Z</time></trkpt><trkpt lat="45.46250674115634" lon="8.769805058662893"><ele>137.0</ele><time>2026-04-26T14:20:11Z</time></trkpt><trkpt lat="45.46246836944332" lon="8.769982291825873"><ele>137.0</ele><time>2026-04-26T14:20:12Z</time></trkpt><trkpt lat="45.462430262423936" lon="8.77016321799526"><ele>137.0</ele><time>2026-04-26T14:20:13Z</time></trkpt><trkpt lat="45.46238991186093" lon="8.770348994245031"><ele>137.0</ele><time>2026-04-26T14:20:14Z</time></trkpt><trkpt lat="45.4623503858826" lon="8.770541444850275"><ele>137.0</ele><time>2026-04-26T14:20:15Z</time></trkpt><trkpt lat="45.46230879748042" lon="8.770739303929973"><ele>137.0</ele><time>2026-04-26T14:20:16Z</time></trkpt><trkpt lat="45.462266795916854" lon="8.770944571555962"><ele>137.0</ele><time>2026-04-26T14:20:17Z</time></trkpt><trkpt lat="45.462227832239144" lon="8.771156608722263"><ele>137.0</ele><time>2026-04-26T14:20:18Z</time></trkpt><trkpt lat="45.46218338344027" lon="8.771365196252953"><ele>137.0</ele><time>2026-04-26T14:20:19Z</time></trkpt><trkpt lat="45.46213778397364" lon="8.77157535778059"><ele>136.66666666666666</ele><time>2026-04-26T14:20:20Z</time></trkpt><trkpt lat="45.46209231530203" lon="8.771796715346486"><ele>136.33333333333334</ele><time>2026-04-26T14:20:21Z</time></trkpt><trkpt lat="45.46204690166424" lon="8.772023723567797"><ele>136.0</ele><time>2026-04-26T14:20:22Z</time></trkpt><trkpt lat="45.46200164894422" lon="8.772256377119515"><ele>136.0</ele><time>2026-04-26T14:20:23Z</time></trkpt><trkpt lat="45.461952750003015" lon="8.772494678679237"><ele>136.0</ele><time>2026-04-26T14:20:24Z</time></trkpt><trkpt lat="45.46190143548425" lon="8.772738995457475"><ele>136.0</ele><time>2026-04-26T14:20:25Z</time></trkpt><trkpt lat="45.46185092371092" lon="8.772985566767577"><ele>135.33333333333334</ele><time>2026-04-26T14:20:26Z</time></trkpt><trkpt lat="45.46179744982513" lon="8.773231827666132"><ele>134.66666666666666</ele><time>2026-04-26T14:20:27Z</time></trkpt><trkpt lat="45.461749894347165" lon="8.77345528823367"><ele>134.0</ele><time>2026-04-26T14:20:28Z</time></trkpt><trkpt lat="45.46170575409344" lon="8.77366632846585"><ele>135.0</ele><time>2026-04-26T14:20:29Z</time></trkpt><trkpt lat="45.46166425980272" lon="8.773858126164768"><ele>136.0</ele><time>2026-04-26T14:20:30Z</time></trkpt><trkpt lat="45.46162471405113" lon="8.774040576595034"><ele>137.0</ele><time>2026-04-26T14:20:31Z</time></trkpt><trkpt lat="45.46158973422975" lon="8.774212623250513"><ele>138.0</ele><time>2026-04-26T14:20:32Z</time></trkpt><trkpt lat="45.46155793698114" lon="8.774373530171335"><ele>138.20000000000002</ele><time>2026-04-26T14:20:33Z</time></trkpt><trkpt lat="45.461531616365505" lon="8.774514761122918"><ele>138.4</ele><time>2026-04-26T14:20:34Z</time></trkpt><trkpt lat="45.461510202725044" lon="8.774628841151584"><ele>138.60000000000002</ele><time>2026-04-26T14:20:35Z</time></trkpt><trkpt lat="45.46146755246583" lon="8.774728042717197"><ele>138.8</ele><time>2026-04-26T14:20:36Z</time></trkpt><trkpt lat="45.46144630873043" lon="8.774812670471983"><ele>139.0</ele><time>2026-04-26T14:20:37Z</time></trkpt><trkpt lat="45.4613273732783" lon="8.774838174768782"><ele>138.5</ele><time>2026-04-26T14:20:38Z</time></trkpt><trkpt lat="45.46123402949972" lon="8.774852516587119"><ele>138.0</ele><time>2026-04-26T14:20:39Z</time></trkpt><trkpt lat="45.46112405729123" lon="8.774883375881405"><ele>137.5</ele><time>2026-04-26T14:20:40Z</time></trkpt><trkpt lat="45.46099728703971" lon="8.774909345122326"><ele>137.0</ele><time>2026-04-26T14:20:41Z</time></trkpt><trkpt lat="45.46087945618309" lon="8.774961363796288"><ele>137.0</ele><time>2026-04-26T14:20:42Z</time></trkpt><trkpt lat="45.46076360395026" lon="8.775007268816438"><ele>137.0</ele><time>2026-04-26T14:20:43Z</time></trkpt><trkpt lat="45.46063724814865" lon="8.775078583412133"><ele>137.0</ele><time>2026-04-26T14:20:44Z</time></trkpt><trkpt lat="45.46049614666963" lon="8.77513199655555"><ele>137.0</ele><time>2026-04-26T14:20:45Z</time></trkpt><trkpt lat="45.460360470644865" lon="8.77518271275665"><ele>136.75</ele><time>2026-04-26T14:20:46Z</time></trkpt><trkpt lat="45.4602274311888" lon="8.775234783920206"><ele>136.5</ele><time>2026-04-26T14:20:47Z</time></trkpt><trkpt lat="45.460086082975096" lon="8.775280654640575"><ele>136.25</ele><time>2026-04-26T14:20:48Z</time></trkpt><trkpt lat="45.45994476880288" lon="8.775323200445948"><ele>136.0</ele><time>2026-04-26T14:20:49Z</time></trkpt><trkpt lat="45.45979407559874" lon="8.775401417356896"><ele>136.0</ele><time>2026-04-26T14:20:50Z</time></trkpt><trkpt lat="45.45964114441845" lon="8.775455649534697"><ele>136.0</ele><time>2026-04-26T14:20:51Z</time></trkpt><trkpt lat="45.45948751082877" lon="8.775518899790537"><ele>136.0</ele><time>2026-04-26T14:20:52Z</time></trkpt><trkpt lat="45.45934288456443" lon="8.775578338496363"><ele>136.25</ele><time>2026-04-26T14:20:53Z</time></trkpt><trkpt lat="45.459202502882064" lon="8.775638419385665"><ele>136.5</ele><time>2026-04-26T14:20:54Z</time></trkpt><trkpt lat="45.45905980734589" lon="8.77569843265998"><ele>136.75</ele><time>2026-04-26T14:20:55Z</time></trkpt><trkpt lat="45.45891148512396" lon="8.775753886152502"><ele>137.0</ele><time>2026-04-26T14:20:56Z</time></trkpt><trkpt lat="45.45875925340724" lon="8.775811101215023"><ele>136.33333333333331</ele><time>2026-04-26T14:20:57Z</time></trkpt><trkpt lat="45.45859676600004" lon="8.775876134096555"><ele>135.66666666666666</ele><time>2026-04-26T14:20:58Z</time></trkpt><trkpt lat="45.458433501400926" lon="8.775943497278824"><ele>135.0</ele><time>2026-04-26T14:20:59Z</time></trkpt><trkpt lat="45.45826289472188" lon="8.77601243275063"><ele>134.66666666666666</ele><time>2026-04-26T14:21:00Z</time></trkpt><trkpt lat="45.458098190517696" lon="8.776077504202574"><ele>134.33333333333331</ele><time>2026-04-26T14:21:01Z</time></trkpt><trkpt lat="45.457941858928436" lon="8.776142428173948"><ele>134.0</ele><time>2026-04-26T14:21:02Z</time></trkpt><trkpt lat="45.45779735852815" lon="8.776200811353947"><ele>134.0</ele><time>2026-04-26T14:21:03Z</time></trkpt><trkpt lat="45.45766536868244" lon="8.776255169511467"><ele>134.0</ele><time>2026-04-26T14:21:04Z</time></trkpt><trkpt lat="45.45754658122867" lon="8.776304366121778"><ele>134.0</ele><time>2026-04-26T14:21:05Z</time></trkpt><trkpt lat="45.45742892902791" lon="8.776353515259245"><ele>134.0</ele><time>2026-04-26T14:21:06Z</time></trkpt><trkpt lat="45.45731943448924" lon="8.776398664265349"><ele>134.0</ele><time>2026-04-26T14:21:07Z</time></trkpt><trkpt lat="45.457206268325926" lon="8.776440080252845"><ele>134.0</ele><time>2026-04-26T14:21:08Z</time></trkpt><trkpt lat="45.45709003743532" lon="8.77647785369811"><ele>134.0</ele><time>2026-04-26T14:21:09Z</time></trkpt><trkpt lat="45.45697191186876" lon="8.776524008974336"><ele>134.0</ele><time>2026-04-26T14:21:10Z</time></trkpt><trkpt lat="45.45684708298295" lon="8.776571575657831"><ele>134.25</ele><time>2026-04-26T14:21:11Z</time></trkpt><trkpt lat="45.45672375791701" lon="8.77662572236894"><ele>134.5</ele><time>2026-04-26T14:21:12Z</time></trkpt><trkpt lat="45.456607480188964" lon="8.776659446351099"><ele>134.75</ele><time>2026-04-26T14:21:13Z</time></trkpt><trkpt lat="45.456504306422794" lon="8.776701264196424"><ele>135.0</ele><time>2026-04-26T14:21:14Z</time></trkpt><trkpt lat="45.45639751830612" lon="8.776744546989615"><ele>135.0</ele><time>2026-04-26T14:21:15Z</time></trkpt><trkpt lat="45.456289924816495" lon="8.776788156203212"><ele>135.0</ele><time>2026-04-26T14:21:16Z</time></trkpt><trkpt lat="45.45618084325131" lon="8.776847866018256"><ele>135.0</ele><time>2026-04-26T14:21:17Z</time></trkpt><trkpt lat="45.45606386548987" lon="8.776884110908552"><ele>135.0</ele><time>2026-04-26T14:21:18Z</time></trkpt><trkpt lat="45.455952604997606" lon="8.776920787737247"><ele>134.8</ele><time>2026-04-26T14:21:19Z</time></trkpt><trkpt lat="45.45585624351583" lon="8.776955719759796"><ele>134.6</ele><time>2026-04-26T14:21:20Z</time></trkpt><trkpt lat="45.455767065765166" lon="8.77698581451797"><ele>134.4</ele><time>2026-04-26T14:21:21Z</time></trkpt><trkpt lat="45.4556881193506" lon="8.777016871836498"><ele>134.2</ele><time>2026-04-26T14:21:22Z</time></trkpt><trkpt lat="45.45559880293594" lon="8.777053909011368"><ele>134.0</ele><time>2026-04-26T14:21:23Z</time></trkpt><trkpt lat="45.455489206032475" lon="8.77710066424242"><ele>134.25</ele><time>2026-04-26T14:21:24Z</time></trkpt><trkpt lat="45.45536510535345" lon="8.777147363764728"><ele>134.5</ele><time>2026-04-26T14:21:25Z</time></trkpt><trkpt lat="45.45523077133362" lon="8.777195599432506"><ele>134.75</ele><time>2026-04-26T14:21:26Z</time></trkpt><trkpt lat="45.45509550845398" lon="8.777246591897539"><ele>135.0</ele><time>2026-04-26T14:21:27Z</time></trkpt><trkpt lat="45.454954841741824" lon="8.777305263878086"><ele>135.0</ele><time>2026-04-26T14:21:28Z</time></trkpt><trkpt lat="45.45481656333551" lon="8.777367677728686"><ele>135.0</ele><time>2026-04-26T14:21:29Z</time></trkpt><trkpt lat="45.454697529520125" lon="8.777417912091417"><ele>135.0</ele><time>2026-04-26T14:21:30Z</time></trkpt><trkpt lat="45.45458277466656" lon="8.777466946372096"><ele>135.0</ele><time>2026-04-26T14:21:31Z</time></trkpt><trkpt lat="45.4544755843732" lon="8.777511043131161"><ele>134.66666666666666</ele><time>2026-04-26T14:21:32Z</time></trkpt><trkpt lat="45.45437749578967" lon="8.77755327723376"><ele>134.33333333333334</ele><time>2026-04-26T14:21:33Z</time></trkpt><trkpt lat="45.45428836183841" lon="8.777592496958103"><ele>134.0</ele><time>2026-04-26T14:21:34Z</time></trkpt><trkpt lat="45.45420793058961" lon="8.777629979597044"><ele>133.66666666666669</ele><time>2026-04-26T14:21:35Z</time></trkpt><trkpt lat="45.45413309974483" lon="8.77766073993624"><ele>133.33333333333334</ele><time>2026-04-26T14:21:36Z</time></trkpt><trkpt lat="45.454067195128054" lon="8.777684376877735"><ele>133.0</ele><time>2026-04-26T14:21:37Z</time></trkpt><trkpt lat="45.45400567952584" lon="8.777711300139373"><ele>133.0</ele><time>2026-04-26T14:21:38Z</time></trkpt><trkpt lat="45.45392838388595" lon="8.77776869071889"><ele>133.0</ele><time>2026-04-26T14:21:40Z</time></trkpt><trkpt lat="45.45387239842439" lon="8.777869659370891"><ele>133.0</ele><time>2026-04-26T14:21:53Z</time></trkpt><trkpt lat="45.45385070136347" lon="8.777975566121434"><ele>133.0</ele><time>2026-04-26T14:21:54Z</time></trkpt><trkpt lat="45.4538361554814" lon="8.778064520061292"><ele>133.0</ele><time>2026-04-26T14:21:55Z</time></trkpt><trkpt lat="45.45382297875738" lon="8.778185529752216"><ele>133.0</ele><time>2026-04-26T14:21:56Z</time></trkpt><trkpt lat="45.45381341966405" lon="8.778316598444196"><ele>133.0</ele><time>2026-04-26T14:21:57Z</time></trkpt><trkpt lat="45.45380451156997" lon="8.778446736322039"><ele>133.0</ele><time>2026-04-26T14:21:58Z</time></trkpt><trkpt lat="45.453796615162716" lon="8.778579629949993"><ele>133.0</ele><time>2026-04-26T14:21:59Z</time></trkpt><trkpt lat="45.45378868264392" lon="8.778719398983647"><ele>133.0</ele><time>2026-04-26T14:22:00Z</time></trkpt><trkpt lat="45.45378091269875" lon="8.778856303519262"><ele>133.0</ele><time>2026-04-26T14:22:01Z</time></trkpt><trkpt lat="45.4537735427546" lon="8.77898616011711"><ele>132.83333333333334</ele><time>2026-04-26T14:22:02Z</time></trkpt><trkpt lat="45.453766402932466" lon="8.77911196202943"><ele>132.66666666666669</ele><time>2026-04-26T14:22:03Z</time></trkpt><trkpt lat="45.453759316637424" lon="8.779230194501412"><ele>132.5</ele><time>2026-04-26T14:22:04Z</time></trkpt><trkpt lat="45.453748969070226" lon="8.779351497453659"><ele>132.33333333333334</ele><time>2026-04-26T14:22:05Z</time></trkpt><trkpt lat="45.453733998984085" lon="8.779470460676261"><ele>132.16666666666666</ele><time>2026-04-26T14:22:06Z</time></trkpt><trkpt lat="45.453712192227094" lon="8.779572805780814"><ele>132.0</ele><time>2026-04-26T14:22:07Z</time></trkpt><trkpt lat="45.45370579996052" lon="8.779679307381977"><ele>132.28571428571428</ele><time>2026-04-26T14:22:08Z</time></trkpt><trkpt lat="45.453682872241565" lon="8.779791274758509"><ele>132.57142857142858</ele><time>2026-04-26T14:22:09Z</time></trkpt><trkpt lat="45.45369734581815" lon="8.779900423039692"><ele>132.85714285714286</ele><time>2026-04-26T14:22:10Z</time></trkpt><trkpt lat="45.453686900128545" lon="8.780003111951409"><ele>133.14285714285714</ele><time>2026-04-26T14:22:11Z</time></trkpt><trkpt lat="45.45368112540477" lon="8.780106704370642"><ele>133.42857142857142</ele><time>2026-04-26T14:22:12Z</time></trkpt><trkpt lat="45.45367191244068" lon="8.780207358403931"><ele>133.71428571428572</ele><time>2026-04-26T14:22:13Z</time></trkpt><trkpt lat="45.45366550380676" lon="8.780307083213406"><ele>134.0</ele><time>2026-04-26T14:22:14Z</time></trkpt><trkpt lat="45.453663696481286" lon="8.78041296444442"><ele>134.0</ele><time>2026-04-26T14:22:15Z</time></trkpt><trkpt lat="45.45366376688343" lon="8.780520947957001"><ele>134.0</ele><time>2026-04-26T14:22:16Z</time></trkpt><trkpt lat="45.45365145478314" lon="8.780624888873106"><ele>134.0</ele><time>2026-04-26T14:22:17Z</time></trkpt><trkpt lat="45.45366435479223" lon="8.780729429377567"><ele>134.0</ele><time>2026-04-26T14:22:18Z</time></trkpt><trkpt lat="45.453659122543755" lon="8.780835198817242"><ele>134.0</ele><time>2026-04-26T14:22:19Z</time></trkpt><trkpt lat="45.45366283676138" lon="8.780956624573763"><ele>134.0</ele><time>2026-04-26T14:22:21Z</time></trkpt><trkpt lat="45.45365574641615" lon="8.78081292580744"><ele>134.0</ele><time>2026-04-26T14:22:47Z</time></trkpt><trkpt lat="45.4536513680177" lon="8.780686954514634"><ele>134.0</ele><time>2026-04-26T14:22:48Z</time></trkpt><trkpt lat="45.4536519252683" lon="8.780595013051704"><ele>134.0</ele><time>2026-04-26T14:22:49Z</time></trkpt><trkpt lat="45.4536756680864" lon="8.780506645178475"><ele>134.0</ele><time>2026-04-26T14:22:50Z</time></trkpt><trkpt lat="45.45367116974324" lon="8.780367036463844"><ele>134.0</ele><time>2026-04-26T14:22:52Z</time></trkpt><trkpt lat="45.45368523379908" lon="8.780243012307388"><ele>134.0</ele><time>2026-04-26T14:22:54Z</time></trkpt><trkpt lat="45.45368786090836" lon="8.780128614472344"><ele>134.16666666666666</ele><time>2026-04-26T14:22:56Z</time></trkpt><trkpt lat="45.45369366937202" lon="8.780010379383842"><ele>134.33333333333331</ele><time>2026-04-26T14:22:58Z</time></trkpt><trkpt lat="45.4536984145479" lon="8.779891245139158"><ele>134.5</ele><time>2026-04-26T14:23:00Z</time></trkpt><trkpt lat="45.45370367802868" lon="8.779786748792601"><ele>134.66666666666666</ele><time>2026-04-26T14:23:02Z</time></trkpt><trkpt lat="45.45366639358738" lon="8.779703216959033"><ele>134.83333333333334</ele><time>2026-04-26T14:23:04Z</time></trkpt><trkpt lat="45.453581164069455" lon="8.779759462211954"><ele>135.0</ele><time>2026-04-26T14:23:07Z</time></trkpt><trkpt lat="45.45352038925063" lon="8.779812654726536"><ele>135.0</ele><time>2026-04-26T14:23:08Z</time></trkpt><trkpt lat="45.45345427938523" lon="8.77985143778927"><ele>135.0</ele><time>2026-04-26T14:23:09Z</time></trkpt><trkpt lat="45.45337344297316" lon="8.779877516488089"><ele>135.0</ele><time>2026-04-26T14:23:10Z</time></trkpt><trkpt lat="45.45327850136524" lon="8.779909244719578"><ele>135.0</ele><time>2026-04-26T14:23:11Z</time></trkpt><trkpt lat="45.45317523159881" lon="8.779945889001363"><ele>135.0</ele><time>2026-04-26T14:23:12Z</time></trkpt><trkpt lat="45.45306203196065" lon="8.779985146080424"><ele>134.8</ele><time>2026-04-26T14:23:13Z</time></trkpt><trkpt lat="45.45294277467327" lon="8.780031281695994"><ele>134.6</ele><time>2026-04-26T14:23:14Z</time></trkpt><trkpt lat="45.452837080374" lon="8.780072125329063"><ele>134.4</ele><time>2026-04-26T14:23:15Z</time></trkpt><trkpt lat="45.45274160763922" lon="8.780108424498483"><ele>134.2</ele><time>2026-04-26T14:23:16Z</time></trkpt><trkpt lat="45.452651219485126" lon="8.780142155390436"><ele>134.0</ele><time>2026-04-26T14:23:17Z</time></trkpt><trkpt lat="45.45256255772345" lon="8.780177104118883"><ele>133.83333333333331</ele><time>2026-04-26T14:23:18Z</time></trkpt><trkpt lat="45.45247760926305" lon="8.780210695609995"><ele>133.66666666666666</ele><time>2026-04-26T14:23:19Z</time></trkpt><trkpt lat="45.45239484039833" lon="8.780242068138085"><ele>133.5</ele><time>2026-04-26T14:23:20Z</time></trkpt><trkpt lat="45.45231247237229" lon="8.78027314493271"><ele>133.33333333333334</ele><time>2026-04-26T14:23:21Z</time></trkpt><trkpt lat="45.45222855413428" lon="8.780302968315395"><ele>133.16666666666669</ele><time>2026-04-26T14:23:22Z</time></trkpt><trkpt lat="45.45214403975548" lon="8.780330155690269"><ele>133.0</ele><time>2026-04-26T14:23:23Z</time></trkpt><trkpt lat="45.45205266184661" lon="8.780365163975544"><ele>133.0</ele><time>2026-04-26T14:23:24Z</time></trkpt><trkpt lat="45.45195865414891" lon="8.780401808758187"><ele>133.0</ele><time>2026-04-26T14:23:25Z</time></trkpt><trkpt lat="45.45185825938915" lon="8.780440058067592"><ele>133.0</ele><time>2026-04-26T14:23:26Z</time></trkpt><trkpt lat="45.45175593110999" lon="8.780475434045398"><ele>133.0</ele><time>2026-04-26T14:23:27Z</time></trkpt><trkpt lat="45.45165559890013" lon="8.780511334696856"><ele>133.0</ele><time>2026-04-26T14:23:28Z</time></trkpt><trkpt lat="45.45155706563304" lon="8.780547807090977"><ele>133.0</ele><time>2026-04-26T14:23:29Z</time></trkpt><trkpt lat="45.451456754490934" lon="8.780583185087824"><ele>133.0</ele><time>2026-04-26T14:23:30Z</time></trkpt><trkpt lat="45.45135022676931" lon="8.78062055252911"><ele>133.0</ele><time>2026-04-26T14:23:31Z</time></trkpt><trkpt lat="45.45123201628149" lon="8.78066166895433"><ele>133.0</ele><time>2026-04-26T14:23:32Z</time></trkpt><trkpt lat="45.45109929623403" lon="8.780709423824131"><ele>132.33333333333334</ele><time>2026-04-26T14:23:33Z</time></trkpt><trkpt lat="45.450951187092045" lon="8.780766256464355"><ele>131.66666666666666</ele><time>2026-04-26T14:23:34Z</time></trkpt><trkpt lat="45.45078496633435" lon="8.78082542150253"><ele>131.0</ele><time>2026-04-26T14:23:35Z</time></trkpt><trkpt lat="45.45061518607731" lon="8.780879461825553"><ele>131.0</ele><time>2026-04-26T14:23:36Z</time></trkpt><trkpt lat="45.45043611799502" lon="8.780928327608345"><ele>131.0</ele><time>2026-04-26T14:23:37Z</time></trkpt><trkpt lat="45.45024335075774" lon="8.78097538442731"><ele>131.0</ele><time>2026-04-26T14:23:38Z</time></trkpt><trkpt lat="45.450060315533456" lon="8.781018419873462"><ele>131.33333333333331</ele><time>2026-04-26T14:23:39Z</time></trkpt><trkpt lat="45.44988934829826" lon="8.781061410997195"><ele>131.66666666666666</ele><time>2026-04-26T14:23:40Z</time></trkpt><trkpt lat="45.449730968752405" lon="8.781102404088086"><ele>132.0</ele><time>2026-04-26T14:23:41Z</time></trkpt><trkpt lat="45.44958494784023" lon="8.781141023293047"><ele>132.25</ele><time>2026-04-26T14:23:42Z</time></trkpt><trkpt lat="45.44944898547402" lon="8.781174147267105"><ele>132.5</ele><time>2026-04-26T14:23:43Z</time></trkpt><trkpt lat="45.44931893717582" lon="8.78120598038095"><ele>132.75</ele><time>2026-04-26T14:23:44Z</time></trkpt><trkpt lat="45.44918852191906" lon="8.781235737614324"><ele>133.0</ele><time>2026-04-26T14:23:45Z</time></trkpt><trkpt lat="45.449053395848054" lon="8.78126712412382"><ele>133.0</ele><time>2026-04-26T14:23:46Z</time></trkpt><trkpt lat="45.44891492650089" lon="8.781296020370288"><ele>133.0</ele><time>2026-04-26T14:23:47Z</time></trkpt><trkpt lat="45.4487701160666" lon="8.781330013092276"><ele>133.0</ele><time>2026-04-26T14:23:48Z</time></trkpt><trkpt lat="45.448622650875365" lon="8.781365398448129"><ele>133.0</ele><time>2026-04-26T14:23:49Z</time></trkpt><trkpt lat="45.44848981411451" lon="8.781391840249476"><ele>132.25</ele><time>2026-04-26T14:23:50Z</time></trkpt><trkpt lat="45.44836362090703" lon="8.781416372260466"><ele>131.5</ele><time>2026-04-26T14:23:51Z</time></trkpt><trkpt lat="45.44823908169819" lon="8.781420710036715"><ele>130.75</ele><time>2026-04-26T14:23:52Z</time></trkpt><trkpt lat="45.4481133485519" lon="8.781453851954527"><ele>130.0</ele><time>2026-04-26T14:23:53Z</time></trkpt><trkpt lat="45.447993584000265" lon="8.78151865859656"><ele>130.25</ele><time>2026-04-26T14:23:54Z</time></trkpt><trkpt lat="45.44786549211671" lon="8.78154141627027"><ele>130.5</ele><time>2026-04-26T14:23:55Z</time></trkpt><trkpt lat="45.447743366108604" lon="8.78160009061121"><ele>130.75</ele><time>2026-04-26T14:23:56Z</time></trkpt><trkpt lat="45.44761642636833" lon="8.781636346141031"><ele>131.0</ele><time>2026-04-26T14:23:57Z</time></trkpt><trkpt lat="45.44749742495207" lon="8.781664437174523"><ele>131.0</ele><time>2026-04-26T14:23:58Z</time></trkpt><trkpt lat="45.447388035905234" lon="8.78169302444459"><ele>131.0</ele><time>2026-04-26T14:23:59Z</time></trkpt><trkpt lat="45.447286950588506" lon="8.781719014126303"><ele>131.0</ele><time>2026-04-26T14:24:00Z</time></trkpt><trkpt lat="45.447191248560884" lon="8.781745316852795"><ele>131.0</ele><time>2026-04-26T14:24:01Z</time></trkpt><trkpt lat="45.44710071872711" lon="8.781769081317394"><ele>131.0</ele><time>2026-04-26T14:24:02Z</time></trkpt><trkpt lat="45.4470224171838" lon="8.781787396320269"><ele>131.0</ele><time>2026-04-26T14:24:03Z</time></trkpt><trkpt lat="45.44692291520905" lon="8.781804707723008"><ele>131.0</ele><time>2026-04-26T14:24:05Z</time></trkpt><trkpt lat="45.44704749082032" lon="8.781826870905554"><ele>131.0</ele><time>2026-04-26T14:24:12Z</time></trkpt><trkpt lat="45.447119772306486" lon="8.781804823102116"><ele>131.0</ele><time>2026-04-26T14:24:13Z</time></trkpt><trkpt lat="45.447215836380344" lon="8.781775473162691"><ele>131.0</ele><time>2026-04-26T14:24:14Z</time></trkpt><trkpt lat="45.44731731437264" lon="8.781748799933851"><ele>131.0</ele><time>2026-04-26T14:24:15Z</time></trkpt><trkpt lat="45.4474022697102" lon="8.781727024759356"><ele>131.0</ele><time>2026-04-26T14:24:16Z</time></trkpt><trkpt lat="45.44748337924453" lon="8.78170797322068"><ele>131.0</ele><time>2026-04-26T14:24:17Z</time></trkpt><trkpt lat="45.447554332581866" lon="8.781693991988393"><ele>131.0</ele><time>2026-04-26T14:24:18Z</time></trkpt><trkpt lat="45.44761808086429" lon="8.781680706497516"><ele>131.0</ele><time>2026-04-26T14:24:19Z</time></trkpt><trkpt lat="45.44770629758183" lon="8.781651671329643"><ele>131.0</ele><time>2026-04-26T14:24:21Z</time></trkpt><trkpt lat="45.44773157430187" lon="8.781546056075104"><ele>131.0</ele><time>2026-04-26T14:24:24Z</time></trkpt><trkpt lat="45.447696176125724" lon="8.78144014803972"><ele>131.0</ele><time>2026-04-26T14:24:26Z</time></trkpt><trkpt lat="45.447648796719015" lon="8.781314883313147"><ele>131.0</ele><time>2026-04-26T14:24:28Z</time></trkpt><trkpt lat="45.44758773123736" lon="8.781183031896143"><ele>131.0</ele><time>2026-04-26T14:24:30Z</time></trkpt><trkpt lat="45.447518556769054" lon="8.781025735676215"><ele>131.0</ele><time>2026-04-26T14:24:32Z</time></trkpt><trkpt lat="45.447483546239994" lon="8.780945174598102"><ele>131.0</ele><time>2026-04-26T14:24:33Z</time></trkpt><trkpt lat="45.447447711053655" lon="8.780863291128282"><ele>131.0</ele><time>2026-04-26T14:24:34Z</time></trkpt><trkpt lat="45.44741102495344" lon="8.78077845510722"><ele>131.0</ele><time>2026-04-26T14:24:35Z</time></trkpt><trkpt lat="45.447377004383824" lon="8.78069799227389"><ele>131.0</ele><time>2026-04-26T14:24:36Z</time></trkpt><trkpt lat="45.44734067834977" lon="8.780616302464137"><ele>131.0</ele><time>2026-04-26T14:24:37Z</time></trkpt><trkpt lat="45.44730259083993" lon="8.780528565334848"><ele>131.0</ele><time>2026-04-26T14:24:38Z</time></trkpt><trkpt lat="45.447263581662206" lon="8.780440006871002"><ele>131.0</ele><time>2026-04-26T14:24:39Z</time></trkpt><trkpt lat="45.44721968148285" lon="8.780338285967836"><ele>131.0</ele><time>2026-04-26T14:24:40Z</time></trkpt><trkpt lat="45.447182546238515" lon="8.78024939971082"><ele>131.0</ele><time>2026-04-26T14:24:41Z</time></trkpt><trkpt lat="45.447147425833464" lon="8.780166473476724"><ele>131.0</ele><time>2026-04-26T14:24:42Z</time></trkpt><trkpt lat="45.44710743694734" lon="8.780072259357526"><ele>131.0</ele><time>2026-04-26T14:24:43Z</time></trkpt><trkpt lat="45.447062415921415" lon="8.779966111578746"><ele>131.0</ele><time>2026-04-26T14:24:44Z</time></trkpt><trkpt lat="45.44701640540727" lon="8.779862507446015"><ele>131.0</ele><time>2026-04-26T14:24:45Z</time></trkpt><trkpt lat="45.446979261593434" lon="8.779769326111015"><ele>130.83333333333331</ele><time>2026-04-26T14:24:46Z</time></trkpt><trkpt lat="45.44691306530682" lon="8.779621183637431"><ele>130.66666666666666</ele><time>2026-04-26T14:24:48Z</time></trkpt><trkpt lat="45.44688140340543" lon="8.7795387738491"><ele>130.5</ele><time>2026-04-26T14:24:49Z</time></trkpt><trkpt lat="45.446840622063135" lon="8.779449880027048"><ele>130.33333333333334</ele><time>2026-04-26T14:24:50Z</time></trkpt><trkpt lat="45.44680093593833" lon="8.77935589339623"><ele>130.16666666666669</ele><time>2026-04-26T14:24:51Z</time></trkpt><trkpt lat="45.446758718162286" lon="8.779259769189933"><ele>130.0</ele><time>2026-04-26T14:24:52Z</time></trkpt><trkpt lat="45.44671238918813" lon="8.779149451176528"><ele>130.0</ele><time>2026-04-26T14:24:53Z</time></trkpt><trkpt lat="45.446667552427456" lon="8.77905647434616"><ele>130.0</ele><time>2026-04-26T14:24:54Z</time></trkpt><trkpt lat="45.4466270006125" lon="8.778964287352565"><ele>130.0</ele><time>2026-04-26T14:24:55Z</time></trkpt><trkpt lat="45.446586348305054" lon="8.77886934724922"><ele>130.0</ele><time>2026-04-26T14:24:56Z</time></trkpt><trkpt lat="45.44655017351194" lon="8.778791730073753"><ele>130.0</ele><time>2026-04-26T14:24:57Z</time></trkpt><trkpt lat="45.446495287223655" lon="8.778660523385145"><ele>130.0</ele><time>2026-04-26T14:24:59Z</time></trkpt><trkpt lat="45.44645608918167" lon="8.778552674817275"><ele>130.0</ele><time>2026-04-26T14:25:01Z</time></trkpt><trkpt lat="45.4464200136014" lon="8.778456128107377"><ele>130.0</ele><time>2026-04-26T14:25:04Z</time></trkpt><trkpt lat="45.446368465576704" lon="8.778359428385478"><ele>130.0</ele><time>2026-04-26T14:25:10Z</time></trkpt><trkpt lat="45.44630943895943" lon="8.77823641831205"><ele>130.0</ele><time>2026-04-26T14:25:12Z</time></trkpt><trkpt lat="45.44624959743211" lon="8.77809374012942"><ele>130.0</ele><time>2026-04-26T14:25:14Z</time></trkpt><trkpt lat="45.446213843282685" lon="8.778013251048066"><ele>130.00000000000003</ele><time>2026-04-26T14:25:15Z</time></trkpt><trkpt lat="45.44617725450268" lon="8.777917412153043"><ele>130.0</ele><time>2026-04-26T14:25:16Z</time></trkpt><trkpt lat="45.44614143471763" lon="8.777827639637858"><ele>130.0</ele><time>2026-04-26T14:25:17Z</time></trkpt><trkpt lat="45.446105619946735" lon="8.77774193629551"><ele>130.0</ele><time>2026-04-26T14:25:18Z</time></trkpt><trkpt lat="45.4460706232025" lon="8.777661664496902"><ele>130.0</ele><time>2026-04-26T14:25:19Z</time></trkpt><trkpt lat="45.44603306264791" lon="8.777582752958978"><ele>130.00000000000003</ele><time>2026-04-26T14:25:20Z</time></trkpt><trkpt lat="45.44599597532652" lon="8.777494669450332"><ele>130.0</ele><time>2026-04-26T14:25:21Z</time></trkpt><trkpt lat="45.44596074895531" lon="8.777399506201219"><ele>130.0</ele><time>2026-04-26T14:25:22Z</time></trkpt><trkpt lat="45.4459210366529" lon="8.777306911780258"><ele>130.0</ele><time>2026-04-26T14:25:23Z</time></trkpt><trkpt lat="45.445878725024336" lon="8.777205089389787"><ele>130.0</ele><time>2026-04-26T14:25:24Z</time></trkpt><trkpt lat="45.44583757420469" lon="8.77710169560777"><ele>130.0</ele><time>2026-04-26T14:25:25Z</time></trkpt><trkpt lat="45.445796116691405" lon="8.77700144699037"><ele>130.0</ele><time>2026-04-26T14:25:26Z</time></trkpt><trkpt lat="45.44575158115727" lon="8.77689540760867"><ele>130.0</ele><time>2026-04-26T14:25:27Z</time></trkpt><trkpt lat="45.445706175822494" lon="8.77678246698961"><ele>130.0</ele><time>2026-04-26T14:25:28Z</time></trkpt><trkpt lat="45.44566626144339" lon="8.776688067244685"><ele>130.0</ele><time>2026-04-26T14:25:29Z</time></trkpt><trkpt lat="45.44560567000714" lon="8.776545050567316"><ele>130.0</ele><time>2026-04-26T14:25:31Z</time></trkpt><trkpt lat="45.44556740627514" lon="8.776456310936743"><ele>130.0</ele><time>2026-04-26T14:25:32Z</time></trkpt><trkpt lat="45.44552519575991" lon="8.776361546133867"><ele>130.0</ele><time>2026-04-26T14:25:33Z</time></trkpt><trkpt lat="45.44548405886709" lon="8.77626290409415"><ele>130.0</ele><time>2026-04-26T14:25:34Z</time></trkpt><trkpt lat="45.445434645198375" lon="8.776153583477495"><ele>130.0</ele><time>2026-04-26T14:25:35Z</time></trkpt><trkpt lat="45.44538939669402" lon="8.776052100914292"><ele>130.0</ele><time>2026-04-26T14:25:36Z</time></trkpt><trkpt lat="45.44534517246564" lon="8.77594266121917"><ele>130.0</ele><time>2026-04-26T14:25:37Z</time></trkpt><trkpt lat="45.44530106139778" lon="8.775833086257153"><ele>130.0</ele><time>2026-04-26T14:25:38Z</time></trkpt><trkpt lat="45.44525616115575" lon="8.77572531523112"><ele>130.0</ele><time>2026-04-26T14:25:39Z</time></trkpt><trkpt lat="45.4452080094535" lon="8.775610507712859"><ele>130.0</ele><time>2026-04-26T14:25:40Z</time></trkpt><trkpt lat="45.44515966885557" lon="8.77549639710049"><ele>130.0</ele><time>2026-04-26T14:25:41Z</time></trkpt><trkpt lat="45.44511388549822" lon="8.775390026859933"><ele>130.0</ele><time>2026-04-26T14:25:42Z</time></trkpt><trkpt lat="45.44506458698005" lon="8.775269348065057"><ele>130.0</ele><time>2026-04-26T14:25:43Z</time></trkpt><trkpt lat="45.4450099140518" lon="8.775143544595371"><ele>130.0</ele><time>2026-04-26T14:25:44Z</time></trkpt><trkpt lat="45.444957674938344" lon="8.775020613542916"><ele>130.0</ele><time>2026-04-26T14:25:45Z</time></trkpt><trkpt lat="45.44490337290478" lon="8.774900368688144"><ele>129.83333333333334</ele><time>2026-04-26T14:25:46Z</time></trkpt><trkpt lat="45.44485223890355" lon="8.77478690966416"><ele>129.66666666666669</ele><time>2026-04-26T14:25:47Z</time></trkpt><trkpt lat="45.44480518690681" lon="8.774673443880282"><ele>129.5</ele><time>2026-04-26T14:25:48Z</time></trkpt><trkpt lat="45.444762324394745" lon="8.77457349688581"><ele>129.33333333333334</ele><time>2026-04-26T14:25:49Z</time></trkpt><trkpt lat="45.44472441231048" lon="8.774484456545274"><ele>129.16666666666666</ele><time>2026-04-26T14:25:50Z</time></trkpt><trkpt lat="45.44467564770658" lon="8.774374437980667"><ele>129.0</ele><time>2026-04-26T14:25:52Z</time></trkpt><trkpt lat="45.44464013988553" lon="8.774296564714616"><ele>129.4</ele><time>2026-04-26T14:25:56Z</time></trkpt><trkpt lat="45.44458379754794" lon="8.77416178220574"><ele>129.8</ele><time>2026-04-26T14:26:01Z</time></trkpt><trkpt lat="45.44452782101696" lon="8.774015386569866"><ele>130.2</ele><time>2026-04-26T14:26:03Z</time></trkpt><trkpt lat="45.44446749439773" lon="8.773871429503021"><ele>130.6</ele><time>2026-04-26T14:26:05Z</time></trkpt><trkpt lat="45.444436117398716" lon="8.773793412242043"><ele>131.0</ele><time>2026-04-26T14:26:06Z</time></trkpt><trkpt lat="45.44437161035289" lon="8.773638436936878"><ele>131.0</ele><time>2026-04-26T14:26:08Z</time></trkpt><trkpt lat="45.44433733856288" lon="8.7735487869468"><ele>131.0</ele><time>2026-04-26T14:26:09Z</time></trkpt><trkpt lat="45.44429267611003" lon="8.773445304726522"><ele>131.0</ele><time>2026-04-26T14:26:10Z</time></trkpt><trkpt lat="45.44424414062733" lon="8.77332823707587"><ele>131.0</ele><time>2026-04-26T14:26:11Z</time></trkpt><trkpt lat="45.44419438533978" lon="8.773211247534073"><ele>131.0</ele><time>2026-04-26T14:26:12Z</time></trkpt><trkpt lat="45.44414828836679" lon="8.773094839499953"><ele>131.0</ele><time>2026-04-26T14:26:13Z</time></trkpt><trkpt lat="45.444107013886416" lon="8.772992295152003"><ele>130.8</ele><time>2026-04-26T14:26:14Z</time></trkpt><trkpt lat="45.44406130116939" lon="8.77288637277993"><ele>130.6</ele><time>2026-04-26T14:26:15Z</time></trkpt><trkpt lat="45.44400867456086" lon="8.77276397584189"><ele>130.4</ele><time>2026-04-26T14:26:16Z</time></trkpt><trkpt lat="45.44395321472207" lon="8.772642225092818"><ele>130.2</ele><time>2026-04-26T14:26:17Z</time></trkpt><trkpt lat="45.443896497844314" lon="8.77251731081668"><ele>130.0</ele><time>2026-04-26T14:26:18Z</time></trkpt><trkpt lat="45.443841313711346" lon="8.772395936672659"><ele>129.8</ele><time>2026-04-26T14:26:19Z</time></trkpt><trkpt lat="45.443788512834296" lon="8.772276794026451"><ele>129.6</ele><time>2026-04-26T14:26:20Z</time></trkpt><trkpt lat="45.44373887511592" lon="8.772165222847047"><ele>129.4</ele><time>2026-04-26T14:26:21Z</time></trkpt><trkpt lat="45.44369171464313" lon="8.772053532203325"><ele>129.2</ele><time>2026-04-26T14:26:22Z</time></trkpt><trkpt lat="45.44364324448641" lon="8.771945117934248"><ele>129.0</ele><time>2026-04-26T14:26:23Z</time></trkpt><trkpt lat="45.443598388537424" lon="8.771836456220365"><ele>128.8</ele><time>2026-04-26T14:26:24Z</time></trkpt><trkpt lat="45.44354951485817" lon="8.771721211254672"><ele>128.60000000000002</ele><time>2026-04-26T14:26:25Z</time></trkpt><trkpt lat="45.443494675659366" lon="8.771598714777175"><ele>128.4</ele><time>2026-04-26T14:26:26Z</time></trkpt><trkpt lat="45.44344554347081" lon="8.771480908446618"><ele>128.20000000000002</ele><time>2026-04-26T14:26:27Z</time></trkpt><trkpt lat="45.44339590221773" lon="8.771367571736167"><ele>128.0</ele><time>2026-04-26T14:26:28Z</time></trkpt><trkpt lat="45.443348024213414" lon="8.771248951938174"><ele>128.0</ele><time>2026-04-26T14:26:29Z</time></trkpt><trkpt lat="45.44329534437306" lon="8.77112466746378"><ele>128.0</ele><time>2026-04-26T14:26:30Z</time></trkpt><trkpt lat="45.443244818415955" lon="8.771009633568061"><ele>128.0</ele><time>2026-04-26T14:26:31Z</time></trkpt><trkpt lat="45.443198083685765" lon="8.770895386679502"><ele>128.0</ele><time>2026-04-26T14:26:32Z</time></trkpt><trkpt lat="45.44314521708774" lon="8.770779457672429"><ele>128.0</ele><time>2026-04-26T14:26:33Z</time></trkpt><trkpt lat="45.44309051315748" lon="8.770658256309952"><ele>128.0</ele><time>2026-04-26T14:26:34Z</time></trkpt><trkpt lat="45.443038120727216" lon="8.770533643290616"><ele>128.0</ele><time>2026-04-26T14:26:35Z</time></trkpt><trkpt lat="45.442987665687994" lon="8.770415611710536"><ele>128.0</ele><time>2026-04-26T14:26:36Z</time></trkpt><trkpt lat="45.44293708059176" lon="8.770300205439948"><ele>128.0</ele><time>2026-04-26T14:26:37Z</time></trkpt><trkpt lat="45.442889110669064" lon="8.77018482671692"><ele>128.0</ele><time>2026-04-26T14:26:38Z</time></trkpt><trkpt lat="45.44283995613296" lon="8.770070202908462"><ele>128.20000000000002</ele><time>2026-04-26T14:26:39Z</time></trkpt><trkpt lat="45.44278643684004" lon="8.769950627934477"><ele>128.4</ele><time>2026-04-26T14:26:40Z</time></trkpt><trkpt lat="45.44273367229508" lon="8.769828348926477"><ele>128.60000000000002</ele><time>2026-04-26T14:26:41Z</time></trkpt><trkpt lat="45.442684585100636" lon="8.769706124712151"><ele>128.8</ele><time>2026-04-26T14:26:42Z</time></trkpt><trkpt lat="45.44263355190326" lon="8.769592507674478"><ele>129.0</ele><time>2026-04-26T14:26:43Z</time></trkpt><trkpt lat="45.4425821616184" lon="8.769476027236351"><ele>129.0</ele><time>2026-04-26T14:26:44Z</time></trkpt><trkpt lat="45.44253314218544" lon="8.769359747705412"><ele>129.0</ele><time>2026-04-26T14:26:45Z</time></trkpt><trkpt lat="45.44248357308743" lon="8.769233565163562"><ele>129.0</ele><time>2026-04-26T14:26:46Z</time></trkpt><trkpt lat="45.442434008665685" lon="8.769104845527583"><ele>129.0</ele><time>2026-04-26T14:26:47Z</time></trkpt><trkpt lat="45.44238238657634" lon="8.768981701789473"><ele>129.0</ele><time>2026-04-26T14:26:48Z</time></trkpt><trkpt lat="45.44233649846069" lon="8.768876300795235"><ele>129.16666666666666</ele><time>2026-04-26T14:26:49Z</time></trkpt><trkpt lat="45.44229440156198" lon="8.768781670719639"><ele>129.33333333333334</ele><time>2026-04-26T14:26:50Z</time></trkpt><trkpt lat="45.44226053073552" lon="8.768698858911259"><ele>129.5</ele><time>2026-04-26T14:26:51Z</time></trkpt><trkpt lat="45.44220516074319" lon="8.768561308876956"><ele>129.66666666666669</ele><time>2026-04-26T14:26:53Z</time></trkpt><trkpt lat="45.44219595068701" lon="8.768467501185274"><ele>129.83333333333334</ele><time>2026-04-26T14:26:55Z</time></trkpt><trkpt lat="45.442260003633606" lon="8.768369381653043"><ele>130.0</ele><time>2026-04-26T14:26:58Z</time></trkpt><trkpt lat="45.44232616673111" lon="8.768346047578497"><ele>130.33333333333334</ele><time>2026-04-26T14:26:59Z</time></trkpt><trkpt lat="45.44239371507904" lon="8.768320428796935"><ele>130.66666666666669</ele><time>2026-04-26T14:27:00Z</time></trkpt><trkpt lat="45.442462223315765" lon="8.768281467871267"><ele>131.0</ele><time>2026-04-26T14:27:01Z</time></trkpt><trkpt lat="45.44253294290339" lon="8.768236478335828"><ele>131.33333333333334</ele><time>2026-04-26T14:27:02Z</time></trkpt><trkpt lat="45.44261143557114" lon="8.768196149083833"><ele>131.66666666666666</ele><time>2026-04-26T14:27:03Z</time></trkpt><trkpt lat="45.442700991957054" lon="8.768147240310856"><ele>132.0</ele><time>2026-04-26T14:27:04Z</time></trkpt><trkpt lat="45.442806828174895" lon="8.7680823362254"><ele>132.0</ele><time>2026-04-26T14:27:05Z</time></trkpt><trkpt lat="45.44289513746567" lon="8.768022788557982"><ele>132.0</ele><time>2026-04-26T14:27:06Z</time></trkpt><trkpt lat="45.442991836514366" lon="8.767963763479104"><ele>132.0</ele><time>2026-04-26T14:27:07Z</time></trkpt><trkpt lat="45.443090488301486" lon="8.767905095687013"><ele>132.0</ele><time>2026-04-26T14:27:08Z</time></trkpt><trkpt lat="45.44319386795366" lon="8.767835935417844"><ele>132.0</ele><time>2026-04-26T14:27:09Z</time></trkpt><trkpt lat="45.44329922761172" lon="8.767766512829242"><ele>132.2</ele><time>2026-04-26T14:27:10Z</time></trkpt><trkpt lat="45.44340623152575" lon="8.767704133190174"><ele>132.39999999999998</ele><time>2026-04-26T14:27:11Z</time></trkpt><trkpt lat="45.443509786036074" lon="8.767637161114692"><ele>132.60000000000002</ele><time>2026-04-26T14:27:12Z</time></trkpt><trkpt lat="45.44360888788306" lon="8.767572787729488"><ele>132.8</ele><time>2026-04-26T14:27:13Z</time></trkpt><trkpt lat="45.44370682664276" lon="8.767510787348046"><ele>133.0</ele><time>2026-04-26T14:27:14Z</time></trkpt><trkpt lat="45.443805047222206" lon="8.767450760854437"><ele>132.6</ele><time>2026-04-26T14:27:15Z</time></trkpt><trkpt lat="45.44390098801147" lon="8.767398197024432"><ele>132.20000000000002</ele><time>2026-04-26T14:27:16Z</time></trkpt><trkpt lat="45.44399923152669" lon="8.767343531748386"><ele>131.8</ele><time>2026-04-26T14:27:17Z</time></trkpt><trkpt lat="45.44408899094668" lon="8.76728542950411"><ele>131.4</ele><time>2026-04-26T14:27:18Z</time></trkpt><trkpt lat="45.44417752923177" lon="8.767230331793629"><ele>131.0</ele><time>2026-04-26T14:27:19Z</time></trkpt><trkpt lat="45.44426822806918" lon="8.767173178441125"><ele>131.0</ele><time>2026-04-26T14:27:20Z</time></trkpt><trkpt lat="45.444365044601156" lon="8.767111383887132"><ele>131.0</ele><time>2026-04-26T14:27:21Z</time></trkpt><trkpt lat="45.444468203559545" lon="8.767049957839795"><ele>131.0</ele><time>2026-04-26T14:27:22Z</time></trkpt><trkpt lat="45.444566367237655" lon="8.766995715333495"><ele>131.0</ele><time>2026-04-26T14:27:23Z</time></trkpt><trkpt lat="45.44466524899681" lon="8.766929808760322"><ele>131.0</ele><time>2026-04-26T14:27:24Z</time></trkpt><trkpt lat="45.44476391334562" lon="8.766868556841816"><ele>131.2</ele><time>2026-04-26T14:27:25Z</time></trkpt><trkpt lat="45.44486924870219" lon="8.76680482147406"><ele>131.39999999999998</ele><time>2026-04-26T14:27:26Z</time></trkpt><trkpt lat="45.444971503413406" lon="8.766743043511013"><ele>131.6</ele><time>2026-04-26T14:27:27Z</time></trkpt><trkpt lat="45.44505836906509" lon="8.766690262328328"><ele>131.79999999999998</ele><time>2026-04-26T14:27:28Z</time></trkpt><trkpt lat="45.44514022354099" lon="8.76663873380178"><ele>132.0</ele><time>2026-04-26T14:27:29Z</time></trkpt><trkpt lat="45.445221779841596" lon="8.766584482975473"><ele>132.0</ele><time>2026-04-26T14:27:30Z</time></trkpt><trkpt lat="45.44530540114885" lon="8.76652821296814"><ele>132.0</ele><time>2026-04-26T14:27:31Z</time></trkpt><trkpt lat="45.44539693369642" lon="8.766470013811619"><ele>132.0</ele><time>2026-04-26T14:27:32Z</time></trkpt><trkpt lat="45.445496880784226" lon="8.766413125655504"><ele>132.0</ele><time>2026-04-26T14:27:33Z</time></trkpt><trkpt lat="45.44560105557616" lon="8.766352547710047"><ele>132.0</ele><time>2026-04-26T14:27:34Z</time></trkpt><trkpt lat="45.44570997186634" lon="8.766283600760314"><ele>132.25</ele><time>2026-04-26T14:27:35Z</time></trkpt><trkpt lat="45.445816518565245" lon="8.766215607658854"><ele>132.5</ele><time>2026-04-26T14:27:36Z</time></trkpt><trkpt lat="45.445920939426266" lon="8.766154964065707"><ele>132.75</ele><time>2026-04-26T14:27:37Z</time></trkpt><trkpt lat="45.446028971732545" lon="8.766091537487837"><ele>133.0</ele><time>2026-04-26T14:27:38Z</time></trkpt><trkpt lat="45.44613879837931" lon="8.76602612416407"><ele>133.0</ele><time>2026-04-26T14:27:39Z</time></trkpt><trkpt lat="45.44624220445042" lon="8.765968053043183"><ele>133.0</ele><time>2026-04-26T14:27:40Z</time></trkpt><trkpt lat="45.44634669599895" lon="8.765904627935036"><ele>133.0</ele><time>2026-04-26T14:27:41Z</time></trkpt><trkpt lat="45.44644882174607" lon="8.76583860823091"><ele>133.0</ele><time>2026-04-26T14:27:42Z</time></trkpt><trkpt lat="45.44654549381883" lon="8.7657791926758"><ele>133.0</ele><time>2026-04-26T14:27:43Z</time></trkpt><trkpt lat="45.44664473792746" lon="8.76571531070881"><ele>133.0</ele><time>2026-04-26T14:27:44Z</time></trkpt><trkpt lat="45.44674675930497" lon="8.76564962855153"><ele>133.0</ele><time>2026-04-26T14:27:45Z</time></trkpt><trkpt lat="45.44685316935891" lon="8.765584146262407"><ele>133.0</ele><time>2026-04-26T14:27:46Z</time></trkpt><trkpt lat="45.44695885480158" lon="8.765518945323233"><ele>133.0</ele><time>2026-04-26T14:27:47Z</time></trkpt><trkpt lat="45.44706392025988" lon="8.765455264795621"><ele>133.25</ele><time>2026-04-26T14:27:48Z</time></trkpt><trkpt lat="45.447168023030926" lon="8.765384900141182"><ele>133.5</ele><time>2026-04-26T14:27:49Z</time></trkpt><trkpt lat="45.447274579847345" lon="8.765313943668852"><ele>133.75</ele><time>2026-04-26T14:27:50Z</time></trkpt><trkpt lat="45.44738054537473" lon="8.765258930193802"><ele>134.0</ele><time>2026-04-26T14:27:51Z</time></trkpt><trkpt lat="45.447476690231944" lon="8.76519858975692"><ele>133.8</ele><time>2026-04-26T14:27:52Z</time></trkpt><trkpt lat="45.44757234757956" lon="8.765144548061237"><ele>133.60000000000002</ele><time>2026-04-26T14:27:53Z</time></trkpt><trkpt lat="45.447672193537194" lon="8.765083440224718"><ele>133.4</ele><time>2026-04-26T14:27:54Z</time></trkpt><trkpt lat="45.44777260799256" lon="8.765023197995582"><ele>133.20000000000002</ele><time>2026-04-26T14:27:55Z</time></trkpt><trkpt lat="45.447871285417925" lon="8.76496458650928"><ele>133.0</ele><time>2026-04-26T14:27:56Z</time></trkpt><trkpt lat="45.447973346869446" lon="8.764900643672483"><ele>133.0</ele><time>2026-04-26T14:27:57Z</time></trkpt><trkpt lat="45.448080160728736" lon="8.764842057060987"><ele>133.0</ele><time>2026-04-26T14:27:58Z</time></trkpt><trkpt lat="45.44818761187632" lon="8.764780916378202"><ele>133.0</ele><time>2026-04-26T14:27:59Z</time></trkpt><trkpt lat="45.44828388655387" lon="8.764721858664405"><ele>133.0</ele><time>2026-04-26T14:28:00Z</time></trkpt><trkpt lat="45.44836480799231" lon="8.764673607712215"><ele>133.0</ele><time>2026-04-26T14:28:01Z</time></trkpt><trkpt lat="45.448441113350455" lon="8.764634714158579"><ele>133.0</ele><time>2026-04-26T14:28:02Z</time></trkpt><trkpt lat="45.44850501520062" lon="8.764595653309186"><ele>133.0</ele><time>2026-04-26T14:28:03Z</time></trkpt><trkpt lat="45.44857811445045" lon="8.764555134398927"><ele>133.0</ele><time>2026-04-26T14:28:04Z</time></trkpt><trkpt lat="45.448657964847" lon="8.764508488133973"><ele>133.0</ele><time>2026-04-26T14:28:05Z</time></trkpt><trkpt lat="45.44874441288447" lon="8.764450991557872"><ele>133.0</ele><time>2026-04-26T14:28:06Z</time></trkpt><trkpt lat="45.44883692618165" lon="8.764392548201293"><ele>133.0</ele><time>2026-04-26T14:28:07Z</time></trkpt><trkpt lat="45.44893067061521" lon="8.764331775183226"><ele>133.4</ele><time>2026-04-26T14:28:08Z</time></trkpt><trkpt lat="45.449030804095266" lon="8.764268940584444"><ele>133.8</ele><time>2026-04-26T14:28:09Z</time></trkpt><trkpt lat="45.44911997821394" lon="8.764219023461118"><ele>134.2</ele><time>2026-04-26T14:28:10Z</time></trkpt><trkpt lat="45.44921041235611" lon="8.76416238226231"><ele>134.6</ele><time>2026-04-26T14:28:11Z</time></trkpt><trkpt lat="45.449298619269236" lon="8.764106079553132"><ele>135.0</ele><time>2026-04-26T14:28:12Z</time></trkpt><trkpt lat="45.449395087566444" lon="8.764046822243966"><ele>135.0</ele><time>2026-04-26T14:28:13Z</time></trkpt><trkpt lat="45.44949545027931" lon="8.76398496383914"><ele>135.0</ele><time>2026-04-26T14:28:14Z</time></trkpt><trkpt lat="45.44959937670986" lon="8.763921164373487"><ele>135.0</ele><time>2026-04-26T14:28:15Z</time></trkpt><trkpt lat="45.44970731207583" lon="8.763856855905576"><ele>135.0</ele><time>2026-04-26T14:28:16Z</time></trkpt><trkpt lat="45.44982608284527" lon="8.763783295595177"><ele>134.75</ele><time>2026-04-26T14:28:17Z</time></trkpt><trkpt lat="45.449961227965616" lon="8.763700346169742"><ele>134.5</ele><time>2026-04-26T14:28:18Z</time></trkpt><trkpt lat="45.450094957975345" lon="8.763616516550487"><ele>134.25</ele><time>2026-04-26T14:28:19Z</time></trkpt><trkpt lat="45.45022839370923" lon="8.763538718601431"><ele>134.0</ele><time>2026-04-26T14:28:20Z</time></trkpt><trkpt lat="45.450342400715655" lon="8.763469716488883"><ele>133.8</ele><time>2026-04-26T14:28:21Z</time></trkpt><trkpt lat="45.45044860662875" lon="8.763400380752016"><ele>133.60000000000002</ele><time>2026-04-26T14:28:22Z</time></trkpt><trkpt lat="45.45055535493185" lon="8.763338571748466"><ele>133.4</ele><time>2026-04-26T14:28:23Z</time></trkpt><trkpt lat="45.45064689868894" lon="8.763283677834734"><ele>133.20000000000002</ele><time>2026-04-26T14:28:24Z</time></trkpt><trkpt lat="45.45071900738896" lon="8.763240066926285"><ele>133.0</ele><time>2026-04-26T14:28:25Z</time></trkpt><trkpt lat="45.45079583064556" lon="8.763184444465887"><ele>133.4</ele><time>2026-04-26T14:28:27Z</time></trkpt><trkpt lat="45.4507923928303" lon="8.763010760435959"><ele>133.8</ele><time>2026-04-26T14:28:30Z</time></trkpt><trkpt lat="45.45075469661322" lon="8.762915280733978"><ele>134.2</ele><time>2026-04-26T14:28:31Z</time></trkpt><trkpt lat="45.45072287857904" lon="8.762779226617006"><ele>134.6</ele><time>2026-04-26T14:28:32Z</time></trkpt><trkpt lat="45.450678794248" lon="8.762621421159103"><ele>135.0</ele><time>2026-04-26T14:28:33Z</time></trkpt><trkpt lat="45.45062841227121" lon="8.762442919403567"><ele>135.0</ele><time>2026-04-26T14:28:34Z</time></trkpt><trkpt lat="45.450577948118394" lon="8.762264884075204"><ele>135.0</ele><time>2026-04-26T14:28:35Z</time></trkpt><trkpt lat="45.450531980745566" lon="8.762104428672536"><ele>135.0</ele><time>2026-04-26T14:28:36Z</time></trkpt><trkpt lat="45.450487698555136" lon="8.761952187420135"><ele>135.0</ele><time>2026-04-26T14:28:37Z</time></trkpt><trkpt lat="45.4504388018502" lon="8.761788637752844"><ele>135.0</ele><time>2026-04-26T14:28:38Z</time></trkpt><trkpt lat="45.45039188435937" lon="8.761634822170615"><ele>135.0</ele><time>2026-04-26T14:28:39Z</time></trkpt><trkpt lat="45.45035126038499" lon="8.761502232251853"><ele>135.0</ele><time>2026-04-26T14:28:40Z</time></trkpt><trkpt lat="45.4503117764856" lon="8.761374140168396"><ele>135.0</ele><time>2026-04-26T14:28:41Z</time></trkpt><trkpt lat="45.45027588624728" lon="8.761257706503578"><ele>135.0</ele><time>2026-04-26T14:28:42Z</time></trkpt><trkpt lat="45.45022728343649" lon="8.761154960484468"><ele>135.0</ele><time>2026-04-26T14:28:43Z</time></trkpt><trkpt lat="45.450194619472185" lon="8.761032570541117"><ele>135.0</ele><time>2026-04-26T14:28:44Z</time></trkpt><trkpt lat="45.45015454496957" lon="8.760908021981509"><ele>135.0</ele><time>2026-04-26T14:28:45Z</time></trkpt><trkpt lat="45.450113154890076" lon="8.760785780334379"><ele>135.0</ele><time>2026-04-26T14:28:46Z</time></trkpt><trkpt lat="45.450077684123734" lon="8.760662490391974"><ele>135.0</ele><time>2026-04-26T14:28:47Z</time></trkpt><trkpt lat="45.45004955054095" lon="8.760517925477789"><ele>134.83333333333334</ele><time>2026-04-26T14:28:48Z</time></trkpt><trkpt lat="45.45001560189076" lon="8.760401888585346"><ele>134.66666666666666</ele><time>2026-04-26T14:28:49Z</time></trkpt><trkpt lat="45.44998390922643" lon="8.760293562677898"><ele>134.5</ele><time>2026-04-26T14:28:50Z</time></trkpt><trkpt lat="45.44993802628151" lon="8.760191172135052"><ele>134.33333333333331</ele><time>2026-04-26T14:28:51Z</time></trkpt><trkpt lat="45.44991609921989" lon="8.76009365634685"><ele>134.16666666666666</ele><time>2026-04-26T14:28:52Z</time></trkpt><trkpt lat="45.449890931771264" lon="8.760006891376843"><ele>134.0</ele><time>2026-04-26T14:28:53Z</time></trkpt><trkpt lat="45.44986498768502" lon="8.7599180556126"><ele>134.0</ele><time>2026-04-26T14:28:54Z</time></trkpt><trkpt lat="45.44983864255495" lon="8.75982086804949"><ele>134.0</ele><time>2026-04-26T14:28:55Z</time></trkpt><trkpt lat="45.44980726390708" lon="8.759737670277916"><ele>134.0</ele><time>2026-04-26T14:28:56Z</time></trkpt><trkpt lat="45.44978560796607" lon="8.759652513317171"><ele>134.0</ele><time>2026-04-26T14:28:57Z</time></trkpt><trkpt lat="45.44974359491677" lon="8.759506798126116"><ele>134.0</ele><time>2026-04-26T14:28:59Z</time></trkpt><trkpt lat="45.44970524852093" lon="8.759380736087667"><ele>134.0</ele><time>2026-04-26T14:29:01Z</time></trkpt><trkpt lat="45.44966170896957" lon="8.759239369651867"><ele>134.16666666666666</ele><time>2026-04-26T14:29:03Z</time></trkpt><trkpt lat="45.449618684157365" lon="8.759073974659252"><ele>134.33333333333331</ele><time>2026-04-26T14:29:05Z</time></trkpt><trkpt lat="45.44959026520118" lon="8.7589856985706"><ele>134.5</ele><time>2026-04-26T14:29:06Z</time></trkpt><trkpt lat="45.449573552606296" lon="8.758878816157392"><ele>134.66666666666666</ele><time>2026-04-26T14:29:07Z</time></trkpt><trkpt lat="45.4495434131085" lon="8.75878160003017"><ele>134.83333333333334</ele><time>2026-04-26T14:29:08Z</time></trkpt><trkpt lat="45.4495107581379" lon="8.758678757851602"><ele>135.0</ele><time>2026-04-26T14:29:09Z</time></trkpt><trkpt lat="45.44947641474639" lon="8.758572205935733"><ele>135.16666666666666</ele><time>2026-04-26T14:29:10Z</time></trkpt><trkpt lat="45.449442222485956" lon="8.758466122905743"><ele>135.33333333333334</ele><time>2026-04-26T14:29:11Z</time></trkpt><trkpt lat="45.44941069395518" lon="8.758368304218381"><ele>135.5</ele><time>2026-04-26T14:29:12Z</time></trkpt><trkpt lat="45.4493789386456" lon="8.75826925544897"><ele>135.66666666666669</ele><time>2026-04-26T14:29:13Z</time></trkpt><trkpt lat="45.44934675706356" lon="8.758164588076768"><ele>135.83333333333334</ele><time>2026-04-26T14:29:14Z</time></trkpt><trkpt lat="45.44931789024119" lon="8.758065091886337"><ele>136.0</ele><time>2026-04-26T14:29:15Z</time></trkpt><trkpt lat="45.449282983466446" lon="8.757968592809295"><ele>136.0</ele><time>2026-04-26T14:29:16Z</time></trkpt><trkpt lat="45.449260386803" lon="8.757870827233265"><ele>136.0</ele><time>2026-04-26T14:29:17Z</time></trkpt><trkpt lat="45.44923647821956" lon="8.757767211081298"><ele>136.0</ele><time>2026-04-26T14:29:18Z</time></trkpt><trkpt lat="45.44922046824843" lon="8.75767137695192"><ele>136.0</ele><time>2026-04-26T14:29:19Z</time></trkpt><trkpt lat="45.44920203560724" lon="8.757564624998698"><ele>136.0</ele><time>2026-04-26T14:29:20Z</time></trkpt><trkpt lat="45.44918061131456" lon="8.757448634538374"><ele>136.0</ele><time>2026-04-26T14:29:21Z</time></trkpt><trkpt lat="45.44916060298457" lon="8.757321330387256"><ele>135.83333333333334</ele><time>2026-04-26T14:29:22Z</time></trkpt><trkpt lat="45.44913720768954" lon="8.757213205553292"><ele>135.66666666666669</ele><time>2026-04-26T14:29:23Z</time></trkpt><trkpt lat="45.44911636250745" lon="8.757093193989045"><ele>135.5</ele><time>2026-04-26T14:29:24Z</time></trkpt><trkpt lat="45.449091271117034" lon="8.756965054976671"><ele>135.33333333333334</ele><time>2026-04-26T14:29:25Z</time></trkpt><trkpt lat="45.449064940055216" lon="8.756832029547489"><ele>135.16666666666666</ele><time>2026-04-26T14:29:26Z</time></trkpt><trkpt lat="45.449040399564495" lon="8.756708262205265"><ele>135.0</ele><time>2026-04-26T14:29:27Z</time></trkpt><trkpt lat="45.44901704089183" lon="8.756575325346223"><ele>135.0</ele><time>2026-04-26T14:29:28Z</time></trkpt><trkpt lat="45.44900036375412" lon="8.756463481269158"><ele>135.0</ele><time>2026-04-26T14:29:29Z</time></trkpt><trkpt lat="45.44898796183676" lon="8.756373279236888"><ele>135.0</ele><time>2026-04-26T14:29:30Z</time></trkpt><trkpt lat="45.44897169055991" lon="8.756261180243728"><ele>135.0</ele><time>2026-04-26T14:29:31Z</time></trkpt><trkpt lat="45.448955728735434" lon="8.756142026813523"><ele>135.0</ele><time>2026-04-26T14:29:32Z</time></trkpt><trkpt lat="45.44894002738935" lon="8.75602203610992"><ele>135.0</ele><time>2026-04-26T14:29:33Z</time></trkpt><trkpt lat="45.448928039616824" lon="8.755906041114107"><ele>135.2</ele><time>2026-04-26T14:29:34Z</time></trkpt><trkpt lat="45.4489109452707" lon="8.755775064333267"><ele>135.4</ele><time>2026-04-26T14:29:35Z</time></trkpt><trkpt lat="45.44889420366371" lon="8.755639090029147"><ele>135.6</ele><time>2026-04-26T14:29:36Z</time></trkpt><trkpt lat="45.44887607501237" lon="8.75551016869187"><ele>135.8</ele><time>2026-04-26T14:29:37Z</time></trkpt><trkpt lat="45.44885414054112" lon="8.755380208905981"><ele>136.0</ele><time>2026-04-26T14:29:38Z</time></trkpt><trkpt lat="45.448833796179485" lon="8.75525004887657"><ele>136.2</ele><time>2026-04-26T14:29:39Z</time></trkpt><trkpt lat="45.44883213005066" lon="8.755113000023263"><ele>136.39999999999998</ele><time>2026-04-26T14:29:40Z</time></trkpt><trkpt lat="45.44881830969838" lon="8.754977028965754"><ele>136.6</ele><time>2026-04-26T14:29:41Z</time></trkpt><trkpt lat="45.44880372930057" lon="8.754840753892703"><ele>136.79999999999998</ele><time>2026-04-26T14:29:42Z</time></trkpt><trkpt lat="45.44879020197653" lon="8.754709535376831"><ele>137.0</ele><time>2026-04-26T14:29:43Z</time></trkpt><trkpt lat="45.44877669567736" lon="8.75457616785657"><ele>136.6</ele><time>2026-04-26T14:29:44Z</time></trkpt><trkpt lat="45.44876339434094" lon="8.754444824242741"><ele>136.2</ele><time>2026-04-26T14:29:45Z</time></trkpt><trkpt lat="45.44874956262982" lon="8.754312923672009"><ele>135.8</ele><time>2026-04-26T14:29:46Z</time></trkpt><trkpt lat="45.448732537973335" lon="8.754174576849136"><ele>135.4</ele><time>2026-04-26T14:29:47Z</time></trkpt><trkpt lat="45.44871297504116" lon="8.754044749791925"><ele>135.0</ele><time>2026-04-26T14:29:48Z</time></trkpt><trkpt lat="45.448673916536045" lon="8.753924633431156"><ele>134.8</ele><time>2026-04-26T14:29:49Z</time></trkpt><trkpt lat="45.448646186091864" lon="8.753796685201069"><ele>134.6</ele><time>2026-04-26T14:29:50Z</time></trkpt><trkpt lat="45.448621431213006" lon="8.75367603114847"><ele>134.4</ele><time>2026-04-26T14:29:51Z</time></trkpt><trkpt lat="45.448588960992716" lon="8.753562771089276"><ele>134.2</ele><time>2026-04-26T14:29:52Z</time></trkpt><trkpt lat="45.44856068239675" lon="8.753452289577721"><ele>134.0</ele><time>2026-04-26T14:29:53Z</time></trkpt><trkpt lat="45.44852747446474" lon="8.753308045134093"><ele>134.33333333333331</ele><time>2026-04-26T14:29:54Z</time></trkpt><trkpt lat="45.44849211182457" lon="8.75317319782684"><ele>134.66666666666666</ele><time>2026-04-26T14:29:55Z</time></trkpt><trkpt lat="45.44845813694302" lon="8.753064089760738"><ele>135.0</ele><time>2026-04-26T14:29:56Z</time></trkpt><trkpt lat="45.44843331476609" lon="8.752968974380648"><ele>135.33333333333334</ele><time>2026-04-26T14:29:57Z</time></trkpt><trkpt lat="45.44841866410594" lon="8.752878059893687"><ele>135.66666666666669</ele><time>2026-04-26T14:29:58Z</time></trkpt><trkpt lat="45.44837924133276" lon="8.75271198594199"><ele>136.0</ele><time>2026-04-26T14:30:00Z</time></trkpt><trkpt lat="45.44835992669857" lon="8.752606976044666"><ele>136.0</ele><time>2026-04-26T14:30:01Z</time></trkpt><trkpt lat="45.44833318072587" lon="8.752489549801304"><ele>136.0</ele><time>2026-04-26T14:30:02Z</time></trkpt><trkpt lat="45.44830873124202" lon="8.752366004950979"><ele>136.0</ele><time>2026-04-26T14:30:03Z</time></trkpt><trkpt lat="45.44828374937938" lon="8.752232216514246"><ele>136.0</ele><time>2026-04-26T14:30:04Z</time></trkpt><trkpt lat="45.44825915046206" lon="8.752098294463822"><ele>136.0</ele><time>2026-04-26T14:30:05Z</time></trkpt><trkpt lat="45.448223149296105" lon="8.751968949551184"><ele>136.0</ele><time>2026-04-26T14:30:06Z</time></trkpt><trkpt lat="45.44818199019358" lon="8.751855806008978"><ele>136.0</ele><time>2026-04-26T14:30:07Z</time></trkpt><trkpt lat="45.448146748122106" lon="8.75175705677585"><ele>136.0</ele><time>2026-04-26T14:30:08Z</time></trkpt><trkpt lat="45.44810526460327" lon="8.75163589831332"><ele>136.0</ele><time>2026-04-26T14:30:09Z</time></trkpt><trkpt lat="45.44806292130232" lon="8.751507802239963"><ele>136.0</ele><time>2026-04-26T14:30:10Z</time></trkpt><trkpt lat="45.448020798280915" lon="8.75136040795535"><ele>136.0</ele><time>2026-04-26T14:30:11Z</time></trkpt><trkpt lat="45.447980915315334" lon="8.751204669577103"><ele>136.0</ele><time>2026-04-26T14:30:12Z</time></trkpt><trkpt lat="45.44795013436532" lon="8.75107581655548"><ele>136.0</ele><time>2026-04-26T14:30:13Z</time></trkpt><trkpt lat="45.44791680681984" lon="8.750961878151433"><ele>136.0</ele><time>2026-04-26T14:30:14Z</time></trkpt><trkpt lat="45.44788653970447" lon="8.750860650924832"><ele>136.0</ele><time>2026-04-26T14:30:15Z</time></trkpt><trkpt lat="45.447880233384964" lon="8.750746504969849"><ele>136.2</ele><time>2026-04-26T14:30:16Z</time></trkpt><trkpt lat="45.44784568656041" lon="8.750631504649174"><ele>136.39999999999998</ele><time>2026-04-26T14:30:17Z</time></trkpt><trkpt lat="45.44782979258352" lon="8.750499712847548"><ele>136.6</ele><time>2026-04-26T14:30:18Z</time></trkpt><trkpt lat="45.44781660323365" lon="8.750358108425331"><ele>136.79999999999998</ele><time>2026-04-26T14:30:19Z</time></trkpt><trkpt lat="45.447798129541496" lon="8.750210176069292"><ele>137.0</ele><time>2026-04-26T14:30:20Z</time></trkpt><trkpt lat="45.44777569123231" lon="8.750075452121099"><ele>136.6</ele><time>2026-04-26T14:30:21Z</time></trkpt><trkpt lat="45.44774942946679" lon="8.749938388350921"><ele>136.2</ele><time>2026-04-26T14:30:22Z</time></trkpt><trkpt lat="45.44772500870217" lon="8.749800117538364"><ele>135.8</ele><time>2026-04-26T14:30:23Z</time></trkpt><trkpt lat="45.447703659927626" lon="8.749653597360146"><ele>135.4</ele><time>2026-04-26T14:30:24Z</time></trkpt><trkpt lat="45.447680767621016" lon="8.74950476975074"><ele>135.0</ele><time>2026-04-26T14:30:25Z</time></trkpt><trkpt lat="45.447661338173425" lon="8.749380460451448"><ele>135.16666666666666</ele><time>2026-04-26T14:30:26Z</time></trkpt><trkpt lat="45.44764480993035" lon="8.749270668574743"><ele>135.33333333333334</ele><time>2026-04-26T14:30:27Z</time></trkpt><trkpt lat="45.44762693512362" lon="8.749176518915302"><ele>135.5</ele><time>2026-04-26T14:30:28Z</time></trkpt><trkpt lat="45.447609627271866" lon="8.749066471821045"><ele>135.66666666666669</ele><time>2026-04-26T14:30:29Z</time></trkpt><trkpt lat="45.44759046335488" lon="8.748951417928462"><ele>135.83333333333334</ele><time>2026-04-26T14:30:30Z</time></trkpt><trkpt lat="45.447573712017956" lon="8.748858833502505"><ele>136.0</ele><time>2026-04-26T14:30:31Z</time></trkpt><trkpt lat="45.44755028548288" lon="8.748672000677928"><ele>135.8</ele><time>2026-04-26T14:30:33Z</time></trkpt><trkpt lat="45.44751581113995" lon="8.748504442138882"><ele>135.6</ele><time>2026-04-26T14:30:35Z</time></trkpt><trkpt lat="45.44749642142101" lon="8.748408594910318"><ele>135.4</ele><time>2026-04-26T14:30:36Z</time></trkpt><trkpt lat="45.44747955147548" lon="8.7482881227591"><ele>135.2</ele><time>2026-04-26T14:30:37Z</time></trkpt><trkpt lat="45.44743208130033" lon="8.748179808951683"><ele>135.0</ele><time>2026-04-26T14:30:38Z</time></trkpt><trkpt lat="45.447397892564716" lon="8.74805788867241"><ele>135.0</ele><time>2026-04-26T14:30:39Z</time></trkpt><trkpt lat="45.447358196987594" lon="8.747941016530401"><ele>135.0</ele><time>2026-04-26T14:30:40Z</time></trkpt><trkpt lat="45.447305674479175" lon="8.747830170345244"><ele>135.0</ele><time>2026-04-26T14:30:41Z</time></trkpt><trkpt lat="45.447244080553226" lon="8.747726271461323"><ele>135.0</ele><time>2026-04-26T14:30:42Z</time></trkpt><trkpt lat="45.44720269183728" lon="8.747611295917125"><ele>135.0</ele><time>2026-04-26T14:30:43Z</time></trkpt><trkpt lat="45.44714523038019" lon="8.747508845054384"><ele>135.4</ele><time>2026-04-26T14:30:44Z</time></trkpt><trkpt lat="45.44708810197579" lon="8.747407056231696"><ele>135.8</ele><time>2026-04-26T14:30:45Z</time></trkpt><trkpt lat="45.447026337179565" lon="8.747303376748722"><ele>136.2</ele><time>2026-04-26T14:30:46Z</time></trkpt><trkpt lat="45.446966651233524" lon="8.74720318684115"><ele>136.6</ele><time>2026-04-26T14:30:47Z</time></trkpt><trkpt lat="45.44690139016079" lon="8.747095897553537"><ele>137.0</ele><time>2026-04-26T14:30:48Z</time></trkpt><trkpt lat="45.44683603809912" lon="8.746991648405835"><ele>137.0</ele><time>2026-04-26T14:30:49Z</time></trkpt><trkpt lat="45.44677253244913" lon="8.746890344642978"><ele>137.0</ele><time>2026-04-26T14:30:50Z</time></trkpt><trkpt lat="45.44670350119195" lon="8.746785261888384"><ele>137.0</ele><time>2026-04-26T14:30:51Z</time></trkpt><trkpt lat="45.44663064344731" lon="8.746674548691763"><ele>137.0</ele><time>2026-04-26T14:30:52Z</time></trkpt><trkpt lat="45.44655198220551" lon="8.746560017142748"><ele>137.0</ele><time>2026-04-26T14:30:53Z</time></trkpt><trkpt lat="45.44647749457551" lon="8.746451803589725"><ele>136.79999999999998</ele><time>2026-04-26T14:30:54Z</time></trkpt><trkpt lat="45.44640134018489" lon="8.746342292556704"><ele>136.6</ele><time>2026-04-26T14:30:55Z</time></trkpt><trkpt lat="45.446324935471054" lon="8.746234110789452"><ele>136.39999999999998</ele><time>2026-04-26T14:30:56Z</time></trkpt><trkpt lat="45.44624616297824" lon="8.74613942602598"><ele>136.2</ele><time>2026-04-26T14:30:57Z</time></trkpt><trkpt lat="45.44617554040272" lon="8.746043413403788"><ele>136.0</ele><time>2026-04-26T14:30:58Z</time></trkpt><trkpt lat="45.44610563898097" lon="8.745947778522218"><ele>135.8</ele><time>2026-04-26T14:30:59Z</time></trkpt><trkpt lat="45.44603626743203" lon="8.745861445814752"><ele>135.6</ele><time>2026-04-26T14:31:00Z</time></trkpt><trkpt lat="45.4459816827192" lon="8.745768418070156"><ele>135.4</ele><time>2026-04-26T14:31:01Z</time></trkpt><trkpt lat="45.445908890109656" lon="8.745697639443232"><ele>135.2</ele><time>2026-04-26T14:31:02Z</time></trkpt><trkpt lat="45.44581908682975" lon="8.745634612068017"><ele>135.0</ele><time>2026-04-26T14:31:03Z</time></trkpt><trkpt lat="45.445718822665995" lon="8.745595114296906"><ele>135.0</ele><time>2026-04-26T14:31:04Z</time></trkpt><trkpt lat="45.44562014913522" lon="8.745531034976056"><ele>135.0</ele><time>2026-04-26T14:31:05Z</time></trkpt><trkpt lat="45.4455312634498" lon="8.7454610575642"><ele>135.0</ele><time>2026-04-26T14:31:06Z</time></trkpt><trkpt lat="45.44544280532503" lon="8.745387523616296"><ele>135.0</ele><time>2026-04-26T14:31:07Z</time></trkpt><trkpt lat="45.44536928783618" lon="8.745295169975224"><ele>135.0</ele><time>2026-04-26T14:31:08Z</time></trkpt><trkpt lat="45.44528339679258" lon="8.745213375577"><ele>135.0</ele><time>2026-04-26T14:31:09Z</time></trkpt><trkpt lat="45.44519117250895" lon="8.745124162410892"><ele>135.0</ele><time>2026-04-26T14:31:10Z</time></trkpt><trkpt lat="45.44510179917796" lon="8.745028247823146"><ele>135.0</ele><time>2026-04-26T14:31:11Z</time></trkpt><trkpt lat="45.445011400712744" lon="8.744927107310728"><ele>135.0</ele><time>2026-04-26T14:31:12Z</time></trkpt><trkpt lat="45.444918823723576" lon="8.744853606293518"><ele>135.0</ele><time>2026-04-26T14:31:13Z</time></trkpt><trkpt lat="45.44483908894699" lon="8.744747935994013"><ele>135.0</ele><time>2026-04-26T14:31:14Z</time></trkpt><trkpt lat="45.44474732319574" lon="8.74465229493903"><ele>135.0</ele><time>2026-04-26T14:31:15Z</time></trkpt><trkpt lat="45.44466752767452" lon="8.744556130877898"><ele>135.0</ele><time>2026-04-26T14:31:16Z</time></trkpt><trkpt lat="45.44457888262767" lon="8.744455716489322"><ele>135.0</ele><time>2026-04-26T14:31:17Z</time></trkpt><trkpt lat="45.444493466204364" lon="8.74436245481957"><ele>135.0</ele><time>2026-04-26T14:31:18Z</time></trkpt><trkpt lat="45.444411829326185" lon="8.744274919899036"><ele>135.0</ele><time>2026-04-26T14:31:19Z</time></trkpt><trkpt lat="45.444335483612285" lon="8.744193193316521"><ele>135.0</ele><time>2026-04-26T14:31:20Z</time></trkpt><trkpt lat="45.4442633979964" lon="8.744107261726711"><ele>135.0</ele><time>2026-04-26T14:31:21Z</time></trkpt><trkpt lat="45.44419484939767" lon="8.7440395533078"><ele>135.0</ele><time>2026-04-26T14:31:22Z</time></trkpt><trkpt lat="45.44414333370725" lon="8.743967243693328"><ele>135.0</ele><time>2026-04-26T14:31:23Z</time></trkpt><trkpt lat="45.444082270956066" lon="8.743901764055169"><ele>135.0</ele><time>2026-04-26T14:31:24Z</time></trkpt><trkpt lat="45.4439901391592" lon="8.743799594190488"><ele>135.0</ele><time>2026-04-26T14:31:26Z</time></trkpt><trkpt lat="45.44390330260401" lon="8.743694699498029"><ele>135.0</ele><time>2026-04-26T14:31:28Z</time></trkpt><trkpt lat="45.44385088814835" lon="8.743642348146611"><ele>135.0</ele><time>2026-04-26T14:31:29Z</time></trkpt><trkpt lat="45.443805321166685" lon="8.743574833754051"><ele>135.0</ele><time>2026-04-26T14:31:30Z</time></trkpt><trkpt lat="45.44375591236236" lon="8.743493684667653"><ele>135.0</ele><time>2026-04-26T14:31:31Z</time></trkpt><trkpt lat="45.44370719509515" lon="8.743425486071493"><ele>135.0</ele><time>2026-04-26T14:31:32Z</time></trkpt><trkpt lat="45.44365707608279" lon="8.743349629995283"><ele>135.0</ele><time>2026-04-26T14:31:33Z</time></trkpt><trkpt lat="45.44360516404821" lon="8.743272228833117"><ele>135.0</ele><time>2026-04-26T14:31:34Z</time></trkpt><trkpt lat="45.44353964967797" lon="8.743223135677402"><ele>135.0</ele><time>2026-04-26T14:31:35Z</time></trkpt><trkpt lat="45.44344266522913" lon="8.743135509329772"><ele>135.0</ele><time>2026-04-26T14:31:37Z</time></trkpt><trkpt lat="45.443367127827045" lon="8.743066147184969"><ele>135.0</ele><time>2026-04-26T14:31:39Z</time></trkpt><trkpt lat="45.4432815184216" lon="8.743071038108067"><ele>135.0</ele><time>2026-04-26T14:31:41Z</time></trkpt><trkpt lat="45.44321850907183" lon="8.743087279229407"><ele>135.0</ele><time>2026-04-26T14:31:42Z</time></trkpt><trkpt lat="45.4431358236471" lon="8.743097890674354"><ele>135.0</ele><time>2026-04-26T14:31:43Z</time></trkpt><trkpt lat="45.44304203648197" lon="8.743106602368734"><ele>135.0</ele><time>2026-04-26T14:31:44Z</time></trkpt><trkpt lat="45.44294053837737" lon="8.743120760695138"><ele>135.0</ele><time>2026-04-26T14:31:45Z</time></trkpt><trkpt lat="45.44287144714239" lon="8.74313402721131"><ele>135.0</ele><time>2026-04-26T14:31:46Z</time></trkpt><trkpt lat="45.4427535244075" lon="8.743143137182775"><ele>135.2</ele><time>2026-04-26T14:31:48Z</time></trkpt><trkpt lat="45.44262262865229" lon="8.74312856414651"><ele>135.4</ele><time>2026-04-26T14:31:50Z</time></trkpt><trkpt lat="45.44253568885078" lon="8.743108961333329"><ele>135.6</ele><time>2026-04-26T14:31:51Z</time></trkpt><trkpt lat="45.44244541945429" lon="8.743080801199394"><ele>135.8</ele><time>2026-04-26T14:31:52Z</time></trkpt><trkpt lat="45.44234861975347" lon="8.743050081322641"><ele>136.0</ele><time>2026-04-26T14:31:53Z</time></trkpt><trkpt lat="45.44225410932312" lon="8.74301924034028"><ele>136.0</ele><time>2026-04-26T14:31:54Z</time></trkpt><trkpt lat="45.442160112678636" lon="8.742987335553375"><ele>136.0</ele><time>2026-04-26T14:31:55Z</time></trkpt><trkpt lat="45.4420615318391" lon="8.742955653285149"><ele>136.0</ele><time>2026-04-26T14:31:56Z</time></trkpt><trkpt lat="45.441958862926896" lon="8.742921787500567"><ele>136.0</ele><time>2026-04-26T14:31:57Z</time></trkpt><trkpt lat="45.44185977236437" lon="8.742883123139183"><ele>136.0</ele><time>2026-04-26T14:31:58Z</time></trkpt><trkpt lat="45.441763552816525" lon="8.742836477942593"><ele>136.0</ele><time>2026-04-26T14:31:59Z</time></trkpt><trkpt lat="45.44167256289079" lon="8.742804712471493"><ele>136.0</ele><time>2026-04-26T14:32:00Z</time></trkpt><trkpt lat="45.44157701470849" lon="8.742755969533448"><ele>136.0</ele><time>2026-04-26T14:32:01Z</time></trkpt><trkpt lat="45.44148463531562" lon="8.742703048089885"><ele>136.0</ele><time>2026-04-26T14:32:02Z</time></trkpt><trkpt lat="45.44139378726518" lon="8.74266073342416"><ele>136.0</ele><time>2026-04-26T14:32:03Z</time></trkpt><trkpt lat="45.44130498187651" lon="8.742616732039316"><ele>135.6</ele><time>2026-04-26T14:32:04Z</time></trkpt><trkpt lat="45.44122132015913" lon="8.74259868077634"><ele>135.2</ele><time>2026-04-26T14:32:05Z</time></trkpt><trkpt lat="45.44115509855433" lon="8.742556251047377"><ele>134.8</ele><time>2026-04-26T14:32:06Z</time></trkpt><trkpt lat="45.44106687355067" lon="8.74249222391053"><ele>134.4</ele><time>2026-04-26T14:32:08Z</time></trkpt><trkpt lat="45.44100773190731" lon="8.742427674491447"><ele>134.0</ele><time>2026-04-26T14:32:11Z</time></trkpt><trkpt lat="45.441011055464955" lon="8.742216049277742"><ele>134.0</ele><time>2026-04-26T14:32:24Z</time></trkpt><trkpt lat="45.441030210461534" lon="8.742107433711894"><ele>134.0</ele><time>2026-04-26T14:32:25Z</time></trkpt><trkpt lat="45.44105053241056" lon="8.741958039069786"><ele>134.0</ele><time>2026-04-26T14:32:26Z</time></trkpt><trkpt lat="45.441073857213745" lon="8.741790844103948"><ele>134.0</ele><time>2026-04-26T14:32:27Z</time></trkpt><trkpt lat="45.441101395268184" lon="8.741604068698342"><ele>134.0</ele><time>2026-04-26T14:32:28Z</time></trkpt><trkpt lat="45.44113823511054" lon="8.741394295081113"><ele>134.33333333333331</ele><time>2026-04-26T14:32:29Z</time></trkpt><trkpt lat="45.44117920895401" lon="8.741169253249009"><ele>134.66666666666666</ele><time>2026-04-26T14:32:30Z</time></trkpt><trkpt lat="45.44122466662041" lon="8.740913719607974"><ele>135.0</ele><time>2026-04-26T14:32:31Z</time></trkpt><trkpt lat="45.441267432460904" lon="8.74065653201062"><ele>134.66666666666666</ele><time>2026-04-26T14:32:32Z</time></trkpt><trkpt lat="45.441313147150574" lon="8.740388469826005"><ele>134.33333333333331</ele><time>2026-04-26T14:32:33Z</time></trkpt><trkpt lat="45.441373814340196" lon="8.740121594545327"><ele>134.0</ele><time>2026-04-26T14:32:34Z</time></trkpt><trkpt lat="45.441408749992945" lon="8.739828575533815"><ele>134.0</ele><time>2026-04-26T14:32:35Z</time></trkpt><trkpt lat="45.44145860143934" lon="8.739527896068427"><ele>134.0</ele><time>2026-04-26T14:32:36Z</time></trkpt><trkpt lat="45.44149732325222" lon="8.739233566423861"><ele>134.0</ele><time>2026-04-26T14:32:37Z</time></trkpt><trkpt lat="45.44152923913276" lon="8.738962043904198"><ele>134.0</ele><time>2026-04-26T14:32:38Z</time></trkpt><trkpt lat="45.44155166141281" lon="8.738706713612718"><ele>134.0</ele><time>2026-04-26T14:32:39Z</time></trkpt><trkpt lat="45.44157105447942" lon="8.738467670301555"><ele>134.0</ele><time>2026-04-26T14:32:40Z</time></trkpt><trkpt lat="45.44158744128746" lon="8.738250531137288"><ele>134.0</ele><time>2026-04-26T14:32:41Z</time></trkpt><trkpt lat="45.44159911702669" lon="8.738030406421911"><ele>134.0</ele><time>2026-04-26T14:32:42Z</time></trkpt><trkpt lat="45.44160330416273" lon="8.737815791829783"><ele>134.0</ele><time>2026-04-26T14:32:43Z</time></trkpt><trkpt lat="45.441604619298424" lon="8.737592979464813"><ele>134.66666666666666</ele><time>2026-04-26T14:32:44Z</time></trkpt><trkpt lat="45.4416045533761" lon="8.737372782601076"><ele>135.33333333333334</ele><time>2026-04-26T14:32:45Z</time></trkpt><trkpt lat="45.44160232891735" lon="8.73715458180165"><ele>136.0</ele><time>2026-04-26T14:32:46Z</time></trkpt><trkpt lat="45.44159434743101" lon="8.736937736538344"><ele>136.0</ele><time>2026-04-26T14:32:47Z</time></trkpt><trkpt lat="45.44158448873122" lon="8.736719549373664"><ele>136.0</ele><time>2026-04-26T14:32:48Z</time></trkpt><trkpt lat="45.441574860809936" lon="8.736503794836276"><ele>136.0</ele><time>2026-04-26T14:32:49Z</time></trkpt><trkpt lat="45.44156050500877" lon="8.736287900888435"><ele>136.0</ele><time>2026-04-26T14:32:50Z</time></trkpt><trkpt lat="45.44154237833193" lon="8.736072181689293"><ele>136.0</ele><time>2026-04-26T14:32:51Z</time></trkpt><trkpt lat="45.44151937692698" lon="8.735852378406513"><ele>136.0</ele><time>2026-04-26T14:32:52Z</time></trkpt><trkpt lat="45.441493787793746" lon="8.735629226331586"><ele>136.0</ele><time>2026-04-26T14:32:53Z</time></trkpt><trkpt lat="45.44146468607729" lon="8.735407271705208"><ele>136.0</ele><time>2026-04-26T14:32:54Z</time></trkpt><trkpt lat="45.441431850061186" lon="8.735182642021448"><ele>136.0</ele><time>2026-04-26T14:32:55Z</time></trkpt><trkpt lat="45.441395707252994" lon="8.734960473688725"><ele>136.0</ele><time>2026-04-26T14:32:56Z</time></trkpt><trkpt lat="45.441357380825785" lon="8.73474043046124"><ele>136.0</ele><time>2026-04-26T14:32:57Z</time></trkpt><trkpt lat="45.44131573447499" lon="8.734517390623816"><ele>136.0</ele><time>2026-04-26T14:32:58Z</time></trkpt><trkpt lat="45.44127326649375" lon="8.734312793783564"><ele>135.75</ele><time>2026-04-26T14:32:59Z</time></trkpt><trkpt lat="45.441229510649414" lon="8.734125995723337"><ele>135.5</ele><time>2026-04-26T14:33:00Z</time></trkpt><trkpt lat="45.44119052751242" lon="8.733952162507281"><ele>135.25</ele><time>2026-04-26T14:33:01Z</time></trkpt><trkpt lat="45.44115376028771" lon="8.73378773866734"><ele>135.0</ele><time>2026-04-26T14:33:02Z</time></trkpt><trkpt lat="45.44112044118412" lon="8.733634402834776"><ele>134.8</ele><time>2026-04-26T14:33:03Z</time></trkpt><trkpt lat="45.44109176073975" lon="8.733489745400487"><ele>134.6</ele><time>2026-04-26T14:33:04Z</time></trkpt><trkpt lat="45.4410711288364" lon="8.733351864046403"><ele>134.4</ele><time>2026-04-26T14:33:05Z</time></trkpt><trkpt lat="45.441051647201164" lon="8.73322183447401"><ele>134.2</ele><time>2026-04-26T14:33:06Z</time></trkpt><trkpt lat="45.441037040293516" lon="8.733117465307103"><ele>134.0</ele><time>2026-04-26T14:33:07Z</time></trkpt><trkpt lat="45.44102452306374" lon="8.73300029883194"><ele>134.0</ele><time>2026-04-26T14:33:09Z</time></trkpt><trkpt lat="45.441035358562246" lon="8.73284491919199"><ele>134.0</ele><time>2026-04-26T14:33:18Z</time></trkpt><trkpt lat="45.4410579409662" lon="8.732758140583876"><ele>134.0</ele><time>2026-04-26T14:33:19Z</time></trkpt><trkpt lat="45.441085351552836" lon="8.732676654560072"><ele>134.0</ele><time>2026-04-26T14:33:20Z</time></trkpt><trkpt lat="45.44112813457325" lon="8.732566974391421"><ele>134.0</ele><time>2026-04-26T14:33:21Z</time></trkpt><trkpt lat="45.44119597509969" lon="8.732450996498317"><ele>134.0</ele><time>2026-04-26T14:33:22Z</time></trkpt><trkpt lat="45.44128544472732" lon="8.732350646047605"><ele>134.25</ele><time>2026-04-26T14:33:23Z</time></trkpt><trkpt lat="45.441392383369774" lon="8.732270022135557"><ele>134.5</ele><time>2026-04-26T14:33:24Z</time></trkpt><trkpt lat="45.44151517428378" lon="8.732206231561296"><ele>134.75</ele><time>2026-04-26T14:33:25Z</time></trkpt><trkpt lat="45.44164915041236" lon="8.73213275711036"><ele>135.0</ele><time>2026-04-26T14:33:26Z</time></trkpt><trkpt lat="45.441789823283386" lon="8.732047295254985"><ele>135.0</ele><time>2026-04-26T14:33:27Z</time></trkpt><trkpt lat="45.44193819079794" lon="8.731958182313926"><ele>135.0</ele><time>2026-04-26T14:33:28Z</time></trkpt><trkpt lat="45.44209145159714" lon="8.731876477486496"><ele>135.0</ele><time>2026-04-26T14:33:29Z</time></trkpt><trkpt lat="45.44224561664427" lon="8.731800050925052"><ele>135.66666666666666</ele><time>2026-04-26T14:33:30Z</time></trkpt><trkpt lat="45.44239536979308" lon="8.73173093794605"><ele>136.33333333333331</ele><time>2026-04-26T14:33:31Z</time></trkpt><trkpt lat="45.44254786580207" lon="8.731666689805653"><ele>137.0</ele><time>2026-04-26T14:33:32Z</time></trkpt><trkpt lat="45.44269642259159" lon="8.731600206730548"><ele>137.0</ele><time>2026-04-26T14:33:33Z</time></trkpt><trkpt lat="45.44284287755284" lon="8.731530898336034"><ele>137.0</ele><time>2026-04-26T14:33:34Z</time></trkpt><trkpt lat="45.44298408173958" lon="8.731460623466177"><ele>137.0</ele><time>2026-04-26T14:33:35Z</time></trkpt><trkpt lat="45.4431238258606" lon="8.73139314398761"><ele>136.75</ele><time>2026-04-26T14:33:36Z</time></trkpt><trkpt lat="45.44326746743786" lon="8.731326017990872"><ele>136.5</ele><time>2026-04-26T14:33:37Z</time></trkpt><trkpt lat="45.44340794422654" lon="8.731259545645958"><ele>136.25</ele><time>2026-04-26T14:33:38Z</time></trkpt><trkpt lat="45.44354835466865" lon="8.731190691789369"><ele>136.0</ele><time>2026-04-26T14:33:39Z</time></trkpt><trkpt lat="45.443688872506875" lon="8.731123189550951"><ele>136.0</ele><time>2026-04-26T14:33:40Z</time></trkpt><trkpt lat="45.443831397948784" lon="8.73105605058621"><ele>136.0</ele><time>2026-04-26T14:33:41Z</time></trkpt><trkpt lat="45.44398143586367" lon="8.730986348862912"><ele>136.0</ele><time>2026-04-26T14:33:42Z</time></trkpt><trkpt lat="45.44414330728343" lon="8.730910061427217"><ele>136.0</ele><time>2026-04-26T14:33:43Z</time></trkpt><trkpt lat="45.44431323499005" lon="8.730827048640515"><ele>136.0</ele><time>2026-04-26T14:33:44Z</time></trkpt><trkpt lat="45.44448161004537" lon="8.730744243964255"><ele>136.0</ele><time>2026-04-26T14:33:45Z</time></trkpt><trkpt lat="45.44465166482514" lon="8.730659710292187"><ele>136.0</ele><time>2026-04-26T14:33:46Z</time></trkpt><trkpt lat="45.444823638886525" lon="8.730576333737902"><ele>136.0</ele><time>2026-04-26T14:33:47Z</time></trkpt><trkpt lat="45.444989920266984" lon="8.730496663054165"><ele>136.0</ele><time>2026-04-26T14:33:48Z</time></trkpt><trkpt lat="45.445152325593675" lon="8.730420855556545"><ele>136.0</ele><time>2026-04-26T14:33:49Z</time></trkpt><trkpt lat="45.44530546417137" lon="8.730347015087794"><ele>136.0</ele><time>2026-04-26T14:33:50Z</time></trkpt><trkpt lat="45.445454962838404" lon="8.730269138522612"><ele>136.0</ele><time>2026-04-26T14:33:51Z</time></trkpt><trkpt lat="45.445594535122986" lon="8.730191524824097"><ele>136.33333333333334</ele><time>2026-04-26T14:33:52Z</time></trkpt><trkpt lat="45.44573141994908" lon="8.730107385089273"><ele>136.66666666666666</ele><time>2026-04-26T14:33:53Z</time></trkpt><trkpt lat="45.445867374488294" lon="8.730016890114337"><ele>137.0</ele><time>2026-04-26T14:33:54Z</time></trkpt><trkpt lat="45.44601112250123" lon="8.729917289558356"><ele>137.0</ele><time>2026-04-26T14:33:55Z</time></trkpt><trkpt lat="45.44614491659518" lon="8.729823425230943"><ele>137.0</ele><time>2026-04-26T14:33:56Z</time></trkpt><trkpt lat="45.446318301611235" lon="8.729706773223429"><ele>137.0</ele><time>2026-04-26T14:33:57Z</time></trkpt><trkpt lat="45.44646770648451" lon="8.729597006751684"><ele>137.0</ele><time>2026-04-26T14:33:58Z</time></trkpt><trkpt lat="45.446619522626236" lon="8.729486268590843"><ele>137.0</ele><time>2026-04-26T14:33:59Z</time></trkpt><trkpt lat="45.446761925813654" lon="8.72939152924596"><ele>137.0</ele><time>2026-04-26T14:34:00Z</time></trkpt><trkpt lat="45.44690270113027" lon="8.729294527146191"><ele>137.0</ele><time>2026-04-26T14:34:01Z</time></trkpt><trkpt lat="45.447051187315346" lon="8.729194834121342"><ele>137.0</ele><time>2026-04-26T14:34:02Z</time></trkpt><trkpt lat="45.44720902093712" lon="8.729100714888773"><ele>137.0</ele><time>2026-04-26T14:34:03Z</time></trkpt><trkpt lat="45.44737240824259" lon="8.729012419069822"><ele>136.66666666666666</ele><time>2026-04-26T14:34:04Z</time></trkpt><trkpt lat="45.447541089937324" lon="8.728927034356852"><ele>136.33333333333334</ele><time>2026-04-26T14:34:05Z</time></trkpt><trkpt lat="45.44771458448676" lon="8.72885187407991"><ele>136.0</ele><time>2026-04-26T14:34:06Z</time></trkpt><trkpt lat="45.447886510408274" lon="8.728775016446214"><ele>136.66666666666669</ele><time>2026-04-26T14:34:07Z</time></trkpt><trkpt lat="45.448057237926925" lon="8.728689482054966"><ele>137.33333333333334</ele><time>2026-04-26T14:34:08Z</time></trkpt><trkpt lat="45.4482295367175" lon="8.728603874218113"><ele>138.0</ele><time>2026-04-26T14:34:09Z</time></trkpt><trkpt lat="45.44840121053053" lon="8.728519678914022"><ele>138.0</ele><time>2026-04-26T14:34:10Z</time></trkpt><trkpt lat="45.448569931805565" lon="8.728438941006706"><ele>138.0</ele><time>2026-04-26T14:34:11Z</time></trkpt><trkpt lat="45.4487392717771" lon="8.72836550283842"><ele>138.0</ele><time>2026-04-26T14:34:12Z</time></trkpt><trkpt lat="45.44890375620374" lon="8.728287813702075"><ele>138.0</ele><time>2026-04-26T14:34:13Z</time></trkpt><trkpt lat="45.449069506336464" lon="8.728209024238586"><ele>138.0</ele><time>2026-04-26T14:34:14Z</time></trkpt><trkpt lat="45.44923323091471" lon="8.728140968356596"><ele>138.0</ele><time>2026-04-26T14:34:15Z</time></trkpt><trkpt lat="45.44939094283167" lon="8.728070784919893"><ele>138.0</ele><time>2026-04-26T14:34:16Z</time></trkpt><trkpt lat="45.44954641235396" lon="8.728005221234433"><ele>138.0</ele><time>2026-04-26T14:34:17Z</time></trkpt><trkpt lat="45.44970656374809" lon="8.727934069353179"><ele>138.0</ele><time>2026-04-26T14:34:18Z</time></trkpt><trkpt lat="45.4498592887903" lon="8.72786447046491"><ele>138.66666666666666</ele><time>2026-04-26T14:34:19Z</time></trkpt><trkpt lat="45.45000957584979" lon="8.72779785334857"><ele>139.33333333333331</ele><time>2026-04-26T14:34:20Z</time></trkpt><trkpt lat="45.45016462007291" lon="8.727723534680532"><ele>140.0</ele><time>2026-04-26T14:34:21Z</time></trkpt><trkpt lat="45.45031821808856" lon="8.72766170540322"><ele>140.33333333333331</ele><time>2026-04-26T14:34:22Z</time></trkpt><trkpt lat="45.450476752372126" lon="8.727575458277201"><ele>140.66666666666666</ele><time>2026-04-26T14:34:23Z</time></trkpt><trkpt lat="45.45063133473099" lon="8.727500316408781"><ele>141.0</ele><time>2026-04-26T14:34:24Z</time></trkpt><trkpt lat="45.45078878175805" lon="8.72743486551841"><ele>141.0</ele><time>2026-04-26T14:34:25Z</time></trkpt><trkpt lat="45.45094551915224" lon="8.727371128559763"><ele>141.0</ele><time>2026-04-26T14:34:26Z</time></trkpt><trkpt lat="45.451106680650895" lon="8.727294345488932"><ele>141.0</ele><time>2026-04-26T14:34:27Z</time></trkpt><trkpt lat="45.45126916104086" lon="8.727219621957426"><ele>140.75</ele><time>2026-04-26T14:34:28Z</time></trkpt><trkpt lat="45.45142703521801" lon="8.727144778700731"><ele>140.5</ele><time>2026-04-26T14:34:29Z</time></trkpt><trkpt lat="45.451561156913215" lon="8.727088639259888"><ele>140.25</ele><time>2026-04-26T14:34:30Z</time></trkpt><trkpt lat="45.45169285594225" lon="8.72702398952239"><ele>140.0</ele><time>2026-04-26T14:34:31Z</time></trkpt><trkpt lat="45.45181260945731" lon="8.726952781183998"><ele>139.8</ele><time>2026-04-26T14:34:32Z</time></trkpt><trkpt lat="45.45192196331817" lon="8.726867371610872"><ele>139.6</ele><time>2026-04-26T14:34:33Z</time></trkpt><trkpt lat="45.452016949229815" lon="8.726778609744517"><ele>139.4</ele><time>2026-04-26T14:34:34Z</time></trkpt><trkpt lat="45.45210282309566" lon="8.726723227025282"><ele>139.2</ele><time>2026-04-26T14:34:35Z</time></trkpt><trkpt lat="45.45216827571925" lon="8.726661850727488"><ele>139.0</ele><time>2026-04-26T14:34:36Z</time></trkpt><trkpt lat="45.45228086165997" lon="8.726608093948476"><ele>139.5</ele><time>2026-04-26T14:34:38Z</time></trkpt><trkpt lat="45.45242303040403" lon="8.72658799296063"><ele>140.0</ele><time>2026-04-26T14:34:40Z</time></trkpt><trkpt lat="45.45250910070607" lon="8.726566031412068"><ele>140.5</ele><time>2026-04-26T14:34:41Z</time></trkpt><trkpt lat="45.45260708578424" lon="8.726516656568037"><ele>141.0</ele><time>2026-04-26T14:34:42Z</time></trkpt><trkpt lat="45.45272105815034" lon="8.7264479564152"><ele>141.0</ele><time>2026-04-26T14:34:43Z</time></trkpt><trkpt lat="45.45284950521231" lon="8.726370713530269"><ele>141.0</ele><time>2026-04-26T14:34:44Z</time></trkpt><trkpt lat="45.45297968373101" lon="8.726297873810063"><ele>141.0</ele><time>2026-04-26T14:34:45Z</time></trkpt><trkpt lat="45.453108244212466" lon="8.726223185754167"><ele>141.0</ele><time>2026-04-26T14:34:46Z</time></trkpt><trkpt lat="45.45323320198419" lon="8.726149874063116"><ele>141.0</ele><time>2026-04-26T14:34:47Z</time></trkpt><trkpt lat="45.4533545631841" lon="8.726073169764074"><ele>141.0</ele><time>2026-04-26T14:34:48Z</time></trkpt><trkpt lat="45.45347951984129" lon="8.726001691891604"><ele>141.0</ele><time>2026-04-26T14:34:49Z</time></trkpt><trkpt lat="45.45360652890946" lon="8.725933703852112"><ele>141.0</ele><time>2026-04-26T14:34:50Z</time></trkpt><trkpt lat="45.45373614062345" lon="8.725867884705753"><ele>140.5</ele><time>2026-04-26T14:34:51Z</time></trkpt><trkpt lat="45.453869086141424" lon="8.725799853141883"><ele>140.0</ele><time>2026-04-26T14:34:52Z</time></trkpt><trkpt lat="45.454006787498905" lon="8.725750051326258"><ele>139.5</ele><time>2026-04-26T14:34:53Z</time></trkpt><trkpt lat="45.45414287823927" lon="8.725695795872522"><ele>139.0</ele><time>2026-04-26T14:34:54Z</time></trkpt><trkpt lat="45.454278353478706" lon="8.725641711868112"><ele>139.0</ele><time>2026-04-26T14:34:55Z</time></trkpt><trkpt lat="45.45441749002245" lon="8.725584102505223"><ele>139.0</ele><time>2026-04-26T14:34:56Z</time></trkpt><trkpt lat="45.454550576760184" lon="8.725536194644786"><ele>139.0</ele><time>2026-04-26T14:34:57Z</time></trkpt><trkpt lat="45.45467267285635" lon="8.725495317036637"><ele>139.0</ele><time>2026-04-26T14:34:58Z</time></trkpt><trkpt lat="45.45478269364527" lon="8.725461620316631"><ele>139.0</ele><time>2026-04-26T14:34:59Z</time></trkpt><trkpt lat="45.454886961555054" lon="8.725441616851723"><ele>139.0</ele><time>2026-04-26T14:35:00Z</time></trkpt><trkpt lat="45.454981264441486" lon="8.725433463644007"><ele>139.0</ele><time>2026-04-26T14:35:01Z</time></trkpt><trkpt lat="45.45507290304555" lon="8.725428389429355"><ele>139.0</ele><time>2026-04-26T14:35:02Z</time></trkpt><trkpt lat="45.45515217312954" lon="8.725433880274684"><ele>139.0</ele><time>2026-04-26T14:35:03Z</time></trkpt><trkpt lat="45.455228259553806" lon="8.7254512865131"><ele>139.0</ele><time>2026-04-26T14:35:04Z</time></trkpt><trkpt lat="45.45530956867173" lon="8.725464996750997"><ele>139.0</ele><time>2026-04-26T14:35:05Z</time></trkpt><trkpt lat="45.45539232071552" lon="8.725543339423965"><ele>139.0</ele><time>2026-04-26T14:35:06Z</time></trkpt><trkpt lat="45.455465537494696" lon="8.725569563065013"><ele>139.0</ele><time>2026-04-26T14:35:07Z</time></trkpt><trkpt lat="45.45558460627344" lon="8.725580403326648"><ele>139.0</ele><time>2026-04-26T14:35:08Z</time></trkpt><trkpt lat="45.455694153271146" lon="8.72558682373641"><ele>139.0</ele><time>2026-04-26T14:35:09Z</time></trkpt><trkpt lat="45.45580103858129" lon="8.725628880742427"><ele>139.25</ele><time>2026-04-26T14:35:10Z</time></trkpt><trkpt lat="45.455912555916896" lon="8.725693984743234"><ele>139.5</ele><time>2026-04-26T14:35:11Z</time></trkpt><trkpt lat="45.45602894521918" lon="8.72577763379371"><ele>139.75</ele><time>2026-04-26T14:35:12Z</time></trkpt><trkpt lat="45.456151391002" lon="8.725864883989479"><ele>140.0</ele><time>2026-04-26T14:35:13Z</time></trkpt><trkpt lat="45.45627149720385" lon="8.725944516361798"><ele>140.0</ele><time>2026-04-26T14:35:14Z</time></trkpt><trkpt lat="45.45638009176102" lon="8.72602015495507"><ele>140.0</ele><time>2026-04-26T14:35:15Z</time></trkpt><trkpt lat="45.45648014201163" lon="8.726093114150567"><ele>140.0</ele><time>2026-04-26T14:35:16Z</time></trkpt><trkpt lat="45.456575361528444" lon="8.726177877145439"><ele>140.0</ele><time>2026-04-26T14:35:17Z</time></trkpt><trkpt lat="45.456663359907246" lon="8.726264743058401"><ele>140.0</ele><time>2026-04-26T14:35:18Z</time></trkpt><trkpt lat="45.45674814198837" lon="8.726359919660288"><ele>140.0</ele><time>2026-04-26T14:35:19Z</time></trkpt><trkpt lat="45.45682933866785" lon="8.726470384021997"><ele>140.0</ele><time>2026-04-26T14:35:20Z</time></trkpt><trkpt lat="45.45690027485257" lon="8.72659275916695"><ele>140.0</ele><time>2026-04-26T14:35:21Z</time></trkpt><trkpt lat="45.45695919906509" lon="8.726729368906192"><ele>140.0</ele><time>2026-04-26T14:35:22Z</time></trkpt><trkpt lat="45.45701159939982" lon="8.72688173378296"><ele>140.25</ele><time>2026-04-26T14:35:23Z</time></trkpt><trkpt lat="45.45705781833506" lon="8.727045570807809"><ele>140.5</ele><time>2026-04-26T14:35:24Z</time></trkpt><trkpt lat="45.457104683548344" lon="8.727219335102948"><ele>140.75</ele><time>2026-04-26T14:35:25Z</time></trkpt><trkpt lat="45.457156423619466" lon="8.727405024501927"><ele>141.0</ele><time>2026-04-26T14:35:26Z</time></trkpt><trkpt lat="45.45720841603664" lon="8.72759731183602"><ele>141.0</ele><time>2026-04-26T14:35:27Z</time></trkpt><trkpt lat="45.45725938277397" lon="8.72779307526772"><ele>141.0</ele><time>2026-04-26T14:35:28Z</time></trkpt><trkpt lat="45.457312914313654" lon="8.727994851401961"><ele>141.0</ele><time>2026-04-26T14:35:29Z</time></trkpt><trkpt lat="45.45736820163163" lon="8.728187161697486"><ele>141.0</ele><time>2026-04-26T14:35:30Z</time></trkpt><trkpt lat="45.457419483504225" lon="8.728366877232029"><ele>141.0</ele><time>2026-04-26T14:35:31Z</time></trkpt><trkpt lat="45.457467590598206" lon="8.728539994305235"><ele>141.0</ele><time>2026-04-26T14:35:32Z</time></trkpt><trkpt lat="45.4575189652659" lon="8.728709613284414"><ele>141.0</ele><time>2026-04-26T14:35:33Z</time></trkpt><trkpt lat="45.45756643683802" lon="8.728892648259027"><ele>141.0</ele><time>2026-04-26T14:35:34Z</time></trkpt><trkpt lat="45.457615667790094" lon="8.729085804587898"><ele>141.0</ele><time>2026-04-26T14:35:35Z</time></trkpt><trkpt lat="45.4576678648081" lon="8.729289399151906"><ele>141.0</ele><time>2026-04-26T14:35:36Z</time></trkpt><trkpt lat="45.457722691393194" lon="8.729492894925976"><ele>141.0</ele><time>2026-04-26T14:35:37Z</time></trkpt><trkpt lat="45.45778151106593" lon="8.729697037801348"><ele>141.0</ele><time>2026-04-26T14:35:38Z</time></trkpt><trkpt lat="45.45783676767087" lon="8.729890308910543"><ele>141.0</ele><time>2026-04-26T14:35:39Z</time></trkpt><trkpt lat="45.4578855679477" lon="8.730086768132582"><ele>141.0</ele><time>2026-04-26T14:35:40Z</time></trkpt><trkpt lat="45.45793137223842" lon="8.73028991111667"><ele>141.0</ele><time>2026-04-26T14:35:41Z</time></trkpt><trkpt lat="45.45797019833523" lon="8.730500719132188"><ele>141.0</ele><time>2026-04-26T14:35:42Z</time></trkpt><trkpt lat="45.458009295889234" lon="8.73071878458608"><ele>141.0</ele><time>2026-04-26T14:35:43Z</time></trkpt><trkpt lat="45.45805085277215" lon="8.730940016260387"><ele>141.0</ele><time>2026-04-26T14:35:44Z</time></trkpt><trkpt lat="45.45808970034347" lon="8.731155077117355"><ele>141.0</ele><time>2026-04-26T14:35:45Z</time></trkpt><trkpt lat="45.45813246216912" lon="8.731375396731597"><ele>141.0</ele><time>2026-04-26T14:35:46Z</time></trkpt><trkpt lat="45.45817390610498" lon="8.731594986380342"><ele>141.0</ele><time>2026-04-26T14:35:47Z</time></trkpt><trkpt lat="45.45821437246098" lon="8.731817580160698"><ele>141.33333333333334</ele><time>2026-04-26T14:35:48Z</time></trkpt><trkpt lat="45.458254909800495" lon="8.732040461738174"><ele>141.66666666666669</ele><time>2026-04-26T14:35:49Z</time></trkpt><trkpt lat="45.458293913397306" lon="8.732258162385948"><ele>142.0</ele><time>2026-04-26T14:35:50Z</time></trkpt><trkpt lat="45.4583353774334" lon="8.732464288980259"><ele>142.0</ele><time>2026-04-26T14:35:51Z</time></trkpt><trkpt lat="45.45837561560273" lon="8.73265407049803"><ele>142.0</ele><time>2026-04-26T14:35:52Z</time></trkpt><trkpt lat="45.45841932108894" lon="8.732834336074811"><ele>142.0</ele><time>2026-04-26T14:35:53Z</time></trkpt><trkpt lat="45.45846927585457" lon="8.732997189210462"><ele>142.0</ele><time>2026-04-26T14:35:54Z</time></trkpt><trkpt lat="45.45853347509783" lon="8.733141590520464"><ele>142.0</ele><time>2026-04-26T14:35:55Z</time></trkpt><trkpt lat="45.45860770090602" lon="8.733282839808048"><ele>142.0</ele><time>2026-04-26T14:35:56Z</time></trkpt><trkpt lat="45.45870426166249" lon="8.733408806198629"><ele>142.0</ele><time>2026-04-26T14:35:57Z</time></trkpt><trkpt lat="45.45881376159349" lon="8.73350672760494"><ele>142.0</ele><time>2026-04-26T14:35:58Z</time></trkpt><trkpt lat="45.45894072800993" lon="8.733584135889135"><ele>141.75</ele><time>2026-04-26T14:35:59Z</time></trkpt><trkpt lat="45.45907133816584" lon="8.733630443863047"><ele>141.5</ele><time>2026-04-26T14:36:00Z</time></trkpt><trkpt lat="45.45920765743326" lon="8.733651225107279"><ele>141.25</ele><time>2026-04-26T14:36:01Z</time></trkpt><trkpt lat="45.459346956107964" lon="8.733639164631024"><ele>141.0</ele><time>2026-04-26T14:36:02Z</time></trkpt><trkpt lat="45.45948967148046" lon="8.73359983443584"><ele>141.0</ele><time>2026-04-26T14:36:03Z</time></trkpt><trkpt lat="45.45963331348577" lon="8.733544170078526"><ele>141.0</ele><time>2026-04-26T14:36:04Z</time></trkpt><trkpt lat="45.45977782057466" lon="8.73348433144879"><ele>141.0</ele><time>2026-04-26T14:36:05Z</time></trkpt><trkpt lat="45.45992116830626" lon="8.73342964099693"><ele>141.0</ele><time>2026-04-26T14:36:06Z</time></trkpt><trkpt lat="45.460069615146566" lon="8.733366006324102"><ele>141.0</ele><time>2026-04-26T14:36:07Z</time></trkpt><trkpt lat="45.460222004300654" lon="8.73330830977426"><ele>141.0</ele><time>2026-04-26T14:36:08Z</time></trkpt><trkpt lat="45.460372934881846" lon="8.73324087219097"><ele>141.0</ele><time>2026-04-26T14:36:09Z</time></trkpt><trkpt lat="45.460511324430456" lon="8.733183771837655"><ele>141.0</ele><time>2026-04-26T14:36:10Z</time></trkpt><trkpt lat="45.460639811266724" lon="8.733135076658565"><ele>141.0</ele><time>2026-04-26T14:36:11Z</time></trkpt><trkpt lat="45.460769145051245" lon="8.733084910927401"><ele>141.0</ele><time>2026-04-26T14:36:12Z</time></trkpt><trkpt lat="45.46089330005548" lon="8.733036011281694"><ele>141.0</ele><time>2026-04-26T14:36:13Z</time></trkpt><trkpt lat="45.46101606986424" lon="8.732989370580006"><ele>141.0</ele><time>2026-04-26T14:36:14Z</time></trkpt><trkpt lat="45.46114009518749" lon="8.732938816618493"><ele>141.0</ele><time>2026-04-26T14:36:15Z</time></trkpt><trkpt lat="45.461266364496" lon="8.732887828845254"><ele>141.0</ele><time>2026-04-26T14:36:16Z</time></trkpt><trkpt lat="45.46139721544748" lon="8.732832925691095"><ele>141.0</ele><time>2026-04-26T14:36:17Z</time></trkpt><trkpt lat="45.461526353088345" lon="8.732778190631622"><ele>141.5</ele><time>2026-04-26T14:36:18Z</time></trkpt><trkpt lat="45.46166008191173" lon="8.73272075406918"><ele>142.0</ele><time>2026-04-26T14:36:19Z</time></trkpt><trkpt lat="45.46179747525818" lon="8.73266789825439"><ele>142.5</ele><time>2026-04-26T14:36:20Z</time></trkpt><trkpt lat="45.46193327191759" lon="8.73261357379857"><ele>143.0</ele><time>2026-04-26T14:36:21Z</time></trkpt><trkpt lat="45.462072286653395" lon="8.732555462748948"><ele>143.0</ele><time>2026-04-26T14:36:22Z</time></trkpt><trkpt lat="45.46221183842707" lon="8.732496167614984"><ele>143.0</ele><time>2026-04-26T14:36:23Z</time></trkpt><trkpt lat="45.462354944843256" lon="8.732438118195311"><ele>143.0</ele><time>2026-04-26T14:36:24Z</time></trkpt><trkpt lat="45.46250068040795" lon="8.73238219190626"><ele>143.0</ele><time>2026-04-26T14:36:25Z</time></trkpt><trkpt lat="45.46264260591362" lon="8.732326352362152"><ele>143.0</ele><time>2026-04-26T14:36:26Z</time></trkpt><trkpt lat="45.46278234075936" lon="8.73226741986125"><ele>143.0</ele><time>2026-04-26T14:36:27Z</time></trkpt><trkpt lat="45.462931446769005" lon="8.732209900293189"><ele>143.0</ele><time>2026-04-26T14:36:28Z</time></trkpt><trkpt lat="45.46307603361599" lon="8.732150197237669"><ele>143.25</ele><time>2026-04-26T14:36:29Z</time></trkpt><trkpt lat="45.46321699976151" lon="8.732092603564624"><ele>143.5</ele><time>2026-04-26T14:36:30Z</time></trkpt><trkpt lat="45.46335051023593" lon="8.7320368300455"><ele>143.75</ele><time>2026-04-26T14:36:31Z</time></trkpt><trkpt lat="45.46347861582484" lon="8.731986113408595"><ele>144.0</ele><time>2026-04-26T14:36:32Z</time></trkpt><trkpt lat="45.463595745052295" lon="8.731939616447129"><ele>144.0</ele><time>2026-04-26T14:36:33Z</time></trkpt><trkpt lat="45.46370466688559" lon="8.731893463464116"><ele>144.0</ele><time>2026-04-26T14:36:34Z</time></trkpt><trkpt lat="45.463807129024126" lon="8.731851286267128"><ele>144.0</ele><time>2026-04-26T14:36:35Z</time></trkpt><trkpt lat="45.46390208201061" lon="8.73181178565302"><ele>144.0</ele><time>2026-04-26T14:36:36Z</time></trkpt><trkpt lat="45.46399134497626" lon="8.731771079703265"><ele>144.0</ele><time>2026-04-26T14:36:37Z</time></trkpt><trkpt lat="45.46407614986837" lon="8.731728451119931"><ele>143.83333333333334</ele><time>2026-04-26T14:36:38Z</time></trkpt><trkpt lat="45.46416570104205" lon="8.731692475969501"><ele>143.66666666666666</ele><time>2026-04-26T14:36:39Z</time></trkpt><trkpt lat="45.46425994832833" lon="8.73165867799927"><ele>143.5</ele><time>2026-04-26T14:36:40Z</time></trkpt><trkpt lat="45.46434399526817" lon="8.731624463221108"><ele>143.33333333333331</ele><time>2026-04-26T14:36:41Z</time></trkpt><trkpt lat="45.46441705845772" lon="8.731598165178319"><ele>143.16666666666666</ele><time>2026-04-26T14:36:42Z</time></trkpt><trkpt lat="45.46448361100163" lon="8.731589758807555"><ele>143.0</ele><time>2026-04-26T14:36:43Z</time></trkpt><trkpt lat="45.46454773044478" lon="8.73160458127095"><ele>143.0</ele><time>2026-04-26T14:36:44Z</time></trkpt><trkpt lat="45.46465330088652" lon="8.731589898765325"><ele>143.0</ele><time>2026-04-26T14:36:46Z</time></trkpt><trkpt lat="45.46466933859206" lon="8.731454610984043"><ele>143.0</ele><time>2026-04-26T14:36:48Z</time></trkpt><trkpt lat="45.46456909038495" lon="8.731380444259779"><ele>143.0</ele><time>2026-04-26T14:36:50Z</time></trkpt><trkpt lat="45.46447166726413" lon="8.73149965489011"><ele>143.0</ele><time>2026-04-26T14:36:52Z</time></trkpt><trkpt lat="45.46440943013073" lon="8.73156027328618"><ele>143.0</ele><time>2026-04-26T14:36:53Z</time></trkpt><trkpt lat="45.464325435581856" lon="8.731598841541034"><ele>143.0</ele><time>2026-04-26T14:36:54Z</time></trkpt><trkpt lat="45.46422771532923" lon="8.731637051045718"><ele>143.0</ele><time>2026-04-26T14:36:55Z</time></trkpt><trkpt lat="45.46411898615287" lon="8.731678985917032"><ele>143.0</ele><time>2026-04-26T14:36:56Z</time></trkpt><trkpt lat="45.46401297998284" lon="8.731719548715054"><ele>143.0</ele><time>2026-04-26T14:36:57Z</time></trkpt><trkpt lat="45.463906579491734" lon="8.731761276060336"><ele>143.0</ele><time>2026-04-26T14:36:58Z</time></trkpt><trkpt lat="45.46379264783421" lon="8.731806789053346"><ele>143.0</ele><time>2026-04-26T14:36:59Z</time></trkpt><trkpt lat="45.463678966983515" lon="8.731850924382858"><ele>143.0</ele><time>2026-04-26T14:37:00Z</time></trkpt><trkpt lat="45.4635597578165" lon="8.731896021806735"><ele>143.0</ele><time>2026-04-26T14:37:01Z</time></trkpt><trkpt lat="45.463434028610656" lon="8.731945908710019"><ele>143.0</ele><time>2026-04-26T14:37:02Z</time></trkpt><trkpt lat="45.4633122867797" lon="8.73199857878561"><ele>143.0</ele><time>2026-04-26T14:37:03Z</time></trkpt><trkpt lat="45.463190505110724" lon="8.732050608015658"><ele>143.0</ele><time>2026-04-26T14:37:04Z</time></trkpt><trkpt lat="45.463065308465026" lon="8.732106673670767"><ele>143.0</ele><time>2026-04-26T14:37:05Z</time></trkpt><trkpt lat="45.46294371485502" lon="8.732157045060644"><ele>143.0</ele><time>2026-04-26T14:37:06Z</time></trkpt><trkpt lat="45.462816510488906" lon="8.732212480512034"><ele>143.0</ele><time>2026-04-26T14:37:07Z</time></trkpt><trkpt lat="45.462685838353565" lon="8.732269530947082"><ele>143.0</ele><time>2026-04-26T14:37:08Z</time></trkpt><trkpt lat="45.46255502606207" lon="8.732319686613707"><ele>143.0</ele><time>2026-04-26T14:37:09Z</time></trkpt><trkpt lat="45.462420148753566" lon="8.732375037077118"><ele>143.0</ele><time>2026-04-26T14:37:10Z</time></trkpt><trkpt lat="45.462285043485366" lon="8.732433643440665"><ele>143.0</ele><time>2026-04-26T14:37:11Z</time></trkpt><trkpt lat="45.462143901143" lon="8.732488344468857"><ele>143.0</ele><time>2026-04-26T14:37:12Z</time></trkpt><trkpt lat="45.46199877595242" lon="8.732545674131993"><ele>143.0</ele><time>2026-04-26T14:37:13Z</time></trkpt><trkpt lat="45.46185728537892" lon="8.732599371939335"><ele>143.0</ele><time>2026-04-26T14:37:14Z</time></trkpt><trkpt lat="45.46171112465151" lon="8.73265705197481"><ele>143.0</ele><time>2026-04-26T14:37:15Z</time></trkpt><trkpt lat="45.461562262586874" lon="8.732720159752496"><ele>143.0</ele><time>2026-04-26T14:37:16Z</time></trkpt><trkpt lat="45.46142205904336" lon="8.732779562179115"><ele>142.5</ele><time>2026-04-26T14:37:17Z</time></trkpt><trkpt lat="45.46128228238152" lon="8.732837045939268"><ele>142.0</ele><time>2026-04-26T14:37:18Z</time></trkpt><trkpt lat="45.46113986002969" lon="8.73289120013094"><ele>141.5</ele><time>2026-04-26T14:37:19Z</time></trkpt><trkpt lat="45.46100281586409" lon="8.732944133651465"><ele>141.0</ele><time>2026-04-26T14:37:20Z</time></trkpt><trkpt lat="45.460869807536625" lon="8.733002857714157"><ele>141.0</ele><time>2026-04-26T14:37:21Z</time></trkpt><trkpt lat="45.46074040069703" lon="8.73306344552604"><ele>141.0</ele><time>2026-04-26T14:37:22Z</time></trkpt><trkpt lat="45.460608239554844" lon="8.733120675197648"><ele>141.0</ele><time>2026-04-26T14:37:23Z</time></trkpt><trkpt lat="45.46047737258527" lon="8.733172253094384"><ele>141.0</ele><time>2026-04-26T14:37:24Z</time></trkpt><trkpt lat="45.46034967161702" lon="8.733220631725162"><ele>141.0</ele><time>2026-04-26T14:37:25Z</time></trkpt><trkpt lat="45.4602288672451" lon="8.733266948244166"><ele>141.0</ele><time>2026-04-26T14:37:26Z</time></trkpt><trkpt lat="45.4601171486425" lon="8.733312079476708"><ele>141.0</ele><time>2026-04-26T14:37:27Z</time></trkpt><trkpt lat="45.46001336664019" lon="8.733356256581994"><ele>141.0</ele><time>2026-04-26T14:37:28Z</time></trkpt><trkpt lat="45.45992792475471" lon="8.733392658878707"><ele>141.0</ele><time>2026-04-26T14:37:29Z</time></trkpt><trkpt lat="45.45985511221054" lon="8.733421497839007"><ele>141.0</ele><time>2026-04-26T14:37:30Z</time></trkpt><trkpt lat="45.45975059924133" lon="8.733461079651766"><ele>141.0</ele><time>2026-04-26T14:37:32Z</time></trkpt><trkpt lat="45.45966582305247" lon="8.73349502538672"><ele>141.0</ele><time>2026-04-26T14:37:35Z</time></trkpt><trkpt lat="45.459572753037186" lon="8.73353177974575"><ele>141.0</ele><time>2026-04-26T14:37:37Z</time></trkpt><trkpt lat="45.45947771617555" lon="8.733565184574045"><ele>141.0</ele><time>2026-04-26T14:37:39Z</time></trkpt><trkpt lat="45.45935743730423" lon="8.73359618534877"><ele>141.0</ele><time>2026-04-26T14:37:41Z</time></trkpt><trkpt lat="45.45923962564185" lon="8.733609731244188"><ele>141.0</ele><time>2026-04-26T14:37:43Z</time></trkpt><trkpt lat="45.459126676110984" lon="8.733606502023694"><ele>141.0</ele><time>2026-04-26T14:37:45Z</time></trkpt><trkpt lat="45.45904003055293" lon="8.733583861408913"><ele>141.0</ele><time>2026-04-26T14:37:47Z</time></trkpt><trkpt lat="45.45893084786808" lon="8.733539439170162"><ele>141.0</ele><time>2026-04-26T14:37:49Z</time></trkpt><trkpt lat="45.45884453415929" lon="8.73348212486385"><ele>141.0</ele><time>2026-04-26T14:37:51Z</time></trkpt><trkpt lat="45.45876544725752" lon="8.733431514036134"><ele>141.0</ele><time>2026-04-26T14:37:53Z</time></trkpt><trkpt lat="45.458588728156485" lon="8.73390014342"><ele>141.0</ele><time>2026-04-26T14:37:55Z</time></trkpt><trkpt lat="45.45858318438229" lon="8.73406259482726"><ele>141.0</ele><time>2026-04-26T14:37:57Z</time></trkpt><trkpt lat="45.4586012577023" lon="8.734164313502404"><ele>141.0</ele><time>2026-04-26T14:37:58Z</time></trkpt><trkpt lat="45.45862725485637" lon="8.734276980071492"><ele>141.0</ele><time>2026-04-26T14:37:59Z</time></trkpt><trkpt lat="45.4586494394091" lon="8.734378888434003"><ele>141.0</ele><time>2026-04-26T14:38:00Z</time></trkpt><trkpt lat="45.45866727991755" lon="8.734475693782468"><ele>141.0</ele><time>2026-04-26T14:38:01Z</time></trkpt><trkpt lat="45.45868505180768" lon="8.734585782206363"><ele>141.0</ele><time>2026-04-26T14:38:02Z</time></trkpt><trkpt lat="45.45870510651377" lon="8.73470101651538"><ele>141.0</ele><time>2026-04-26T14:38:03Z</time></trkpt><trkpt lat="45.458723826820325" lon="8.734811615752774"><ele>141.0</ele><time>2026-04-26T14:38:04Z</time></trkpt><trkpt lat="45.45874584577465" lon="8.734920903284333"><ele>141.0</ele><time>2026-04-26T14:38:05Z</time></trkpt><trkpt lat="45.458768236366524" lon="8.735035175074033"><ele>141.0</ele><time>2026-04-26T14:38:06Z</time></trkpt><trkpt lat="45.458792864209066" lon="8.735165955783417"><ele>141.0</ele><time>2026-04-26T14:38:07Z</time></trkpt><trkpt lat="45.45881659001517" lon="8.735284740315224"><ele>141.0</ele><time>2026-04-26T14:38:08Z</time></trkpt><trkpt lat="45.458842676722576" lon="8.735403671717163"><ele>141.0</ele><time>2026-04-26T14:38:09Z</time></trkpt><trkpt lat="45.458868780142936" lon="8.73552564492685"><ele>141.0</ele><time>2026-04-26T14:38:10Z</time></trkpt><trkpt lat="45.458891792364575" lon="8.735658224122847"><ele>141.0</ele><time>2026-04-26T14:38:11Z</time></trkpt><trkpt lat="45.458916219579294" lon="8.735790468629704"><ele>141.0</ele><time>2026-04-26T14:38:12Z</time></trkpt><trkpt lat="45.45893950613727" lon="8.735914712594102"><ele>141.0</ele><time>2026-04-26T14:38:13Z</time></trkpt><trkpt lat="45.45896257117559" lon="8.736044752314609"><ele>141.0</ele><time>2026-04-26T14:38:14Z</time></trkpt><trkpt lat="45.45898365649898" lon="8.736175452520914"><ele>141.0</ele><time>2026-04-26T14:38:15Z</time></trkpt><trkpt lat="45.45900271791357" lon="8.736303270635327"><ele>141.0</ele><time>2026-04-26T14:38:16Z</time></trkpt><trkpt lat="45.45902073813756" lon="8.736429931571347"><ele>141.0</ele><time>2026-04-26T14:38:17Z</time></trkpt><trkpt lat="45.45904101654456" lon="8.736567467770245"><ele>141.0</ele><time>2026-04-26T14:38:18Z</time></trkpt><trkpt lat="45.459061806507634" lon="8.736699176767562"><ele>141.0</ele><time>2026-04-26T14:38:19Z</time></trkpt><trkpt lat="45.459082357165904" lon="8.736839052615945"><ele>141.0</ele><time>2026-04-26T14:38:20Z</time></trkpt><trkpt lat="45.45910020398539" lon="8.736968149334256"><ele>141.0</ele><time>2026-04-26T14:38:21Z</time></trkpt><trkpt lat="45.45911819069042" lon="8.737099413654553"><ele>141.0</ele><time>2026-04-26T14:38:22Z</time></trkpt><trkpt lat="45.45913633243503" lon="8.737242284093133"><ele>141.0</ele><time>2026-04-26T14:38:23Z</time></trkpt><trkpt lat="45.45915710727041" lon="8.737394040233326"><ele>141.0</ele><time>2026-04-26T14:38:24Z</time></trkpt><trkpt lat="45.459174213547044" lon="8.737548980641968"><ele>141.0</ele><time>2026-04-26T14:38:25Z</time></trkpt><trkpt lat="45.459191048256805" lon="8.737696654131657"><ele>141.0</ele><time>2026-04-26T14:38:26Z</time></trkpt><trkpt lat="45.45921050617234" lon="8.73784371996443"><ele>141.0</ele><time>2026-04-26T14:38:27Z</time></trkpt><trkpt lat="45.45922688734365" lon="8.737981670580247"><ele>141.0</ele><time>2026-04-26T14:38:28Z</time></trkpt><trkpt lat="45.459240356763026" lon="8.738109423484698"><ele>141.0</ele><time>2026-04-26T14:38:29Z</time></trkpt><trkpt lat="45.459250792971304" lon="8.738228412515396"><ele>141.0</ele><time>2026-04-26T14:38:30Z</time></trkpt><trkpt lat="45.45925577117141" lon="8.738336766668173"><ele>141.0</ele><time>2026-04-26T14:38:31Z</time></trkpt><trkpt lat="45.4592594479099" lon="8.738439839710995"><ele>141.0</ele><time>2026-04-26T14:38:32Z</time></trkpt><trkpt lat="45.459254092473806" lon="8.738565433569335"><ele>141.0</ele><time>2026-04-26T14:38:33Z</time></trkpt><trkpt lat="45.45924248758393" lon="8.738697209507606"><ele>141.0</ele><time>2026-04-26T14:38:34Z</time></trkpt><trkpt lat="45.459228498792484" lon="8.738833045668782"><ele>141.0</ele><time>2026-04-26T14:38:35Z</time></trkpt><trkpt lat="45.45921128029497" lon="8.73895633392409"><ele>141.0</ele><time>2026-04-26T14:38:36Z</time></trkpt><trkpt lat="45.45919871021931" lon="8.739069625691812"><ele>141.0</ele><time>2026-04-26T14:38:37Z</time></trkpt><trkpt lat="45.45919825279171" lon="8.739195106552852"><ele>141.0</ele><time>2026-04-26T14:38:38Z</time></trkpt><trkpt lat="45.459208075869604" lon="8.739323129047554"><ele>141.0</ele><time>2026-04-26T14:38:39Z</time></trkpt><trkpt lat="45.459226305776056" lon="8.739462368555902"><ele>141.0</ele><time>2026-04-26T14:38:40Z</time></trkpt><trkpt lat="45.45924584241918" lon="8.739603510561691"><ele>141.0</ele><time>2026-04-26T14:38:41Z</time></trkpt><trkpt lat="45.459265687432854" lon="8.73974192310742"><ele>141.0</ele><time>2026-04-26T14:38:42Z</time></trkpt><trkpt lat="45.45929017241489" lon="8.739873793735022"><ele>141.0</ele><time>2026-04-26T14:38:43Z</time></trkpt><trkpt lat="45.459314376557664" lon="8.740011669814518"><ele>141.0</ele><time>2026-04-26T14:38:44Z</time></trkpt><trkpt lat="45.45933691498626" lon="8.740155570591961"><ele>141.0</ele><time>2026-04-26T14:38:45Z</time></trkpt><trkpt lat="45.459357333455095" lon="8.740286374724887"><ele>141.0</ele><time>2026-04-26T14:38:46Z</time></trkpt><trkpt lat="45.45937627189256" lon="8.74040853376041"><ele>141.0</ele><time>2026-04-26T14:38:47Z</time></trkpt><trkpt lat="45.45939947700881" lon="8.740529795032874"><ele>141.0</ele><time>2026-04-26T14:38:48Z</time></trkpt><trkpt lat="45.45942218039376" lon="8.740649815683696"><ele>141.0</ele><time>2026-04-26T14:38:49Z</time></trkpt><trkpt lat="45.459448642732575" lon="8.740765722705124"><ele>141.0</ele><time>2026-04-26T14:38:50Z</time></trkpt><trkpt lat="45.459478752170504" lon="8.740879785803143"><ele>141.0</ele><time>2026-04-26T14:38:51Z</time></trkpt><trkpt lat="45.45951083139893" lon="8.74100196365577"><ele>141.0</ele><time>2026-04-26T14:38:52Z</time></trkpt><trkpt lat="45.45954550108963" lon="8.74111932800027"><ele>141.0</ele><time>2026-04-26T14:38:53Z</time></trkpt><trkpt lat="45.45958420644461" lon="8.741225467183845"><ele>141.0</ele><time>2026-04-26T14:38:54Z</time></trkpt><trkpt lat="45.45962450966041" lon="8.741316508444912"><ele>141.0</ele><time>2026-04-26T14:38:55Z</time></trkpt><trkpt lat="45.45967653290789" lon="8.741412640393632"><ele>141.0</ele><time>2026-04-26T14:38:56Z</time></trkpt><trkpt lat="45.459735788342336" lon="8.74150495810993"><ele>141.0</ele><time>2026-04-26T14:38:57Z</time></trkpt><trkpt lat="45.459798284624576" lon="8.741577082615699"><ele>141.0</ele><time>2026-04-26T14:38:58Z</time></trkpt><trkpt lat="45.45986311855684" lon="8.741648839102613"><ele>141.0</ele><time>2026-04-26T14:38:59Z</time></trkpt><trkpt lat="45.459908588693565" lon="8.74171796472297"><ele>141.0</ele><time>2026-04-26T14:39:00Z</time></trkpt><trkpt lat="45.45994496992004" lon="8.741802626533152"><ele>141.0</ele><time>2026-04-26T14:39:01Z</time></trkpt><trkpt lat="45.459969318464324" lon="8.741902009432156"><ele>141.0</ele><time>2026-04-26T14:39:02Z</time></trkpt><trkpt lat="45.45998527932761" lon="8.742017198196606"><ele>141.2</ele><time>2026-04-26T14:39:03Z</time></trkpt><trkpt lat="45.45999463769352" lon="8.742123396656865"><ele>141.39999999999998</ele><time>2026-04-26T14:39:04Z</time></trkpt><trkpt lat="45.460001346075266" lon="8.74221908886887"><ele>141.6</ele><time>2026-04-26T14:39:05Z</time></trkpt><trkpt lat="45.46001531968561" lon="8.74235942769802"><ele>141.79999999999998</ele><time>2026-04-26T14:39:07Z</time></trkpt><trkpt lat="45.46010536584528" lon="8.742395494240048"><ele>142.0</ele><time>2026-04-26T14:39:10Z</time></trkpt><trkpt lat="45.46022257657199" lon="8.742337849138957"><ele>142.0</ele><time>2026-04-26T14:39:12Z</time></trkpt><trkpt lat="45.46030067086497" lon="8.742316691465636"><ele>142.0</ele><time>2026-04-26T14:39:13Z</time></trkpt><trkpt lat="45.46037545601436" lon="8.742276368982253"><ele>142.0</ele><time>2026-04-26T14:39:14Z</time></trkpt><trkpt lat="45.460461176427835" lon="8.74226172916423"><ele>142.0</ele><time>2026-04-26T14:39:15Z</time></trkpt><trkpt lat="45.46055243549345" lon="8.742236968129788"><ele>142.0</ele><time>2026-04-26T14:39:16Z</time></trkpt><trkpt lat="45.46066032477607" lon="8.74220680000308"><ele>142.0</ele><time>2026-04-26T14:39:17Z</time></trkpt><trkpt lat="45.460758030037304" lon="8.742179237909815"><ele>141.83333333333334</ele><time>2026-04-26T14:39:18Z</time></trkpt><trkpt lat="45.46084164111745" lon="8.742152864277244"><ele>141.66666666666669</ele><time>2026-04-26T14:39:19Z</time></trkpt><trkpt lat="45.46092267371564" lon="8.74212862995836"><ele>141.5</ele><time>2026-04-26T14:39:20Z</time></trkpt><trkpt lat="45.46099185016714" lon="8.74210376847422"><ele>141.33333333333334</ele><time>2026-04-26T14:39:21Z</time></trkpt><trkpt lat="45.46109107062086" lon="8.742105160807338"><ele>141.16666666666666</ele><time>2026-04-26T14:39:23Z</time></trkpt><trkpt lat="45.461158377351175" lon="8.742091635268453"><ele>141.0</ele><time>2026-04-26T14:39:25Z</time></trkpt><trkpt lat="45.461167069662" lon="8.742234364209025"><ele>141.0</ele><time>2026-04-26T14:39:27Z</time></trkpt><trkpt lat="45.46116297307636" lon="8.742332589539835"><ele>141.0</ele><time>2026-04-26T14:39:28Z</time></trkpt><trkpt lat="45.46116330325646" lon="8.742443583808498"><ele>141.0</ele><time>2026-04-26T14:39:29Z</time></trkpt><trkpt lat="45.46116591589141" lon="8.742560233229163"><ele>141.0</ele><time>2026-04-26T14:39:30Z</time></trkpt><trkpt lat="45.46118315860766" lon="8.742673289830458"><ele>141.0</ele><time>2026-04-26T14:39:31Z</time></trkpt><trkpt lat="45.461178883751096" lon="8.742778080739477"><ele>141.0</ele><time>2026-04-26T14:39:32Z</time></trkpt><trkpt lat="45.46118275504918" lon="8.74288883499002"><ele>141.4</ele><time>2026-04-26T14:39:33Z</time></trkpt><trkpt lat="45.46117936850997" lon="8.742998911399775"><ele>141.8</ele><time>2026-04-26T14:39:34Z</time></trkpt><trkpt lat="45.46116567790487" lon="8.743101697111381"><ele>142.20000000000002</ele><time>2026-04-26T14:39:35Z</time></trkpt><trkpt lat="45.461182515130865" lon="8.743261567055129"><ele>142.6</ele><time>2026-04-26T14:39:37Z</time></trkpt><trkpt lat="45.46118368972421" lon="8.743415192840576"><ele>143.0</ele><time>2026-04-26T14:39:39Z</time></trkpt><trkpt lat="45.46118708698816" lon="8.743541333166835"><ele>143.0</ele><time>2026-04-26T14:39:41Z</time></trkpt><trkpt lat="45.46119233216276" lon="8.743682375791822"><ele>143.0</ele><time>2026-04-26T14:39:43Z</time></trkpt><trkpt lat="45.46120063570579" lon="8.743872839090175"><ele>143.0</ele><time>2026-04-26T14:39:45Z</time></trkpt><trkpt lat="45.46120498049174" lon="8.743990567134603"><ele>143.0</ele><time>2026-04-26T14:39:46Z</time></trkpt><trkpt lat="45.461206058861926" lon="8.744115235205742"><ele>143.0</ele><time>2026-04-26T14:39:47Z</time></trkpt><trkpt lat="45.461209970330465" lon="8.744245315814064"><ele>143.0</ele><time>2026-04-26T14:39:48Z</time></trkpt><trkpt lat="45.46121042706897" lon="8.744374828255584"><ele>143.0</ele><time>2026-04-26T14:39:49Z</time></trkpt><trkpt lat="45.46121904876447" lon="8.744513681308131"><ele>143.0</ele><time>2026-04-26T14:39:50Z</time></trkpt><trkpt lat="45.46122420110007" lon="8.744646421331124"><ele>143.0</ele><time>2026-04-26T14:39:51Z</time></trkpt><trkpt lat="45.461229515133205" lon="8.74477847352339"><ele>143.0</ele><time>2026-04-26T14:39:52Z</time></trkpt><trkpt lat="45.4612361645085" lon="8.744915818218432"><ele>142.8</ele><time>2026-04-26T14:39:53Z</time></trkpt><trkpt lat="45.461237190070946" lon="8.745052280453683"><ele>142.60000000000002</ele><time>2026-04-26T14:39:54Z</time></trkpt><trkpt lat="45.461241545978176" lon="8.745197772056212"><ele>142.39999999999998</ele><time>2026-04-26T14:39:55Z</time></trkpt><trkpt lat="45.46124552956901" lon="8.745349751642605"><ele>142.2</ele><time>2026-04-26T14:39:56Z</time></trkpt><trkpt lat="45.4612496533884" lon="8.745501299862285"><ele>142.0</ele><time>2026-04-26T14:39:57Z</time></trkpt><trkpt lat="45.46125341451133" lon="8.745652953049415"><ele>141.79999999999998</ele><time>2026-04-26T14:39:58Z</time></trkpt><trkpt lat="45.46125861614905" lon="8.74580463171257"><ele>141.6</ele><time>2026-04-26T14:39:59Z</time></trkpt><trkpt lat="45.46126341964805" lon="8.745960476859079"><ele>141.39999999999998</ele><time>2026-04-26T14:40:00Z</time></trkpt><trkpt lat="45.46126797906366" lon="8.746107829614346"><ele>141.2</ele><time>2026-04-26T14:40:01Z</time></trkpt><trkpt lat="45.46127043227866" lon="8.74624446635443"><ele>141.0</ele><time>2026-04-26T14:40:02Z</time></trkpt><trkpt lat="45.46127528996856" lon="8.746384339934385"><ele>141.0</ele><time>2026-04-26T14:40:03Z</time></trkpt><trkpt lat="45.461274235708494" lon="8.746515852561012"><ele>141.0</ele><time>2026-04-26T14:40:04Z</time></trkpt><trkpt lat="45.461281805924344" lon="8.746617683163937"><ele>141.0</ele><time>2026-04-26T14:40:05Z</time></trkpt><trkpt lat="45.46129773126242" lon="8.746707134993532"><ele>141.0</ele><time>2026-04-26T14:40:06Z</time></trkpt><trkpt lat="45.4613064119755" lon="8.746876543054308"><ele>141.0</ele><time>2026-04-26T14:40:08Z</time></trkpt><trkpt lat="45.461326667786246" lon="8.747000755300725"><ele>141.0</ele><time>2026-04-26T14:40:11Z</time></trkpt><trkpt lat="45.46134833402863" lon="8.747156356090834"><ele>141.0</ele><time>2026-04-26T14:40:13Z</time></trkpt><trkpt lat="45.46136145870346" lon="8.747250613910403"><ele>141.0</ele><time>2026-04-26T14:40:14Z</time></trkpt><trkpt lat="45.461426761411566" lon="8.747339870165675"><ele>141.0</ele><time>2026-04-26T14:40:15Z</time></trkpt><trkpt lat="45.46142405106045" lon="8.74744792337737"><ele>141.0</ele><time>2026-04-26T14:40:16Z</time></trkpt><trkpt lat="45.46142398553753" lon="8.747557582283237"><ele>141.0</ele><time>2026-04-26T14:40:17Z</time></trkpt><trkpt lat="45.461422696957285" lon="8.747673730708742"><ele>141.0</ele><time>2026-04-26T14:40:18Z</time></trkpt><trkpt lat="45.46142175399544" lon="8.747790536821372"><ele>141.0</ele><time>2026-04-26T14:40:19Z</time></trkpt><trkpt lat="45.46141965493704" lon="8.747915900200185"><ele>141.0</ele><time>2026-04-26T14:40:20Z</time></trkpt><trkpt lat="45.461420148612184" lon="8.748044824958889"><ele>141.0</ele><time>2026-04-26T14:40:21Z</time></trkpt><trkpt lat="45.46141695961643" lon="8.748171456496484"><ele>141.0</ele><time>2026-04-26T14:40:22Z</time></trkpt><trkpt lat="45.46141532915009" lon="8.74828366173671"><ele>141.0</ele><time>2026-04-26T14:40:23Z</time></trkpt><trkpt lat="45.461415814838304" lon="8.748395355946721"><ele>141.0</ele><time>2026-04-26T14:40:24Z</time></trkpt><trkpt lat="45.461417338156" lon="8.748510283752854"><ele>140.71428571428572</ele><time>2026-04-26T14:40:25Z</time></trkpt><trkpt lat="45.461419788698876" lon="8.748626459749232"><ele>140.42857142857142</ele><time>2026-04-26T14:40:26Z</time></trkpt><trkpt lat="45.46141727123195" lon="8.748744802268636"><ele>140.14285714285714</ele><time>2026-04-26T14:40:27Z</time></trkpt><trkpt lat="45.46141803869621" lon="8.748839583756393"><ele>139.85714285714286</ele><time>2026-04-26T14:40:28Z</time></trkpt><trkpt lat="45.4614202175161" lon="8.748940988971802"><ele>139.57142857142858</ele><time>2026-04-26T14:40:29Z</time></trkpt><trkpt lat="45.461420205721176" lon="8.749040654570813"><ele>139.28571428571428</ele><time>2026-04-26T14:40:30Z</time></trkpt><trkpt lat="45.46141894300389" lon="8.749142347830876"><ele>139.0</ele><time>2026-04-26T14:40:31Z</time></trkpt><trkpt lat="45.461418741028844" lon="8.749258059446847"><ele>139.16666666666669</ele><time>2026-04-26T14:40:32Z</time></trkpt><trkpt lat="45.46142117940029" lon="8.749380952832317"><ele>139.33333333333334</ele><time>2026-04-26T14:40:33Z</time></trkpt><trkpt lat="45.46142861552417" lon="8.74951110356417"><ele>139.5</ele><time>2026-04-26T14:40:34Z</time></trkpt><trkpt lat="45.4614261711507" lon="8.7496442299054"><ele>139.66666666666666</ele><time>2026-04-26T14:40:35Z</time></trkpt><trkpt lat="45.4614215577383" lon="8.74976617263615"><ele>139.83333333333331</ele><time>2026-04-26T14:40:36Z</time></trkpt><trkpt lat="45.461420809178804" lon="8.74989296340821"><ele>140.0</ele><time>2026-04-26T14:40:37Z</time></trkpt><trkpt lat="45.461423293495876" lon="8.750019476785065"><ele>140.0</ele><time>2026-04-26T14:40:38Z</time></trkpt><trkpt lat="45.46142428176157" lon="8.75015668421934"><ele>140.0</ele><time>2026-04-26T14:40:39Z</time></trkpt><trkpt lat="45.46142348591703" lon="8.750290419529819"><ele>140.0</ele><time>2026-04-26T14:40:40Z</time></trkpt><trkpt lat="45.46142608053868" lon="8.750425665052335"><ele>140.0</ele><time>2026-04-26T14:40:41Z</time></trkpt><trkpt lat="45.46142653062676" lon="8.750563602271752"><ele>140.0</ele><time>2026-04-26T14:40:42Z</time></trkpt><trkpt lat="45.46142666341664" lon="8.750690930179184"><ele>140.16666666666666</ele><time>2026-04-26T14:40:43Z</time></trkpt><trkpt lat="45.4614304638696" lon="8.750807050224653"><ele>140.33333333333331</ele><time>2026-04-26T14:40:44Z</time></trkpt><trkpt lat="45.46143106554412" lon="8.750906727246681"><ele>140.5</ele><time>2026-04-26T14:40:45Z</time></trkpt><trkpt lat="45.461438809029" lon="8.751062610732756"><ele>140.66666666666666</ele><time>2026-04-26T14:40:47Z</time></trkpt><trkpt lat="45.4614926533025" lon="8.751168849637132"><ele>140.83333333333334</ele><time>2026-04-26T14:40:49Z</time></trkpt><trkpt lat="45.46155129453733" lon="8.751265958315477"><ele>141.0</ele><time>2026-04-26T14:40:51Z</time></trkpt><trkpt lat="45.46154632539485" lon="8.751426850314155"><ele>141.0</ele><time>2026-04-26T14:40:53Z</time></trkpt><trkpt lat="45.46153505510455" lon="8.75152374964458"><ele>141.0</ele><time>2026-04-26T14:40:54Z</time></trkpt><trkpt lat="45.461519678243796" lon="8.751627258657443"><ele>141.0</ele><time>2026-04-26T14:40:55Z</time></trkpt><trkpt lat="45.46150094434702" lon="8.751723586178652"><ele>141.0</ele><time>2026-04-26T14:40:56Z</time></trkpt><trkpt lat="45.461475180294386" lon="8.75183167212758"><ele>141.0</ele><time>2026-04-26T14:40:57Z</time></trkpt><trkpt lat="45.46144771700792" lon="8.751938931745633"><ele>141.0</ele><time>2026-04-26T14:40:58Z</time></trkpt><trkpt lat="45.46143071717642" lon="8.752043200310053"><ele>141.0</ele><time>2026-04-26T14:40:59Z</time></trkpt><trkpt lat="45.46143021342647" lon="8.75215899528616"><ele>141.0</ele><time>2026-04-26T14:41:00Z</time></trkpt><trkpt lat="45.461434406687765" lon="8.752288949136794"><ele>141.0</ele><time>2026-04-26T14:41:01Z</time></trkpt><trkpt lat="45.461435623510845" lon="8.752436756034419"><ele>141.0</ele><time>2026-04-26T14:41:02Z</time></trkpt><trkpt lat="45.46143965264736" lon="8.752569764277405"><ele>141.0</ele><time>2026-04-26T14:41:03Z</time></trkpt><trkpt lat="45.46144033320458" lon="8.752695137732163"><ele>141.0</ele><time>2026-04-26T14:41:04Z</time></trkpt><trkpt lat="45.461440247375734" lon="8.752808622589548"><ele>140.83333333333334</ele><time>2026-04-26T14:41:05Z</time></trkpt><trkpt lat="45.46143489860785" lon="8.752943343811518"><ele>140.66666666666666</ele><time>2026-04-26T14:41:06Z</time></trkpt><trkpt lat="45.46143125446091" lon="8.753072413042183"><ele>140.5</ele><time>2026-04-26T14:41:07Z</time></trkpt><trkpt lat="45.461435905986086" lon="8.753198384861774"><ele>140.33333333333331</ele><time>2026-04-26T14:41:08Z</time></trkpt><trkpt lat="45.46145050588716" lon="8.753321253335864"><ele>140.16666666666666</ele><time>2026-04-26T14:41:09Z</time></trkpt><trkpt lat="45.461474492673425" lon="8.753421791462513"><ele>140.0</ele><time>2026-04-26T14:41:10Z</time></trkpt><trkpt lat="45.461501975913336" lon="8.75350690931508"><ele>140.0</ele><time>2026-04-26T14:41:11Z</time></trkpt><trkpt lat="45.461525402940964" lon="8.753611178112832"><ele>140.0</ele><time>2026-04-26T14:41:12Z</time></trkpt><trkpt lat="45.46152907215507" lon="8.753732527466186"><ele>140.0</ele><time>2026-04-26T14:41:13Z</time></trkpt><trkpt lat="45.461529065324626" lon="8.753858072341222"><ele>140.0</ele><time>2026-04-26T14:41:14Z</time></trkpt><trkpt lat="45.461524598153744" lon="8.753985897364661"><ele>140.0</ele><time>2026-04-26T14:41:15Z</time></trkpt><trkpt lat="45.46152572643148" lon="8.754115415557536"><ele>140.0</ele><time>2026-04-26T14:41:16Z</time></trkpt><trkpt lat="45.46152084431545" lon="8.754257088518704"><ele>140.0</ele><time>2026-04-26T14:41:17Z</time></trkpt><trkpt lat="45.46151772915573" lon="8.754389911687902"><ele>140.0</ele><time>2026-04-26T14:41:18Z</time></trkpt><trkpt lat="45.461519787987484" lon="8.754503781492128"><ele>140.0</ele><time>2026-04-26T14:41:19Z</time></trkpt><trkpt lat="45.461523233846805" lon="8.75462453107626"><ele>140.0</ele><time>2026-04-26T14:41:20Z</time></trkpt><trkpt lat="45.46152783671821" lon="8.75475243477931"><ele>140.0</ele><time>2026-04-26T14:41:21Z</time></trkpt><trkpt lat="45.461524641132094" lon="8.754879785687834"><ele>140.0</ele><time>2026-04-26T14:41:22Z</time></trkpt><trkpt lat="45.46152467414824" lon="8.755000637493394"><ele>140.0</ele><time>2026-04-26T14:41:23Z</time></trkpt><trkpt lat="45.461510595369596" lon="8.755128546647995"><ele>140.0</ele><time>2026-04-26T14:41:24Z</time></trkpt><trkpt lat="45.461526782320334" lon="8.755251754528354"><ele>140.0</ele><time>2026-04-26T14:41:25Z</time></trkpt><trkpt lat="45.4615227116678" lon="8.75538739342325"><ele>140.0</ele><time>2026-04-26T14:41:26Z</time></trkpt><trkpt lat="45.461528238285624" lon="8.755508201823899"><ele>140.0</ele><time>2026-04-26T14:41:27Z</time></trkpt><trkpt lat="45.46152934971735" lon="8.75564461892249"><ele>140.0</ele><time>2026-04-26T14:41:28Z</time></trkpt><trkpt lat="45.46152823232557" lon="8.755776867857524"><ele>140.0</ele><time>2026-04-26T14:41:29Z</time></trkpt><trkpt lat="45.461531037419064" lon="8.755900241626563"><ele>140.0</ele><time>2026-04-26T14:41:30Z</time></trkpt><trkpt lat="45.46153304538186" lon="8.756006833334764"><ele>140.0</ele><time>2026-04-26T14:41:31Z</time></trkpt><trkpt lat="45.4615272478705" lon="8.756098221320997"><ele>140.0</ele><time>2026-04-26T14:41:32Z</time></trkpt><trkpt lat="45.461525136760734" lon="8.756199814885909"><ele>140.0</ele><time>2026-04-26T14:41:33Z</time></trkpt><trkpt lat="45.4615264607412" lon="8.756312803839338"><ele>140.0</ele><time>2026-04-26T14:41:34Z</time></trkpt><trkpt lat="45.4615288736971" lon="8.75642075438615"><ele>140.0</ele><time>2026-04-26T14:41:35Z</time></trkpt><trkpt lat="45.4615281552346" lon="8.756528325290613"><ele>140.0</ele><time>2026-04-26T14:41:36Z</time></trkpt><trkpt lat="45.461528503873794" lon="8.756653699917504"><ele>140.0</ele><time>2026-04-26T14:41:37Z</time></trkpt><trkpt lat="45.461518119983374" lon="8.756780565338694"><ele>140.0</ele><time>2026-04-26T14:41:38Z</time></trkpt><trkpt lat="45.46150694456961" lon="8.756911892999984"><ele>140.0</ele><time>2026-04-26T14:41:39Z</time></trkpt><trkpt lat="45.4614992272358" lon="8.757040650297757"><ele>139.83333333333331</ele><time>2026-04-26T14:41:40Z</time></trkpt><trkpt lat="45.46149966265684" lon="8.757155007070399"><ele>139.66666666666666</ele><time>2026-04-26T14:41:41Z</time></trkpt><trkpt lat="45.46150367102299" lon="8.757288566885244"><ele>139.5</ele><time>2026-04-26T14:41:42Z</time></trkpt><trkpt lat="45.461506886290216" lon="8.757412658112207"><ele>139.33333333333334</ele><time>2026-04-26T14:41:43Z</time></trkpt><trkpt lat="45.4615066882758" lon="8.757535738905915"><ele>139.16666666666669</ele><time>2026-04-26T14:41:44Z</time></trkpt><trkpt lat="45.46150870088763" lon="8.757659581974817"><ele>139.0</ele><time>2026-04-26T14:41:45Z</time></trkpt><trkpt lat="45.461510346506806" lon="8.757770967826051"><ele>139.0</ele><time>2026-04-26T14:41:46Z</time></trkpt><trkpt lat="45.46151044090965" lon="8.75788746566599"><ele>139.0</ele><time>2026-04-26T14:41:47Z</time></trkpt><trkpt lat="45.46151177433929" lon="8.757996681415051"><ele>139.0</ele><time>2026-04-26T14:41:48Z</time></trkpt><trkpt lat="45.461508795624475" lon="8.75810856344715"><ele>139.0</ele><time>2026-04-26T14:41:49Z</time></trkpt><trkpt lat="45.46151182468839" lon="8.758218892393758"><ele>139.0</ele><time>2026-04-26T14:41:50Z</time></trkpt><trkpt lat="45.4615133231035" lon="8.758336025464699"><ele>139.0</ele><time>2026-04-26T14:41:51Z</time></trkpt><trkpt lat="45.46151400987466" lon="8.758451620898306"><ele>139.0</ele><time>2026-04-26T14:41:52Z</time></trkpt><trkpt lat="45.46151449422803" lon="8.758572082832082"><ele>139.0</ele><time>2026-04-26T14:41:53Z</time></trkpt><trkpt lat="45.461515248834466" lon="8.758701252950514"><ele>139.0</ele><time>2026-04-26T14:41:54Z</time></trkpt><trkpt lat="45.46151600122969" lon="8.758824725196298"><ele>139.0</ele><time>2026-04-26T14:41:55Z</time></trkpt><trkpt lat="45.46151844660875" lon="8.758946579419"><ele>139.0</ele><time>2026-04-26T14:41:56Z</time></trkpt><trkpt lat="45.46151908848445" lon="8.759056103149312"><ele>139.0</ele><time>2026-04-26T14:41:57Z</time></trkpt><trkpt lat="45.4615217193496" lon="8.759174251146574"><ele>139.0</ele><time>2026-04-26T14:41:58Z</time></trkpt><trkpt lat="45.46152303894986" lon="8.759293783489845"><ele>139.0</ele><time>2026-04-26T14:41:59Z</time></trkpt><trkpt lat="45.461521831892924" lon="8.759417962767476"><ele>139.0</ele><time>2026-04-26T14:42:00Z</time></trkpt><trkpt lat="45.46151974396643" lon="8.759549219044247"><ele>139.0</ele><time>2026-04-26T14:42:01Z</time></trkpt><trkpt lat="45.46152247111942" lon="8.759674788189926"><ele>139.0</ele><time>2026-04-26T14:42:02Z</time></trkpt><trkpt lat="45.46152249109421" lon="8.759780355836224"><ele>139.0</ele><time>2026-04-26T14:42:03Z</time></trkpt><trkpt lat="45.46151846600583" lon="8.759878154713203"><ele>139.0</ele><time>2026-04-26T14:42:04Z</time></trkpt><trkpt lat="45.461519762399" lon="8.75997223135559"><ele>139.0</ele><time>2026-04-26T14:42:05Z</time></trkpt><trkpt lat="45.46152400938576" lon="8.760072854186538"><ele>139.0</ele><time>2026-04-26T14:42:06Z</time></trkpt><trkpt lat="45.461532851074715" lon="8.760183727185595"><ele>139.0</ele><time>2026-04-26T14:42:07Z</time></trkpt><trkpt lat="45.46153949395042" lon="8.760301061427997"><ele>139.0</ele><time>2026-04-26T14:42:08Z</time></trkpt><trkpt lat="45.461529879344205" lon="8.760420260097632"><ele>139.0</ele><time>2026-04-26T14:42:09Z</time></trkpt><trkpt lat="45.46154129538269" lon="8.760532810050888"><ele>139.0</ele><time>2026-04-26T14:42:10Z</time></trkpt><trkpt lat="45.46153989129724" lon="8.760636307015501"><ele>139.0</ele><time>2026-04-26T14:42:11Z</time></trkpt><trkpt lat="45.461535001419264" lon="8.76074904493585"><ele>139.0</ele><time>2026-04-26T14:42:12Z</time></trkpt><trkpt lat="45.461533218980726" lon="8.760870861348204"><ele>139.0</ele><time>2026-04-26T14:42:13Z</time></trkpt><trkpt lat="45.4615347246458" lon="8.760999942298069"><ele>139.0</ele><time>2026-04-26T14:42:14Z</time></trkpt><trkpt lat="45.46152999944185" lon="8.761142823701805"><ele>139.0</ele><time>2026-04-26T14:42:15Z</time></trkpt><trkpt lat="45.46153122316355" lon="8.761282751147544"><ele>139.0</ele><time>2026-04-26T14:42:16Z</time></trkpt><trkpt lat="45.4615268248323" lon="8.76141549317"><ele>139.0</ele><time>2026-04-26T14:42:17Z</time></trkpt><trkpt lat="45.46152299827636" lon="8.761550137322699"><ele>139.0</ele><time>2026-04-26T14:42:18Z</time></trkpt><trkpt lat="45.46151852798769" lon="8.761687798666566"><ele>139.0</ele><time>2026-04-26T14:42:19Z</time></trkpt><trkpt lat="45.46151577660276" lon="8.76180996272587"><ele>139.0</ele><time>2026-04-26T14:42:20Z</time></trkpt><trkpt lat="45.461522178965204" lon="8.761939226635203"><ele>139.0</ele><time>2026-04-26T14:42:21Z</time></trkpt><trkpt lat="45.46153208198249" lon="8.762062190556096"><ele>139.0</ele><time>2026-04-26T14:42:22Z</time></trkpt><trkpt lat="45.46154109419647" lon="8.7621916172976"><ele>139.0</ele><time>2026-04-26T14:42:23Z</time></trkpt><trkpt lat="45.46154165990408" lon="8.76232512190755"><ele>139.0</ele><time>2026-04-26T14:42:24Z</time></trkpt><trkpt lat="45.46153641448004" lon="8.762456111934847"><ele>139.0</ele><time>2026-04-26T14:42:25Z</time></trkpt><trkpt lat="45.46153750950488" lon="8.762596176447186"><ele>139.2</ele><time>2026-04-26T14:42:26Z</time></trkpt><trkpt lat="45.461532113623115" lon="8.762737857221708"><ele>139.4</ele><time>2026-04-26T14:42:27Z</time></trkpt><trkpt lat="45.46152626702933" lon="8.76288101875693"><ele>139.6</ele><time>2026-04-26T14:42:28Z</time></trkpt><trkpt lat="45.461528129527466" lon="8.763030827058909"><ele>139.8</ele><time>2026-04-26T14:42:29Z</time></trkpt><trkpt lat="45.46152567821304" lon="8.763169458753376"><ele>140.0</ele><time>2026-04-26T14:42:30Z</time></trkpt><trkpt lat="45.46152504378984" lon="8.763303020229122"><ele>140.0</ele><time>2026-04-26T14:42:31Z</time></trkpt><trkpt lat="45.46152663419629" lon="8.76343433238366"><ele>140.0</ele><time>2026-04-26T14:42:32Z</time></trkpt><trkpt lat="45.46152931339959" lon="8.763564614786988"><ele>140.0</ele><time>2026-04-26T14:42:33Z</time></trkpt><trkpt lat="45.46153052780651" lon="8.76369441528597"><ele>140.0</ele><time>2026-04-26T14:42:34Z</time></trkpt><trkpt lat="45.46153053719206" lon="8.763817144670806"><ele>140.0</ele><time>2026-04-26T14:42:35Z</time></trkpt><trkpt lat="45.46153196991608" lon="8.763948774956937"><ele>139.8</ele><time>2026-04-26T14:42:36Z</time></trkpt><trkpt lat="45.461535055399615" lon="8.76408044478685"><ele>139.6</ele><time>2026-04-26T14:42:37Z</time></trkpt><trkpt lat="45.461538830384846" lon="8.764223432264375"><ele>139.4</ele><time>2026-04-26T14:42:38Z</time></trkpt><trkpt lat="45.461542411880856" lon="8.764358036855288"><ele>139.2</ele><time>2026-04-26T14:42:39Z</time></trkpt><trkpt lat="45.46154414543776" lon="8.764490685161913"><ele>139.0</ele><time>2026-04-26T14:42:40Z</time></trkpt><trkpt lat="45.46154216554687" lon="8.764597912488686"><ele>138.66666666666669</ele><time>2026-04-26T14:42:41Z</time></trkpt><trkpt lat="45.461541816305065" lon="8.764712367178484"><ele>138.33333333333334</ele><time>2026-04-26T14:42:42Z</time></trkpt><trkpt lat="45.461545841499486" lon="8.764834422503572"><ele>138.0</ele><time>2026-04-26T14:42:43Z</time></trkpt><trkpt lat="45.46154801412408" lon="8.76495710996537"><ele>137.66666666666666</ele><time>2026-04-26T14:42:44Z</time></trkpt><trkpt lat="45.46154650416569" lon="8.765063817864382"><ele>137.33333333333331</ele><time>2026-04-26T14:42:45Z</time></trkpt><trkpt lat="45.46154448558576" lon="8.765155408889322"><ele>137.0</ele><time>2026-04-26T14:42:46Z</time></trkpt><trkpt lat="45.46154406170206" lon="8.765260603960993"><ele>137.0</ele><time>2026-04-26T14:42:47Z</time></trkpt><trkpt lat="45.46154644569259" lon="8.765354506960357"><ele>137.0</ele><time>2026-04-26T14:42:48Z</time></trkpt><trkpt lat="45.461546649987085" lon="8.765465815674371"><ele>137.0</ele><time>2026-04-26T14:42:49Z</time></trkpt><trkpt lat="45.4615418528347" lon="8.765574064137576"><ele>137.0</ele><time>2026-04-26T14:42:50Z</time></trkpt><trkpt lat="45.46153293148011" lon="8.765683943323666"><ele>137.0</ele><time>2026-04-26T14:42:51Z</time></trkpt><trkpt lat="45.46151991188999" lon="8.7658046527216"><ele>137.0</ele><time>2026-04-26T14:42:52Z</time></trkpt><trkpt lat="45.46151116926179" lon="8.765932421433178"><ele>137.0</ele><time>2026-04-26T14:42:53Z</time></trkpt><trkpt lat="45.461507182354055" lon="8.766062448466101"><ele>137.0</ele><time>2026-04-26T14:42:54Z</time></trkpt><trkpt lat="45.461508207257104" lon="8.76619960311747"><ele>137.0</ele><time>2026-04-26T14:42:55Z</time></trkpt><trkpt lat="45.4615123160827" lon="8.766343266372317"><ele>137.0</ele><time>2026-04-26T14:42:56Z</time></trkpt><trkpt lat="45.46151347471816" lon="8.766487559203481"><ele>137.0</ele><time>2026-04-26T14:42:57Z</time></trkpt><trkpt lat="45.46151447168711" lon="8.766631755339928"><ele>137.0</ele><time>2026-04-26T14:42:58Z</time></trkpt><trkpt lat="45.461517479933704" lon="8.766763183658691"><ele>137.0</ele><time>2026-04-26T14:42:59Z</time></trkpt><trkpt lat="45.46151889867048" lon="8.766902366467718"><ele>137.0</ele><time>2026-04-26T14:43:00Z</time></trkpt><trkpt lat="45.461516891976345" lon="8.767037598214328"><ele>137.0</ele><time>2026-04-26T14:43:01Z</time></trkpt><trkpt lat="45.461517669254135" lon="8.767171417162066"><ele>137.0</ele><time>2026-04-26T14:43:02Z</time></trkpt><trkpt lat="45.46151836342072" lon="8.76729700420761"><ele>137.0</ele><time>2026-04-26T14:43:03Z</time></trkpt><trkpt lat="45.461516392259085" lon="8.767443429250413"><ele>137.0</ele><time>2026-04-26T14:43:04Z</time></trkpt><trkpt lat="45.461515343815826" lon="8.767583199767403"><ele>137.0</ele><time>2026-04-26T14:43:05Z</time></trkpt><trkpt lat="45.46151623744862" lon="8.767721217920137"><ele>137.0</ele><time>2026-04-26T14:43:06Z</time></trkpt><trkpt lat="45.46151582489175" lon="8.767839798623665"><ele>137.0</ele><time>2026-04-26T14:43:07Z</time></trkpt><trkpt lat="45.46151501615958" lon="8.76794564805017"><ele>137.0</ele><time>2026-04-26T14:43:08Z</time></trkpt><trkpt lat="45.46151189205015" lon="8.768037511073024"><ele>137.0</ele><time>2026-04-26T14:43:09Z</time></trkpt><trkpt lat="45.461507819556346" lon="8.768214636907873"><ele>137.0</ele><time>2026-04-26T14:43:11Z</time></trkpt><trkpt lat="45.46150377842839" lon="8.76831738842998"><ele>137.0</ele><time>2026-04-26T14:43:12Z</time></trkpt><trkpt lat="45.461500542772804" lon="8.768423271733742"><ele>137.0</ele><time>2026-04-26T14:43:13Z</time></trkpt><trkpt lat="45.46149808486001" lon="8.76852858081588"><ele>137.0</ele><time>2026-04-26T14:43:14Z</time></trkpt><trkpt lat="45.4614999214232" lon="8.768631942870892"><ele>137.2</ele><time>2026-04-26T14:43:15Z</time></trkpt><trkpt lat="45.46149749941511" lon="8.768760390441805"><ele>137.39999999999998</ele><time>2026-04-26T14:43:16Z</time></trkpt><trkpt lat="45.461494194049415" lon="8.768903698513176"><ele>137.60000000000002</ele><time>2026-04-26T14:43:17Z</time></trkpt><trkpt lat="45.4614966565307" lon="8.769037127569"><ele>137.8</ele><time>2026-04-26T14:43:18Z</time></trkpt><trkpt lat="45.461501093150844" lon="8.769176519399046"><ele>138.0</ele><time>2026-04-26T14:43:19Z</time></trkpt><trkpt lat="45.46150686940401" lon="8.769317900440837"><ele>137.8</ele><time>2026-04-26T14:43:20Z</time></trkpt><trkpt lat="45.46151373821967" lon="8.769444423495965"><ele>137.60000000000002</ele><time>2026-04-26T14:43:21Z</time></trkpt><trkpt lat="45.46151194017768" lon="8.769579055223812"><ele>137.39999999999998</ele><time>2026-04-26T14:43:22Z</time></trkpt><trkpt lat="45.46151257359356" lon="8.76972256798102"><ele>137.2</ele><time>2026-04-26T14:43:23Z</time></trkpt><trkpt lat="45.46151378199004" lon="8.769853215972327"><ele>137.0</ele><time>2026-04-26T14:43:24Z</time></trkpt><trkpt lat="45.46150948003093" lon="8.769985183482175"><ele>137.0</ele><time>2026-04-26T14:43:25Z</time></trkpt><trkpt lat="45.46150720317906" lon="8.770110269268695"><ele>137.0</ele><time>2026-04-26T14:43:26Z</time></trkpt><trkpt lat="45.46151000418233" lon="8.770239336522904"><ele>137.0</ele><time>2026-04-26T14:43:27Z</time></trkpt><trkpt lat="45.4615109434883" lon="8.770374145437781"><ele>137.0</ele><time>2026-04-26T14:43:28Z</time></trkpt><trkpt lat="45.46150632424935" lon="8.770523885943005"><ele>137.0</ele><time>2026-04-26T14:43:29Z</time></trkpt><trkpt lat="45.461501081499684" lon="8.770672159514431"><ele>137.0</ele><time>2026-04-26T14:43:30Z</time></trkpt><trkpt lat="45.46149953431974" lon="8.77081192892384"><ele>137.0</ele><time>2026-04-26T14:43:31Z</time></trkpt><trkpt lat="45.46150023467946" lon="8.770954693525299"><ele>137.0</ele><time>2026-04-26T14:43:32Z</time></trkpt><trkpt lat="45.461502201185716" lon="8.77108652219877"><ele>137.0</ele><time>2026-04-26T14:43:33Z</time></trkpt><trkpt lat="45.46150399843995" lon="8.7712295858912"><ele>137.0</ele><time>2026-04-26T14:43:34Z</time></trkpt><trkpt lat="45.461500986229325" lon="8.771364571031212"><ele>136.79999999999998</ele><time>2026-04-26T14:43:35Z</time></trkpt><trkpt lat="45.461502590229415" lon="8.771495563120599"><ele>136.6</ele><time>2026-04-26T14:43:36Z</time></trkpt><trkpt lat="45.46150828291498" lon="8.771634897984267"><ele>136.39999999999998</ele><time>2026-04-26T14:43:37Z</time></trkpt><trkpt lat="45.461514295529355" lon="8.771763162160148"><ele>136.2</ele><time>2026-04-26T14:43:38Z</time></trkpt><trkpt lat="45.46151708073794" lon="8.771902530016556"><ele>136.0</ele><time>2026-04-26T14:43:39Z</time></trkpt><trkpt lat="45.46151884650051" lon="8.772035085522512"><ele>136.0</ele><time>2026-04-26T14:43:40Z</time></trkpt><trkpt lat="45.46151940565774" lon="8.77217401693989"><ele>136.0</ele><time>2026-04-26T14:43:41Z</time></trkpt><trkpt lat="45.46152112884494" lon="8.7723074288033"><ele>136.0</ele><time>2026-04-26T14:43:42Z</time></trkpt><trkpt lat="45.46152036562666" lon="8.772444438975892"><ele>136.0</ele><time>2026-04-26T14:43:43Z</time></trkpt><trkpt lat="45.46152115471076" lon="8.772585746968602"><ele>136.0</ele><time>2026-04-26T14:43:44Z</time></trkpt><trkpt lat="45.46151994675603" lon="8.772713592079263"><ele>135.6</ele><time>2026-04-26T14:43:45Z</time></trkpt><trkpt lat="45.461518248728616" lon="8.772849655439156"><ele>135.2</ele><time>2026-04-26T14:43:46Z</time></trkpt><trkpt lat="45.46151787386591" lon="8.77298830857644"><ele>134.8</ele><time>2026-04-26T14:43:47Z</time></trkpt><trkpt lat="45.46151767181866" lon="8.773135940088045"><ele>134.4</ele><time>2026-04-26T14:43:48Z</time></trkpt><trkpt lat="45.46151496681734" lon="8.773268278944421"><ele>134.0</ele><time>2026-04-26T14:43:49Z</time></trkpt><trkpt lat="45.461514037596444" lon="8.77339038759785"><ele>134.8</ele><time>2026-04-26T14:43:50Z</time></trkpt><trkpt lat="45.46151565844629" lon="8.77352654830872"><ele>135.60000000000002</ele><time>2026-04-26T14:43:51Z</time></trkpt><trkpt lat="45.46151598606876" lon="8.77366740083499"><ele>136.4</ele><time>2026-04-26T14:43:52Z</time></trkpt><trkpt lat="45.46151326551041" lon="8.77382737504515"><ele>137.20000000000002</ele><time>2026-04-26T14:43:53Z</time></trkpt><trkpt lat="45.46151552890524" lon="8.77397071247561"><ele>138.0</ele><time>2026-04-26T14:43:54Z</time></trkpt><trkpt lat="45.461517495642816" lon="8.774085348418469"><ele>138.0</ele><time>2026-04-26T14:43:55Z</time></trkpt><trkpt lat="45.46151809142497" lon="8.774225571307609"><ele>138.0</ele><time>2026-04-26T14:43:57Z</time></trkpt><trkpt lat="45.46152029310394" lon="8.774389806529873"><ele>138.0</ele><time>2026-04-26T14:43:59Z</time></trkpt><trkpt lat="45.461511563801984" lon="8.774514801196052"><ele>138.0</ele><time>2026-04-26T14:44:00Z</time></trkpt><trkpt lat="45.46149453710213" lon="8.77463038814687"><ele>138.0</ele><time>2026-04-26T14:44:01Z</time></trkpt><trkpt lat="45.46146305136584" lon="8.774728748739753"><ele>138.25</ele><time>2026-04-26T14:44:02Z</time></trkpt><trkpt lat="45.46143794990676" lon="8.774861254323543"><ele>138.5</ele><time>2026-04-26T14:44:04Z</time></trkpt><trkpt lat="45.461256451097505" lon="8.774844859909399"><ele>138.75</ele><time>2026-04-26T14:44:05Z</time></trkpt><trkpt lat="45.461149252405875" lon="8.774852737195019"><ele>139.0</ele><time>2026-04-26T14:44:06Z</time></trkpt><trkpt lat="45.46103767218196" lon="8.774892386183549"><ele>138.5</ele><time>2026-04-26T14:44:07Z</time></trkpt><trkpt lat="45.46092875108116" lon="8.77494551588097"><ele>138.0</ele><time>2026-04-26T14:44:08Z</time></trkpt><trkpt lat="45.46080892107362" lon="8.77499730240926"><ele>137.5</ele><time>2026-04-26T14:44:09Z</time></trkpt><trkpt lat="45.46068212391068" lon="8.775042072877598"><ele>137.0</ele><time>2026-04-26T14:44:10Z</time></trkpt><trkpt lat="45.46054626788189" lon="8.775091133919684"><ele>136.66666666666666</ele><time>2026-04-26T14:44:11Z</time></trkpt><trkpt lat="45.460400654931654" lon="8.775150278937213"><ele>136.33333333333334</ele><time>2026-04-26T14:44:12Z</time></trkpt><trkpt lat="45.460257789033186" lon="8.775210789410162"><ele>136.0</ele><time>2026-04-26T14:44:13Z</time></trkpt><trkpt lat="45.460110755779574" lon="8.775269592728355"><ele>136.0</ele><time>2026-04-26T14:44:14Z</time></trkpt><trkpt lat="45.45995757218062" lon="8.775322707250643"><ele>136.0</ele><time>2026-04-26T14:44:15Z</time></trkpt><trkpt lat="45.459808589739254" lon="8.77537921527477"><ele>136.0</ele><time>2026-04-26T14:44:16Z</time></trkpt><trkpt lat="45.4596516059293" lon="8.775436120246772"><ele>136.33333333333334</ele><time>2026-04-26T14:44:17Z</time></trkpt><trkpt lat="45.45949696585635" lon="8.775504228912014"><ele>136.66666666666666</ele><time>2026-04-26T14:44:18Z</time></trkpt><trkpt lat="45.459345523251905" lon="8.77556690722856"><ele>137.0</ele><time>2026-04-26T14:44:19Z</time></trkpt><trkpt lat="45.45920636433279" lon="8.77562483180038"><ele>137.0</ele><time>2026-04-26T14:44:20Z</time></trkpt><trkpt lat="45.459068055522025" lon="8.775681578910243"><ele>137.0</ele><time>2026-04-26T14:44:21Z</time></trkpt><trkpt lat="45.458914134275915" lon="8.775736594910057"><ele>137.0</ele><time>2026-04-26T14:44:22Z</time></trkpt><trkpt lat="45.45876380551156" lon="8.775798278033085"><ele>136.33333333333331</ele><time>2026-04-26T14:44:23Z</time></trkpt><trkpt lat="45.4586076850782" lon="8.775859749673069"><ele>135.66666666666666</ele><time>2026-04-26T14:44:24Z</time></trkpt><trkpt lat="45.45844445924463" lon="8.775920480420595"><ele>135.0</ele><time>2026-04-26T14:44:25Z</time></trkpt><trkpt lat="45.45828695235151" lon="8.775980029619122"><ele>134.66666666666666</ele><time>2026-04-26T14:44:26Z</time></trkpt><trkpt lat="45.45812543837786" lon="8.77604473365021"><ele>134.33333333333331</ele><time>2026-04-26T14:44:27Z</time></trkpt><trkpt lat="45.45796128587832" lon="8.776112074206948"><ele>134.0</ele><time>2026-04-26T14:44:28Z</time></trkpt><trkpt lat="45.45779755368471" lon="8.776181598372803"><ele>134.0</ele><time>2026-04-26T14:44:29Z</time></trkpt><trkpt lat="45.45763540516829" lon="8.776254917902763"><ele>134.0</ele><time>2026-04-26T14:44:30Z</time></trkpt><trkpt lat="45.45746962791378" lon="8.776326921836409"><ele>134.0</ele><time>2026-04-26T14:44:31Z</time></trkpt><trkpt lat="45.45730938503293" lon="8.776389925138306"><ele>134.0</ele><time>2026-04-26T14:44:32Z</time></trkpt><trkpt lat="45.45714471290045" lon="8.776449156233317"><ele>134.0</ele><time>2026-04-26T14:44:33Z</time></trkpt><trkpt lat="45.4569821582365" lon="8.776513419829826"><ele>134.0</ele><time>2026-04-26T14:44:34Z</time></trkpt><trkpt lat="45.4568270681213" lon="8.776578896021297"><ele>134.25</ele><time>2026-04-26T14:44:35Z</time></trkpt><trkpt lat="45.45668447141196" lon="8.776641359739063"><ele>134.5</ele><time>2026-04-26T14:44:36Z</time></trkpt><trkpt lat="45.45654821679024" lon="8.776683467636248"><ele>134.75</ele><time>2026-04-26T14:44:37Z</time></trkpt><trkpt lat="45.456420555929455" lon="8.776735210394957"><ele>135.0</ele><time>2026-04-26T14:44:38Z</time></trkpt><trkpt lat="45.45628641785586" lon="8.776789578510412"><ele>134.75</ele><time>2026-04-26T14:44:39Z</time></trkpt><trkpt lat="45.45615731264647" lon="8.776853472533963"><ele>134.5</ele><time>2026-04-26T14:44:40Z</time></trkpt><trkpt lat="45.45602808189766" lon="8.776886760811653"><ele>134.25</ele><time>2026-04-26T14:44:41Z</time></trkpt><trkpt lat="45.45590658985392" lon="8.776923331582644"><ele>134.0</ele><time>2026-04-26T14:44:42Z</time></trkpt><trkpt lat="45.45579196099416" lon="8.776963940863418"><ele>134.0</ele><time>2026-04-26T14:44:43Z</time></trkpt><trkpt lat="45.45568286449063" lon="8.777010001012862"><ele>134.0</ele><time>2026-04-26T14:44:44Z</time></trkpt><trkpt lat="45.45557631103634" lon="8.777060582926126"><ele>134.0</ele><time>2026-04-26T14:44:45Z</time></trkpt><trkpt lat="45.455463280349655" lon="8.777109885809391"><ele>134.0</ele><time>2026-04-26T14:44:46Z</time></trkpt><trkpt lat="45.455342155559286" lon="8.777149963857523"><ele>134.25</ele><time>2026-04-26T14:44:47Z</time></trkpt><trkpt lat="45.455218622574705" lon="8.777198487191033"><ele>134.5</ele><time>2026-04-26T14:44:48Z</time></trkpt><trkpt lat="45.45509516860452" lon="8.777247003062554"><ele>134.75</ele><time>2026-04-26T14:44:49Z</time></trkpt><trkpt lat="45.454971066703756" lon="8.777296105294685"><ele>135.0</ele><time>2026-04-26T14:44:50Z</time></trkpt><trkpt lat="45.45484915369117" lon="8.777347574920533"><ele>135.0</ele><time>2026-04-26T14:44:51Z</time></trkpt><trkpt lat="45.454732698201965" lon="8.7773939940847"><ele>135.0</ele><time>2026-04-26T14:44:52Z</time></trkpt><trkpt lat="45.454608186340394" lon="8.777443017395404"><ele>135.0</ele><time>2026-04-26T14:44:53Z</time></trkpt><trkpt lat="45.454483057784834" lon="8.777496054341643"><ele>135.0</ele><time>2026-04-26T14:44:54Z</time></trkpt><trkpt lat="45.454353698805285" lon="8.777545904706807"><ele>134.6</ele><time>2026-04-26T14:44:55Z</time></trkpt><trkpt lat="45.45423520854264" lon="8.777586937898539"><ele>134.2</ele><time>2026-04-26T14:44:56Z</time></trkpt><trkpt lat="45.454130349187146" lon="8.77762920869546"><ele>133.8</ele><time>2026-04-26T14:44:57Z</time></trkpt><trkpt lat="45.45403002497364" lon="8.777671935779264"><ele>133.4</ele><time>2026-04-26T14:44:58Z</time></trkpt><trkpt lat="45.4539532456697" lon="8.777716229263085"><ele>133.0</ele><time>2026-04-26T14:44:59Z</time></trkpt><trkpt lat="45.45389919867982" lon="8.777774170654405"><ele>133.0</ele><time>2026-04-26T14:45:00Z</time></trkpt><trkpt lat="45.45387964025219" lon="8.777866815244604"><ele>133.0</ele><time>2026-04-26T14:45:01Z</time></trkpt><trkpt lat="45.45383218234457" lon="8.77804618112558"><ele>133.0</ele><time>2026-04-26T14:45:03Z</time></trkpt><trkpt lat="45.45382494919539" lon="8.778152678462185"><ele>133.0</ele><time>2026-04-26T14:45:04Z</time></trkpt><trkpt lat="45.4538154812349" lon="8.778286481034199"><ele>133.0</ele><time>2026-04-26T14:45:05Z</time></trkpt><trkpt lat="45.45380518338536" lon="8.77843692171498"><ele>133.0</ele><time>2026-04-26T14:45:06Z</time></trkpt><trkpt lat="45.453794574006054" lon="8.77861559502238"><ele>133.0</ele><time>2026-04-26T14:45:07Z</time></trkpt><trkpt lat="45.45378397779258" lon="8.778802297317082"><ele>133.0</ele><time>2026-04-26T14:45:08Z</time></trkpt><trkpt lat="45.453772929719754" lon="8.77899696166297"><ele>133.0</ele><time>2026-04-26T14:45:09Z</time></trkpt><trkpt lat="45.45376226061256" lon="8.779184948713292"><ele>132.8</ele><time>2026-04-26T14:45:10Z</time></trkpt><trkpt lat="45.453750298669235" lon="8.779337649543983"><ele>132.60000000000002</ele><time>2026-04-26T14:45:11Z</time></trkpt><trkpt lat="45.45373556299647" lon="8.779458540847308"><ele>132.39999999999998</ele><time>2026-04-26T14:45:12Z</time></trkpt><trkpt lat="45.453720440567324" lon="8.77954997720931"><ele>132.2</ele><time>2026-04-26T14:45:13Z</time></trkpt><trkpt lat="45.4536762907867" lon="8.779673880732265"><ele>132.0</ele><time>2026-04-26T14:45:15Z</time></trkpt><trkpt lat="45.45360645036452" lon="8.779771612541058"><ele>132.75</ele><time>2026-04-26T14:45:17Z</time></trkpt><trkpt lat="45.45344543479329" lon="8.779840899317398"><ele>133.5</ele><time>2026-04-26T14:45:19Z</time></trkpt><trkpt lat="45.45334608254591" lon="8.779871286609726"><ele>134.25</ele><time>2026-04-26T14:45:20Z</time></trkpt><trkpt lat="45.453236457102506" lon="8.779911336569802"><ele>135.0</ele><time>2026-04-26T14:45:21Z</time></trkpt><trkpt lat="45.45312366140948" lon="8.779953688164943"><ele>135.0</ele><time>2026-04-26T14:45:22Z</time></trkpt><trkpt lat="45.453007479927486" lon="8.779993224821684"><ele>135.0</ele><time>2026-04-26T14:45:23Z</time></trkpt><trkpt lat="45.45288915768492" lon="8.78004051571759"><ele>135.0</ele><time>2026-04-26T14:45:24Z</time></trkpt><trkpt lat="45.45276346858392" lon="8.780089630699832"><ele>135.0</ele><time>2026-04-26T14:45:25Z</time></trkpt><trkpt lat="45.45263972532189" lon="8.780141586371222"><ele>134.5</ele><time>2026-04-26T14:45:26Z</time></trkpt><trkpt lat="45.452512300692256" lon="8.780188420068399"><ele>134.0</ele><time>2026-04-26T14:45:27Z</time></trkpt><trkpt lat="45.452385061267755" lon="8.780226442002201"><ele>133.5</ele><time>2026-04-26T14:45:28Z</time></trkpt><trkpt lat="45.4522560378261" lon="8.780270189144002"><ele>133.0</ele><time>2026-04-26T14:45:29Z</time></trkpt><trkpt lat="45.45213092226327" lon="8.780318574131657"><ele>133.0</ele><time>2026-04-26T14:45:30Z</time></trkpt><trkpt lat="45.45199759651635" lon="8.78036527038526"><ele>133.0</ele><time>2026-04-26T14:45:31Z</time></trkpt><trkpt lat="45.451860391834344" lon="8.78041375248977"><ele>133.0</ele><time>2026-04-26T14:45:32Z</time></trkpt><trkpt lat="45.45172354251123" lon="8.780465422267174"><ele>133.0</ele><time>2026-04-26T14:45:33Z</time></trkpt><trkpt lat="45.45159214641811" lon="8.780516934022295"><ele>133.0</ele><time>2026-04-26T14:45:34Z</time></trkpt><trkpt lat="45.45146111845594" lon="8.780565603099467"><ele>133.0</ele><time>2026-04-26T14:45:35Z</time></trkpt><trkpt lat="45.45132441195774" lon="8.780613809258892"><ele>133.0</ele><time>2026-04-26T14:45:36Z</time></trkpt><trkpt lat="45.4511862873696" lon="8.780661749879576"><ele>133.0</ele><time>2026-04-26T14:45:37Z</time></trkpt><trkpt lat="45.45104505237231" lon="8.780715999395186"><ele>132.33333333333334</ele><time>2026-04-26T14:45:38Z</time></trkpt><trkpt lat="45.45089796249048" lon="8.780770151637904"><ele>131.66666666666666</ele><time>2026-04-26T14:45:39Z</time></trkpt><trkpt lat="45.45074556415974" lon="8.780822788907452"><ele>131.0</ele><time>2026-04-26T14:45:40Z</time></trkpt><trkpt lat="45.45059737271904" lon="8.780869909787924"><ele>131.0</ele><time>2026-04-26T14:45:41Z</time></trkpt><trkpt lat="45.450449460600446" lon="8.780912500390233"><ele>131.0</ele><time>2026-04-26T14:45:42Z</time></trkpt><trkpt lat="45.45030436259873" lon="8.780953516980775"><ele>131.0</ele><time>2026-04-26T14:45:43Z</time></trkpt><trkpt lat="45.45015869388425" lon="8.780989966785807"><ele>131.0</ele><time>2026-04-26T14:45:44Z</time></trkpt><trkpt lat="45.45000996956985" lon="8.781025752793312"><ele>131.25</ele><time>2026-04-26T14:45:45Z</time></trkpt><trkpt lat="45.44986166302241" lon="8.781063124998097"><ele>131.5</ele><time>2026-04-26T14:45:46Z</time></trkpt><trkpt lat="45.44971657102721" lon="8.781100353217672"><ele>131.75</ele><time>2026-04-26T14:45:47Z</time></trkpt><trkpt lat="45.44957424471496" lon="8.78113488475952"><ele>132.0</ele><time>2026-04-26T14:45:48Z</time></trkpt><trkpt lat="45.44943573762751" lon="8.781164247357514"><ele>132.25</ele><time>2026-04-26T14:45:49Z</time></trkpt><trkpt lat="45.44929661616002" lon="8.781192196112022"><ele>132.5</ele><time>2026-04-26T14:45:50Z</time></trkpt><trkpt lat="45.4491561681222" lon="8.781226129708429"><ele>132.75</ele><time>2026-04-26T14:45:51Z</time></trkpt><trkpt lat="45.44901920144022" lon="8.781268388127287"><ele>133.0</ele><time>2026-04-26T14:45:52Z</time></trkpt><trkpt lat="45.44888658813023" lon="8.781307491711978"><ele>132.0</ele><time>2026-04-26T14:45:53Z</time></trkpt><trkpt lat="45.44872863308936" lon="8.781335760760388"><ele>131.0</ele><time>2026-04-26T14:45:54Z</time></trkpt><trkpt lat="45.44857704842892" lon="8.78136801273765"><ele>130.0</ele><time>2026-04-26T14:45:55Z</time></trkpt><trkpt lat="45.448423396079825" lon="8.781399545459793"><ele>130.0</ele><time>2026-04-26T14:45:56Z</time></trkpt><trkpt lat="45.448283545487996" lon="8.781422618417421"><ele>130.0</ele><time>2026-04-26T14:45:57Z</time></trkpt><trkpt lat="45.448151178062" lon="8.781441520090267"><ele>130.0</ele><time>2026-04-26T14:45:58Z</time></trkpt><trkpt lat="45.44802870463839" lon="8.781472084216045"><ele>130.0</ele><time>2026-04-26T14:45:59Z</time></trkpt><trkpt lat="45.44792023782264" lon="8.78150614009799"><ele>130.2</ele><time>2026-04-26T14:46:00Z</time></trkpt><trkpt lat="45.44782244946805" lon="8.781550650540888"><ele>130.4</ele><time>2026-04-26T14:46:01Z</time></trkpt><trkpt lat="45.447727288743096" lon="8.781584812151461"><ele>130.6</ele><time>2026-04-26T14:46:02Z</time></trkpt><trkpt lat="45.447633074596204" lon="8.781616559779975"><ele>130.8</ele><time>2026-04-26T14:46:03Z</time></trkpt><trkpt lat="45.44752799631904" lon="8.781650205215897"><ele>131.0</ele><time>2026-04-26T14:46:04Z</time></trkpt><trkpt lat="45.44742170358026" lon="8.78167894905831"><ele>131.0</ele><time>2026-04-26T14:46:05Z</time></trkpt><trkpt lat="45.447313120359205" lon="8.781701530812898"><ele>131.0</ele><time>2026-04-26T14:46:06Z</time></trkpt><trkpt lat="45.44719633640904" lon="8.781725863912078"><ele>131.0</ele><time>2026-04-26T14:46:07Z</time></trkpt><trkpt lat="45.44707516126355" lon="8.781753316806666"><ele>131.0</ele><time>2026-04-26T14:46:08Z</time></trkpt><trkpt lat="45.44695358886551" lon="8.781784579996193"><ele>131.0</ele><time>2026-04-26T14:46:09Z</time></trkpt><trkpt lat="45.44682981060157" lon="8.781817037475049"><ele>131.0</ele><time>2026-04-26T14:46:10Z</time></trkpt><trkpt lat="45.44670279670683" lon="8.781850523400314"><ele>131.0</ele><time>2026-04-26T14:46:11Z</time></trkpt><trkpt lat="45.44657366724886" lon="8.781886523278127"><ele>131.0</ele><time>2026-04-26T14:46:12Z</time></trkpt><trkpt lat="45.44644048436168" lon="8.781921350276354"><ele>131.0</ele><time>2026-04-26T14:46:13Z</time></trkpt><trkpt lat="45.44630372978369" lon="8.781955484611075"><ele>131.0</ele><time>2026-04-26T14:46:14Z</time></trkpt><trkpt lat="45.4461665358052" lon="8.781992880846518"><ele>131.0</ele><time>2026-04-26T14:46:15Z</time></trkpt><trkpt lat="45.44604624169052" lon="8.782028704867448"><ele>131.0</ele><time>2026-04-26T14:46:16Z</time></trkpt><trkpt lat="45.44594984985249" lon="8.78205402961282"><ele>131.0</ele><time>2026-04-26T14:46:17Z</time></trkpt><trkpt lat="45.44584684186201" lon="8.78208240616055"><ele>131.0</ele><time>2026-04-26T14:46:18Z</time></trkpt><trkpt lat="45.445739508806554" lon="8.782112247912961"><ele>131.0</ele><time>2026-04-26T14:46:19Z</time></trkpt><trkpt lat="45.445653009331394" lon="8.782151542791881"><ele>131.0</ele><time>2026-04-26T14:46:20Z</time></trkpt><trkpt lat="45.445585497042856" lon="8.782223192446075"><ele>131.0</ele><time>2026-04-26T14:46:21Z</time></trkpt><trkpt lat="45.44553022933332" lon="8.78231058998242"><ele>131.0</ele><time>2026-04-26T14:46:22Z</time></trkpt><trkpt lat="45.44546770490028" lon="8.782373442629812"><ele>131.0</ele><time>2026-04-26T14:46:23Z</time></trkpt><trkpt lat="45.445395571400496" lon="8.782437440410794"><ele>131.0</ele><time>2026-04-26T14:46:24Z</time></trkpt><trkpt lat="45.4453227961232" lon="8.782524328996878"><ele>131.0</ele><time>2026-04-26T14:46:25Z</time></trkpt><trkpt lat="45.445251284115834" lon="8.78259469691815"><ele>131.0</ele><time>2026-04-26T14:46:26Z</time></trkpt><trkpt lat="45.44517102026909" lon="8.782614788736684"><ele>131.0</ele><time>2026-04-26T14:46:27Z</time></trkpt><trkpt lat="45.44506864701048" lon="8.78259846308381"><ele>130.66666666666666</ele><time>2026-04-26T14:46:28Z</time></trkpt><trkpt lat="45.44497465519081" lon="8.782558009694517"><ele>130.33333333333331</ele><time>2026-04-26T14:46:29Z</time></trkpt><trkpt lat="45.44488190930915" lon="8.782600897341066"><ele>130.0</ele><time>2026-04-26T14:46:30Z</time></trkpt><trkpt lat="45.44480709183285" lon="8.782672314827398"><ele>129.66666666666666</ele><time>2026-04-26T14:46:31Z</time></trkpt><trkpt lat="45.44474917746106" lon="8.782752649575666"><ele>129.33333333333334</ele><time>2026-04-26T14:46:32Z</time></trkpt><trkpt lat="45.44472532730582" lon="8.782857091207779"><ele>129.0</ele><time>2026-04-26T14:46:33Z</time></trkpt><trkpt lat="45.44472401947718" lon="8.782975519761523"><ele>128.8</ele><time>2026-04-26T14:46:34Z</time></trkpt><trkpt lat="45.44474158965434" lon="8.78309611519222"><ele>128.60000000000002</ele><time>2026-04-26T14:46:35Z</time></trkpt><trkpt lat="45.444781803000744" lon="8.783208783254944"><ele>128.4</ele><time>2026-04-26T14:46:36Z</time></trkpt><trkpt lat="45.444858223855576" lon="8.783291878189877"><ele>128.20000000000002</ele><time>2026-04-26T14:46:37Z</time></trkpt><trkpt lat="45.44494923107327" lon="8.783330840955816"><ele>128.0</ele><time>2026-04-26T14:46:38Z</time></trkpt><trkpt lat="45.44504145895297" lon="8.783337824987612"><ele>128.0</ele><time>2026-04-26T14:46:39Z</time></trkpt><trkpt lat="45.44512752407745" lon="8.78323994032662"><ele>128.0</ele><time>2026-04-26T14:46:40Z</time></trkpt><trkpt lat="45.44520093861029" lon="8.783160687853478"><ele>128.0</ele><time>2026-04-26T14:46:41Z</time></trkpt><trkpt lat="45.445221716034006" lon="8.783001824341428"><ele>128.0</ele><time>2026-04-26T14:46:42Z</time></trkpt><trkpt lat="45.44523932861269" lon="8.782849162789068"><ele>128.0</ele><time>2026-04-26T14:46:43Z</time></trkpt><trkpt lat="45.445271010807474" lon="8.782700793207491"><ele>128.25</ele><time>2026-04-26T14:46:44Z</time></trkpt><trkpt lat="45.44534116381703" lon="8.78257164605956"><ele>128.5</ele><time>2026-04-26T14:46:45Z</time></trkpt><trkpt lat="45.44545146344982" lon="8.782471500578179"><ele>128.75</ele><time>2026-04-26T14:46:46Z</time></trkpt><trkpt lat="45.44554531823623" lon="8.782361421670606"><ele>129.0</ele><time>2026-04-26T14:46:47Z</time></trkpt><trkpt lat="45.44563083184382" lon="8.782261126123235"><ele>129.5</ele><time>2026-04-26T14:46:48Z</time></trkpt><trkpt lat="45.445716045620564" lon="8.78219419199542"><ele>130.0</ele><time>2026-04-26T14:46:49Z</time></trkpt><trkpt lat="45.44582997336258" lon="8.78215425661569"><ele>130.5</ele><time>2026-04-26T14:46:50Z</time></trkpt><trkpt lat="45.44596704906455" lon="8.782113939694128"><ele>131.0</ele><time>2026-04-26T14:46:51Z</time></trkpt><trkpt lat="45.44613083446179" lon="8.782066791792412"><ele>131.33333333333331</ele><time>2026-04-26T14:46:52Z</time></trkpt><trkpt lat="45.44629670793843" lon="8.78202225607899"><ele>131.66666666666666</ele><time>2026-04-26T14:46:53Z</time></trkpt><trkpt lat="45.446465183049625" lon="8.781979500033854"><ele>132.0</ele><time>2026-04-26T14:46:54Z</time></trkpt><trkpt lat="45.44662237181853" lon="8.781939807888765"><ele>132.0</ele><time>2026-04-26T14:46:55Z</time></trkpt><trkpt lat="45.44676125247597" lon="8.781904738822073"><ele>132.0</ele><time>2026-04-26T14:46:56Z</time></trkpt><trkpt lat="45.44689111524747" lon="8.781869625310243"><ele>132.0</ele><time>2026-04-26T14:46:57Z</time></trkpt><trkpt lat="45.447020838960974" lon="8.781834210090178"><ele>132.0</ele><time>2026-04-26T14:46:58Z</time></trkpt><trkpt lat="45.44715813192862" lon="8.781796728469157"><ele>131.75</ele><time>2026-04-26T14:46:59Z</time></trkpt><trkpt lat="45.44729999742124" lon="8.781758766159735"><ele>131.5</ele><time>2026-04-26T14:47:00Z</time></trkpt><trkpt lat="45.44744559504595" lon="8.781722623521068"><ele>131.25</ele><time>2026-04-26T14:47:01Z</time></trkpt><trkpt lat="45.44759123400099" lon="8.781682962441373"><ele>131.0</ele><time>2026-04-26T14:47:02Z</time></trkpt><trkpt lat="45.447734742640264" lon="8.781614328576563"><ele>131.0</ele><time>2026-04-26T14:47:03Z</time></trkpt><trkpt lat="45.447877466251725" lon="8.781564933214682"><ele>131.0</ele><time>2026-04-26T14:47:04Z</time></trkpt><trkpt lat="45.44801804590122" lon="8.781514986838562"><ele>131.0</ele><time>2026-04-26T14:47:05Z</time></trkpt><trkpt lat="45.44816205224871" lon="8.781468959618604"><ele>131.0</ele><time>2026-04-26T14:47:06Z</time></trkpt><trkpt lat="45.44830302087952" lon="8.781455977738238"><ele>130.75</ele><time>2026-04-26T14:47:07Z</time></trkpt><trkpt lat="45.44844424224276" lon="8.781434541253283"><ele>130.5</ele><time>2026-04-26T14:47:08Z</time></trkpt><trkpt lat="45.44858852166272" lon="8.781410493737194"><ele>130.25</ele><time>2026-04-26T14:47:09Z</time></trkpt><trkpt lat="45.448728559027586" lon="8.781380260161002"><ele>130.0</ele><time>2026-04-26T14:47:10Z</time></trkpt><trkpt lat="45.448865494161986" lon="8.78132407729263"><ele>130.75</ele><time>2026-04-26T14:47:11Z</time></trkpt><trkpt lat="45.449007095674915" lon="8.78131206823846"><ele>131.5</ele><time>2026-04-26T14:47:12Z</time></trkpt><trkpt lat="45.44915149142456" lon="8.781276120061396"><ele>132.25</ele><time>2026-04-26T14:47:13Z</time></trkpt><trkpt lat="45.44929819468312" lon="8.781239610883443"><ele>133.0</ele><time>2026-04-26T14:47:14Z</time></trkpt><trkpt lat="45.44944719035537" lon="8.781202714012343"><ele>133.0</ele><time>2026-04-26T14:47:15Z</time></trkpt><trkpt lat="45.44960032505116" lon="8.781164510444782"><ele>133.0</ele><time>2026-04-26T14:47:16Z</time></trkpt><trkpt lat="45.44975409272474" lon="8.781126148987294"><ele>133.0</ele><time>2026-04-26T14:47:17Z</time></trkpt><trkpt lat="45.44990992560944" lon="8.781087948036395"><ele>132.75</ele><time>2026-04-26T14:47:18Z</time></trkpt><trkpt lat="45.45006439928787" lon="8.781052422486322"><ele>132.5</ele><time>2026-04-26T14:47:19Z</time></trkpt><trkpt lat="45.450214550667575" lon="8.781017891022909"><ele>132.25</ele><time>2026-04-26T14:47:20Z</time></trkpt><trkpt lat="45.45035255010894" lon="8.780983706722855"><ele>132.0</ele><time>2026-04-26T14:47:21Z</time></trkpt><trkpt lat="45.450487923799194" lon="8.780947764385388"><ele>131.75</ele><time>2026-04-26T14:47:22Z</time></trkpt><trkpt lat="45.45062065935617" lon="8.78091093037301"><ele>131.5</ele><time>2026-04-26T14:47:23Z</time></trkpt><trkpt lat="45.45074856113746" lon="8.780871651120934"><ele>131.25</ele><time>2026-04-26T14:47:24Z</time></trkpt><trkpt lat="45.450887779705795" lon="8.780824704504177"><ele>131.0</ele><time>2026-04-26T14:47:25Z</time></trkpt><trkpt lat="45.451031844579916" lon="8.780772975675193"><ele>131.0</ele><time>2026-04-26T14:47:26Z</time></trkpt><trkpt lat="45.45117618662601" lon="8.780719943623836"><ele>131.0</ele><time>2026-04-26T14:47:27Z</time></trkpt><trkpt lat="45.45132706606246" lon="8.780663864027021"><ele>131.0</ele><time>2026-04-26T14:47:28Z</time></trkpt><trkpt lat="45.45146314659962" lon="8.780613284875153"><ele>131.0</ele><time>2026-04-26T14:47:29Z</time></trkpt><trkpt lat="45.451600390777095" lon="8.780562275280296"><ele>131.5</ele><time>2026-04-26T14:47:30Z</time></trkpt><trkpt lat="45.451741601380185" lon="8.78050978728145"><ele>132.0</ele><time>2026-04-26T14:47:31Z</time></trkpt><trkpt lat="45.451882252364165" lon="8.780460375663878"><ele>132.5</ele><time>2026-04-26T14:47:32Z</time></trkpt><trkpt lat="45.45202630460396" lon="8.780408549072286"><ele>133.0</ele><time>2026-04-26T14:47:33Z</time></trkpt><trkpt lat="45.452173488458506" lon="8.78035559583041"><ele>133.0</ele><time>2026-04-26T14:47:34Z</time></trkpt><trkpt lat="45.452320745170276" lon="8.780302616367662"><ele>133.0</ele><time>2026-04-26T14:47:35Z</time></trkpt><trkpt lat="45.45247249984077" lon="8.780248023663699"><ele>133.0</ele><time>2026-04-26T14:47:36Z</time></trkpt><trkpt lat="45.45261455686379" lon="8.78019693119185"><ele>133.25</ele><time>2026-04-26T14:47:37Z</time></trkpt><trkpt lat="45.45274832824733" lon="8.780148818722148"><ele>133.5</ele><time>2026-04-26T14:47:38Z</time></trkpt><trkpt lat="45.452877919447474" lon="8.78010147759153"><ele>133.75</ele><time>2026-04-26T14:47:39Z</time></trkpt><trkpt lat="45.452998952537115" lon="8.780055452181962"><ele>134.0</ele><time>2026-04-26T14:47:40Z</time></trkpt><trkpt lat="45.45311021112168" lon="8.780013143675507"><ele>134.16666666666666</ele><time>2026-04-26T14:47:41Z</time></trkpt><trkpt lat="45.453205444371626" lon="8.779952632686914"><ele>134.33333333333331</ele><time>2026-04-26T14:47:42Z</time></trkpt><trkpt lat="45.453295637456726" lon="8.779920754834718"><ele>134.5</ele><time>2026-04-26T14:47:43Z</time></trkpt><trkpt lat="45.453380507693375" lon="8.779889418070063"><ele>134.66666666666666</ele><time>2026-04-26T14:47:44Z</time></trkpt><trkpt lat="45.45345669406622" lon="8.779866798348959"><ele>134.83333333333334</ele><time>2026-04-26T14:47:45Z</time></trkpt><trkpt lat="45.453522813896704" lon="8.779833957629146"><ele>135.0</ele><time>2026-04-26T14:47:46Z</time></trkpt><trkpt lat="45.453586868809786" lon="8.779820460890626"><ele>135.0</ele><time>2026-04-26T14:47:47Z</time></trkpt><trkpt lat="45.45368714895279" lon="8.77974502222988"><ele>135.0</ele><time>2026-04-26T14:47:49Z</time></trkpt><trkpt lat="45.453755108244906" lon="8.779607585865863"><ele>135.0</ele><time>2026-04-26T14:47:51Z</time></trkpt><trkpt lat="45.4537864212994" lon="8.779458066347589"><ele>135.0</ele><time>2026-04-26T14:47:53Z</time></trkpt><trkpt lat="45.45380318759641" lon="8.779311709062142"><ele>135.0</ele><time>2026-04-26T14:47:55Z</time></trkpt><trkpt lat="45.453814399016835" lon="8.779148992742337"><ele>134.66666666666666</ele><time>2026-04-26T14:47:57Z</time></trkpt><trkpt lat="45.453824081125575" lon="8.778978396309684"><ele>134.33333333333334</ele><time>2026-04-26T14:47:59Z</time></trkpt><trkpt lat="45.45382944342015" lon="8.778883914203742"><ele>134.0</ele><time>2026-04-26T14:48:00Z</time></trkpt><trkpt lat="45.45383476848625" lon="8.778790087619717"><ele>133.66666666666669</ele><time>2026-04-26T14:48:01Z</time></trkpt><trkpt lat="45.45384036452939" lon="8.778691486755205"><ele>133.33333333333334</ele><time>2026-04-26T14:48:02Z</time></trkpt><trkpt lat="45.453849230113924" lon="8.778535277385627"><ele>133.0</ele><time>2026-04-26T14:48:04Z</time></trkpt><trkpt lat="45.453855126484534" lon="8.778440255050365"><ele>133.0</ele><time>2026-04-26T14:48:06Z</time></trkpt><trkpt lat="45.45386287357878" lon="8.778327078282796"><ele>133.0</ele><time>2026-04-26T14:48:09Z</time></trkpt><trkpt lat="45.453844682370644" lon="8.778448522113454"><ele>133.0</ele><time>2026-04-26T14:48:48Z</time></trkpt><trkpt lat="45.45383531341162" lon="8.778560340069625"><ele>133.0</ele><time>2026-04-26T14:48:49Z</time></trkpt><trkpt lat="45.45374278062829" lon="8.778660529239405"><ele>133.0</ele><time>2026-04-26T14:48:50Z</time></trkpt><trkpt lat="45.45373023407034" lon="8.778828314727965"><ele>132.8</ele><time>2026-04-26T14:48:51Z</time></trkpt><trkpt lat="45.45372311119354" lon="8.779011473431723"><ele>132.60000000000002</ele><time>2026-04-26T14:48:52Z</time></trkpt><trkpt lat="45.45372102192007" lon="8.779179208974629"><ele>132.39999999999998</ele><time>2026-04-26T14:48:53Z</time></trkpt><trkpt lat="45.45371283662649" lon="8.779319717174936"><ele>132.2</ele><time>2026-04-26T14:48:55Z</time></trkpt><trkpt lat="45.453701689946726" lon="8.779451336041648"><ele>132.0</ele><time>2026-04-26T14:48:57Z</time></trkpt><trkpt lat="45.45368745972721" lon="8.779547736776918"><ele>132.0</ele><time>2026-04-26T14:48:59Z</time></trkpt><trkpt lat="45.453717006603185" lon="8.779634945709516"><ele>132.0</ele><time>2026-04-26T14:49:03Z</time></trkpt><trkpt lat="45.45376958333199" lon="8.779495773113942"><ele>132.0</ele><time>2026-04-26T14:49:06Z</time></trkpt><trkpt lat="45.45373574778965" lon="8.77935501099435"><ele>132.0</ele><time>2026-04-26T14:49:07Z</time></trkpt><trkpt lat="45.453741441447214" lon="8.779238707773898"><ele>132.0</ele><time>2026-04-26T14:49:08Z</time></trkpt><trkpt lat="45.45375582839291" lon="8.779062680870837"><ele>132.0</ele><time>2026-04-26T14:49:09Z</time></trkpt><trkpt lat="45.453763007898026" lon="8.778912838548015"><ele>132.0</ele><time>2026-04-26T14:49:10Z</time></trkpt><trkpt lat="45.45377101022205" lon="8.778734253005496"><ele>132.0</ele><time>2026-04-26T14:49:11Z</time></trkpt><trkpt lat="45.453785731327656" lon="8.778529815369133"><ele>132.0</ele><time>2026-04-26T14:49:12Z</time></trkpt><trkpt lat="45.4538064342577" lon="8.778328949684566"><ele>132.16666666666666</ele><time>2026-04-26T14:49:13Z</time></trkpt><trkpt lat="45.45382769241348" lon="8.778150969104193"><ele>132.33333333333334</ele><time>2026-04-26T14:49:14Z</time></trkpt><trkpt lat="45.45384649551137" lon="8.778028848128931"><ele>132.5</ele><time>2026-04-26T14:49:15Z</time></trkpt><trkpt lat="45.45387006131645" lon="8.777924436175617"><ele>132.66666666666669</ele><time>2026-04-26T14:49:16Z</time></trkpt><trkpt lat="45.45390263684619" lon="8.777840777533882"><ele>132.83333333333334</ele><time>2026-04-26T14:49:17Z</time></trkpt><trkpt lat="45.45395172894108" lon="8.777762275464768"><ele>133.0</ele><time>2026-04-26T14:49:18Z</time></trkpt><trkpt lat="45.454042570597906" lon="8.777733718629868"><ele>133.0</ele><time>2026-04-26T14:49:19Z</time></trkpt><trkpt lat="45.45412059269467" lon="8.77770099396858"><ele>133.0</ele><time>2026-04-26T14:49:20Z</time></trkpt><trkpt lat="45.45422929450383" lon="8.777650032744432"><ele>133.0</ele><time>2026-04-26T14:49:21Z</time></trkpt><trkpt lat="45.45435386984232" lon="8.77757592051973"><ele>133.0</ele><time>2026-04-26T14:49:22Z</time></trkpt><trkpt lat="45.45448803585198" lon="8.777527959660322"><ele>133.5</ele><time>2026-04-26T14:49:23Z</time></trkpt><trkpt lat="45.454627638339126" lon="8.777474247317606"><ele>134.0</ele><time>2026-04-26T14:49:24Z</time></trkpt><trkpt lat="45.45476452033009" lon="8.777419858457094"><ele>134.5</ele><time>2026-04-26T14:49:25Z</time></trkpt><trkpt lat="45.45489666452078" lon="8.777359129773725"><ele>135.0</ele><time>2026-04-26T14:49:26Z</time></trkpt><trkpt lat="45.45503020233641" lon="8.777310151364068"><ele>135.0</ele><time>2026-04-26T14:49:27Z</time></trkpt><trkpt lat="45.45516531918215" lon="8.7772617925448"><ele>135.0</ele><time>2026-04-26T14:49:28Z</time></trkpt><trkpt lat="45.45529266261793" lon="8.777223232117922"><ele>135.0</ele><time>2026-04-26T14:49:29Z</time></trkpt><trkpt lat="45.45540360226739" lon="8.777162100827544"><ele>135.0</ele><time>2026-04-26T14:49:30Z</time></trkpt><trkpt lat="45.455519538650194" lon="8.777119514825305"><ele>134.8</ele><time>2026-04-26T14:49:31Z</time></trkpt><trkpt lat="45.45563288526107" lon="8.777078338767478"><ele>134.6</ele><time>2026-04-26T14:49:32Z</time></trkpt><trkpt lat="45.45574111590616" lon="8.777038709318322"><ele>134.4</ele><time>2026-04-26T14:49:33Z</time></trkpt><trkpt lat="45.45584449660137" lon="8.777003443948182"><ele>134.2</ele><time>2026-04-26T14:49:34Z</time></trkpt><trkpt lat="45.455942878603814" lon="8.776971941726245"><ele>134.0</ele><time>2026-04-26T14:49:35Z</time></trkpt><trkpt lat="45.45604231491625" lon="8.776923549007092"><ele>134.0</ele><time>2026-04-26T14:49:36Z</time></trkpt><trkpt lat="45.45614846091858" lon="8.776876095363438"><ele>134.0</ele><time>2026-04-26T14:49:37Z</time></trkpt><trkpt lat="45.45625890117139" lon="8.776835583332375"><ele>134.0</ele><time>2026-04-26T14:49:38Z</time></trkpt><trkpt lat="45.45636926130819" lon="8.776792715047028"><ele>134.0</ele><time>2026-04-26T14:49:39Z</time></trkpt><trkpt lat="45.456478751447804" lon="8.776750437274215"><ele>134.25</ele><time>2026-04-26T14:49:40Z</time></trkpt><trkpt lat="45.45659131744713" lon="8.776704452255915"><ele>134.5</ele><time>2026-04-26T14:49:41Z</time></trkpt><trkpt lat="45.45670505448609" lon="8.77665510349115"><ele>134.75</ele><time>2026-04-26T14:49:42Z</time></trkpt><trkpt lat="45.456825182622076" lon="8.776603863990362"><ele>135.0</ele><time>2026-04-26T14:49:43Z</time></trkpt><trkpt lat="45.456947724269725" lon="8.776554623303793"><ele>135.0</ele><time>2026-04-26T14:49:44Z</time></trkpt><trkpt lat="45.45707587235879" lon="8.776501453111463"><ele>135.0</ele><time>2026-04-26T14:49:45Z</time></trkpt><trkpt lat="45.45721314830167" lon="8.776467386891746"><ele>135.0</ele><time>2026-04-26T14:49:46Z</time></trkpt><trkpt lat="45.45734345615985" lon="8.776397661067056"><ele>135.0</ele><time>2026-04-26T14:49:47Z</time></trkpt><trkpt lat="45.457478072702955" lon="8.776341253900283"><ele>134.75</ele><time>2026-04-26T14:49:48Z</time></trkpt><trkpt lat="45.457614360363074" lon="8.776296997718806"><ele>134.5</ele><time>2026-04-26T14:49:49Z</time></trkpt><trkpt lat="45.45774036078271" lon="8.776242982072237"><ele>134.25</ele><time>2026-04-26T14:49:50Z</time></trkpt><trkpt lat="45.45787159644475" lon="8.776189641265994"><ele>134.0</ele><time>2026-04-26T14:49:51Z</time></trkpt><trkpt lat="45.458008097794036" lon="8.776132524896889"><ele>134.0</ele><time>2026-04-26T14:49:52Z</time></trkpt><trkpt lat="45.45815006118651" lon="8.776073120841431"><ele>134.0</ele><time>2026-04-26T14:49:53Z</time></trkpt><trkpt lat="45.45828254974629" lon="8.776022329068418"><ele>134.0</ele><time>2026-04-26T14:49:54Z</time></trkpt><trkpt lat="45.458417109650796" lon="8.775970244165611"><ele>134.0</ele><time>2026-04-26T14:49:55Z</time></trkpt><trkpt lat="45.45855446254343" lon="8.775913366377054"><ele>134.25</ele><time>2026-04-26T14:49:56Z</time></trkpt><trkpt lat="45.45869064928689" lon="8.775854997205473"><ele>134.5</ele><time>2026-04-26T14:49:57Z</time></trkpt><trkpt lat="45.458826536894094" lon="8.77580028540365"><ele>134.75</ele><time>2026-04-26T14:49:58Z</time></trkpt><trkpt lat="45.45896471262989" lon="8.775752906695995"><ele>135.0</ele><time>2026-04-26T14:49:59Z</time></trkpt><trkpt lat="45.459101930780804" lon="8.77569903310997"><ele>135.25</ele><time>2026-04-26T14:50:00Z</time></trkpt><trkpt lat="45.45923992895131" lon="8.775642124251618"><ele>135.5</ele><time>2026-04-26T14:50:01Z</time></trkpt><trkpt lat="45.45937927074081" lon="8.77558583030829"><ele>135.75</ele><time>2026-04-26T14:50:02Z</time></trkpt><trkpt lat="45.45951901605943" lon="8.775527501130034"><ele>136.0</ele><time>2026-04-26T14:50:03Z</time></trkpt><trkpt lat="45.45965810403683" lon="8.775466913475741"><ele>136.0</ele><time>2026-04-26T14:50:04Z</time></trkpt><trkpt lat="45.4597931363475" lon="8.775409843077364"><ele>136.0</ele><time>2026-04-26T14:50:05Z</time></trkpt><trkpt lat="45.459930240550925" lon="8.775360255387923"><ele>136.0</ele><time>2026-04-26T14:50:06Z</time></trkpt><trkpt lat="45.460068022333516" lon="8.775305467215288"><ele>136.0</ele><time>2026-04-26T14:50:07Z</time></trkpt><trkpt lat="45.4602087335588" lon="8.775252843399265"><ele>136.0</ele><time>2026-04-26T14:50:08Z</time></trkpt><trkpt lat="45.460345754633536" lon="8.775202211992415"><ele>136.0</ele><time>2026-04-26T14:50:09Z</time></trkpt><trkpt lat="45.460482620887056" lon="8.775149598168657"><ele>136.0</ele><time>2026-04-26T14:50:10Z</time></trkpt><trkpt lat="45.460609387400076" lon="8.77509739741861"><ele>136.0</ele><time>2026-04-26T14:50:11Z</time></trkpt><trkpt lat="45.460726223142295" lon="8.775057712543427"><ele>136.2</ele><time>2026-04-26T14:50:12Z</time></trkpt><trkpt lat="45.46082277350872" lon="8.775009695407517"><ele>136.39999999999998</ele><time>2026-04-26T14:50:13Z</time></trkpt><trkpt lat="45.4609162232404" lon="8.774979021793266"><ele>136.6</ele><time>2026-04-26T14:50:14Z</time></trkpt><trkpt lat="45.46100178560114" lon="8.774937122110016"><ele>136.79999999999998</ele><time>2026-04-26T14:50:15Z</time></trkpt><trkpt lat="45.46109504829522" lon="8.774903025169424"><ele>137.0</ele><time>2026-04-26T14:50:16Z</time></trkpt><trkpt lat="45.46118305406529" lon="8.774899371527738"><ele>137.0</ele><time>2026-04-26T14:50:17Z</time></trkpt><trkpt lat="45.461265838434755" lon="8.774862475905866"><ele>137.0</ele><time>2026-04-26T14:50:18Z</time></trkpt><trkpt lat="45.461336485247664" lon="8.774851842693712"><ele>137.0</ele><time>2026-04-26T14:50:19Z</time></trkpt><trkpt lat="45.46140080873604" lon="8.774879168212141"><ele>137.0</ele><time>2026-04-26T14:50:22Z</time></trkpt><trkpt lat="45.461464959740574" lon="8.774852457644347"><ele>137.0</ele><time>2026-04-26T14:50:25Z</time></trkpt><trkpt lat="45.46151286404347" lon="8.774651640904901"><ele>137.0</ele><time>2026-04-26T14:50:27Z</time></trkpt><trkpt lat="45.46153212446894" lon="8.774540473087653"><ele>137.2</ele><time>2026-04-26T14:50:28Z</time></trkpt><trkpt lat="45.46155546900405" lon="8.77441245036361"><ele>137.39999999999998</ele><time>2026-04-26T14:50:29Z</time></trkpt><trkpt lat="45.461595742701995" lon="8.774287393013317"><ele>137.60000000000002</ele><time>2026-04-26T14:50:30Z</time></trkpt><trkpt lat="45.461629770749276" lon="8.774138023608044"><ele>137.8</ele><time>2026-04-26T14:50:31Z</time></trkpt><trkpt lat="45.46164881886951" lon="8.77396250009273"><ele>138.0</ele><time>2026-04-26T14:50:32Z</time></trkpt><trkpt lat="45.46168868823105" lon="8.773795782980214"><ele>138.0</ele><time>2026-04-26T14:50:33Z</time></trkpt><trkpt lat="45.461725169894336" lon="8.773635944117675"><ele>138.0</ele><time>2026-04-26T14:50:34Z</time></trkpt><trkpt lat="45.46176339633995" lon="8.773453537966933"><ele>138.0</ele><time>2026-04-26T14:50:35Z</time></trkpt><trkpt lat="45.46180393378392" lon="8.773263024026749"><ele>138.0</ele><time>2026-04-26T14:50:36Z</time></trkpt><trkpt lat="45.4618400433895" lon="8.7730644870973"><ele>137.33333333333334</ele><time>2026-04-26T14:50:37Z</time></trkpt><trkpt lat="45.461898643832484" lon="8.772859043603125"><ele>136.66666666666669</ele><time>2026-04-26T14:50:38Z</time></trkpt><trkpt lat="45.46194650666181" lon="8.77262693619678"><ele>136.0</ele><time>2026-04-26T14:50:39Z</time></trkpt><trkpt lat="45.46198914230615" lon="8.772420177965696"><ele>136.0</ele><time>2026-04-26T14:50:40Z</time></trkpt><trkpt lat="45.46203462001775" lon="8.772199637143942"><ele>136.0</ele><time>2026-04-26T14:50:41Z</time></trkpt><trkpt lat="45.46208222346964" lon="8.771968787631799"><ele>136.0</ele><time>2026-04-26T14:50:42Z</time></trkpt><trkpt lat="45.462131892834634" lon="8.771727579447925"><ele>136.33333333333334</ele><time>2026-04-26T14:50:43Z</time></trkpt><trkpt lat="45.462182007266414" lon="8.771483742006403"><ele>136.66666666666666</ele><time>2026-04-26T14:50:44Z</time></trkpt><trkpt lat="45.462230001345354" lon="8.771250221645833"><ele>137.0</ele><time>2026-04-26T14:50:45Z</time></trkpt><trkpt lat="45.46229183583662" lon="8.770949358815816"><ele>137.0</ele><time>2026-04-26T14:50:46Z</time></trkpt><trkpt lat="45.46235228064912" lon="8.770656980402372"><ele>137.0</ele><time>2026-04-26T14:50:47Z</time></trkpt><trkpt lat="45.46242005602936" lon="8.770335720371186"><ele>137.0</ele><time>2026-04-26T14:50:48Z</time></trkpt><trkpt lat="45.46249040133747" lon="8.770002278944643"><ele>137.0</ele><time>2026-04-26T14:50:49Z</time></trkpt><trkpt lat="45.46256398597324" lon="8.769653482939745"><ele>137.0</ele><time>2026-04-26T14:50:50Z</time></trkpt><trkpt lat="45.462640250777724" lon="8.769291640366339"><ele>137.0</ele><time>2026-04-26T14:50:51Z</time></trkpt><trkpt lat="45.462718258150886" lon="8.768921168394249"><ele>137.0</ele><time>2026-04-26T14:50:52Z</time></trkpt><trkpt lat="45.46279856824911" lon="8.768539759587098"><ele>137.5</ele><time>2026-04-26T14:50:53Z</time></trkpt><trkpt lat="45.46287795388251" lon="8.768162741376631"><ele>138.0</ele><time>2026-04-26T14:50:54Z</time></trkpt><trkpt lat="45.462949983993305" lon="8.767820655886021"><ele>138.66666666666666</ele><time>2026-04-26T14:50:55Z</time></trkpt><trkpt lat="45.4630162619395" lon="8.767505889454094"><ele>139.33333333333331</ele><time>2026-04-26T14:50:56Z</time></trkpt><trkpt lat="45.46307514188381" lon="8.767226256185134"><ele>140.0</ele><time>2026-04-26T14:50:57Z</time></trkpt><trkpt lat="45.46312366316454" lon="8.766995427549466"><ele>140.5</ele><time>2026-04-26T14:50:58Z</time></trkpt><trkpt lat="45.46316277652048" lon="8.76680894888922"><ele>141.0</ele><time>2026-04-26T14:50:59Z</time></trkpt><trkpt lat="45.46319681790961" lon="8.766646651646315"><ele>141.5</ele><time>2026-04-26T14:51:00Z</time></trkpt><trkpt lat="45.463228761296286" lon="8.766494356654116"><ele>142.0</ele><time>2026-04-26T14:51:01Z</time></trkpt><trkpt lat="45.46325867677977" lon="8.766351730211507"><ele>142.0</ele><time>2026-04-26T14:51:02Z</time></trkpt><trkpt lat="45.46328638643198" lon="8.766219620583378"><ele>142.0</ele><time>2026-04-26T14:51:03Z</time></trkpt><trkpt lat="45.463312336236555" lon="8.76609590109133"><ele>142.0</ele><time>2026-04-26T14:51:04Z</time></trkpt><trkpt lat="45.46333653753614" lon="8.765980517708178"><ele>142.0</ele><time>2026-04-26T14:51:05Z</time></trkpt><trkpt lat="45.463358124895244" lon="8.765875967464591"><ele>142.0</ele><time>2026-04-26T14:51:06Z</time></trkpt><trkpt lat="45.46338293859076" lon="8.765789495141842"><ele>142.0</ele><time>2026-04-26T14:51:08Z</time></trkpt><trkpt lat="45.46348733368949" lon="8.765779836651566"><ele>141.83333333333334</ele><time>2026-04-26T14:51:10Z</time></trkpt><trkpt lat="45.463551516557196" lon="8.765753428365947"><ele>141.66666666666669</ele><time>2026-04-26T14:51:11Z</time></trkpt><trkpt lat="45.46361211976405" lon="8.765708949204175"><ele>141.5</ele><time>2026-04-26T14:51:12Z</time></trkpt><trkpt lat="45.46373323365366" lon="8.765643416452562"><ele>141.33333333333334</ele><time>2026-04-26T14:51:14Z</time></trkpt><trkpt lat="45.463793792044164" lon="8.765609238451573"><ele>141.16666666666666</ele><time>2026-04-26T14:51:15Z</time></trkpt><trkpt lat="45.463862910111" lon="8.765571349221485"><ele>141.0</ele><time>2026-04-26T14:51:16Z</time></trkpt><trkpt lat="45.46393695872914" lon="8.765532172035076"><ele>140.8</ele><time>2026-04-26T14:51:17Z</time></trkpt><trkpt lat="45.4640181449353" lon="8.76550633182336"><ele>140.6</ele><time>2026-04-26T14:51:18Z</time></trkpt><trkpt lat="45.46413140072105" lon="8.765457568310868"><ele>140.4</ele><time>2026-04-26T14:51:20Z</time></trkpt><trkpt lat="45.464220378633286" lon="8.765483028343773"><ele>140.2</ele><time>2026-04-26T14:51:22Z</time></trkpt><trkpt lat="45.464290949486156" lon="8.765561564792456"><ele>140.0</ele><time>2026-04-26T14:51:24Z</time></trkpt><trkpt lat="45.46428999153511" lon="8.765731798128497"><ele>140.0</ele><time>2026-04-26T14:51:25Z</time></trkpt><trkpt lat="45.464321251267016" lon="8.765864228088722"><ele>140.0</ele><time>2026-04-26T14:51:26Z</time></trkpt><trkpt lat="45.46436259681602" lon="8.766010045391079"><ele>140.0</ele><time>2026-04-26T14:51:27Z</time></trkpt><trkpt lat="45.46440074768018" lon="8.76614141274995"><ele>140.0</ele><time>2026-04-26T14:51:28Z</time></trkpt><trkpt lat="45.46443179420843" lon="8.766276251262646"><ele>140.0</ele><time>2026-04-26T14:51:29Z</time></trkpt><trkpt lat="45.46446317777261" lon="8.76641027130888"><ele>140.0</ele><time>2026-04-26T14:51:30Z</time></trkpt><trkpt lat="45.464489882213776" lon="8.766538487463055"><ele>140.0</ele><time>2026-04-26T14:51:31Z</time></trkpt><trkpt lat="45.464521663687236" lon="8.766670718850213"><ele>140.0</ele><time>2026-04-26T14:51:32Z</time></trkpt><trkpt lat="45.46454699271801" lon="8.76679143253023"><ele>140.0</ele><time>2026-04-26T14:51:33Z</time></trkpt><trkpt lat="45.46457036872547" lon="8.766900769777617"><ele>140.0</ele><time>2026-04-26T14:51:34Z</time></trkpt><trkpt lat="45.464595216982175" lon="8.767014492058625"><ele>140.0</ele><time>2026-04-26T14:51:35Z</time></trkpt><trkpt lat="45.464620843200905" lon="8.767134572111729"><ele>139.8</ele><time>2026-04-26T14:51:36Z</time></trkpt><trkpt lat="45.464646653418015" lon="8.767255624048305"><ele>139.6</ele><time>2026-04-26T14:51:37Z</time></trkpt><trkpt lat="45.46467834042451" lon="8.767396850814054"><ele>139.4</ele><time>2026-04-26T14:51:38Z</time></trkpt><trkpt lat="45.46471261613866" lon="8.76754522355613"><ele>139.2</ele><time>2026-04-26T14:51:39Z</time></trkpt><trkpt lat="45.46474624129969" lon="8.767707153391779"><ele>139.0</ele><time>2026-04-26T14:51:40Z</time></trkpt><trkpt lat="45.464770273405314" lon="8.767877672994993"><ele>139.0</ele><time>2026-04-26T14:51:41Z</time></trkpt><trkpt lat="45.464802859571535" lon="8.768030046678362"><ele>139.0</ele><time>2026-04-26T14:51:42Z</time></trkpt><trkpt lat="45.464829916758426" lon="8.768156566614902"><ele>139.0</ele><time>2026-04-26T14:51:43Z</time></trkpt><trkpt lat="45.46485329483065" lon="8.768271299368738"><ele>139.0</ele><time>2026-04-26T14:51:44Z</time></trkpt><trkpt lat="45.464874856630274" lon="8.768387773720745"><ele>139.0</ele><time>2026-04-26T14:51:45Z</time></trkpt><trkpt lat="45.464895682811346" lon="8.768509738405589"><ele>138.8</ele><time>2026-04-26T14:51:46Z</time></trkpt><trkpt lat="45.46493509012192" lon="8.768625300599085"><ele>138.60000000000002</ele><time>2026-04-26T14:51:47Z</time></trkpt><trkpt lat="45.46495065166657" lon="8.768759997805386"><ele>138.4</ele><time>2026-04-26T14:51:48Z</time></trkpt><trkpt lat="45.464998301098326" lon="8.768883920995917"><ele>138.20000000000002</ele><time>2026-04-26T14:51:49Z</time></trkpt><trkpt lat="45.46503890925535" lon="8.769022864464562"><ele>138.0</ele><time>2026-04-26T14:51:50Z</time></trkpt><trkpt lat="45.46507378914039" lon="8.769178765429617"><ele>138.0</ele><time>2026-04-26T14:51:51Z</time></trkpt><trkpt lat="45.465115144473245" lon="8.769315666102127"><ele>138.0</ele><time>2026-04-26T14:51:52Z</time></trkpt><trkpt lat="45.46515184303004" lon="8.76944836582892"><ele>138.0</ele><time>2026-04-26T14:51:53Z</time></trkpt><trkpt lat="45.465187000469065" lon="8.769583589998318"><ele>138.0</ele><time>2026-04-26T14:51:54Z</time></trkpt><trkpt lat="45.46522122070996" lon="8.76971565624821"><ele>138.0</ele><time>2026-04-26T14:51:55Z</time></trkpt><trkpt lat="45.46525418374031" lon="8.769859867365843"><ele>138.16666666666666</ele><time>2026-04-26T14:51:56Z</time></trkpt><trkpt lat="45.465275004341144" lon="8.770001876610026"><ele>138.33333333333334</ele><time>2026-04-26T14:51:57Z</time></trkpt><trkpt lat="45.465304718916016" lon="8.770139225134361"><ele>138.5</ele><time>2026-04-26T14:51:58Z</time></trkpt><trkpt lat="45.4653147848113" lon="8.770262965562726"><ele>138.66666666666669</ele><time>2026-04-26T14:51:59Z</time></trkpt><trkpt lat="45.46535241358077" lon="8.77036574334896"><ele>138.83333333333334</ele><time>2026-04-26T14:52:00Z</time></trkpt><trkpt lat="45.46537097558329" lon="8.770469771361094"><ele>139.0</ele><time>2026-04-26T14:52:01Z</time></trkpt><trkpt lat="45.46540358446345" lon="8.770629075989904"><ele>139.6</ele><time>2026-04-26T14:52:03Z</time></trkpt><trkpt lat="45.46547383100643" lon="8.7707216426664"><ele>140.2</ele><time>2026-04-26T14:52:05Z</time></trkpt><trkpt lat="45.465594655752156" lon="8.770714738412"><ele>140.79999999999998</ele><time>2026-04-26T14:52:07Z</time></trkpt><trkpt lat="45.46567083127373" lon="8.770667041157864"><ele>141.4</ele><time>2026-04-26T14:52:08Z</time></trkpt><trkpt lat="45.46574843780706" lon="8.77062388679334"><ele>142.0</ele><time>2026-04-26T14:52:09Z</time></trkpt><trkpt lat="45.46584430043327" lon="8.770577079615634"><ele>142.0</ele><time>2026-04-26T14:52:10Z</time></trkpt><trkpt lat="45.4659260293377" lon="8.770537466869172"><ele>142.0</ele><time>2026-04-26T14:52:11Z</time></trkpt><trkpt lat="45.46600901920301" lon="8.77051465751627"><ele>142.0</ele><time>2026-04-26T14:52:12Z</time></trkpt><trkpt lat="45.46608960710012" lon="8.770492687828623"><ele>142.0</ele><time>2026-04-26T14:52:13Z</time></trkpt><trkpt lat="45.466179216886985" lon="8.77046785788273"><ele>142.0</ele><time>2026-04-26T14:52:14Z</time></trkpt><trkpt lat="45.46625773777828" lon="8.770418610796805"><ele>142.0</ele><time>2026-04-26T14:52:15Z</time></trkpt><trkpt lat="45.46634496823467" lon="8.770405393557285"><ele>142.0</ele><time>2026-04-26T14:52:16Z</time></trkpt><trkpt lat="45.466419132220715" lon="8.770361193914832"><ele>142.0</ele><time>2026-04-26T14:52:17Z</time></trkpt><trkpt lat="45.46647331225105" lon="8.770310636308416"><ele>142.0</ele><time>2026-04-26T14:52:18Z</time></trkpt><trkpt lat="45.466562019162296" lon="8.770215633139733"><ele>142.0</ele><time>2026-04-26T14:52:20Z</time></trkpt><trkpt lat="45.466598854578464" lon="8.770121371926122"><ele>142.0</ele><time>2026-04-26T14:52:21Z</time></trkpt><trkpt lat="45.466626840519616" lon="8.770018955817722"><ele>142.0</ele><time>2026-04-26T14:52:22Z</time></trkpt><trkpt lat="45.46667491296372" lon="8.769914879490203"><ele>142.0</ele><time>2026-04-26T14:52:23Z</time></trkpt><trkpt lat="45.466699389142505" lon="8.76978045144594"><ele>142.0</ele><time>2026-04-26T14:52:24Z</time></trkpt><trkpt lat="45.46674423656841" lon="8.769676787265144"><ele>142.0</ele><time>2026-04-26T14:52:25Z</time></trkpt><trkpt lat="45.466774617371755" lon="8.769568486184076"><ele>142.0</ele><time>2026-04-26T14:52:26Z</time></trkpt><trkpt lat="45.466797043109096" lon="8.769435883375714"><ele>142.0</ele><time>2026-04-26T14:52:27Z</time></trkpt><trkpt lat="45.46683843749136" lon="8.769311872527785"><ele>141.79999999999998</ele><time>2026-04-26T14:52:28Z</time></trkpt><trkpt lat="45.46689336618337" lon="8.769192579605907"><ele>141.6</ele><time>2026-04-26T14:52:29Z</time></trkpt><trkpt lat="45.46692090299066" lon="8.769040069150854"><ele>141.39999999999998</ele><time>2026-04-26T14:52:30Z</time></trkpt><trkpt lat="45.46695855336981" lon="8.768913133969578"><ele>141.2</ele><time>2026-04-26T14:52:31Z</time></trkpt><trkpt lat="45.46700211729991" lon="8.768823051935613"><ele>141.0</ele><time>2026-04-26T14:52:32Z</time></trkpt><trkpt lat="45.46701511466851" lon="8.768729904411492"><ele>141.0</ele><time>2026-04-26T14:52:33Z</time></trkpt><trkpt lat="45.467040997387876" lon="8.768642884661721"><ele>141.0</ele><time>2026-04-26T14:52:34Z</time></trkpt><trkpt lat="45.467069859855776" lon="8.768543729482358"><ele>141.0</ele><time>2026-04-26T14:52:35Z</time></trkpt><trkpt lat="45.46709873103437" lon="8.768440774842347"><ele>141.0</ele><time>2026-04-26T14:52:36Z</time></trkpt><trkpt lat="45.467146616616496" lon="8.768342605351839"><ele>141.0</ele><time>2026-04-26T14:52:37Z</time></trkpt><trkpt lat="45.46718257845157" lon="8.768232110416323"><ele>141.0</ele><time>2026-04-26T14:52:38Z</time></trkpt><trkpt lat="45.46721875906851" lon="8.768122239578462"><ele>140.0</ele><time>2026-04-26T14:52:39Z</time></trkpt><trkpt lat="45.46725594565572" lon="8.768009313597032"><ele>139.0</ele><time>2026-04-26T14:52:40Z</time></trkpt><trkpt lat="45.46729362312555" lon="8.767889969427396"><ele>138.0</ele><time>2026-04-26T14:52:41Z</time></trkpt><trkpt lat="45.46731460456412" lon="8.767771108469086"><ele>137.0</ele><time>2026-04-26T14:52:42Z</time></trkpt><trkpt lat="45.46734537198734" lon="8.767657743753043"><ele>136.0</ele><time>2026-04-26T14:52:43Z</time></trkpt><trkpt lat="45.46735782341917" lon="8.76753910762984"><ele>135.0</ele><time>2026-04-26T14:52:44Z</time></trkpt><trkpt lat="45.467362583659344" lon="8.767409187646544"><ele>134.8</ele><time>2026-04-26T14:52:45Z</time></trkpt><trkpt lat="45.46736150364001" lon="8.76728116688943"><ele>134.6</ele><time>2026-04-26T14:52:46Z</time></trkpt><trkpt lat="45.46735008450882" lon="8.767156236733427"><ele>134.4</ele><time>2026-04-26T14:52:47Z</time></trkpt><trkpt lat="45.46733709043645" lon="8.767014960441093"><ele>134.2</ele><time>2026-04-26T14:52:48Z</time></trkpt><trkpt lat="45.467324141810515" lon="8.76688676038395"><ele>134.0</ele><time>2026-04-26T14:52:49Z</time></trkpt><trkpt lat="45.46731400675937" lon="8.76676687398916"><ele>133.4</ele><time>2026-04-26T14:52:50Z</time></trkpt><trkpt lat="45.46729493859902" lon="8.7666450513708"><ele>132.8</ele><time>2026-04-26T14:52:51Z</time></trkpt><trkpt lat="45.467272006925256" lon="8.766506285170689"><ele>132.2</ele><time>2026-04-26T14:52:52Z</time></trkpt><trkpt lat="45.46724852706697" lon="8.766363836724329"><ele>131.6</ele><time>2026-04-26T14:52:53Z</time></trkpt><trkpt lat="45.46720704724992" lon="8.766233956452703"><ele>131.0</ele><time>2026-04-26T14:52:54Z</time></trkpt><trkpt lat="45.46718001997399" lon="8.766122857305824"><ele>132.16666666666666</ele><time>2026-04-26T14:52:55Z</time></trkpt><trkpt lat="45.4671587468486" lon="8.766015375597746"><ele>133.33333333333331</ele><time>2026-04-26T14:52:56Z</time></trkpt><trkpt lat="45.46716243707018" lon="8.765903793697035"><ele>134.5</ele><time>2026-04-26T14:52:57Z</time></trkpt><trkpt lat="45.46716404516978" lon="8.765812023028154"><ele>135.66666666666666</ele><time>2026-04-26T14:52:58Z</time></trkpt><trkpt lat="45.46719256244434" lon="8.765712408986582"><ele>136.83333333333334</ele><time>2026-04-26T14:52:59Z</time></trkpt><trkpt lat="45.46723713916493" lon="8.76561499414608"><ele>138.0</ele><time>2026-04-26T14:53:00Z</time></trkpt><trkpt lat="45.467299216184365" lon="8.76552684432937"><ele>138.0</ele><time>2026-04-26T14:53:01Z</time></trkpt><trkpt lat="45.46738115038416" lon="8.76545945507954"><ele>138.0</ele><time>2026-04-26T14:53:02Z</time></trkpt><trkpt lat="45.46747956347914" lon="8.765417756699737"><ele>138.0</ele><time>2026-04-26T14:53:03Z</time></trkpt><trkpt lat="45.46759564299028" lon="8.765406094613365"><ele>138.0</ele><time>2026-04-26T14:53:04Z</time></trkpt><trkpt lat="45.467719128466214" lon="8.765372109466194"><ele>138.0</ele><time>2026-04-26T14:53:05Z</time></trkpt><trkpt lat="45.46783460536981" lon="8.765353547604109"><ele>138.0</ele><time>2026-04-26T14:53:06Z</time></trkpt><trkpt lat="45.46794263518661" lon="8.765334500480035"><ele>138.0</ele><time>2026-04-26T14:53:07Z</time></trkpt><trkpt lat="45.46804480077079" lon="8.765318428349282"><ele>138.0</ele><time>2026-04-26T14:53:08Z</time></trkpt><trkpt lat="45.46813657342416" lon="8.765328799887145"><ele>138.0</ele><time>2026-04-26T14:53:09Z</time></trkpt><trkpt lat="45.46821173497879" lon="8.76529093066309"><ele>138.0</ele><time>2026-04-26T14:53:10Z</time></trkpt><trkpt lat="45.46828008488418" lon="8.765227702227428"><ele>138.66666666666666</ele><time>2026-04-26T14:53:11Z</time></trkpt><trkpt lat="45.46833925410597" lon="8.765122212821712"><ele>139.33333333333334</ele><time>2026-04-26T14:53:12Z</time></trkpt><trkpt lat="45.468377894858456" lon="8.765020401800356"><ele>140.0</ele><time>2026-04-26T14:53:13Z</time></trkpt><trkpt lat="45.46842825017544" lon="8.764964997114516"><ele>140.66666666666669</ele><time>2026-04-26T14:53:14Z</time></trkpt><trkpt lat="45.468479507416085" lon="8.764899403604216"><ele>141.33333333333334</ele><time>2026-04-26T14:53:16Z</time></trkpt><trkpt lat="45.468546444343936" lon="8.765023558277953"><ele>142.0</ele><time>2026-04-26T14:53:19Z</time></trkpt><trkpt lat="45.46856170685035" lon="8.76512261858464"><ele>142.0</ele><time>2026-04-26T14:53:20Z</time></trkpt><trkpt lat="45.46858269227432" lon="8.765220293899123"><ele>142.0</ele><time>2026-04-26T14:53:21Z</time></trkpt><trkpt lat="45.468611464736846" lon="8.765336518034694"><ele>142.0</ele><time>2026-04-26T14:53:22Z</time></trkpt><trkpt lat="45.46863024630995" lon="8.765458514097332"><ele>142.0</ele><time>2026-04-26T14:53:23Z</time></trkpt><trkpt lat="45.46863616765288" lon="8.765557678564488"><ele>142.0</ele><time>2026-04-26T14:53:24Z</time></trkpt><trkpt lat="45.46865201681757" lon="8.765650437100671"><ele>142.0</ele><time>2026-04-26T14:53:25Z</time></trkpt><trkpt lat="45.46870541625949" lon="8.765787999994789"><ele>142.0</ele><time>2026-04-26T14:53:27Z</time></trkpt><trkpt lat="45.46875955746841" lon="8.76589383187613"><ele>142.0</ele><time>2026-04-26T14:53:29Z</time></trkpt><trkpt lat="45.46882330017521" lon="8.765899183660265"><ele>142.0</ele><time>2026-04-26T14:53:30Z</time></trkpt><trkpt lat="45.468941860279465" lon="8.765799478467862"><ele>142.0</ele><time>2026-04-26T14:53:32Z</time></trkpt><trkpt lat="45.46900192825242" lon="8.765750285153459"><ele>142.0</ele><time>2026-04-26T14:53:33Z</time></trkpt><trkpt lat="45.46905233251367" lon="8.765683591730193"><ele>142.0</ele><time>2026-04-26T14:53:34Z</time></trkpt><trkpt lat="45.46911239277253" lon="8.765628287135623"><ele>141.66666666666669</ele><time>2026-04-26T14:53:35Z</time></trkpt><trkpt lat="45.46917191269592" lon="8.765579676077934"><ele>141.33333333333334</ele><time>2026-04-26T14:53:36Z</time></trkpt><trkpt lat="45.46923621580932" lon="8.765519472629657"><ele>141.0</ele><time>2026-04-26T14:53:37Z</time></trkpt><trkpt lat="45.46931021600344" lon="8.765451516605204"><ele>140.66666666666666</ele><time>2026-04-26T14:53:38Z</time></trkpt><trkpt lat="45.46937825277242" lon="8.765383274220639"><ele>140.33333333333331</ele><time>2026-04-26T14:53:39Z</time></trkpt><trkpt lat="45.4694471429019" lon="8.765314819583278"><ele>140.0</ele><time>2026-04-26T14:53:40Z</time></trkpt><trkpt lat="45.469517118390804" lon="8.765253908446162"><ele>140.2</ele><time>2026-04-26T14:53:41Z</time></trkpt><trkpt lat="45.469597493220384" lon="8.765193361658486"><ele>140.4</ele><time>2026-04-26T14:53:42Z</time></trkpt><trkpt lat="45.46967617313956" lon="8.765130096779766"><ele>140.6</ele><time>2026-04-26T14:53:43Z</time></trkpt><trkpt lat="45.46975248912506" lon="8.765064204439843"><ele>140.8</ele><time>2026-04-26T14:53:44Z</time></trkpt><trkpt lat="45.469837259105816" lon="8.765025127326021"><ele>141.0</ele><time>2026-04-26T14:53:45Z</time></trkpt><trkpt lat="45.4699169165396" lon="8.764964410517496"><ele>141.33333333333334</ele><time>2026-04-26T14:53:46Z</time></trkpt><trkpt lat="45.4699970397633" lon="8.764903045277471"><ele>141.66666666666666</ele><time>2026-04-26T14:53:47Z</time></trkpt><trkpt lat="45.47005811006613" lon="8.764854593401488"><ele>142.0</ele><time>2026-04-26T14:53:48Z</time></trkpt><trkpt lat="45.47010680695992" lon="8.764788234451812"><ele>142.33333333333331</ele><time>2026-04-26T14:53:49Z</time></trkpt><trkpt lat="45.47019911888255" lon="8.76471948118151"><ele>142.66666666666666</ele><time>2026-04-26T14:53:51Z</time></trkpt><trkpt lat="45.47024275554393" lon="8.764634121300377"><ele>143.0</ele><time>2026-04-26T14:53:53Z</time></trkpt><trkpt lat="45.470223497314144" lon="8.764477166314231"><ele>143.0</ele><time>2026-04-26T14:53:55Z</time></trkpt><trkpt lat="45.47020215041715" lon="8.764370030911623"><ele>143.0</ele><time>2026-04-26T14:53:56Z</time></trkpt><trkpt lat="45.4701745451497" lon="8.764256451761284"><ele>143.0</ele><time>2026-04-26T14:53:57Z</time></trkpt><trkpt lat="45.4701393989483" lon="8.764163475820911"><ele>143.0</ele><time>2026-04-26T14:53:58Z</time></trkpt><trkpt lat="45.470122346394355" lon="8.764055366902598"><ele>143.0</ele><time>2026-04-26T14:53:59Z</time></trkpt><trkpt lat="45.47008007021135" lon="8.76394397306079"><ele>143.0</ele><time>2026-04-26T14:54:00Z</time></trkpt><trkpt lat="45.47005509464775" lon="8.763830063206491"><ele>143.20000000000002</ele><time>2026-04-26T14:54:01Z</time></trkpt><trkpt lat="45.47002649516386" lon="8.76371525536328"><ele>143.4</ele><time>2026-04-26T14:54:02Z</time></trkpt><trkpt lat="45.47000160984802" lon="8.763594673132086"><ele>143.60000000000002</ele><time>2026-04-26T14:54:03Z</time></trkpt><trkpt lat="45.46997324230484" lon="8.763460095010677"><ele>143.8</ele><time>2026-04-26T14:54:04Z</time></trkpt><trkpt lat="45.469958870680856" lon="8.763323345083842"><ele>144.0</ele><time>2026-04-26T14:54:05Z</time></trkpt><trkpt lat="45.469930722641905" lon="8.763185800148182"><ele>143.6</ele><time>2026-04-26T14:54:06Z</time></trkpt><trkpt lat="45.46988771449685" lon="8.76305745433391"><ele>143.2</ele><time>2026-04-26T14:54:07Z</time></trkpt><trkpt lat="45.46987615682644" lon="8.76292337647734"><ele>142.79999999999998</ele><time>2026-04-26T14:54:08Z</time></trkpt><trkpt lat="45.46984841781292" lon="8.76279210789604"><ele>142.4</ele><time>2026-04-26T14:54:09Z</time></trkpt><trkpt lat="45.46980524895151" lon="8.762671209738881"><ele>142.0</ele><time>2026-04-26T14:54:10Z</time></trkpt><trkpt lat="45.469787738274775" lon="8.762526106526225"><ele>142.0</ele><time>2026-04-26T14:54:11Z</time></trkpt><trkpt lat="45.46975451482052" lon="8.762381989307254"><ele>142.0</ele><time>2026-04-26T14:54:12Z</time></trkpt><trkpt lat="45.46971920073035" lon="8.762233222660063"><ele>142.0</ele><time>2026-04-26T14:54:13Z</time></trkpt><trkpt lat="45.469673735095306" lon="8.762090571079167"><ele>142.0</ele><time>2026-04-26T14:54:14Z</time></trkpt><trkpt lat="45.469634923188444" lon="8.76194263572509"><ele>142.0</ele><time>2026-04-26T14:54:15Z</time></trkpt><trkpt lat="45.46960029535462" lon="8.761794686006523"><ele>141.66666666666669</ele><time>2026-04-26T14:54:16Z</time></trkpt><trkpt lat="45.46956704444621" lon="8.761659716883825"><ele>141.33333333333334</ele><time>2026-04-26T14:54:17Z</time></trkpt><trkpt lat="45.46954183396138" lon="8.761528040822434"><ele>141.0</ele><time>2026-04-26T14:54:18Z</time></trkpt><trkpt lat="45.46951461749677" lon="8.761415942356878"><ele>140.66666666666666</ele><time>2026-04-26T14:54:19Z</time></trkpt><trkpt lat="45.469495027821694" lon="8.761319319227344"><ele>140.33333333333331</ele><time>2026-04-26T14:54:20Z</time></trkpt><trkpt lat="45.46947415116876" lon="8.761229708220949"><ele>140.0</ele><time>2026-04-26T14:54:21Z</time></trkpt><trkpt lat="45.469453284472934" lon="8.76113460694054"><ele>140.0</ele><time>2026-04-26T14:54:22Z</time></trkpt><trkpt lat="45.46942926313051" lon="8.761041555746957"><ele>140.0</ele><time>2026-04-26T14:54:23Z</time></trkpt><trkpt lat="45.46940984611129" lon="8.760940125100145"><ele>140.0</ele><time>2026-04-26T14:54:24Z</time></trkpt><trkpt lat="45.4693862789799" lon="8.760836674507384"><ele>140.0</ele><time>2026-04-26T14:54:25Z</time></trkpt><trkpt lat="45.46936192009409" lon="8.760725474363952"><ele>140.0</ele><time>2026-04-26T14:54:26Z</time></trkpt><trkpt lat="45.469335422030824" lon="8.760607530609168"><ele>140.0</ele><time>2026-04-26T14:54:27Z</time></trkpt><trkpt lat="45.46932630428159" lon="8.760493843396347"><ele>140.2</ele><time>2026-04-26T14:54:28Z</time></trkpt><trkpt lat="45.469301168658994" lon="8.76038039275437"><ele>140.4</ele><time>2026-04-26T14:54:29Z</time></trkpt><trkpt lat="45.46927406455629" lon="8.76025805726543"><ele>140.6</ele><time>2026-04-26T14:54:30Z</time></trkpt><trkpt lat="45.46924438534283" lon="8.760124063227012"><ele>140.8</ele><time>2026-04-26T14:54:31Z</time></trkpt><trkpt lat="45.46919863385753" lon="8.759996031592708"><ele>141.0</ele><time>2026-04-26T14:54:32Z</time></trkpt><trkpt lat="45.46917087829301" lon="8.759856641718226"><ele>141.0</ele><time>2026-04-26T14:54:33Z</time></trkpt><trkpt lat="45.469153532777035" lon="8.759713758200375"><ele>141.0</ele><time>2026-04-26T14:54:34Z</time></trkpt><trkpt lat="45.469126611580975" lon="8.759599388281119"><ele>141.0</ele><time>2026-04-26T14:54:35Z</time></trkpt><trkpt lat="45.46908963845756" lon="8.75950528076569"><ele>141.0</ele><time>2026-04-26T14:54:36Z</time></trkpt><trkpt lat="45.46905397007044" lon="8.759350809775718"><ele>141.0</ele><time>2026-04-26T14:54:38Z</time></trkpt><trkpt lat="45.46906134514868" lon="8.75920943241551"><ele>141.0</ele><time>2026-04-26T14:54:40Z</time></trkpt><trkpt lat="45.46909102560299" lon="8.759089618763884"><ele>141.0</ele><time>2026-04-26T14:54:42Z</time></trkpt><trkpt lat="45.46920784012555" lon="8.75901987298415"><ele>141.0</ele><time>2026-04-26T14:54:44Z</time></trkpt><trkpt lat="45.46928586707752" lon="8.75897763016091"><ele>141.0</ele><time>2026-04-26T14:54:45Z</time></trkpt><trkpt lat="45.46936284577956" lon="8.758920906684086"><ele>141.0</ele><time>2026-04-26T14:54:46Z</time></trkpt><trkpt lat="45.46946545205798" lon="8.758876992809414"><ele>141.0</ele><time>2026-04-26T14:54:47Z</time></trkpt><trkpt lat="45.4695715618383" lon="8.758828462062475"><ele>141.0</ele><time>2026-04-26T14:54:48Z</time></trkpt><trkpt lat="45.46966512649013" lon="8.758786151700416"><ele>141.0</ele><time>2026-04-26T14:54:49Z</time></trkpt><trkpt lat="45.46976619739652" lon="8.758746658281524"><ele>141.0</ele><time>2026-04-26T14:54:50Z</time></trkpt><trkpt lat="45.46986125118906" lon="8.75870071889485"><ele>141.0</ele><time>2026-04-26T14:54:51Z</time></trkpt><trkpt lat="45.46995391036756" lon="8.758685127520176"><ele>141.0</ele><time>2026-04-26T14:54:52Z</time></trkpt><trkpt lat="45.47004254416882" lon="8.758623256597076"><ele>141.0</ele><time>2026-04-26T14:54:53Z</time></trkpt><trkpt lat="45.47013960310223" lon="8.75860147044029"><ele>141.0</ele><time>2026-04-26T14:54:54Z</time></trkpt><trkpt lat="45.470236680994155" lon="8.758556899840725"><ele>141.0</ele><time>2026-04-26T14:54:55Z</time></trkpt><trkpt lat="45.47033233401716" lon="8.758496506133557"><ele>141.0</ele><time>2026-04-26T14:54:56Z</time></trkpt><trkpt lat="45.4704311460077" lon="8.758450918697813"><ele>141.4</ele><time>2026-04-26T14:54:57Z</time></trkpt><trkpt lat="45.47052714138272" lon="8.75840824184753"><ele>141.8</ele><time>2026-04-26T14:54:58Z</time></trkpt><trkpt lat="45.47062774410062" lon="8.75836229670101"><ele>142.20000000000002</ele><time>2026-04-26T14:54:59Z</time></trkpt><trkpt lat="45.47073074911214" lon="8.75831427855943"><ele>142.6</ele><time>2026-04-26T14:55:00Z</time></trkpt><trkpt lat="45.47083229116096" lon="8.758267259825134"><ele>143.0</ele><time>2026-04-26T14:55:01Z</time></trkpt><trkpt lat="45.470927942326924" lon="8.758222461199992"><ele>143.0</ele><time>2026-04-26T14:55:02Z</time></trkpt><trkpt lat="45.471018955878215" lon="8.758180738290402"><ele>143.0</ele><time>2026-04-26T14:55:03Z</time></trkpt><trkpt lat="45.47111579128756" lon="8.758154384781218"><ele>143.0</ele><time>2026-04-26T14:55:04Z</time></trkpt><trkpt lat="45.47119534282467" lon="8.758095583358108"><ele>143.0</ele><time>2026-04-26T14:55:05Z</time></trkpt><trkpt lat="45.47127498532009" lon="8.758061489992466"><ele>143.0</ele><time>2026-04-26T14:55:06Z</time></trkpt><trkpt lat="45.47135072852779" lon="8.758027500388392"><ele>143.0</ele><time>2026-04-26T14:55:07Z</time></trkpt><trkpt lat="45.47142366822789" lon="8.757996716054274"><ele>143.66666666666666</ele><time>2026-04-26T14:55:08Z</time></trkpt><trkpt lat="45.47150084492823" lon="8.757959355849923"><ele>144.33333333333331</ele><time>2026-04-26T14:55:09Z</time></trkpt><trkpt lat="45.47157063467926" lon="8.757924437574548"><ele>145.0</ele><time>2026-04-26T14:55:10Z</time></trkpt><trkpt lat="45.47164627511364" lon="8.757894869127226"><ele>145.66666666666666</ele><time>2026-04-26T14:55:11Z</time></trkpt><trkpt lat="45.47173318875182" lon="8.757879222936808"><ele>146.33333333333334</ele><time>2026-04-26T14:55:12Z</time></trkpt><trkpt lat="45.47181630071736" lon="8.757819890258562"><ele>147.0</ele><time>2026-04-26T14:55:13Z</time></trkpt><trkpt lat="45.47191017281777" lon="8.757802477139885"><ele>147.0</ele><time>2026-04-26T14:55:14Z</time></trkpt><trkpt lat="45.47200101319707" lon="8.757768281811169"><ele>147.0</ele><time>2026-04-26T14:55:15Z</time></trkpt><trkpt lat="45.472079270819066" lon="8.757739652332301"><ele>147.0</ele><time>2026-04-26T14:55:16Z</time></trkpt><trkpt lat="45.47214454497888" lon="8.757703161237595"><ele>147.0</ele><time>2026-04-26T14:55:17Z</time></trkpt><trkpt lat="45.47223672534412" lon="8.757579810346742"><ele>147.0</ele><time>2026-04-26T14:55:19Z</time></trkpt><trkpt lat="45.4722947730466" lon="8.757512610613974"><ele>147.0</ele><time>2026-04-26T14:55:20Z</time></trkpt><trkpt lat="45.47234888207631" lon="8.757409150976152"><ele>146.4</ele><time>2026-04-26T14:55:21Z</time></trkpt><trkpt lat="45.47240466138985" lon="8.75731030805369"><ele>145.79999999999998</ele><time>2026-04-26T14:55:22Z</time></trkpt><trkpt lat="45.47246578125323" lon="8.757208875011527"><ele>145.2</ele><time>2026-04-26T14:55:23Z</time></trkpt><trkpt lat="45.47252956987451" lon="8.75710635796872"><ele>144.6</ele><time>2026-04-26T14:55:24Z</time></trkpt><trkpt lat="45.472598855235994" lon="8.756995128926793"><ele>144.0</ele><time>2026-04-26T14:55:25Z</time></trkpt><trkpt lat="45.47265339265368" lon="8.756879619199633"><ele>144.2</ele><time>2026-04-26T14:55:26Z</time></trkpt><trkpt lat="45.47272109788671" lon="8.756800796506743"><ele>144.4</ele><time>2026-04-26T14:55:27Z</time></trkpt><trkpt lat="45.472760137921675" lon="8.756710136759926"><ele>144.6</ele><time>2026-04-26T14:55:28Z</time></trkpt><trkpt lat="45.47285304592691" lon="8.756602923153842"><ele>144.8</ele><time>2026-04-26T14:55:30Z</time></trkpt><trkpt lat="45.47293380944342" lon="8.75648457457998"><ele>145.0</ele><time>2026-04-26T14:55:32Z</time></trkpt><trkpt lat="45.472968649950296" lon="8.756392442317074"><ele>145.42857142857144</ele><time>2026-04-26T14:55:33Z</time></trkpt><trkpt lat="45.47301574633843" lon="8.756326031082772"><ele>145.85714285714286</ele><time>2026-04-26T14:55:34Z</time></trkpt><trkpt lat="45.47305998883205" lon="8.75625088947376"><ele>146.28571428571428</ele><time>2026-04-26T14:55:35Z</time></trkpt><trkpt lat="45.473103934062415" lon="8.75617082906278"><ele>146.71428571428572</ele><time>2026-04-26T14:55:36Z</time></trkpt><trkpt lat="45.47315381045468" lon="8.756085566747739"><ele>147.14285714285714</ele><time>2026-04-26T14:55:37Z</time></trkpt><trkpt lat="45.47319985284247" lon="8.755999200183581"><ele>147.57142857142858</ele><time>2026-04-26T14:55:38Z</time></trkpt><trkpt lat="45.47322514600523" lon="8.755890450438955"><ele>148.0</ele><time>2026-04-26T14:55:39Z</time></trkpt><trkpt lat="45.47324189937312" lon="8.755779970912126"><ele>148.0</ele><time>2026-04-26T14:55:40Z</time></trkpt><trkpt lat="45.47319133449201" lon="8.75566036667226"><ele>148.0</ele><time>2026-04-26T14:55:41Z</time></trkpt><trkpt lat="45.47317982021158" lon="8.755546451834073"><ele>148.0</ele><time>2026-04-26T14:55:42Z</time></trkpt><trkpt lat="45.473156102011764" lon="8.755437697936705"><ele>148.0</ele><time>2026-04-26T14:55:43Z</time></trkpt><trkpt lat="45.47311404458007" lon="8.755333552897076"><ele>148.0</ele><time>2026-04-26T14:55:44Z</time></trkpt><trkpt lat="45.47309074625485" lon="8.755222455492898"><ele>148.0</ele><time>2026-04-26T14:55:45Z</time></trkpt><trkpt lat="45.473072304635146" lon="8.755126910880897"><ele>148.0</ele><time>2026-04-26T14:55:46Z</time></trkpt><trkpt lat="45.47305260096486" lon="8.755038947953748"><ele>148.0</ele><time>2026-04-26T14:55:47Z</time></trkpt><trkpt lat="45.47303257100555" lon="8.754906482267849"><ele>148.0</ele><time>2026-04-26T14:55:49Z</time></trkpt><trkpt lat="45.47305907022282" lon="8.755055203718623"><ele>148.0</ele><time>2026-04-26T14:55:55Z</time></trkpt><trkpt lat="45.47304824102351" lon="8.755148852500904"><ele>148.0</ele><time>2026-04-26T14:55:56Z</time></trkpt><trkpt lat="45.47307710900819" lon="8.755254855312575"><ele>148.0</ele><time>2026-04-26T14:55:57Z</time></trkpt><trkpt lat="45.47310400699708" lon="8.755379769315219"><ele>148.16666666666669</ele><time>2026-04-26T14:55:58Z</time></trkpt><trkpt lat="45.47312859223302" lon="8.755505341741296"><ele>148.33333333333334</ele><time>2026-04-26T14:55:59Z</time></trkpt><trkpt lat="45.473149658571195" lon="8.755611642904475"><ele>148.5</ele><time>2026-04-26T14:56:00Z</time></trkpt><trkpt lat="45.473166151637216" lon="8.755700748463827"><ele>148.66666666666666</ele><time>2026-04-26T14:56:01Z</time></trkpt><trkpt lat="45.47317657682646" lon="8.755852613343285"><ele>148.83333333333331</ele><time>2026-04-26T14:56:03Z</time></trkpt><trkpt lat="45.47321135435151" lon="8.755951882516102"><ele>149.0</ele><time>2026-04-26T14:56:05Z</time></trkpt><trkpt lat="45.473305221166484" lon="8.75595010786639"><ele>149.0</ele><time>2026-04-26T14:56:07Z</time></trkpt><trkpt lat="45.47336906974927" lon="8.755928797184543"><ele>149.0</ele><time>2026-04-26T14:56:08Z</time></trkpt><trkpt lat="45.47343778749369" lon="8.755919530967198"><ele>149.0</ele><time>2026-04-26T14:56:09Z</time></trkpt><trkpt lat="45.47351064315252" lon="8.75592430569883"><ele>149.0</ele><time>2026-04-26T14:56:10Z</time></trkpt><trkpt lat="45.47358097768217" lon="8.755928005709896"><ele>149.0</ele><time>2026-04-26T14:56:11Z</time></trkpt><trkpt lat="45.47364846455727" lon="8.755930096656826"><ele>149.0</ele><time>2026-04-26T14:56:12Z</time></trkpt><trkpt lat="45.47376809912557" lon="8.75593354886643"><ele>149.4</ele><time>2026-04-26T14:56:14Z</time></trkpt><trkpt lat="45.473879053982536" lon="8.755939229932117"><ele>149.8</ele><time>2026-04-26T14:56:16Z</time></trkpt><trkpt lat="45.4739791289368" lon="8.755930231584623"><ele>150.2</ele><time>2026-04-26T14:56:18Z</time></trkpt><trkpt lat="45.47407635243967" lon="8.755931639128459"><ele>150.6</ele><time>2026-04-26T14:56:20Z</time></trkpt><trkpt lat="45.474141573258606" lon="8.755929767237674"><ele>151.0</ele><time>2026-04-26T14:56:21Z</time></trkpt><trkpt lat="45.47426858326358" lon="8.755934178154076"><ele>151.0</ele><time>2026-04-26T14:56:23Z</time></trkpt><trkpt lat="45.474387645641954" lon="8.755957440910766"><ele>151.0</ele><time>2026-04-26T14:56:25Z</time></trkpt><trkpt lat="45.47445399761894" lon="8.755959513725411"><ele>151.0</ele><time>2026-04-26T14:56:26Z</time></trkpt><trkpt lat="45.474528322588874" lon="8.755962316253049"><ele>151.0</ele><time>2026-04-26T14:56:27Z</time></trkpt><trkpt lat="45.47459883844232" lon="8.755966442483691"><ele>151.0</ele><time>2026-04-26T14:56:28Z</time></trkpt><trkpt lat="45.474665215933506" lon="8.75595156627766"><ele>151.0</ele><time>2026-04-26T14:56:29Z</time></trkpt><trkpt lat="45.47476830650176" lon="8.755951165497372"><ele>151.0</ele><time>2026-04-26T14:56:31Z</time></trkpt><trkpt lat="45.47484833689533" lon="8.75589425418808"><ele>151.0</ele><time>2026-04-26T14:56:33Z</time></trkpt><trkpt lat="45.47484953596706" lon="8.755728262220357"><ele>151.0</ele><time>2026-04-26T14:56:35Z</time></trkpt><trkpt lat="45.47487002421473" lon="8.755557019124252"><ele>151.0</ele><time>2026-04-26T14:56:37Z</time></trkpt><trkpt lat="45.474874477435264" lon="8.755419478924987"><ele>151.0</ele><time>2026-04-26T14:56:39Z</time></trkpt><trkpt lat="45.47488132493463" lon="8.755261245493156"><ele>150.6</ele><time>2026-04-26T14:56:41Z</time></trkpt><trkpt lat="45.47489361008349" lon="8.755145094163508"><ele>150.2</ele><time>2026-04-26T14:56:43Z</time></trkpt><trkpt lat="45.474907837847944" lon="8.755048447676431"><ele>149.8</ele><time>2026-04-26T14:56:45Z</time></trkpt><trkpt lat="45.474951733428576" lon="8.754897161269406"><ele>149.4</ele><time>2026-04-26T14:56:48Z</time></trkpt><trkpt lat="45.475031023609716" lon="8.754796934802263"><ele>149.0</ele><time>2026-04-26T14:56:50Z</time></trkpt><trkpt lat="45.475125876102176" lon="8.754698901227545"><ele>149.0</ele><time>2026-04-26T14:56:52Z</time></trkpt><trkpt lat="45.47518540992645" lon="8.75462397839505"><ele>149.0</ele><time>2026-04-26T14:56:54Z</time></trkpt><trkpt lat="45.475274924004665" lon="8.754547534297737"><ele>149.0</ele><time>2026-04-26T14:56:56Z</time></trkpt><trkpt lat="45.47537284300775" lon="8.754449208011817"><ele>149.0</ele><time>2026-04-26T14:56:58Z</time></trkpt><trkpt lat="45.4754602371298" lon="8.754336530212026"><ele>149.0</ele><time>2026-04-26T14:57:00Z</time></trkpt><trkpt lat="45.475523781035406" lon="8.754272418248751"><ele>149.6</ele><time>2026-04-26T14:57:01Z</time></trkpt><trkpt lat="45.475592978612454" lon="8.75420474237712"><ele>150.2</ele><time>2026-04-26T14:57:02Z</time></trkpt><trkpt lat="45.47566540689926" lon="8.754121704773036"><ele>150.79999999999998</ele><time>2026-04-26T14:57:03Z</time></trkpt><trkpt lat="45.47573995362878" lon="8.754038573506223"><ele>151.4</ele><time>2026-04-26T14:57:04Z</time></trkpt><trkpt lat="45.47581284790981" lon="8.753955505976764"><ele>152.0</ele><time>2026-04-26T14:57:05Z</time></trkpt><trkpt lat="45.47588948392114" lon="8.75387714260126"><ele>152.0</ele><time>2026-04-26T14:57:06Z</time></trkpt><trkpt lat="45.475955206833994" lon="8.75379753808183"><ele>152.0</ele><time>2026-04-26T14:57:07Z</time></trkpt><trkpt lat="45.47601821344983" lon="8.753724766917427"><ele>152.0</ele><time>2026-04-26T14:57:08Z</time></trkpt><trkpt lat="45.476082049484425" lon="8.753658115914819"><ele>152.0</ele><time>2026-04-26T14:57:09Z</time></trkpt><trkpt lat="45.47614792714524" lon="8.753588332690137"><ele>152.0</ele><time>2026-04-26T14:57:10Z</time></trkpt><trkpt lat="45.47620053946227" lon="8.75352708310453"><ele>152.0</ele><time>2026-04-26T14:57:11Z</time></trkpt><trkpt lat="45.476251313661955" lon="8.753460723543478"><ele>152.0</ele><time>2026-04-26T14:57:12Z</time></trkpt><trkpt lat="45.47631048805244" lon="8.753398322329682"><ele>152.0</ele><time>2026-04-26T14:57:13Z</time></trkpt><trkpt lat="45.47636786616454" lon="8.753326403641884"><ele>152.0</ele><time>2026-04-26T14:57:14Z</time></trkpt><trkpt lat="45.47642663753688" lon="8.753253129286616"><ele>152.0</ele><time>2026-04-26T14:57:15Z</time></trkpt><trkpt lat="45.476488512481914" lon="8.753187274398403"><ele>152.0</ele><time>2026-04-26T14:57:16Z</time></trkpt><trkpt lat="45.47653763909215" lon="8.753123974855761"><ele>152.0</ele><time>2026-04-26T14:57:17Z</time></trkpt><trkpt lat="45.476593767117784" lon="8.75306755339374"><ele>152.0</ele><time>2026-04-26T14:57:18Z</time></trkpt><trkpt lat="45.476644599563954" lon="8.75300805111187"><ele>152.0</ele><time>2026-04-26T14:57:19Z</time></trkpt><trkpt lat="45.47675586955321" lon="8.752876608854136"><ele>152.0</ele><time>2026-04-26T14:57:21Z</time></trkpt><trkpt lat="45.47683143907931" lon="8.752798867354821"><ele>152.0</ele><time>2026-04-26T14:57:22Z</time></trkpt><trkpt lat="45.47690575935722" lon="8.752717346219141"><ele>152.0</ele><time>2026-04-26T14:57:23Z</time></trkpt><trkpt lat="45.47697708397477" lon="8.75263391072179"><ele>152.0</ele><time>2026-04-26T14:57:24Z</time></trkpt><trkpt lat="45.47704300271799" lon="8.752542352651425"><ele>151.0</ele><time>2026-04-26T14:57:25Z</time></trkpt><trkpt lat="45.47710668541897" lon="8.752467617126362"><ele>150.0</ele><time>2026-04-26T14:57:26Z</time></trkpt><trkpt lat="45.477168585371814" lon="8.752415520846737"><ele>149.0</ele><time>2026-04-26T14:57:27Z</time></trkpt><trkpt lat="45.477266452755494" lon="8.752310320652544"><ele>148.0</ele><time>2026-04-26T14:57:29Z</time></trkpt><trkpt lat="45.477335305593755" lon="8.7522315303238"><ele>147.0</ele><time>2026-04-26T14:57:30Z</time></trkpt><trkpt lat="45.47741862658601" lon="8.75213761562501"><ele>147.0</ele><time>2026-04-26T14:57:31Z</time></trkpt><trkpt lat="45.477513227262655" lon="8.752030698979171"><ele>147.0</ele><time>2026-04-26T14:57:32Z</time></trkpt><trkpt lat="45.47761578437616" lon="8.75191397715686"><ele>147.0</ele><time>2026-04-26T14:57:33Z</time></trkpt><trkpt lat="45.477710203827876" lon="8.7518031525085"><ele>147.0</ele><time>2026-04-26T14:57:34Z</time></trkpt><trkpt lat="45.47780183748804" lon="8.751702110376801"><ele>147.75</ele><time>2026-04-26T14:57:35Z</time></trkpt><trkpt lat="45.47789266490094" lon="8.751590592560873"><ele>148.5</ele><time>2026-04-26T14:57:36Z</time></trkpt><trkpt lat="45.477984643796" lon="8.751488189942322"><ele>149.25</ele><time>2026-04-26T14:57:37Z</time></trkpt><trkpt lat="45.47807911873716" lon="8.751377775092383"><ele>150.0</ele><time>2026-04-26T14:57:38Z</time></trkpt><trkpt lat="45.47817212104684" lon="8.751267788336397"><ele>150.0</ele><time>2026-04-26T14:57:39Z</time></trkpt><trkpt lat="45.478259453332846" lon="8.75116209355106"><ele>150.0</ele><time>2026-04-26T14:57:40Z</time></trkpt><trkpt lat="45.47833279864913" lon="8.751071301324306"><ele>150.0</ele><time>2026-04-26T14:57:41Z</time></trkpt><trkpt lat="45.478409871523255" lon="8.750987695706602"><ele>150.0</ele><time>2026-04-26T14:57:42Z</time></trkpt><trkpt lat="45.478480662129776" lon="8.750913785634372"><ele>150.0</ele><time>2026-04-26T14:57:43Z</time></trkpt><trkpt lat="45.47854735414587" lon="8.750849137454132"><ele>150.0</ele><time>2026-04-26T14:57:44Z</time></trkpt><trkpt lat="45.4786107519679" lon="8.750773473402358"><ele>150.0</ele><time>2026-04-26T14:57:45Z</time></trkpt><trkpt lat="45.47868807337589" lon="8.750683775833524"><ele>150.0</ele><time>2026-04-26T14:57:46Z</time></trkpt><trkpt lat="45.47877038737573" lon="8.750600060770028"><ele>150.0</ele><time>2026-04-26T14:57:47Z</time></trkpt><trkpt lat="45.47885082517426" lon="8.750488686519716"><ele>150.0</ele><time>2026-04-26T14:57:48Z</time></trkpt><trkpt lat="45.478949539716396" lon="8.750383482161148"><ele>150.0</ele><time>2026-04-26T14:57:49Z</time></trkpt><trkpt lat="45.479040097791085" lon="8.75029102882966"><ele>150.0</ele><time>2026-04-26T14:57:50Z</time></trkpt><trkpt lat="45.479132021182224" lon="8.750185030091679"><ele>150.0</ele><time>2026-04-26T14:57:51Z</time></trkpt><trkpt lat="45.479216445101926" lon="8.75008787853037"><ele>150.0</ele><time>2026-04-26T14:57:52Z</time></trkpt><trkpt lat="45.479293437550915" lon="8.750000007319924"><ele>150.0</ele><time>2026-04-26T14:57:53Z</time></trkpt><trkpt lat="45.47937313690176" lon="8.749908307754483"><ele>150.0</ele><time>2026-04-26T14:57:54Z</time></trkpt><trkpt lat="45.47945309087487" lon="8.749815970067429"><ele>150.0</ele><time>2026-04-26T14:57:55Z</time></trkpt><trkpt lat="45.479536995746294" lon="8.74971926252498"><ele>150.0</ele><time>2026-04-26T14:57:56Z</time></trkpt><trkpt lat="45.479612140427115" lon="8.749602718344285"><ele>150.0</ele><time>2026-04-26T14:57:57Z</time></trkpt><trkpt lat="45.47970751942815" lon="8.749510003526552"><ele>150.0</ele><time>2026-04-26T14:57:58Z</time></trkpt><trkpt lat="45.47979810195821" lon="8.749399912151748"><ele>149.75</ele><time>2026-04-26T14:57:59Z</time></trkpt><trkpt lat="45.479897893007326" lon="8.749306320778675"><ele>149.5</ele><time>2026-04-26T14:58:00Z</time></trkpt><trkpt lat="45.479991982144426" lon="8.749199602266557"><ele>149.25</ele><time>2026-04-26T14:58:01Z</time></trkpt><trkpt lat="45.48007501117101" lon="8.74908108149072"><ele>149.0</ele><time>2026-04-26T14:58:02Z</time></trkpt><trkpt lat="45.48016320903856" lon="8.748985423100812"><ele>149.0</ele><time>2026-04-26T14:58:03Z</time></trkpt><trkpt lat="45.48025746714195" lon="8.748888612789779"><ele>149.0</ele><time>2026-04-26T14:58:04Z</time></trkpt><trkpt lat="45.48034455236997" lon="8.74879300263863"><ele>149.0</ele><time>2026-04-26T14:58:05Z</time></trkpt><trkpt lat="45.48043687103174" lon="8.748682824234438"><ele>149.0</ele><time>2026-04-26T14:58:06Z</time></trkpt><trkpt lat="45.48052478805717" lon="8.748588393812508"><ele>148.8</ele><time>2026-04-26T14:58:07Z</time></trkpt><trkpt lat="45.48060432720193" lon="8.748499470439393"><ele>148.60000000000002</ele><time>2026-04-26T14:58:08Z</time></trkpt><trkpt lat="45.48068788292391" lon="8.748408841324979"><ele>148.4</ele><time>2026-04-26T14:58:09Z</time></trkpt><trkpt lat="45.480776224527055" lon="8.748315277252383"><ele>148.20000000000002</ele><time>2026-04-26T14:58:10Z</time></trkpt><trkpt lat="45.48086845322207" lon="8.748218188121694"><ele>148.0</ele><time>2026-04-26T14:58:11Z</time></trkpt><trkpt lat="45.48095801758704" lon="8.74811159044339"><ele>148.0</ele><time>2026-04-26T14:58:12Z</time></trkpt><trkpt lat="45.4810505774559" lon="8.748008169875453"><ele>148.0</ele><time>2026-04-26T14:58:13Z</time></trkpt><trkpt lat="45.481146314653614" lon="8.747904618417241"><ele>148.0</ele><time>2026-04-26T14:58:14Z</time></trkpt><trkpt lat="45.481245625589686" lon="8.74779389621374"><ele>148.0</ele><time>2026-04-26T14:58:15Z</time></trkpt><trkpt lat="45.48134201335352" lon="8.747686976834807"><ele>148.0</ele><time>2026-04-26T14:58:16Z</time></trkpt><trkpt lat="45.48144158859954" lon="8.74758269266034"><ele>148.0</ele><time>2026-04-26T14:58:17Z</time></trkpt><trkpt lat="45.48154067626634" lon="8.747468557545696"><ele>148.0</ele><time>2026-04-26T14:58:18Z</time></trkpt><trkpt lat="45.481634416605644" lon="8.74735719661251"><ele>148.0</ele><time>2026-04-26T14:58:19Z</time></trkpt><trkpt lat="45.481724590378406" lon="8.747254329317538"><ele>148.0</ele><time>2026-04-26T14:58:20Z</time></trkpt><trkpt lat="45.48182258544323" lon="8.74714743386535"><ele>148.0</ele><time>2026-04-26T14:58:21Z</time></trkpt><trkpt lat="45.481918201435114" lon="8.747036023136122"><ele>148.0</ele><time>2026-04-26T14:58:22Z</time></trkpt><trkpt lat="45.48201548789664" lon="8.746922671098217"><ele>148.0</ele><time>2026-04-26T14:58:23Z</time></trkpt><trkpt lat="45.482115613180326" lon="8.746803953062862"><ele>147.75</ele><time>2026-04-26T14:58:24Z</time></trkpt><trkpt lat="45.482222203364856" lon="8.746689806330956"><ele>147.5</ele><time>2026-04-26T14:58:25Z</time></trkpt><trkpt lat="45.48233469285579" lon="8.746572305251215"><ele>147.25</ele><time>2026-04-26T14:58:26Z</time></trkpt><trkpt lat="45.48244272126709" lon="8.746446548085432"><ele>147.0</ele><time>2026-04-26T14:58:27Z</time></trkpt><trkpt lat="45.482546323840204" lon="8.74632784206482"><ele>147.0</ele><time>2026-04-26T14:58:28Z</time></trkpt><trkpt lat="45.48265482855118" lon="8.746212813602305"><ele>147.0</ele><time>2026-04-26T14:58:29Z</time></trkpt><trkpt lat="45.48275913859805" lon="8.746091526611695"><ele>147.0</ele><time>2026-04-26T14:58:30Z</time></trkpt><trkpt lat="45.48287120343731" lon="8.745972214264773"><ele>147.0</ele><time>2026-04-26T14:58:31Z</time></trkpt><trkpt lat="45.482971598231046" lon="8.745854029299526"><ele>147.25</ele><time>2026-04-26T14:58:32Z</time></trkpt><trkpt lat="45.483074782632535" lon="8.74573635404811"><ele>147.5</ele><time>2026-04-26T14:58:33Z</time></trkpt><trkpt lat="45.48317792037384" lon="8.745620362757558"><ele>147.75</ele><time>2026-04-26T14:58:34Z</time></trkpt><trkpt lat="45.483282561820666" lon="8.745501051052539"><ele>148.0</ele><time>2026-04-26T14:58:35Z</time></trkpt><trkpt lat="45.48339099112631" lon="8.74537662546648"><ele>148.0</ele><time>2026-04-26T14:58:36Z</time></trkpt><trkpt lat="45.48350827052474" lon="8.745262730478606"><ele>148.0</ele><time>2026-04-26T14:58:37Z</time></trkpt><trkpt lat="45.48361881059069" lon="8.745136688232995"><ele>148.0</ele><time>2026-04-26T14:58:38Z</time></trkpt><trkpt lat="45.48373378303897" lon="8.745005709667717"><ele>148.0</ele><time>2026-04-26T14:58:39Z</time></trkpt><trkpt lat="45.483852812917334" lon="8.744868969787847"><ele>149.5</ele><time>2026-04-26T14:58:40Z</time></trkpt><trkpt lat="45.483970742600285" lon="8.744733949587788"><ele>151.0</ele><time>2026-04-26T14:58:41Z</time></trkpt><trkpt lat="45.484084233892524" lon="8.744604010851832"><ele>152.5</ele><time>2026-04-26T14:58:42Z</time></trkpt><trkpt lat="45.484195941815024" lon="8.744475838976589"><ele>154.0</ele><time>2026-04-26T14:58:43Z</time></trkpt><trkpt lat="45.48431113049109" lon="8.744343668740585"><ele>154.0</ele><time>2026-04-26T14:58:44Z</time></trkpt><trkpt lat="45.48442059483879" lon="8.744216926657712"><ele>154.0</ele><time>2026-04-26T14:58:45Z</time></trkpt><trkpt lat="45.48451878566126" lon="8.74410416483157"><ele>154.0</ele><time>2026-04-26T14:58:46Z</time></trkpt><trkpt lat="45.48462014259468" lon="8.7439880746426"><ele>154.0</ele><time>2026-04-26T14:58:47Z</time></trkpt><trkpt lat="45.48471516751356" lon="8.74384857954843"><ele>154.0</ele><time>2026-04-26T14:58:48Z</time></trkpt><trkpt lat="45.48482739889158" lon="8.743740283302579"><ele>154.0</ele><time>2026-04-26T14:58:49Z</time></trkpt><trkpt lat="45.484922028698044" lon="8.743621524156321"><ele>154.0</ele><time>2026-04-26T14:58:50Z</time></trkpt><trkpt lat="45.48500952803603" lon="8.74351824112196"><ele>154.0</ele><time>2026-04-26T14:58:51Z</time></trkpt><trkpt lat="45.4850994073752" lon="8.743417059744843"><ele>154.25</ele><time>2026-04-26T14:58:52Z</time></trkpt><trkpt lat="45.485191374765435" lon="8.743306892310093"><ele>154.5</ele><time>2026-04-26T14:58:53Z</time></trkpt><trkpt lat="45.4852990117162" lon="8.743210735571978"><ele>154.75</ele><time>2026-04-26T14:58:54Z</time></trkpt><trkpt lat="45.485397379410806" lon="8.743098310766186"><ele>155.0</ele><time>2026-04-26T14:58:55Z</time></trkpt><trkpt lat="45.48549658102326" lon="8.742985808299261"><ele>155.0</ele><time>2026-04-26T14:58:56Z</time></trkpt><trkpt lat="45.48560384425875" lon="8.742864885436068"><ele>155.0</ele><time>2026-04-26T14:58:57Z</time></trkpt><trkpt lat="45.485710833823944" lon="8.742742884442597"><ele>155.0</ele><time>2026-04-26T14:58:58Z</time></trkpt><trkpt lat="45.485824517946355" lon="8.742614088651324"><ele>155.0</ele><time>2026-04-26T14:58:59Z</time></trkpt><trkpt lat="45.485938658063326" lon="8.742484729883623"><ele>155.0</ele><time>2026-04-26T14:59:00Z</time></trkpt><trkpt lat="45.48604908984703" lon="8.742360410677113"><ele>155.0</ele><time>2026-04-26T14:59:01Z</time></trkpt><trkpt lat="45.48616393509176" lon="8.742230109546401"><ele>155.0</ele><time>2026-04-26T14:59:02Z</time></trkpt><trkpt lat="45.48627248098693" lon="8.742107096166073"><ele>155.0</ele><time>2026-04-26T14:59:03Z</time></trkpt><trkpt lat="45.486375006262556" lon="8.741991117414653"><ele>155.2</ele><time>2026-04-26T14:59:04Z</time></trkpt><trkpt lat="45.48646602654565" lon="8.741888201061858"><ele>155.4</ele><time>2026-04-26T14:59:05Z</time></trkpt><trkpt lat="45.486553762037325" lon="8.741788947434959"><ele>155.6</ele><time>2026-04-26T14:59:06Z</time></trkpt><trkpt lat="45.4866359477075" lon="8.741695930720832"><ele>155.8</ele><time>2026-04-26T14:59:07Z</time></trkpt><trkpt lat="45.48671615125429" lon="8.741604887658792"><ele>156.0</ele><time>2026-04-26T14:59:08Z</time></trkpt><trkpt lat="45.486792486872055" lon="8.741503158424099"><ele>156.0</ele><time>2026-04-26T14:59:09Z</time></trkpt><trkpt lat="45.48687019203926" lon="8.741401683816548"><ele>156.0</ele><time>2026-04-26T14:59:10Z</time></trkpt><trkpt lat="45.48696721725074" lon="8.741301991371548"><ele>156.0</ele><time>2026-04-26T14:59:11Z</time></trkpt><trkpt lat="45.48706410524299" lon="8.741192211936918"><ele>156.0</ele><time>2026-04-26T14:59:12Z</time></trkpt><trkpt lat="45.48716699405561" lon="8.741072272382395"><ele>155.0</ele><time>2026-04-26T14:59:13Z</time></trkpt><trkpt lat="45.48726714305124" lon="8.740953894110968"><ele>154.0</ele><time>2026-04-26T14:59:14Z</time></trkpt><trkpt lat="45.487363361324945" lon="8.740846173111192"><ele>153.0</ele><time>2026-04-26T14:59:15Z</time></trkpt><trkpt lat="45.48744763836271" lon="8.74073911129897"><ele>152.0</ele><time>2026-04-26T14:59:16Z</time></trkpt><trkpt lat="45.48753059794306" lon="8.740651783726271"><ele>152.0</ele><time>2026-04-26T14:59:17Z</time></trkpt><trkpt lat="45.487601421051686" lon="8.740563798983718"><ele>152.0</ele><time>2026-04-26T14:59:18Z</time></trkpt><trkpt lat="45.48766890242967" lon="8.740491697871924"><ele>152.0</ele><time>2026-04-26T14:59:19Z</time></trkpt><trkpt lat="45.487736312278685" lon="8.740437403330233"><ele>152.0</ele><time>2026-04-26T14:59:20Z</time></trkpt><trkpt lat="45.48779628912278" lon="8.740368647655144"><ele>152.0</ele><time>2026-04-26T14:59:21Z</time></trkpt><trkpt lat="45.487849995546085" lon="8.740280779220617"><ele>152.0</ele><time>2026-04-26T14:59:22Z</time></trkpt><trkpt lat="45.487922026879545" lon="8.740210842356808"><ele>152.0</ele><time>2026-04-26T14:59:23Z</time></trkpt><trkpt lat="45.48799653266956" lon="8.74013169838057"><ele>152.0</ele><time>2026-04-26T14:59:24Z</time></trkpt><trkpt lat="45.48807253502308" lon="8.740048883611655"><ele>152.0</ele><time>2026-04-26T14:59:25Z</time></trkpt><trkpt lat="45.48815238824308" lon="8.739958982381083"><ele>152.0</ele><time>2026-04-26T14:59:26Z</time></trkpt><trkpt lat="45.48823124852758" lon="8.739857583205746"><ele>152.0</ele><time>2026-04-26T14:59:27Z</time></trkpt><trkpt lat="45.48831626478472" lon="8.739755816176862"><ele>152.0</ele><time>2026-04-26T14:59:28Z</time></trkpt><trkpt lat="45.488404113460575" lon="8.739652065740518"><ele>152.0</ele><time>2026-04-26T14:59:29Z</time></trkpt><trkpt lat="45.48849631049593" lon="8.739538811711606"><ele>152.0</ele><time>2026-04-26T14:59:30Z</time></trkpt><trkpt lat="45.488598230700816" lon="8.739428568864566"><ele>152.0</ele><time>2026-04-26T14:59:31Z</time></trkpt><trkpt lat="45.48870686630527" lon="8.739313974227468"><ele>152.0</ele><time>2026-04-26T14:59:32Z</time></trkpt><trkpt lat="45.48881618980784" lon="8.739191800385392"><ele>152.0</ele><time>2026-04-26T14:59:33Z</time></trkpt><trkpt lat="45.48892745552144" lon="8.739061716780405"><ele>152.0</ele><time>2026-04-26T14:59:34Z</time></trkpt><trkpt lat="45.489036374604744" lon="8.738926316680264"><ele>152.0</ele><time>2026-04-26T14:59:35Z</time></trkpt><trkpt lat="45.48914072161024" lon="8.738802548439768"><ele>152.0</ele><time>2026-04-26T14:59:36Z</time></trkpt><trkpt lat="45.489242782574905" lon="8.738683952336064"><ele>152.0</ele><time>2026-04-26T14:59:37Z</time></trkpt><trkpt lat="45.489342010769" lon="8.73857436235382"><ele>152.0</ele><time>2026-04-26T14:59:38Z</time></trkpt><trkpt lat="45.48943016605451" lon="8.738470339274329"><ele>152.0</ele><time>2026-04-26T14:59:39Z</time></trkpt><trkpt lat="45.48951281903072" lon="8.738374508722034"><ele>151.83333333333331</ele><time>2026-04-26T14:59:40Z</time></trkpt><trkpt lat="45.48958965056129" lon="8.738290423063212"><ele>151.66666666666666</ele><time>2026-04-26T14:59:41Z</time></trkpt><trkpt lat="45.489657168418375" lon="8.738213294715308"><ele>151.5</ele><time>2026-04-26T14:59:42Z</time></trkpt><trkpt lat="45.4897175882853" lon="8.738145066707574"><ele>151.33333333333334</ele><time>2026-04-26T14:59:43Z</time></trkpt><trkpt lat="45.48977584555595" lon="8.738078530221577"><ele>151.16666666666669</ele><time>2026-04-26T14:59:44Z</time></trkpt><trkpt lat="45.489824359317815" lon="8.738020828120666"><ele>151.0</ele><time>2026-04-26T14:59:45Z</time></trkpt><trkpt lat="45.489875367140336" lon="8.737954664584802"><ele>151.66666666666669</ele><time>2026-04-26T14:59:46Z</time></trkpt><trkpt lat="45.4899341699199" lon="8.737884644237765"><ele>152.33333333333334</ele><time>2026-04-26T14:59:47Z</time></trkpt><trkpt lat="45.49000138569164" lon="8.737809749568157"><ele>153.0</ele><time>2026-04-26T14:59:48Z</time></trkpt><trkpt lat="45.49007629346025" lon="8.737728958057291"><ele>153.66666666666666</ele><time>2026-04-26T14:59:49Z</time></trkpt><trkpt lat="45.490144589348226" lon="8.737649784564255"><ele>154.33333333333331</ele><time>2026-04-26T14:59:50Z</time></trkpt><trkpt lat="45.490207527946495" lon="8.73757395461782"><ele>155.0</ele><time>2026-04-26T14:59:51Z</time></trkpt><trkpt lat="45.49027445692939" lon="8.737499486620026"><ele>155.0</ele><time>2026-04-26T14:59:52Z</time></trkpt><trkpt lat="45.490338146382534" lon="8.737422407408946"><ele>155.0</ele><time>2026-04-26T14:59:53Z</time></trkpt><trkpt lat="45.49040720264876" lon="8.737351453427365"><ele>155.0</ele><time>2026-04-26T14:59:54Z</time></trkpt><trkpt lat="45.490462690942735" lon="8.737279120540855"><ele>155.0</ele><time>2026-04-26T14:59:55Z</time></trkpt><trkpt lat="45.490517503194596" lon="8.737231145556956"><ele>155.0</ele><time>2026-04-26T14:59:56Z</time></trkpt><trkpt lat="45.490607671551444" lon="8.737128498718151"><ele>155.0</ele><time>2026-04-26T14:59:58Z</time></trkpt><trkpt lat="45.49065520094755" lon="8.737065686338886"><ele>155.4</ele><time>2026-04-26T14:59:59Z</time></trkpt><trkpt lat="45.490718298673215" lon="8.737003117495693"><ele>155.8</ele><time>2026-04-26T15:00:00Z</time></trkpt><trkpt lat="45.49078950325423" lon="8.736934528959655"><ele>156.2</ele><time>2026-04-26T15:00:01Z</time></trkpt><trkpt lat="45.49086502556058" lon="8.736854152533525"><ele>156.6</ele><time>2026-04-26T15:00:02Z</time></trkpt><trkpt lat="45.49093830896064" lon="8.73675565039637"><ele>157.0</ele><time>2026-04-26T15:00:03Z</time></trkpt><trkpt lat="45.49101196381297" lon="8.736640415059899"><ele>155.75</ele><time>2026-04-26T15:00:04Z</time></trkpt><trkpt lat="45.49107831738532" lon="8.736508948892823"><ele>154.5</ele><time>2026-04-26T15:00:05Z</time></trkpt><trkpt lat="45.491147225245385" lon="8.736378710312492"><ele>153.25</ele><time>2026-04-26T15:00:06Z</time></trkpt><trkpt lat="45.491218088616" lon="8.736241938932292"><ele>152.0</ele><time>2026-04-26T15:00:07Z</time></trkpt><trkpt lat="45.491300833176325" lon="8.736099391771836"><ele>152.75</ele><time>2026-04-26T15:00:08Z</time></trkpt><trkpt lat="45.49136126423984" lon="8.73595441207616"><ele>153.5</ele><time>2026-04-26T15:00:09Z</time></trkpt><trkpt lat="45.49142682894988" lon="8.735826520813019"><ele>154.25</ele><time>2026-04-26T15:00:10Z</time></trkpt><trkpt lat="45.49149989090987" lon="8.735684890951543"><ele>155.0</ele><time>2026-04-26T15:00:11Z</time></trkpt><trkpt lat="45.491567570782195" lon="8.735541689923258"><ele>155.0</ele><time>2026-04-26T15:00:12Z</time></trkpt><trkpt lat="45.49163375402208" lon="8.735394200915627"><ele>155.0</ele><time>2026-04-26T15:00:13Z</time></trkpt><trkpt lat="45.491708660194845" lon="8.735261836444923"><ele>155.0</ele><time>2026-04-26T15:00:14Z</time></trkpt><trkpt lat="45.491785311066955" lon="8.735137609757214"><ele>155.0</ele><time>2026-04-26T15:00:15Z</time></trkpt><trkpt lat="45.4918462952902" lon="8.734987889773862"><ele>154.8</ele><time>2026-04-26T15:00:16Z</time></trkpt><trkpt lat="45.49192139621638" lon="8.73486029145475"><ele>154.6</ele><time>2026-04-26T15:00:17Z</time></trkpt><trkpt lat="45.49198663358023" lon="8.734724165335198"><ele>154.4</ele><time>2026-04-26T15:00:18Z</time></trkpt><trkpt lat="45.49205173693553" lon="8.734596787826492"><ele>154.2</ele><time>2026-04-26T15:00:19Z</time></trkpt><trkpt lat="45.49211251601782" lon="8.734482834475823"><ele>154.0</ele><time>2026-04-26T15:00:20Z</time></trkpt><trkpt lat="45.49216810106518" lon="8.734376354104263"><ele>154.0</ele><time>2026-04-26T15:00:21Z</time></trkpt><trkpt lat="45.49221542782488" lon="8.734277440887357"><ele>154.0</ele><time>2026-04-26T15:00:22Z</time></trkpt><trkpt lat="45.492266653039" lon="8.734171208358495"><ele>154.0</ele><time>2026-04-26T15:00:23Z</time></trkpt><trkpt lat="45.492332959623845" lon="8.734051257507954"><ele>154.0</ele><time>2026-04-26T15:00:24Z</time></trkpt><trkpt lat="45.49239810269824" lon="8.733911704650815"><ele>154.0</ele><time>2026-04-26T15:00:25Z</time></trkpt><trkpt lat="45.49246767194057" lon="8.733768200782313"><ele>154.0</ele><time>2026-04-26T15:00:26Z</time></trkpt><trkpt lat="45.49254242757884" lon="8.733622035847134"><ele>154.0</ele><time>2026-04-26T15:00:27Z</time></trkpt><trkpt lat="45.492614881179534" lon="8.733483333217348"><ele>154.0</ele><time>2026-04-26T15:00:28Z</time></trkpt><trkpt lat="45.49268212622909" lon="8.733352536687756"><ele>154.0</ele><time>2026-04-26T15:00:29Z</time></trkpt><trkpt lat="45.49275009189244" lon="8.733223195160374"><ele>154.0</ele><time>2026-04-26T15:00:30Z</time></trkpt><trkpt lat="45.49281219338676" lon="8.733095126887978"><ele>154.0</ele><time>2026-04-26T15:00:31Z</time></trkpt><trkpt lat="45.49287471870061" lon="8.73297171765107"><ele>154.0</ele><time>2026-04-26T15:00:32Z</time></trkpt><trkpt lat="45.49293417521028" lon="8.732850613396687"><ele>154.0</ele><time>2026-04-26T15:00:33Z</time></trkpt><trkpt lat="45.49299325299741" lon="8.732734186074833"><ele>154.0</ele><time>2026-04-26T15:00:34Z</time></trkpt><trkpt lat="45.493051876378345" lon="8.732615015715892"><ele>154.0</ele><time>2026-04-26T15:00:35Z</time></trkpt><trkpt lat="45.49311034932201" lon="8.732494610217755"><ele>154.0</ele><time>2026-04-26T15:00:36Z</time></trkpt><trkpt lat="45.49317462278533" lon="8.732373887977987"><ele>154.0</ele><time>2026-04-26T15:00:37Z</time></trkpt><trkpt lat="45.49324019661617" lon="8.732247656779839"><ele>154.0</ele><time>2026-04-26T15:00:38Z</time></trkpt><trkpt lat="45.49330564446863" lon="8.732115635438232"><ele>154.0</ele><time>2026-04-26T15:00:39Z</time></trkpt><trkpt lat="45.49337032099584" lon="8.73198998496977"><ele>155.4</ele><time>2026-04-26T15:00:40Z</time></trkpt><trkpt lat="45.49342922240187" lon="8.731865628557765"><ele>156.8</ele><time>2026-04-26T15:00:41Z</time></trkpt><trkpt lat="45.493493998254365" lon="8.731738286335567"><ele>158.20000000000002</ele><time>2026-04-26T15:00:42Z</time></trkpt><trkpt lat="45.493556639445615" lon="8.731612451029724"><ele>159.60000000000002</ele><time>2026-04-26T15:00:43Z</time></trkpt><trkpt lat="45.49362719905308" lon="8.731488010028084"><ele>161.0</ele><time>2026-04-26T15:00:44Z</time></trkpt><trkpt lat="45.4936941321084" lon="8.731354599587963"><ele>160.25</ele><time>2026-04-26T15:00:45Z</time></trkpt><trkpt lat="45.49376429588587" lon="8.731212418461688"><ele>159.5</ele><time>2026-04-26T15:00:46Z</time></trkpt><trkpt lat="45.49383647738989" lon="8.731074002721138"><ele>158.75</ele><time>2026-04-26T15:00:47Z</time></trkpt><trkpt lat="45.49390975618539" lon="8.730931283959515"><ele>158.0</ele><time>2026-04-26T15:00:48Z</time></trkpt><trkpt lat="45.493983151467965" lon="8.73078237775177"><ele>158.0</ele><time>2026-04-26T15:00:49Z</time></trkpt><trkpt lat="45.4940562269326" lon="8.730647526941981"><ele>158.0</ele><time>2026-04-26T15:00:50Z</time></trkpt><trkpt lat="45.494126425735914" lon="8.730510186016248"><ele>158.0</ele><time>2026-04-26T15:00:51Z</time></trkpt><trkpt lat="45.494199711584386" lon="8.730380810879547"><ele>158.0</ele><time>2026-04-26T15:00:52Z</time></trkpt><trkpt lat="45.49426553425889" lon="8.730244670919445"><ele>158.0</ele><time>2026-04-26T15:00:53Z</time></trkpt><trkpt lat="45.49433262549351" lon="8.730114487602613"><ele>158.0</ele><time>2026-04-26T15:00:54Z</time></trkpt><trkpt lat="45.494406611923836" lon="8.72998529813175"><ele>158.0</ele><time>2026-04-26T15:00:55Z</time></trkpt><trkpt lat="45.49447675582891" lon="8.729840997194195"><ele>158.0</ele><time>2026-04-26T15:00:56Z</time></trkpt><trkpt lat="45.49455409195408" lon="8.729694925314158"><ele>157.75</ele><time>2026-04-26T15:00:57Z</time></trkpt><trkpt lat="45.49462772551969" lon="8.729543685543838"><ele>157.5</ele><time>2026-04-26T15:00:58Z</time></trkpt><trkpt lat="45.494708099853874" lon="8.72939360650249"><ele>157.25</ele><time>2026-04-26T15:00:59Z</time></trkpt><trkpt lat="45.494784834563845" lon="8.729239638858552"><ele>157.0</ele><time>2026-04-26T15:01:00Z</time></trkpt><trkpt lat="45.49485638051137" lon="8.729085561224528"><ele>157.0</ele><time>2026-04-26T15:01:01Z</time></trkpt><trkpt lat="45.49493014367846" lon="8.728936951448803"><ele>157.0</ele><time>2026-04-26T15:01:02Z</time></trkpt><trkpt lat="45.495010416713114" lon="8.728811822758333"><ele>157.0</ele><time>2026-04-26T15:01:03Z</time></trkpt><trkpt lat="45.49507284767527" lon="8.728687246567699"><ele>157.0</ele><time>2026-04-26T15:01:04Z</time></trkpt><trkpt lat="45.49513041103489" lon="8.728573517303854"><ele>156.83333333333334</ele><time>2026-04-26T15:01:05Z</time></trkpt><trkpt lat="45.49517370716562" lon="8.72846316648508"><ele>156.66666666666669</ele><time>2026-04-26T15:01:06Z</time></trkpt><trkpt lat="45.49522249683325" lon="8.72836893397626"><ele>156.5</ele><time>2026-04-26T15:01:07Z</time></trkpt><trkpt lat="45.495265855150606" lon="8.72827744026207"><ele>156.33333333333334</ele><time>2026-04-26T15:01:08Z</time></trkpt><trkpt lat="45.49531383588807" lon="8.728187441252535"><ele>156.16666666666666</ele><time>2026-04-26T15:01:09Z</time></trkpt><trkpt lat="45.495359401578014" lon="8.728090121129878"><ele>156.0</ele><time>2026-04-26T15:01:10Z</time></trkpt><trkpt lat="45.49541164255083" lon="8.727993404920403"><ele>155.8</ele><time>2026-04-26T15:01:11Z</time></trkpt><trkpt lat="45.49546596264844" lon="8.727894427446966"><ele>155.6</ele><time>2026-04-26T15:01:12Z</time></trkpt><trkpt lat="45.495517880745" lon="8.727793144325865"><ele>155.4</ele><time>2026-04-26T15:01:13Z</time></trkpt><trkpt lat="45.495571095807875" lon="8.72768642788991"><ele>155.2</ele><time>2026-04-26T15:01:14Z</time></trkpt><trkpt lat="45.4956363349223" lon="8.72759267991819"><ele>155.0</ele><time>2026-04-26T15:01:15Z</time></trkpt><trkpt lat="45.495697492864956" lon="8.727473399610695"><ele>155.0</ele><time>2026-04-26T15:01:16Z</time></trkpt><trkpt lat="45.49576495533801" lon="8.72734658062205"><ele>155.0</ele><time>2026-04-26T15:01:17Z</time></trkpt><trkpt lat="45.49584474897565" lon="8.72719311701231"><ele>155.0</ele><time>2026-04-26T15:01:18Z</time></trkpt><trkpt lat="45.495945213570536" lon="8.726998444279834"><ele>155.0</ele><time>2026-04-26T15:01:19Z</time></trkpt><trkpt lat="45.49604116833003" lon="8.726810415995317"><ele>154.25</ele><time>2026-04-26T15:01:20Z</time></trkpt><trkpt lat="45.49613055870492" lon="8.726635452713326"><ele>153.5</ele><time>2026-04-26T15:01:21Z</time></trkpt><trkpt lat="45.49620739033109" lon="8.72648529708352"><ele>152.75</ele><time>2026-04-26T15:01:22Z</time></trkpt><trkpt lat="45.496286369608356" lon="8.726330944163701"><ele>152.0</ele><time>2026-04-26T15:01:23Z</time></trkpt><trkpt lat="45.496372120668056" lon="8.72616660920177"><ele>152.0</ele><time>2026-04-26T15:01:24Z</time></trkpt><trkpt lat="45.496459124639934" lon="8.726000876595245"><ele>152.0</ele><time>2026-04-26T15:01:25Z</time></trkpt><trkpt lat="45.496553020813316" lon="8.725827150284994"><ele>152.0</ele><time>2026-04-26T15:01:26Z</time></trkpt><trkpt lat="45.49664606648624" lon="8.725656305767407"><ele>152.0</ele><time>2026-04-26T15:01:27Z</time></trkpt><trkpt lat="45.49673639250627" lon="8.725490454897514"><ele>152.0</ele><time>2026-04-26T15:01:28Z</time></trkpt><trkpt lat="45.49682666005049" lon="8.725323445419898"><ele>152.0</ele><time>2026-04-26T15:01:29Z</time></trkpt><trkpt lat="45.49691116435942" lon="8.725163795355725"><ele>152.0</ele><time>2026-04-26T15:01:30Z</time></trkpt><trkpt lat="45.49699390382093" lon="8.7250020843186"><ele>152.0</ele><time>2026-04-26T15:01:31Z</time></trkpt><trkpt lat="45.49707567093081" lon="8.724838016132951"><ele>152.0</ele><time>2026-04-26T15:01:32Z</time></trkpt><trkpt lat="45.49715630886426" lon="8.72467412572553"><ele>152.0</ele><time>2026-04-26T15:01:33Z</time></trkpt><trkpt lat="45.497235762786616" lon="8.724513380647446"><ele>152.0</ele><time>2026-04-26T15:01:34Z</time></trkpt><trkpt lat="45.497317895740125" lon="8.724347215528185"><ele>152.0</ele><time>2026-04-26T15:01:35Z</time></trkpt><trkpt lat="45.49739788144664" lon="8.72418539458486"><ele>152.0</ele><time>2026-04-26T15:01:36Z</time></trkpt><trkpt lat="45.49746978647602" lon="8.724045148662876"><ele>152.0</ele><time>2026-04-26T15:01:37Z</time></trkpt><trkpt lat="45.49753400620863" lon="8.723922817872602"><ele>152.0</ele><time>2026-04-26T15:01:38Z</time></trkpt><trkpt lat="45.49758355070455" lon="8.723827359233002"><ele>152.0</ele><time>2026-04-26T15:01:39Z</time></trkpt><trkpt lat="45.49762598000903" lon="8.723728774569786"><ele>152.0</ele><time>2026-04-26T15:01:40Z</time></trkpt><trkpt lat="45.497669551219445" lon="8.723582794045003"><ele>152.0</ele><time>2026-04-26T15:01:42Z</time></trkpt><trkpt lat="45.49768247646225" lon="8.723475949836304"><ele>152.0</ele><time>2026-04-26T15:01:43Z</time></trkpt><trkpt lat="45.4976855391237" lon="8.72335353819448"><ele>152.0</ele><time>2026-04-26T15:01:44Z</time></trkpt><trkpt lat="45.49767330654407" lon="8.723225167954945"><ele>152.0</ele><time>2026-04-26T15:01:45Z</time></trkpt><trkpt lat="45.49760198860024" lon="8.723114766969095"><ele>151.4</ele><time>2026-04-26T15:01:46Z</time></trkpt><trkpt lat="45.497536908717855" lon="8.723017799325609"><ele>150.79999999999998</ele><time>2026-04-26T15:01:47Z</time></trkpt><trkpt lat="45.49746276090723" lon="8.722919526695598"><ele>150.2</ele><time>2026-04-26T15:01:48Z</time></trkpt><trkpt lat="45.49738500100548" lon="8.722808278376316"><ele>149.6</ele><time>2026-04-26T15:01:49Z</time></trkpt><trkpt lat="45.49730279158951" lon="8.722691792901374"><ele>149.0</ele><time>2026-04-26T15:01:50Z</time></trkpt><trkpt lat="45.49721648232086" lon="8.72256199390198"><ele>150.5</ele><time>2026-04-26T15:01:51Z</time></trkpt><trkpt lat="45.49712323817455" lon="8.722429441771464"><ele>152.0</ele><time>2026-04-26T15:01:52Z</time></trkpt><trkpt lat="45.497032451369094" lon="8.722301915910593"><ele>153.5</ele><time>2026-04-26T15:01:53Z</time></trkpt><trkpt lat="45.496960880720906" lon="8.722165869804241"><ele>155.0</ele><time>2026-04-26T15:01:54Z</time></trkpt><trkpt lat="45.49687603195312" lon="8.72204122293991"><ele>153.75</ele><time>2026-04-26T15:01:55Z</time></trkpt><trkpt lat="45.49678834778736" lon="8.721915353337316"><ele>152.5</ele><time>2026-04-26T15:01:56Z</time></trkpt><trkpt lat="45.49669946151001" lon="8.721789307429956"><ele>151.25</ele><time>2026-04-26T15:01:57Z</time></trkpt><trkpt lat="45.49660887108362" lon="8.721661015638219"><ele>150.0</ele><time>2026-04-26T15:01:58Z</time></trkpt><trkpt lat="45.49652907812475" lon="8.72154795975014"><ele>150.0</ele><time>2026-04-26T15:01:59Z</time></trkpt><trkpt lat="45.49645553215795" lon="8.72144363148296"><ele>150.0</ele><time>2026-04-26T15:02:00Z</time></trkpt><trkpt lat="45.49638830148492" lon="8.721348261701374"><ele>150.0</ele><time>2026-04-26T15:02:01Z</time></trkpt><trkpt lat="45.496322041786364" lon="8.721254269283268"><ele>150.0</ele><time>2026-04-26T15:02:02Z</time></trkpt><trkpt lat="45.49625948025972" lon="8.72116552291017"><ele>150.0</ele><time>2026-04-26T15:02:03Z</time></trkpt><trkpt lat="45.4962000277903" lon="8.72110179462978"><ele>150.85714285714283</ele><time>2026-04-26T15:02:04Z</time></trkpt><trkpt lat="45.49614990480437" lon="8.72103372023913"><ele>151.71428571428572</ele><time>2026-04-26T15:02:05Z</time></trkpt><trkpt lat="45.49609636991222" lon="8.720962714046657"><ele>152.57142857142856</ele><time>2026-04-26T15:02:06Z</time></trkpt><trkpt lat="45.49604627109922" lon="8.720892734778271"><ele>153.42857142857142</ele><time>2026-04-26T15:02:07Z</time></trkpt><trkpt lat="45.4960046186634" lon="8.720802977324702"><ele>154.28571428571428</ele><time>2026-04-26T15:02:08Z</time></trkpt><trkpt lat="45.49595378894941" lon="8.720730141249408"><ele>155.14285714285714</ele><time>2026-04-26T15:02:09Z</time></trkpt><trkpt lat="45.4959021501989" lon="8.720656146063044"><ele>156.0</ele><time>2026-04-26T15:02:10Z</time></trkpt><trkpt lat="45.49584017920642" lon="8.720594152050689"><ele>156.0</ele><time>2026-04-26T15:02:11Z</time></trkpt><trkpt lat="45.495789290871166" lon="8.720518546848268"><ele>156.0</ele><time>2026-04-26T15:02:12Z</time></trkpt><trkpt lat="45.495741640470676" lon="8.720447468584313"><ele>156.0</ele><time>2026-04-26T15:02:13Z</time></trkpt><trkpt lat="45.49569538651358" lon="8.720376907100949"><ele>156.0</ele><time>2026-04-26T15:02:14Z</time></trkpt><trkpt lat="45.49565258332751" lon="8.720309783313603"><ele>156.0</ele><time>2026-04-26T15:02:15Z</time></trkpt><trkpt lat="45.49556455148243" lon="8.720190641308063"><ele>156.0</ele><time>2026-04-26T15:02:17Z</time></trkpt><trkpt lat="45.49552685377073" lon="8.720111308822958"><ele>156.0</ele><time>2026-04-26T15:02:18Z</time></trkpt><trkpt lat="45.49548188719627" lon="8.720046576720932"><ele>156.0</ele><time>2026-04-26T15:02:19Z</time></trkpt><trkpt lat="45.495436511697875" lon="8.719981255632101"><ele>156.0</ele><time>2026-04-26T15:02:20Z</time></trkpt><trkpt lat="45.495381931487074" lon="8.719934872733822"><ele>156.0</ele><time>2026-04-26T15:02:21Z</time></trkpt><trkpt lat="45.49529998567108" lon="8.719807524354387"><ele>156.0</ele><time>2026-04-26T15:02:23Z</time></trkpt><trkpt lat="45.495258071149664" lon="8.719736826501602"><ele>156.0</ele><time>2026-04-26T15:02:24Z</time></trkpt><trkpt lat="45.4952143644848" lon="8.719668829511278"><ele>156.0</ele><time>2026-04-26T15:02:25Z</time></trkpt><trkpt lat="45.49512286843529" lon="8.719538235856731"><ele>156.0</ele><time>2026-04-26T15:02:27Z</time></trkpt><trkpt lat="45.49507230944671" lon="8.719467050564882"><ele>156.0</ele><time>2026-04-26T15:02:28Z</time></trkpt><trkpt lat="45.495017439500444" lon="8.71939210030745"><ele>156.0</ele><time>2026-04-26T15:02:29Z</time></trkpt><trkpt lat="45.494961246842514" lon="8.719317300534916"><ele>156.0</ele><time>2026-04-26T15:02:30Z</time></trkpt><trkpt lat="45.49490667536906" lon="8.719241352381557"><ele>156.0</ele><time>2026-04-26T15:02:31Z</time></trkpt><trkpt lat="45.494859240342464" lon="8.719178495894521"><ele>156.0</ele><time>2026-04-26T15:02:32Z</time></trkpt><trkpt lat="45.494790431881434" lon="8.719075030945769"><ele>156.4</ele><time>2026-04-26T15:02:34Z</time></trkpt><trkpt lat="45.49477202628209" lon="8.718970152410137"><ele>156.8</ele><time>2026-04-26T15:02:37Z</time></trkpt><trkpt lat="45.4949237229043" lon="8.718941499932487"><ele>157.20000000000002</ele><time>2026-04-26T15:02:41Z</time></trkpt><trkpt lat="45.49499487884037" lon="8.718978701620422"><ele>157.6</ele><time>2026-04-26T15:02:42Z</time></trkpt><trkpt lat="45.49508143127677" lon="8.719004774188285"><ele>158.0</ele><time>2026-04-26T15:02:43Z</time></trkpt><trkpt lat="45.49517709504889" lon="8.719029457141795"><ele>158.0</ele><time>2026-04-26T15:02:44Z</time></trkpt><trkpt lat="45.495276372973905" lon="8.719045713545729"><ele>158.0</ele><time>2026-04-26T15:02:45Z</time></trkpt><trkpt lat="45.495385014159176" lon="8.71906130040361"><ele>158.0</ele><time>2026-04-26T15:02:46Z</time></trkpt><trkpt lat="45.49551353364662" lon="8.719076545845937"><ele>158.0</ele><time>2026-04-26T15:02:47Z</time></trkpt><trkpt lat="45.49567204773427" lon="8.719088791784875"><ele>158.25</ele><time>2026-04-26T15:02:48Z</time></trkpt><trkpt lat="45.49583104490869" lon="8.719110663621676"><ele>158.5</ele><time>2026-04-26T15:02:49Z</time></trkpt><trkpt lat="45.49597892605455" lon="8.719133327209306"><ele>158.75</ele><time>2026-04-26T15:02:50Z</time></trkpt><trkpt lat="45.496113942809515" lon="8.719153236763864"><ele>159.0</ele><time>2026-04-26T15:02:51Z</time></trkpt><trkpt lat="45.496239947371045" lon="8.719168187594525"><ele>159.5</ele><time>2026-04-26T15:02:52Z</time></trkpt><trkpt lat="45.496374362950704" lon="8.719183369687917"><ele>160.0</ele><time>2026-04-26T15:02:53Z</time></trkpt><trkpt lat="45.49651452769004" lon="8.7191983253581"><ele>160.5</ele><time>2026-04-26T15:02:54Z</time></trkpt><trkpt lat="45.4966574693276" lon="8.71921793637037"><ele>161.0</ele><time>2026-04-26T15:02:55Z</time></trkpt><trkpt lat="45.49680820211566" lon="8.719238154252636"><ele>161.0</ele><time>2026-04-26T15:02:56Z</time></trkpt><trkpt lat="45.49695994585715" lon="8.719252163941348"><ele>161.0</ele><time>2026-04-26T15:02:57Z</time></trkpt><trkpt lat="45.4971108236361" lon="8.719271917047946"><ele>161.0</ele><time>2026-04-26T15:02:58Z</time></trkpt><trkpt lat="45.49724945317739" lon="8.719291087925725"><ele>161.0</ele><time>2026-04-26T15:02:59Z</time></trkpt><trkpt lat="45.497382658111356" lon="8.719310210256042"><ele>161.25</ele><time>2026-04-26T15:03:00Z</time></trkpt><trkpt lat="45.49752152382861" lon="8.71932424191369"><ele>161.5</ele><time>2026-04-26T15:03:01Z</time></trkpt><trkpt lat="45.49766000203082" lon="8.719341226886554"><ele>161.75</ele><time>2026-04-26T15:03:02Z</time></trkpt><trkpt lat="45.49779799878554" lon="8.719361832741209"><ele>162.0</ele><time>2026-04-26T15:03:03Z</time></trkpt><trkpt lat="45.49794036834059" lon="8.71938544379531"><ele>162.0</ele><time>2026-04-26T15:03:04Z</time></trkpt><trkpt lat="45.49808624190054" lon="8.719405216258263"><ele>162.0</ele><time>2026-04-26T15:03:05Z</time></trkpt><trkpt lat="45.49822480864395" lon="8.719421676467835"><ele>162.0</ele><time>2026-04-26T15:03:06Z</time></trkpt><trkpt lat="45.49836312794928" lon="8.719438655430858"><ele>162.0</ele><time>2026-04-26T15:03:07Z</time></trkpt><trkpt lat="45.49848939432893" lon="8.719455908148818"><ele>162.0</ele><time>2026-04-26T15:03:08Z</time></trkpt><trkpt lat="45.49861084569456" lon="8.719467211613223"><ele>162.0</ele><time>2026-04-26T15:03:09Z</time></trkpt><trkpt lat="45.49873738960353" lon="8.719478157696287"><ele>162.0</ele><time>2026-04-26T15:03:10Z</time></trkpt><trkpt lat="45.498934452078174" lon="8.719509725728177"><ele>162.0</ele><time>2026-04-26T15:03:11Z</time></trkpt><trkpt lat="45.499079356017035" lon="8.719527836719019"><ele>161.66666666666666</ele><time>2026-04-26T15:03:12Z</time></trkpt><trkpt lat="45.49922520063688" lon="8.719547542293839"><ele>161.33333333333331</ele><time>2026-04-26T15:03:13Z</time></trkpt><trkpt lat="45.49937982670175" lon="8.719564688169497"><ele>161.0</ele><time>2026-04-26T15:03:14Z</time></trkpt><trkpt lat="45.49952917898467" lon="8.719583838980007"><ele>160.5</ele><time>2026-04-26T15:03:15Z</time></trkpt><trkpt lat="45.49967293981388" lon="8.719598769469881"><ele>160.0</ele><time>2026-04-26T15:03:16Z</time></trkpt><trkpt lat="45.4998022046537" lon="8.719615447815544"><ele>159.5</ele><time>2026-04-26T15:03:17Z</time></trkpt><trkpt lat="45.49992565737261" lon="8.719636572057546"><ele>159.0</ele><time>2026-04-26T15:03:18Z</time></trkpt><trkpt lat="45.500035506076884" lon="8.719647148652049"><ele>159.0</ele><time>2026-04-26T15:03:19Z</time></trkpt><trkpt lat="45.500145848106335" lon="8.719665006373395"><ele>159.0</ele><time>2026-04-26T15:03:20Z</time></trkpt><trkpt lat="45.50026710333002" lon="8.719690895473365"><ele>159.0</ele><time>2026-04-26T15:03:21Z</time></trkpt><trkpt lat="45.50039067358839" lon="8.719706343344102"><ele>159.0</ele><time>2026-04-26T15:03:22Z</time></trkpt><trkpt lat="45.50052078877863" lon="8.719721433939233"><ele>159.25</ele><time>2026-04-26T15:03:23Z</time></trkpt><trkpt lat="45.500646604752234" lon="8.719735003959338"><ele>159.5</ele><time>2026-04-26T15:03:24Z</time></trkpt><trkpt lat="45.50076261298126" lon="8.719753188262096"><ele>159.75</ele><time>2026-04-26T15:03:25Z</time></trkpt><trkpt lat="45.50087576061852" lon="8.719767871100975"><ele>160.0</ele><time>2026-04-26T15:03:26Z</time></trkpt><trkpt lat="45.5009878527587" lon="8.719782211593028"><ele>160.0</ele><time>2026-04-26T15:03:27Z</time></trkpt><trkpt lat="45.50109983814857" lon="8.71979593521042"><ele>160.0</ele><time>2026-04-26T15:03:28Z</time></trkpt><trkpt lat="45.501195239668874" lon="8.719813592770512"><ele>160.0</ele><time>2026-04-26T15:03:29Z</time></trkpt><trkpt lat="45.50128869525876" lon="8.71982478896335"><ele>160.0</ele><time>2026-04-26T15:03:30Z</time></trkpt><trkpt lat="45.50138185714972" lon="8.719838558397532"><ele>160.0</ele><time>2026-04-26T15:03:31Z</time></trkpt><trkpt lat="45.50148036655687" lon="8.719848866927494"><ele>161.0</ele><time>2026-04-26T15:03:32Z</time></trkpt><trkpt lat="45.50158358123015" lon="8.719860050857404"><ele>162.0</ele><time>2026-04-26T15:03:33Z</time></trkpt><trkpt lat="45.50169537906383" lon="8.719868058650237"><ele>163.0</ele><time>2026-04-26T15:03:34Z</time></trkpt><trkpt lat="45.50180418296415" lon="8.719885183303715"><ele>164.0</ele><time>2026-04-26T15:03:35Z</time></trkpt><trkpt lat="45.501913103948915" lon="8.719897716708832"><ele>165.0</ele><time>2026-04-26T15:03:36Z</time></trkpt><trkpt lat="45.50201705124843" lon="8.719910682476385"><ele>165.0</ele><time>2026-04-26T15:03:37Z</time></trkpt><trkpt lat="45.502115638535734" lon="8.719926446106166"><ele>165.0</ele><time>2026-04-26T15:03:38Z</time></trkpt><trkpt lat="45.50222545757346" lon="8.71994355455635"><ele>165.0</ele><time>2026-04-26T15:03:39Z</time></trkpt><trkpt lat="45.5023370781323" lon="8.719959152849796"><ele>165.0</ele><time>2026-04-26T15:03:40Z</time></trkpt><trkpt lat="45.50245212871353" lon="8.719971726436343"><ele>165.0</ele><time>2026-04-26T15:03:41Z</time></trkpt><trkpt lat="45.50256408704601" lon="8.719983846318087"><ele>165.0</ele><time>2026-04-26T15:03:42Z</time></trkpt><trkpt lat="45.50268832965461" lon="8.719997150708009"><ele>165.0</ele><time>2026-04-26T15:03:43Z</time></trkpt><trkpt lat="45.502808495123055" lon="8.720012311762844"><ele>165.0</ele><time>2026-04-26T15:03:44Z</time></trkpt><trkpt lat="45.50292956370182" lon="8.72002542245581"><ele>165.0</ele><time>2026-04-26T15:03:45Z</time></trkpt><trkpt lat="45.503055190156005" lon="8.720044039884993"><ele>164.4</ele><time>2026-04-26T15:03:46Z</time></trkpt><trkpt lat="45.50317328189436" lon="8.720063779825471"><ele>163.8</ele><time>2026-04-26T15:03:47Z</time></trkpt><trkpt lat="45.50328078846039" lon="8.720079214947248"><ele>163.2</ele><time>2026-04-26T15:03:48Z</time></trkpt><trkpt lat="45.50338691138381" lon="8.720089651909527"><ele>162.6</ele><time>2026-04-26T15:03:49Z</time></trkpt><trkpt lat="45.503489176031515" lon="8.720101364743506"><ele>162.0</ele><time>2026-04-26T15:03:50Z</time></trkpt><trkpt lat="45.503598958006286" lon="8.72011523377936"><ele>162.0</ele><time>2026-04-26T15:03:51Z</time></trkpt><trkpt lat="45.50372587201139" lon="8.720098095092375"><ele>162.0</ele><time>2026-04-26T15:03:52Z</time></trkpt><trkpt lat="45.50385617955551" lon="8.720052488628728"><ele>162.0</ele><time>2026-04-26T15:03:53Z</time></trkpt><trkpt lat="45.50399279654717" lon="8.719977002742999"><ele>162.0</ele><time>2026-04-26T15:03:54Z</time></trkpt><trkpt lat="45.50413462647213" lon="8.719863810664279"><ele>157.0</ele><time>2026-04-26T15:03:55Z</time></trkpt><trkpt lat="45.50427504095828" lon="8.719723580018334"><ele>152.0</ele><time>2026-04-26T15:03:56Z</time></trkpt><trkpt lat="45.50440942271197" lon="8.719590420250714"><ele>147.0</ele><time>2026-04-26T15:03:57Z</time></trkpt><trkpt lat="45.504539853404495" lon="8.719454113233622"><ele>146.25</ele><time>2026-04-26T15:03:58Z</time></trkpt><trkpt lat="45.50466062648524" lon="8.719340785018222"><ele>145.5</ele><time>2026-04-26T15:03:59Z</time></trkpt><trkpt lat="45.504778901602286" lon="8.719229089669238"><ele>144.75</ele><time>2026-04-26T15:04:00Z</time></trkpt><trkpt lat="45.50489943100635" lon="8.719119173880813"><ele>144.0</ele><time>2026-04-26T15:04:01Z</time></trkpt><trkpt lat="45.50502899009739" lon="8.718994502476248"><ele>144.0</ele><time>2026-04-26T15:04:02Z</time></trkpt><trkpt lat="45.505167402780835" lon="8.71887468452816"><ele>144.0</ele><time>2026-04-26T15:04:03Z</time></trkpt><trkpt lat="45.505298250482504" lon="8.718758803891554"><ele>144.0</ele><time>2026-04-26T15:04:04Z</time></trkpt><trkpt lat="45.50542575831562" lon="8.718648962637785"><ele>142.25</ele><time>2026-04-26T15:04:05Z</time></trkpt><trkpt lat="45.50555045678872" lon="8.71853879502803"><ele>140.5</ele><time>2026-04-26T15:04:06Z</time></trkpt><trkpt lat="45.5056702656939" lon="8.718446930540232"><ele>138.75</ele><time>2026-04-26T15:04:07Z</time></trkpt><trkpt lat="45.50577651773094" lon="8.718352730390382"><ele>137.0</ele><time>2026-04-26T15:04:08Z</time></trkpt><trkpt lat="45.50587495913306" lon="8.71826572161463"><ele>137.0</ele><time>2026-04-26T15:04:09Z</time></trkpt><trkpt lat="45.50597054525875" lon="8.7181785399566"><ele>137.0</ele><time>2026-04-26T15:04:10Z</time></trkpt><trkpt lat="45.50606831663084" lon="8.718126267377528"><ele>137.0</ele><time>2026-04-26T15:04:11Z</time></trkpt><trkpt lat="45.506172605098975" lon="8.718108153386789"><ele>137.0</ele><time>2026-04-26T15:04:12Z</time></trkpt><trkpt lat="45.50628446205248" lon="8.71813893485493"><ele>137.0</ele><time>2026-04-26T15:04:13Z</time></trkpt><trkpt lat="45.506389319086544" lon="8.718237906114458"><ele>136.33333333333331</ele><time>2026-04-26T15:04:14Z</time></trkpt><trkpt lat="45.50652245030721" lon="8.718343329707867"><ele>135.66666666666666</ele><time>2026-04-26T15:04:15Z</time></trkpt><trkpt lat="45.50665875375245" lon="8.718483314576087"><ele>135.0</ele><time>2026-04-26T15:04:16Z</time></trkpt><trkpt lat="45.50678168717326" lon="8.71859968551859"><ele>134.5</ele><time>2026-04-26T15:04:17Z</time></trkpt><trkpt lat="45.506898952840494" lon="8.71869842313988"><ele>134.0</ele><time>2026-04-26T15:04:18Z</time></trkpt><trkpt lat="45.50700382882109" lon="8.71878189688499"><ele>133.5</ele><time>2026-04-26T15:04:19Z</time></trkpt><trkpt lat="45.507101521786325" lon="8.718861568054134"><ele>133.0</ele><time>2026-04-26T15:04:20Z</time></trkpt><trkpt lat="45.507197522260164" lon="8.718940959642177"><ele>133.0</ele><time>2026-04-26T15:04:21Z</time></trkpt><trkpt lat="45.50729231932682" lon="8.719024987165119"><ele>133.0</ele><time>2026-04-26T15:04:22Z</time></trkpt><trkpt lat="45.50738609727158" lon="8.719121695212053"><ele>133.0</ele><time>2026-04-26T15:04:23Z</time></trkpt><trkpt lat="45.507476730910085" lon="8.719210781681"><ele>133.0</ele><time>2026-04-26T15:04:24Z</time></trkpt><trkpt lat="45.507568041669" lon="8.719289995685225"><ele>133.0</ele><time>2026-04-26T15:04:25Z</time></trkpt><trkpt lat="45.50764894595297" lon="8.719362170638433"><ele>132.6</ele><time>2026-04-26T15:04:26Z</time></trkpt><trkpt lat="45.50773046862124" lon="8.719428374601984"><ele>132.20000000000002</ele><time>2026-04-26T15:04:27Z</time></trkpt><trkpt lat="45.50781539922508" lon="8.719495505203108"><ele>131.8</ele><time>2026-04-26T15:04:28Z</time></trkpt><trkpt lat="45.50790675700946" lon="8.719550005419618"><ele>131.4</ele><time>2026-04-26T15:04:29Z</time></trkpt><trkpt lat="45.507992843860684" lon="8.719572973384814"><ele>131.0</ele><time>2026-04-26T15:04:30Z</time></trkpt><trkpt lat="45.5080739391547" lon="8.719565411983108"><ele>130.8</ele><time>2026-04-26T15:04:31Z</time></trkpt><trkpt lat="45.50814836870813" lon="8.719567782958991"><ele>130.6</ele><time>2026-04-26T15:04:32Z</time></trkpt><trkpt lat="45.50822883638226" lon="8.71962435087883"><ele>130.4</ele><time>2026-04-26T15:04:33Z</time></trkpt><trkpt lat="45.50830311777059" lon="8.719708471855272"><ele>130.2</ele><time>2026-04-26T15:04:34Z</time></trkpt><trkpt lat="45.508385015274115" lon="8.719794394337546"><ele>130.0</ele><time>2026-04-26T15:04:35Z</time></trkpt><trkpt lat="45.50847012243031" lon="8.719867904296509"><ele>130.0</ele><time>2026-04-26T15:04:36Z</time></trkpt><trkpt lat="45.50853094012587" lon="8.719929122294085"><ele>130.0</ele><time>2026-04-26T15:04:37Z</time></trkpt><trkpt lat="45.50859147321296" lon="8.719985978974556"><ele>130.0</ele><time>2026-04-26T15:04:38Z</time></trkpt><trkpt lat="45.508659501215114" lon="8.720045088485076"><ele>130.0</ele><time>2026-04-26T15:04:39Z</time></trkpt><trkpt lat="45.508725796284786" lon="8.720106384256365"><ele>130.0</ele><time>2026-04-26T15:04:40Z</time></trkpt><trkpt lat="45.508802397162306" lon="8.72017844220874"><ele>130.0</ele><time>2026-04-26T15:04:41Z</time></trkpt><trkpt lat="45.50888322140672" lon="8.720245646180809"><ele>130.5</ele><time>2026-04-26T15:04:42Z</time></trkpt><trkpt lat="45.508955159399825" lon="8.720315356243956"><ele>131.0</ele><time>2026-04-26T15:04:43Z</time></trkpt><trkpt lat="45.5090442665655" lon="8.720391284120218"><ele>131.5</ele><time>2026-04-26T15:04:44Z</time></trkpt><trkpt lat="45.50912707475218" lon="8.720469144375757"><ele>132.0</ele><time>2026-04-26T15:04:45Z</time></trkpt><trkpt lat="45.509193013969345" lon="8.720527659811479"><ele>132.5</ele><time>2026-04-26T15:04:46Z</time></trkpt><trkpt lat="45.50924843291164" lon="8.720580917587634"><ele>133.0</ele><time>2026-04-26T15:04:47Z</time></trkpt><trkpt lat="45.509380611498976" lon="8.720635752239813"><ele>133.0</ele><time>2026-04-26T15:04:49Z</time></trkpt><trkpt lat="45.50945593386159" lon="8.720625181037267"><ele>133.0</ele><time>2026-04-26T15:04:50Z</time></trkpt><trkpt lat="45.509539619909965" lon="8.720643702409742"><ele>133.0</ele><time>2026-04-26T15:04:51Z</time></trkpt><trkpt lat="45.509624666366264" lon="8.72070037910186"><ele>133.0</ele><time>2026-04-26T15:04:52Z</time></trkpt><trkpt lat="45.50971388024291" lon="8.720777598274644"><ele>133.0</ele><time>2026-04-26T15:04:53Z</time></trkpt><trkpt lat="45.50980843689105" lon="8.72085983521836"><ele>133.25</ele><time>2026-04-26T15:04:54Z</time></trkpt><trkpt lat="45.50990521344151" lon="8.720943921209285"><ele>133.5</ele><time>2026-04-26T15:04:55Z</time></trkpt><trkpt lat="45.51000673815193" lon="8.721033433573927"><ele>133.75</ele><time>2026-04-26T15:04:56Z</time></trkpt><trkpt lat="45.51012126119655" lon="8.721137179931405"><ele>134.0</ele><time>2026-04-26T15:04:57Z</time></trkpt><trkpt lat="45.51023550337657" lon="8.721241057604072"><ele>134.0</ele><time>2026-04-26T15:04:58Z</time></trkpt><trkpt lat="45.51034608476392" lon="8.721339922206191"><ele>134.0</ele><time>2026-04-26T15:04:59Z</time></trkpt><trkpt lat="45.51045959457496" lon="8.72143912128356"><ele>134.0</ele><time>2026-04-26T15:05:00Z</time></trkpt><trkpt lat="45.510574737985806" lon="8.721542901075543"><ele>134.0</ele><time>2026-04-26T15:05:01Z</time></trkpt><trkpt lat="45.51069220996913" lon="8.721652414266568"><ele>134.0</ele><time>2026-04-26T15:05:02Z</time></trkpt><trkpt lat="45.5108117318525" lon="8.72176127182246"><ele>134.0</ele><time>2026-04-26T15:05:03Z</time></trkpt><trkpt lat="45.51093452422652" lon="8.721867804760024"><ele>134.0</ele><time>2026-04-26T15:05:04Z</time></trkpt><trkpt lat="45.511058723600215" lon="8.721975764405615"><ele>134.0</ele><time>2026-04-26T15:05:05Z</time></trkpt><trkpt lat="45.51117902566448" lon="8.722082443982941"><ele>134.33333333333331</ele><time>2026-04-26T15:05:06Z</time></trkpt><trkpt lat="45.51130463931058" lon="8.722193767987495"><ele>134.66666666666666</ele><time>2026-04-26T15:05:07Z</time></trkpt><trkpt lat="45.51143731192949" lon="8.722313506948076"><ele>135.0</ele><time>2026-04-26T15:05:08Z</time></trkpt><trkpt lat="45.51157099207264" lon="8.722437246354744"><ele>135.0</ele><time>2026-04-26T15:05:09Z</time></trkpt><trkpt lat="45.51170811173502" lon="8.722564717165174"><ele>135.0</ele><time>2026-04-26T15:05:10Z</time></trkpt><trkpt lat="45.51184843267731" lon="8.72269256125625"><ele>135.0</ele><time>2026-04-26T15:05:11Z</time></trkpt><trkpt lat="45.511994111102545" lon="8.72282656466837"><ele>135.66666666666666</ele><time>2026-04-26T15:05:12Z</time></trkpt><trkpt lat="45.51213987608331" lon="8.722959263927747"><ele>136.33333333333331</ele><time>2026-04-26T15:05:13Z</time></trkpt><trkpt lat="45.51228904965354" lon="8.723095101446471"><ele>137.0</ele><time>2026-04-26T15:05:14Z</time></trkpt><trkpt lat="45.51244098179711" lon="8.72323025232626"><ele>137.0</ele><time>2026-04-26T15:05:15Z</time></trkpt><trkpt lat="45.51258845785599" lon="8.723365012863049"><ele>137.0</ele><time>2026-04-26T15:05:16Z</time></trkpt><trkpt lat="45.51273482566895" lon="8.723496607926952"><ele>137.0</ele><time>2026-04-26T15:05:17Z</time></trkpt><trkpt lat="45.51288341142059" lon="8.723631595724804"><ele>136.0</ele><time>2026-04-26T15:05:18Z</time></trkpt><trkpt lat="45.51303198109163" lon="8.723770941659494"><ele>135.0</ele><time>2026-04-26T15:05:19Z</time></trkpt><trkpt lat="45.513181516778566" lon="8.723903812593552"><ele>134.0</ele><time>2026-04-26T15:05:20Z</time></trkpt><trkpt lat="45.513332154198196" lon="8.724039507790406"><ele>134.0</ele><time>2026-04-26T15:05:21Z</time></trkpt><trkpt lat="45.51348063251482" lon="8.724173613212013"><ele>134.0</ele><time>2026-04-26T15:05:22Z</time></trkpt><trkpt lat="45.51363374972551" lon="8.724312324913003"><ele>134.0</ele><time>2026-04-26T15:05:23Z</time></trkpt><trkpt lat="45.51378786772721" lon="8.724457815621559"><ele>134.33333333333331</ele><time>2026-04-26T15:05:24Z</time></trkpt><trkpt lat="45.51394341919772" lon="8.724605413583003"><ele>134.66666666666666</ele><time>2026-04-26T15:05:25Z</time></trkpt><trkpt lat="45.5140997921157" lon="8.724747328761971"><ele>135.0</ele><time>2026-04-26T15:05:26Z</time></trkpt><trkpt lat="45.51425601014981" lon="8.7248887930348"><ele>135.0</ele><time>2026-04-26T15:05:27Z</time></trkpt><trkpt lat="45.5144190499441" lon="8.72503560724602"><ele>135.0</ele><time>2026-04-26T15:05:28Z</time></trkpt><trkpt lat="45.51458105354435" lon="8.725185646966553"><ele>135.0</ele><time>2026-04-26T15:05:29Z</time></trkpt><trkpt lat="45.51474432526731" lon="8.725335537107938"><ele>135.66666666666666</ele><time>2026-04-26T15:05:30Z</time></trkpt><trkpt lat="45.51491137478139" lon="8.725486579254419"><ele>136.33333333333331</ele><time>2026-04-26T15:05:31Z</time></trkpt><trkpt lat="45.51506993996515" lon="8.725633409917537"><ele>137.0</ele><time>2026-04-26T15:05:32Z</time></trkpt><trkpt lat="45.51523407416339" lon="8.725781350891227"><ele>137.0</ele><time>2026-04-26T15:05:33Z</time></trkpt><trkpt lat="45.51538940022598" lon="8.725928018241186"><ele>137.0</ele><time>2026-04-26T15:05:34Z</time></trkpt><trkpt lat="45.515540895266255" lon="8.72606435130832"><ele>137.0</ele><time>2026-04-26T15:05:35Z</time></trkpt><trkpt lat="45.51569714655601" lon="8.726187942939218"><ele>136.66666666666666</ele><time>2026-04-26T15:05:36Z</time></trkpt><trkpt lat="45.51585861749291" lon="8.726292191683571"><ele>136.33333333333334</ele><time>2026-04-26T15:05:37Z</time></trkpt><trkpt lat="45.516027207520594" lon="8.726372163351844"><ele>136.0</ele><time>2026-04-26T15:05:38Z</time></trkpt><trkpt lat="45.516205143718814" lon="8.72643719941188"><ele>136.0</ele><time>2026-04-26T15:05:39Z</time></trkpt></trkseg></trk></gpx>